ECMWFFLT2_sfc_thetae_003.txt.gz
Theta_e
316 315 318 317 317 305 311 312 307 311 316 313 309 310 309 309 305 304 311 310 312 316 316 318 321 320 321 322 323 323 326 327 329 334 339 339 338 338 342 344 342 341 341 349 346 347 346 347 346 346 349 351 349 347 345 346 346 346 345 345 344 344 343
317 319 318 317 317 317 314 307 312 317 318 316 311 303 307 304 300 303 308 306 308 308 305 319 318 318 318 320 322 322 325 328 330 331 339 341 339 339 343 346 341 339 342 346 345 349 348 342 341 346 351 352 349 347 346 346 345 346 346 346 344 345 344
316 318 317 315 318 318 313 312 319 310 305 304 309 307 300 300 299 301 305 307 308 309 311 314 315 315 316 319 322 322 322 326 330 333 334 338 340 337 339 344 344 338 341 347 348 350 346 344 345 344 350 350 347 347 346 346 346 346 346 346 346 346 343
316 316 314 307 310 316 318 318 315 317 313 309 306 307 307 307 300 301 302 306 303 313 313 316 315 318 318 317 320 320 321 323 327 332 335 336 339 338 337 341 344 343 343 345 346 340 340 340 339 342 346 346 342 344 346 346 346 347 347 347 345 343 344
315 308 312 309 311 309 310 311 311 312 311 314 313 311 307 305 303 303 301 300 305 313 316 316 317 317 318 318 319 322 322 323 325 329 334 338 341 345 343 340 339 345 342 345 345 346 343 339 341 344 344 341 340 342 343 343 345 345 344 345 345 345 344
309 310 315 314 313 314 311 310 309 311 309 307 303 303 312 309 304 298 300 300 309 316 320 319 317 319 319 321 321 322 324 323 326 328 333 340 341 341 346 344 347 344 345 343 342 345 342 340 342 341 342 342 340 342 342 341 340 340 341 344 345 345 344
311 313 316 317 316 317 316 314 311 313 313 311 306 298 305 308 308 309 308 304 308 317 320 320 321 321 320 322 322 323 323 326 326 328 329 339 345 346 344 344 343 345 343 341 342 343 343 345 345 343 344 341 341 342 343 342 340 341 340 343 345 347 345
314 316 317 317 317 315 314 315 315 313 310 311 309 309 311 307 308 305 305 303 308 319 323 322 322 324 322 325 323 323 324 325 328 330 332 339 346 348 348 343 341 342 341 344 345 342 344 347 347 346 343 344 342 341 341 341 338 339 338 337 339 344 344
308 310 314 313 316 315 312 312 314 314 314 313 312 312 315 308 307 308 304 299 307 321 326 325 321 321 320 321 323 325 324 325 327 331 336 341 347 348 347 345 344 344 342 345 345 345 348 349 346 348 345 343 342 341 339 337 338 339 339 339 337 339 343
298 299 300 302 306 309 311 313 314 315 313 313 311 306 309 302 309 311 305 305 310 320 323 321 321 321 322 323 323 323 327 327 325 330 337 344 348 350 349 345 342 340 343 346 348 348 348 347 347 348 348 343 342 341 341 339 338 340 340 340 339 339 338
304 307 312 315 314 312 307 310 311 312 314 314 313 311 308 304 306 305 307 311 310 316 318 318 319 321 320 320 323 323 324 326 328 332 335 340 348 351 350 347 344 347 348 346 346 347 346 347 348 346 344 342 341 343 341 338 339 339 340 341 342 340 339
312 313 314 314 314 310 311 309 309 311 312 313 311 308 306 314 308 302 307 312 310 311 315 317 319 320 322 322 324 323 324 326 327 330 341 345 342 350 353 348 346 347 348 347 347 347 347 347 347 346 345 342 342 342 340 338 337 337 338 341 342 341 340
312 313 313 314 313 313 312 312 311 311 312 312 310 312 311 315 308 306 312 314 314 314 316 317 319 321 322 321 322 324 325 326 329 332 336 337 336 344 350 351 349 349 347 348 348 350 351 350 347 346 346 345 345 345 341 341 337 339 342 343 343 342 342
312 312 312 313 312 312 312 311 312 312 312 311 311 311 313 312 315 314 316 318 314 316 317 319 320 323 323 323 325 325 324 323 327 327 330 338 337 340 347 351 351 351 351 352 353 354 353 348 347 347 347 345 343 343 341 340 340 341 343 344 344 343 340
310 312 313 312 312 312 310 312 312 312 312 312 312 312 313 313 314 313 313 315 314 319 323 322 323 326 325 325 322 321 324 324 322 323 324 330 335 336 341 352 352 353 354 355 355 354 349 347 348 348 346 345 345 341 338 337 340 341 341 344 344 344 341
308 311 312 311 312 311 310 310 311 312 311 310 311 311 314 313 312 314 313 313 312 318 321 321 323 324 325 323 323 322 323 323 324 323 325 330 335 338 342 347 353 354 354 356 356 352 348 347 348 347 346 346 341 338 337 337 338 340 342 342 342 344 343
306 310 311 310 311 309 306 308 310 312 313 313 313 314 315 315 314 311 309 311 317 318 321 319 321 321 322 321 321 323 326 330 329 329 332 333 332 335 341 345 351 353 354 356 356 353 349 348 346 346 346 343 342 338 339 340 342 341 341 340 341 343 344
306 309 310 311 306 299 301 314 316 315 312 313 311 311 313 316 317 315 316 316 320 320 319 319 319 319 320 322 326 328 327 326 329 331 332 332 331 334 338 344 348 352 355 355 356 354 351 350 346 346 347 345 341 340 337 340 341 342 341 341 342 342 343
305 309 310 305 299 300 314 317 317 317 316 315 314 314 315 315 318 318 317 318 318 320 320 321 322 323 324 325 326 326 326 331 332 331 330 336 338 338 342 345 348 352 355 355 356 354 351 348 348 346 341 340 342 338 339 339 341 342 340 339 340 340 340
309 307 307 298 300 312 315 318 319 320 318 317 316 313 315 317 316 319 317 319 320 321 321 321 323 324 324 324 326 327 327 329 333 331 330 333 336 339 343 348 350 353 353 353 353 354 352 349 344 342 340 338 337 338 339 338 340 341 341 340 339 340 339
304 306 305 306 316 312 315 315 316 316 314 315 313 307 312 318 319 319 318 320 321 321 322 321 322 324 323 321 321 324 325 332 333 332 334 333 337 341 346 347 349 354 355 355 352 353 350 346 341 341 338 337 338 338 337 336 339 338 338 339 339 339 338
310 305 303 305 304 301 309 317 319 320 319 319 319 316 312 319 320 321 320 320 320 320 320 320 322 325 319 314 316 323 326 330 334 334 335 335 340 343 345 350 350 354 354 353 354 351 347 345 342 340 338 337 338 338 337 335 335 335 336 336 337 339 339
308 306 302 301 300 304 313 317 319 320 321 319 321 313 308 319 320 320 319 318 321 320 319 321 323 319 313 313 319 327 327 327 328 332 334 334 339 344 346 346 348 349 353 353 353 351 347 341 340 340 340 338 336 336 336 333 334 334 336 336 335 336 338
309 307 304 302 307 305 314 314 316 319 322 321 317 304 305 317 318 320 321 320 320 320 322 322 321 318 312 314 321 325 326 326 329 337 339 340 342 345 347 349 352 355 355 354 350 344 340 341 342 343 338 336 337 335 334 333 332 333 336 338 339 339 339
306 305 305 307 309 317 316 316 319 321 321 318 307 299 309 318 321 321 322 320 320 322 322 322 317 322 323 324 325 325 327 327 333 339 342 344 343 344 344 348 352 353 353 352 345 343 344 345 341 339 337 335 335 338 341 340 338 337 339 340 341 341 340
304 305 303 304 308 316 318 321 319 320 315 305 304 317 325 322 321 323 321 321 322 322 322 322 322 323 324 325 326 327 326 328 338 339 341 341 341 343 346 352 352 353 351 351 346 341 344 343 340 337 339 340 339 342 342 340 341 340 342 340 340 340 340
307 307 303 300 295 319 320 318 317 319 311 319 323 326 325 322 323 322 323 322 324 323 323 323 324 324 323 324 326 327 328 331 338 339 341 342 340 340 349 351 353 349 347 343 338 338 338 338 338 337 337 339 340 342 342 344 345 345 342 340 340 340 341
303 302 300 299 315 319 321 318 313 316 319 325 327 324 320 325 324 324 323 324 325 325 325 325 325 326 325 326 328 330 332 334 337 340 344 344 341 345 346 344 346 342 344 341 337 338 335 338 339 338 340 340 340 341 343 347 348 348 345 341 341 340 339
308 309 312 317 324 321 321 323 321 324 325 326 325 325 323 323 322 325 323 324 325 327 327 327 328 325 324 326 328 330 332 331 336 341 342 339 339 339 334 335 342 338 339 341 335 337 336 338 344 347 347 347 347 347 349 349 346 347 346 343 339 337 340
320 320 321 321 321 321 322 321 323 322 322 325 324 326 325 328 329 329 325 326 326 327 328 326 329 327 326 328 331 329 331 334 338 341 341 341 340 335 336 339 341 339 340 340 337 336 345 347 348 346 347 346 347 348 347 348 348 346 346 346 345 343 340
309 305 320 318 318 319 320 321 322 322 321 322 324 327 328 328 328 328 332 332 333 332 332 330 330 329 327 328 331 332 335 334 338 338 340 339 337 337 339 344 344 339 336 334 335 340 341 345 344 340 341 344 345 345 345 344 348 348 348 344 340 338 334
311 314 317 320 319 322 322 321 320 319 320 323 326 327 329 329 329 329 330 332 331 331 328 330 330 330 328 328 332 333 335 337 339 342 343 342 343 345 346 344 343 341 339 336 335 336 337 340 343 341 338 338 341 343 338 338 341 344 344 341 337 336 333
315 318 319 319 321 320 321 321 321 320 321 322 324 325 326 326 326 329 329 328 329 330 328 330 332 330 330 332 337 329 335 337 338 340 344 345 342 340 340 341 343 341 340 339 341 340 342 342 341 341 339 335 332 337 338 337 338 339 338 337 336 334 333
310 314 316 318 312 311 316 319 318 321 322 323 323 323 323 324 326 328 327 327 330 330 330 333 332 332 332 333 331 328 333 334 335 338 340 338 336 336 341 342 343 343 342 340 340 341 340 340 340 339 339 338 334 327 330 337 338 338 337 334 331 330 328
309 315 316 318 319 319 319 319 320 322 324 325 322 321 321 322 324 324 327 327 330 332 333 334 334 334 333 333 332 331 334 335 336 340 336 335 336 336 338 337 339 340 340 340 341 340 340 338 338 336 337 335 336 330 337 336 336 338 337 333 330 327 327
315 315 315 317 317 314 317 319 321 321 326 324 320 321 322 323 323 324 326 329 331 333 333 330 333 335 332 332 330 334 335 336 338 335 333 335 336 331 334 337 338 337 336 337 337 337 336 335 334 335 330 331 335 330 335 335 336 338 336 332 330 327 327
311 313 314 316 316 317 318 320 321 321 324 323 320 320 321 321 322 324 325 329 331 332 332 332 331 333 330 331 329 336 336 334 334 334 336 335 332 329 329 333 335 336 336 335 336 335 335 333 333 332 331 332 334 333 335 334 335 335 336 336 332 330 331

ECMWFFLT2_sfc_thetae_006.txt.gz
Theta_e
315 316 318 317 317 304 310 311 306 309 316 313 308 309 308 308 305 303 311 309 312 317 316 318 319 319 321 322 321 320 326 325 335 334 334 333 333 334 336 337 339 347 346 347 348 350 349 348 351 352 353 353 352 351 350 352 352 352 350 350 349 350 351
316 318 318 318 317 316 313 306 310 315 317 315 310 302 307 303 299 303 306 304 306 307 304 321 317 317 317 319 319 319 325 326 326 330 337 338 341 343 343 340 343 346 346 350 347 350 350 351 350 352 354 353 353 351 350 351 351 348 349 348 349 348 349
315 318 316 314 318 318 312 311 318 308 303 303 311 307 298 298 299 301 305 307 307 308 309 313 316 314 316 320 323 321 320 321 326 326 335 339 343 340 344 346 345 343 348 348 348 348 348 350 353 353 354 352 351 350 349 348 349 349 349 346 349 351 351
315 315 313 305 309 316 317 317 314 316 311 308 307 306 307 306 299 300 301 304 303 313 313 314 314 318 320 319 321 319 320 322 325 328 329 337 337 337 339 337 343 343 344 345 344 348 347 349 351 350 350 348 346 346 348 348 348 350 350 350 351 350 349
314 307 310 308 310 308 309 310 308 311 310 314 311 310 306 304 302 301 300 299 307 315 318 317 318 320 322 319 320 325 324 324 322 328 330 337 343 342 339 343 345 342 340 342 347 348 351 353 351 347 346 346 346 345 344 344 347 347 347 348 349 349 349
308 310 314 313 313 313 311 309 308 310 308 306 303 302 310 308 303 298 300 300 308 315 319 322 319 320 318 320 320 326 325 321 331 334 331 337 341 341 340 337 341 338 341 348 346 346 348 347 345 343 345 347 346 343 341 341 342 342 342 347 349 348 349
308 312 316 317 316 316 314 312 310 312 311 311 306 298 303 308 307 309 308 303 305 322 322 322 322 320 320 321 321 322 323 327 326 329 325 340 345 344 339 341 341 340 344 347 348 349 347 346 345 344 344 345 345 342 341 342 342 342 342 343 347 350 348
313 315 317 317 316 315 312 313 314 311 308 309 308 307 311 306 307 304 304 303 306 318 333 324 322 325 320 327 322 321 321 325 329 328 330 343 348 347 343 341 342 341 343 348 349 349 349 348 347 344 345 347 344 339 337 339 340 342 342 343 343 348 348
307 309 312 312 315 314 310 310 312 312 312 312 312 312 318 307 307 306 304 298 308 319 328 327 323 320 320 320 321 324 325 327 325 332 340 337 351 347 347 347 346 345 344 345 348 347 347 346 345 344 343 346 344 342 338 339 339 341 342 344 343 344 344
297 297 298 301 305 308 310 312 311 312 311 311 309 305 311 301 311 314 305 305 312 319 326 320 319 321 322 321 321 322 329 332 326 326 330 350 353 351 350 350 351 348 348 348 349 349 347 346 346 346 346 345 343 342 341 342 341 341 342 340 344 343 341
304 306 312 313 313 311 306 309 310 310 313 313 312 314 311 303 305 305 307 313 312 314 316 317 318 322 319 319 323 325 324 329 337 338 341 344 353 352 350 355 350 352 352 350 348 349 349 347 347 348 345 345 343 346 345 343 342 342 341 339 342 340 340
312 311 315 312 311 309 311 309 309 311 311 312 310 308 305 317 312 301 310 314 312 312 316 318 321 322 327 330 331 323 327 330 329 336 341 344 336 350 353 353 350 349 351 349 348 348 348 347 346 350 348 347 346 347 343 340 340 342 340 343 342 342 342
311 311 311 312 312 311 310 311 311 310 311 310 308 311 312 318 308 304 316 317 314 315 315 317 321 328 331 320 323 325 327 326 337 342 338 332 333 341 350 355 351 349 352 349 347 346 346 345 345 348 347 347 349 345 342 350 341 344 344 344 342 341 344
310 310 310 312 310 310 311 311 311 311 311 310 310 310 310 311 317 316 321 320 316 314 316 318 321 328 324 325 327 329 327 323 337 335 333 325 332 334 345 347 350 354 350 352 352 348 346 346 347 347 347 347 346 342 343 341 347 347 344 344 343 343 343
308 310 312 312 311 310 309 311 311 311 311 311 311 310 310 312 312 312 312 321 318 319 329 325 325 338 328 328 322 321 331 327 323 325 324 330 330 332 338 350 349 348 348 348 351 351 348 347 349 348 348 346 343 337 335 338 343 343 342 345 345 345 345
306 309 309 310 311 310 309 309 310 311 310 309 310 310 312 311 313 317 314 314 313 318 323 321 326 327 328 323 326 328 328 324 327 331 329 329 329 335 340 340 348 349 348 351 350 349 348 348 350 349 347 344 340 337 338 339 339 341 342 345 344 346 346
304 309 310 309 310 308 305 306 308 310 311 312 312 313 315 315 314 316 311 310 319 326 326 322 323 319 324 325 324 327 332 335 330 332 332 332 334 340 345 350 350 351 349 352 352 350 348 348 348 347 347 340 337 338 341 342 342 338 339 343 345 347 347
305 308 309 310 306 299 301 314 315 314 311 311 310 310 312 315 320 315 317 320 323 321 320 319 320 321 325 329 334 334 332 330 335 330 330 329 329 333 335 338 343 353 353 350 354 356 346 347 348 349 344 339 340 339 339 338 337 337 341 343 346 346 346
304 308 309 303 298 300 314 316 316 316 315 314 312 312 314 314 325 320 316 317 320 324 321 323 326 329 330 327 328 324 323 337 332 333 328 336 336 336 337 342 339 356 355 355 355 347 346 347 345 343 340 339 338 339 338 337 335 337 341 341 344 345 345
308 305 304 297 298 312 313 315 317 318 316 315 314 312 315 316 315 323 317 318 319 323 323 322 325 325 324 325 335 337 328 326 326 322 325 328 329 331 337 344 347 357 356 357 351 348 348 348 348 344 338 337 335 335 336 333 333 337 343 344 343 344 344
302 303 303 303 317 313 312 312 313 314 314 315 313 307 313 319 319 318 318 319 320 320 321 323 324 326 322 322 325 324 322 329 326 324 327 326 328 332 345 338 344 362 360 358 353 352 351 350 350 342 338 337 335 332 333 331 332 338 342 343 343 343 343
310 303 302 303 303 301 306 318 318 320 320 319 319 316 311 321 319 320 320 322 325 323 320 323 324 326 318 316 317 324 324 324 327 328 331 329 332 334 337 348 347 363 362 362 356 353 352 352 350 344 340 336 334 332 331 331 335 339 339 339 341 343 343
307 304 301 301 299 305 314 316 318 319 321 320 319 313 307 318 320 321 319 319 323 321 320 323 326 318 312 313 320 326 325 326 327 328 329 328 329 335 339 343 346 350 361 363 358 358 354 351 349 342 338 338 335 334 335 335 337 337 339 341 342 343 344
307 305 302 300 306 305 315 315 317 319 321 320 316 302 304 320 321 320 321 318 319 321 327 322 322 318 313 315 322 322 323 324 326 333 340 336 335 340 345 345 353 363 364 364 355 352 348 348 342 336 340 337 335 336 336 335 335 338 340 343 345 346 345
305 304 304 306 309 319 319 316 318 318 320 317 306 299 314 323 326 324 322 320 321 325 325 322 316 325 325 328 329 325 325 324 325 330 333 334 333 335 334 341 354 358 360 359 352 350 349 343 335 338 336 334 332 334 338 340 340 343 346 348 347 346 348
305 306 303 303 308 320 317 320 319 320 314 304 304 319 328 325 323 325 321 320 322 324 326 326 326 324 324 324 323 325 324 324 328 330 331 331 332 332 339 353 354 355 352 357 350 346 343 334 337 336 335 334 335 341 343 342 347 354 354 354 350 349 347
307 307 305 301 295 320 319 317 317 322 314 319 322 324 324 321 325 322 323 321 325 323 326 324 328 326 323 324 324 325 326 331 336 338 333 337 335 337 351 353 353 348 341 339 343 340 334 335 335 335 337 339 343 348 346 351 356 358 357 356 355 353 349
305 303 300 300 311 318 321 321 313 317 323 326 329 325 322 323 323 323 323 327 327 326 330 327 325 326 325 329 331 331 328 330 335 336 341 343 343 342 346 347 346 337 337 337 339 342 336 336 335 337 338 345 347 349 344 352 349 345 345 346 346 349 351
311 309 312 318 322 321 321 322 321 325 325 326 325 325 322 323 325 329 325 329 327 328 331 330 330 326 326 328 326 326 326 327 332 334 337 340 340 340 342 346 346 341 338 339 340 338 340 347 352 354 351 348 347 348 348 350 345 345 345 345 342 339 338
319 320 321 320 322 322 321 321 323 322 322 324 326 325 325 326 328 328 325 326 327 328 331 326 328 328 328 328 326 326 326 328 338 344 342 341 342 339 339 344 343 340 340 340 341 344 342 345 352 351 350 350 349 347 349 347 347 345 343 342 338 337 338
310 305 322 318 318 320 320 318 321 321 323 323 325 326 326 325 324 324 325 327 328 327 330 329 330 325 323 324 327 333 334 340 340 339 339 339 339 338 335 337 340 345 337 335 337 339 343 343 341 336 337 340 346 348 346 346 343 345 340 337 336 337 337
310 313 319 317 318 322 321 319 319 318 321 322 323 324 326 327 327 327 327 326 325 325 323 330 331 327 324 327 335 337 336 337 338 338 339 339 341 345 344 343 343 339 340 338 339 340 340 339 338 336 335 335 338 340 337 337 341 342 340 336 336 334 334
315 319 321 322 321 319 319 319 321 321 322 322 323 323 323 323 323 324 325 326 325 324 324 331 333 334 335 334 337 336 337 336 337 337 335 335 335 341 339 339 339 338 339 338 342 341 341 341 339 339 337 333 330 337 340 339 341 343 341 340 338 337 336
310 312 315 319 314 315 316 317 319 321 323 324 323 322 321 322 322 323 322 324 327 328 330 331 336 334 336 334 334 333 336 337 335 335 335 334 335 341 341 342 343 340 340 343 344 342 341 342 340 339 338 337 332 326 334 337 339 343 342 338 335 331 332
307 313 315 320 321 319 318 318 320 322 323 324 321 321 321 321 322 322 322 322 325 328 331 333 334 338 335 334 336 335 336 340 341 341 339 338 338 339 339 340 341 342 344 343 342 341 341 342 339 337 337 333 337 333 339 340 337 340 338 338 335 329 330
311 313 314 316 316 313 316 319 320 321 325 323 320 321 322 322 322 321 321 322 323 326 329 330 335 334 336 334 333 334 336 337 340 339 337 338 336 334 336 338 340 342 341 339 338 337 340 339 338 340 331 333 339 333 338 336 337 341 336 338 336 331 328
309 313 313 314 314 315 317 318 319 319 322 323 320 319 320 320 320 321 321 323 323 322 325 326 329 335 334 331 334 335 335 335 337 337 337 334 332 329 329 336 338 340 340 339 339 338 338 339 336 335 335 333 335 332 333 333 335 336 336 335 331 330 332

ECMWFFLT2_sfc_thetae_009.txt.gz
Theta_e
311 311 313 312 312 299 303 306 299 301 308 307 302 307 306 305 302 297 310 309 311 312 311 314 318 320 320 321 321 323 323 324 325 326 327 327 329 330 330 332 335 337 338 338 340 341 343 347 348 349 350 350 347 345 344 342 341 343 342 342 340 339 340
310 313 313 312 313 312 306 300 303 310 311 309 307 297 301 297 293 297 302 298 298 301 298 310 311 316 318 318 315 322 323 324 324 325 326 327 328 330 331 332 336 338 338 338 340 342 344 346 347 348 350 349 347 346 345 342 341 342 341 341 337 339 339
311 313 312 310 313 315 306 305 312 304 296 297 303 304 294 293 293 294 299 301 302 302 305 308 309 312 313 313 313 321 322 324 323 324 326 327 328 331 331 332 336 338 337 338 340 342 344 346 348 348 351 349 347 346 345 343 342 343 341 341 336 340 339
310 311 309 300 303 311 313 312 307 311 304 303 300 300 301 297 293 296 294 300 296 312 306 311 309 311 312 312 312 317 321 323 323 325 326 326 329 331 332 333 336 338 338 338 340 342 343 345 346 348 350 348 346 345 345 343 344 343 341 340 338 337 338
310 302 305 303 303 301 304 304 303 305 305 308 305 307 301 296 293 292 295 294 301 306 316 312 312 313 316 316 317 317 317 321 324 327 328 327 330 331 332 333 335 339 338 338 341 343 344 346 348 349 349 347 346 345 344 344 343 341 340 338 340 337 339
302 303 309 309 309 307 304 303 300 301 300 299 295 294 306 304 296 290 293 295 303 313 319 315 314 314 316 317 319 318 314 317 324 327 329 330 331 332 332 334 337 339 339 339 341 344 344 345 347 347 348 346 345 343 343 345 343 341 340 338 341 339 339
303 307 310 313 312 311 309 306 303 305 303 305 300 291 296 304 302 305 300 297 300 312 322 316 314 314 316 318 317 319 321 316 325 328 329 331 333 332 333 333 336 339 340 341 342 343 343 344 345 346 346 344 344 343 342 343 343 340 340 340 341 341 338
308 310 311 312 313 311 308 308 308 306 303 304 303 303 304 299 302 297 299 298 300 313 319 316 317 315 315 315 316 316 321 320 323 328 328 329 332 333 333 333 333 336 339 341 341 342 342 344 344 344 345 344 343 342 341 341 341 340 340 342 342 340 339
300 303 308 307 310 310 305 304 306 308 307 308 306 306 310 301 302 302 296 293 299 312 319 317 314 317 316 314 315 317 318 320 325 329 330 331 333 333 332 332 332 333 335 338 340 342 343 343 344 344 343 343 342 341 340 339 339 340 340 342 341 339 338
292 292 291 294 298 303 304 307 306 308 307 305 303 298 303 293 302 304 299 302 304 311 318 313 316 316 317 316 317 320 321 320 320 325 336 334 335 335 334 333 333 333 333 339 340 341 343 344 344 343 342 342 342 341 339 339 339 339 339 342 340 338 337
296 298 302 310 310 304 302 305 306 306 307 306 305 304 300 294 294 299 296 305 304 310 312 310 313 312 314 318 318 320 318 318 320 321 333 336 335 335 334 334 334 334 334 338 341 341 342 343 344 343 342 342 342 340 338 338 339 339 339 340 340 338 336
309 314 316 309 310 305 306 305 305 307 306 306 304 301 300 304 299 290 299 305 306 307 310 311 313 312 314 317 318 321 321 324 325 323 329 345 337 337 336 338 336 334 334 337 340 342 342 342 342 342 341 341 342 338 336 336 338 339 339 339 338 337 336
311 310 307 309 308 308 307 307 307 306 306 305 303 308 314 310 300 297 303 307 308 308 310 313 315 317 316 316 319 320 323 326 325 326 323 334 339 339 338 338 341 336 335 337 340 342 343 343 342 341 340 339 341 339 336 335 337 338 338 339 338 337 336
307 307 306 307 306 308 308 308 307 307 307 306 305 305 306 309 309 309 311 310 310 313 312 314 314 319 319 320 320 318 318 323 325 328 326 325 329 337 340 340 341 340 338 338 340 342 342 342 341 341 340 339 339 339 336 337 336 336 338 338 337 337 336
309 309 307 306 306 306 304 306 307 307 306 306 305 305 306 308 306 313 312 310 308 314 316 315 321 322 320 322 318 320 324 323 324 322 321 322 324 329 340 343 341 342 342 341 340 341 342 342 342 341 341 340 339 338 337 335 335 334 337 336 336 335 334
302 307 305 306 306 306 304 304 305 306 307 305 306 305 311 307 305 306 312 307 307 312 318 319 320 319 318 318 317 320 320 320 325 326 327 328 329 329 329 342 342 341 342 343 342 342 342 343 343 342 341 341 338 334 335 336 337 336 335 334 333 333 333
301 306 306 305 305 304 301 302 305 306 307 311 308 309 311 311 310 307 305 306 314 317 319 315 317 318 316 318 320 324 319 320 324 324 325 327 327 327 329 339 341 342 342 342 344 344 343 343 343 342 341 335 332 333 334 336 336 337 338 336 334 333 335
301 304 304 305 301 296 297 314 313 312 307 308 306 307 310 313 317 314 312 312 316 315 315 315 315 315 314 315 318 321 320 323 322 324 324 325 325 326 328 329 340 343 343 342 342 345 344 343 343 342 337 334 333 334 335 335 335 335 336 335 336 337 337
300 305 307 299 293 296 312 314 312 312 312 311 309 309 317 313 316 316 315 316 316 316 317 319 319 319 320 321 323 322 324 325 326 328 328 329 331 329 327 325 326 336 343 342 342 342 345 344 337 334 333 334 334 333 334 333 333 334 334 335 336 337 336
305 301 299 291 293 309 317 311 311 315 312 312 312 310 315 314 314 317 315 316 316 319 320 320 318 317 319 325 327 323 322 320 321 319 320 323 325 323 324 324 325 325 341 345 345 345 343 336 334 334 332 332 331 332 333 333 333 333 333 333 335 337 337
299 300 298 297 311 306 311 313 313 310 308 311 310 303 308 319 317 317 316 316 318 319 319 321 319 318 318 315 317 320 320 324 323 320 320 320 321 325 332 329 332 340 346 348 347 338 335 334 333 332 332 334 333 332 332 332 332 333 332 331 331 332 336
307 299 297 297 297 294 301 311 319 316 316 315 318 311 308 317 319 321 321 316 314 317 316 319 319 320 313 309 313 321 324 322 323 324 326 326 327 326 342 342 343 347 355 345 336 334 333 333 332 331 331 332 332 331 331 332 331 331 330 330 331 332 335
304 302 296 296 295 300 310 315 313 317 318 317 321 310 301 313 317 320 318 317 316 316 316 317 319 312 307 310 316 319 316 318 318 323 325 326 334 336 337 339 339 335 334 334 334 334 331 329 331 332 332 333 332 330 329 330 331 329 329 329 330 332 335
304 303 299 296 302 301 313 317 317 315 316 319 311 297 298 311 319 322 320 319 321 318 317 318 316 311 308 309 315 319 321 323 322 329 329 333 336 337 337 336 332 333 336 335 334 333 331 330 331 330 331 331 332 331 331 331 330 329 329 330 331 334 338
302 302 299 302 305 317 319 313 315 314 315 315 301 292 306 317 321 319 318 318 318 316 314 317 315 320 319 319 319 321 323 327 325 330 331 332 329 327 336 335 337 333 334 334 334 333 331 330 331 331 333 331 330 329 329 329 329 330 331 332 334 337 338
301 301 299 299 304 321 314 314 319 318 313 301 300 314 326 324 317 321 319 319 320 322 322 320 319 320 321 323 323 323 324 329 331 331 336 335 333 341 340 336 333 331 331 331 331 332 331 330 331 331 331 329 328 327 327 326 328 333 336 337 338 337 337
307 304 300 297 290 308 321 315 319 321 313 311 321 324 321 323 319 320 321 322 322 323 321 323 323 323 323 324 325 325 323 328 334 336 338 340 340 336 333 332 334 332 329 329 329 330 331 331 331 331 330 329 329 330 329 332 336 339 336 336 337 337 337
302 301 298 296 309 316 320 318 312 318 321 322 324 326 318 321 321 320 320 322 324 324 323 323 322 324 322 324 324 323 322 325 332 335 337 339 339 336 335 334 332 332 330 329 328 329 330 330 330 329 329 330 331 334 337 339 339 337 335 335 335 337 339
309 307 310 316 317 318 318 319 319 320 326 331 328 322 321 318 318 321 319 321 323 324 322 322 323 322 321 322 321 322 328 335 333 332 332 334 338 337 335 333 334 332 330 328 328 328 329 328 329 329 331 336 339 336 339 340 336 336 336 335 333 333 333
320 320 321 319 318 317 317 319 320 321 321 322 322 321 318 320 321 321 321 324 322 324 322 320 321 321 323 321 319 325 335 334 334 332 330 330 333 336 338 336 334 334 333 331 330 328 328 330 334 335 337 340 338 339 341 339 338 337 336 336 335 334 332
304 298 317 317 316 320 316 317 319 319 319 318 321 322 322 320 321 321 322 322 322 321 325 329 328 327 328 330 334 335 334 334 332 334 333 334 332 330 330 334 337 336 335 334 335 335 335 334 333 336 339 341 340 342 341 341 339 336 334 334 334 332 330
308 309 315 316 318 316 317 317 316 317 319 319 319 321 321 321 321 321 322 323 323 324 327 329 328 329 332 331 332 333 332 332 332 333 334 332 334 332 330 332 335 335 336 335 334 331 330 332 332 331 330 330 333 338 342 341 339 337 335 335 333 330 330
312 316 315 317 317 318 317 317 319 320 320 320 319 320 319 320 320 320 321 323 323 324 328 332 331 330 332 335 332 332 331 332 331 330 331 332 331 331 332 332 333 332 333 334 335 334 333 334 332 331 331 332 331 335 337 338 337 336 334 336 333 332 331
305 308 313 318 311 308 313 315 317 319 321 321 320 319 319 319 319 318 317 319 323 324 329 331 333 331 331 333 333 332 332 332 330 330 331 332 333 332 332 332 332 333 333 333 335 335 335 336 334 332 330 330 334 337 338 338 340 336 335 333 332 330 329
303 312 318 321 316 318 319 318 317 322 321 323 321 318 317 317 318 318 316 317 318 321 323 334 335 332 331 329 334 333 333 331 331 331 332 332 332 332 331 330 330 330 332 336 335 331 330 331 330 328 328 331 332 337 339 338 340 338 336 332 331 329 329
311 312 313 316 315 313 317 322 322 319 320 321 318 317 317 316 317 317 316 319 319 317 318 325 332 332 331 329 332 331 333 335 335 334 334 333 333 334 333 331 330 333 335 332 331 330 330 331 330 329 329 330 331 334 334 336 336 333 333 330 329 327 323
305 315 317 317 316 317 319 320 318 318 319 320 317 316 318 317 317 319 318 319 320 320 316 315 327 331 330 329 332 332 332 335 336 336 334 334 334 333 333 335 334 334 333 332 333 331 328 327 329 331 330 330 331 332 333 333 333 332 331 329 327 327 330

ECMWFFLT2_sfc_thetae_012.txt.gz
Theta_e
306 306 308 307 308 296 299 302 297 300 304 303 298 301 300 302 295 293 299 303 300 306 306 308 316 318 318 320 320 321 322 323 324 325 328 330 332 334 334 334 336 337 338 340 341 341 342 344 345 347 349 350 349 348 346 343 342 339 338 340 337 337 336
306 309 309 308 309 304 301 297 299 306 307 306 298 292 294 292 289 291 297 296 295 299 295 306 314 315 317 319 319 321 321 322 322 324 327 329 331 333 333 334 335 336 338 339 341 342 342 344 346 347 349 350 350 349 346 343 341 338 338 339 338 336 336
306 309 308 306 308 309 304 302 305 301 295 296 297 296 290 290 290 289 293 297 296 297 297 304 310 313 314 317 318 319 319 321 322 323 325 328 330 332 332 332 333 334 336 339 340 341 342 344 347 348 349 350 350 348 346 344 341 339 339 339 340 337 337
306 307 304 298 300 306 308 306 304 305 301 297 294 296 293 294 289 291 289 295 292 303 301 305 310 315 317 317 317 318 319 321 323 323 325 327 328 330 330 331 332 334 336 338 340 341 341 343 345 348 349 350 349 348 345 343 342 341 340 338 340 336 336
306 299 301 299 300 300 300 301 299 301 304 303 303 303 298 294 289 288 287 290 293 300 308 308 311 314 317 317 316 318 320 321 323 324 325 326 328 329 330 330 332 334 335 337 340 341 341 344 346 348 349 349 348 347 345 343 340 340 339 338 338 336 336
298 298 305 306 304 304 300 301 298 298 297 297 294 291 299 297 294 287 289 288 294 302 315 314 311 312 314 315 317 318 320 321 322 324 325 326 327 328 329 330 331 334 335 336 338 341 341 342 344 346 348 349 348 346 345 343 341 340 340 338 337 336 336
299 303 307 309 308 307 305 305 302 303 299 297 295 289 293 300 298 300 295 292 294 304 313 312 314 314 314 315 318 318 320 321 322 323 325 325 328 328 329 329 330 334 335 336 336 338 339 340 343 345 347 348 347 346 345 342 340 340 340 339 336 336 335
304 306 307 308 308 307 303 303 302 302 300 300 296 294 295 295 296 295 294 293 293 304 315 312 313 313 313 315 318 318 320 321 322 323 323 324 326 328 329 330 330 332 335 336 335 336 338 339 341 343 346 347 347 346 344 342 340 340 340 339 336 336 335
295 299 302 302 305 306 301 298 301 303 302 303 302 304 302 298 296 295 293 289 295 305 318 315 311 311 313 314 315 318 318 320 322 324 324 325 327 328 328 328 329 331 333 334 335 336 337 339 341 342 344 346 346 345 344 342 341 341 339 339 336 336 334
287 288 289 290 294 298 300 302 302 304 303 301 300 297 298 291 297 298 292 295 296 304 312 311 310 309 309 312 314 318 320 320 322 324 325 326 327 327 328 329 329 331 333 335 335 336 337 339 340 342 344 345 345 344 344 343 342 340 339 338 336 335 335
292 295 294 300 303 299 300 300 302 302 303 302 301 297 294 294 290 297 293 302 301 305 309 308 307 309 309 310 313 316 318 321 323 324 325 326 327 328 328 329 329 331 332 334 335 336 338 339 340 342 343 344 344 343 342 343 342 340 338 337 337 335 335
301 302 302 305 305 301 302 300 302 301 302 301 300 298 296 297 296 293 291 299 303 304 308 308 307 308 309 312 314 315 318 320 323 325 325 334 327 328 329 328 328 328 331 334 335 336 337 339 340 342 343 344 343 342 341 342 342 340 339 337 337 334 334
304 304 305 307 305 305 303 303 301 302 302 301 300 299 299 302 299 295 299 303 304 306 309 309 309 309 311 313 314 316 319 321 323 324 325 326 327 328 328 328 328 328 329 331 334 336 338 339 339 340 342 342 343 342 341 341 341 339 339 338 336 334 334
305 305 305 304 304 303 304 304 303 303 303 301 301 301 305 304 301 302 303 304 305 308 309 310 311 312 313 314 315 315 315 318 321 324 326 328 327 328 329 329 330 330 330 330 332 336 337 338 339 340 341 341 341 340 340 339 338 339 339 338 336 335 334
302 306 306 303 302 303 303 305 305 304 302 302 302 303 307 308 307 306 305 305 305 309 311 312 312 314 314 315 314 315 316 317 320 323 326 328 328 328 330 330 330 331 331 331 331 334 336 338 339 341 341 340 339 338 338 338 337 337 338 337 335 333 334
299 304 303 303 303 303 302 303 305 305 304 306 304 306 308 305 305 305 306 303 304 310 312 313 314 313 313 313 313 314 316 318 318 319 322 324 325 328 331 333 333 334 336 335 332 332 336 338 339 340 338 335 335 334 335 336 336 336 337 336 334 334 334
297 302 302 302 302 301 299 301 301 304 305 306 307 310 315 311 307 303 300 302 307 310 315 313 313 312 311 312 313 314 317 318 318 318 319 319 321 322 327 333 337 338 338 339 337 335 336 338 339 339 337 335 334 333 333 334 335 336 336 336 335 334 334
296 303 303 303 298 293 294 306 310 310 305 305 305 306 311 314 311 305 306 308 310 313 313 312 311 311 313 314 316 317 317 315 315 317 317 319 320 322 326 332 336 338 339 339 340 339 337 338 339 340 337 336 336 335 332 333 333 334 334 334 333 334 334
296 302 301 296 291 292 305 314 312 310 310 310 308 309 311 310 311 311 310 310 313 314 314 313 312 313 316 316 315 316 317 316 315 316 317 318 320 320 322 325 330 334 336 336 336 338 337 338 336 334 332 332 333 331 332 331 332 333 333 332 331 331 332
299 297 294 289 291 303 310 311 311 316 312 310 308 306 309 310 310 310 310 311 312 312 313 314 316 317 318 319 320 318 319 319 318 319 320 321 323 322 323 321 320 324 335 337 337 335 335 333 333 332 331 332 330 330 332 333 333 333 333 333 333 333 333
296 296 294 294 301 304 303 306 308 306 304 305 303 299 305 314 314 311 310 311 313 314 313 314 315 315 313 310 311 314 318 320 320 319 320 321 320 320 322 323 327 331 338 336 334 333 331 331 331 331 331 331 331 331 331 332 333 332 331 331 331 333 333
300 295 292 292 289 291 297 304 310 312 310 309 308 303 304 311 312 315 313 311 312 313 313 312 312 313 309 305 309 314 316 318 322 319 319 323 333 339 338 336 336 335 334 332 332 330 329 330 330 331 331 331 331 330 331 331 331 330 330 330 332 332 332
297 294 288 291 291 294 301 308 309 310 312 312 310 305 299 308 312 315 312 311 311 311 311 311 311 308 302 304 310 315 319 322 322 328 332 337 338 337 337 336 334 333 332 331 330 330 329 328 329 331 331 330 330 329 330 330 329 328 329 330 330 331 331
298 295 292 292 295 298 307 309 311 312 311 310 305 294 296 309 314 314 316 314 312 313 313 311 309 306 304 303 310 315 321 323 326 330 332 333 333 333 335 336 335 333 333 331 329 328 328 328 330 330 330 330 329 329 330 330 328 328 329 330 331 331 330
298 300 295 296 299 310 313 313 314 317 314 307 296 292 303 314 314 315 315 314 313 314 313 313 311 312 310 312 315 318 323 326 328 329 332 334 335 334 334 335 338 332 331 330 329 328 328 329 329 329 329 329 328 328 328 328 328 328 329 330 331 330 330
296 296 294 294 301 314 314 315 316 319 311 296 296 306 313 317 317 317 318 317 317 317 316 314 313 315 319 322 320 324 328 330 332 332 334 334 334 335 337 338 335 332 330 328 328 327 328 329 329 329 328 328 327 327 326 326 328 329 329 329 329 329 329
302 299 295 292 288 303 315 315 314 318 304 306 311 315 318 319 317 317 317 318 317 318 317 319 319 319 319 320 321 325 329 333 333 333 332 331 331 331 331 331 333 333 329 328 327 326 327 328 329 329 328 327 327 327 325 326 328 328 329 329 329 329 330
295 295 292 292 301 309 316 315 308 313 315 315 320 317 312 317 319 317 317 318 319 319 318 317 318 318 317 320 325 326 329 334 335 335 333 332 331 331 331 332 332 332 329 328 327 327 327 328 328 329 329 327 327 326 325 327 327 329 329 329 329 329 331
302 301 304 311 315 315 315 315 314 315 318 319 319 317 316 315 316 319 318 319 321 321 321 321 320 320 321 322 327 328 330 330 333 333 332 331 331 331 330 330 332 331 330 327 327 327 327 327 328 328 328 327 328 326 326 327 327 328 328 329 329 329 328
313 313 312 314 315 314 315 316 316 316 317 318 317 316 316 317 318 320 320 321 323 324 324 324 324 325 328 330 330 329 328 327 327 329 331 330 331 331 330 330 330 329 329 328 327 326 326 327 328 329 328 328 328 328 330 332 331 331 331 330 328 327 328
303 298 310 312 313 314 314 315 317 317 317 316 317 315 316 316 319 319 321 324 326 325 326 327 327 328 330 329 329 327 327 328 327 328 329 328 330 330 329 329 331 327 327 326 326 326 325 326 327 327 328 330 331 335 333 331 330 330 330 329 328 327 327
300 303 311 316 316 315 316 315 314 314 315 315 316 316 315 315 315 315 316 321 325 328 326 326 327 329 330 328 327 328 328 328 329 328 329 328 327 328 329 331 329 327 326 325 325 325 325 326 327 327 330 333 335 334 333 333 331 330 330 329 328 327 326
309 312 314 315 313 312 313 315 316 318 316 315 314 315 315 314 313 313 314 316 319 325 328 327 324 324 327 329 327 328 327 326 326 326 326 326 325 327 330 329 329 327 327 327 327 328 328 328 329 328 328 332 336 334 334 333 329 330 329 330 329 327 326
303 304 308 315 305 305 310 313 316 318 318 316 313 313 313 314 314 313 314 315 316 316 320 328 327 325 325 327 326 329 327 325 325 325 325 325 326 326 328 330 331 331 330 329 328 328 328 327 326 326 328 332 334 334 335 335 333 330 331 332 330 328 326
303 308 313 315 311 311 312 313 315 315 316 316 316 315 312 314 316 316 314 316 320 315 315 324 328 323 323 324 325 326 327 326 324 325 325 325 325 326 328 330 330 330 330 331 331 328 325 325 326 327 328 329 329 331 332 334 334 332 332 330 328 327 326
308 313 317 316 312 310 313 318 317 314 316 312 312 315 314 313 315 317 316 317 314 312 312 312 317 322 325 324 328 327 327 327 327 327 328 329 327 328 328 329 330 330 330 329 327 325 324 323 323 325 326 327 328 330 329 330 329 333 333 330 328 326 326
307 311 313 314 312 313 314 312 312 311 316 315 313 314 315 316 318 319 312 311 312 311 310 311 312 314 316 322 326 327 328 329 330 330 332 332 331 328 328 329 330 330 328 327 326 325 323 321 322 323 323 325 327 329 329 328 330 334 333 329 325 322 324

ECMWFFLT2_sfc_thetae_015.txt.gz
Theta_e
304 304 306 306 306 295 298 299 296 298 302 300 296 298 298 296 292 291 295 297 297 300 304 305 312 312 315 318 319 319 319 322 324 325 326 328 331 334 336 337 338 339 341 342 344 343 344 345 346 347 347 348 348 348 348 348 348 348 347 346 342 339 338
303 306 306 306 306 304 298 296 298 301 306 301 297 291 290 289 287 289 294 294 294 295 294 305 311 310 313 316 317 319 319 321 323 324 326 328 331 334 336 337 338 339 340 342 343 344 344 344 346 346 347 348 349 349 348 348 348 347 347 345 342 338 335
303 306 304 303 305 307 305 303 303 301 293 295 294 292 289 288 288 287 290 293 295 295 296 302 305 310 311 314 316 317 317 320 322 324 325 328 330 333 335 335 336 337 339 340 342 343 345 345 346 347 348 349 349 349 349 349 348 348 347 346 343 339 335
302 303 301 296 300 303 306 303 301 303 299 293 293 295 292 293 286 287 287 291 295 299 296 302 304 311 313 313 314 316 318 320 322 324 325 326 328 331 334 335 336 337 338 340 342 343 343 344 344 346 347 348 348 349 349 348 349 348 346 344 342 338 335
302 295 298 299 300 296 297 299 296 299 303 299 297 299 292 292 286 285 284 287 290 296 303 305 306 309 314 315 315 317 319 321 323 324 325 326 328 330 332 334 335 335 337 339 340 342 344 344 345 346 346 347 348 349 348 348 347 346 345 343 341 338 336
295 294 299 302 301 302 300 301 298 297 294 295 292 291 296 294 292 285 286 288 290 298 310 310 308 307 315 317 317 317 319 320 322 324 325 326 327 329 331 333 334 335 336 338 339 341 342 342 342 343 345 346 347 347 348 348 347 346 344 342 340 338 336
297 300 303 304 304 304 303 303 300 301 296 295 292 287 291 295 295 296 292 290 293 301 309 311 311 311 315 317 318 318 319 320 322 323 325 326 328 329 330 331 332 333 334 336 338 339 339 340 341 342 344 345 346 347 347 347 346 345 344 343 340 338 336
300 303 304 304 303 302 300 301 300 300 297 297 296 294 294 294 292 294 292 291 289 299 310 314 312 311 313 317 318 318 319 320 322 322 323 324 326 327 329 330 331 332 333 334 335 337 338 339 339 341 343 344 346 347 347 347 345 345 344 342 340 337 336
293 297 299 299 300 302 297 296 298 301 300 301 298 298 296 296 293 294 292 287 291 301 312 310 310 311 314 315 317 319 318 319 321 322 323 324 325 326 327 327 328 329 330 331 333 336 337 338 339 340 342 343 345 346 347 346 346 346 344 342 339 337 336
287 287 288 290 291 295 296 297 299 300 301 299 299 296 296 291 294 295 292 290 293 300 306 311 310 309 310 313 316 319 319 319 320 321 322 323 324 325 325 326 326 326 330 332 333 334 336 338 338 339 341 343 344 345 346 347 346 345 343 342 339 336 335
292 293 293 297 300 296 297 297 299 299 301 302 300 296 292 292 290 295 291 298 299 302 306 306 307 307 310 311 312 315 316 318 320 321 322 323 323 324 325 326 327 327 327 330 332 333 335 337 338 339 340 342 344 345 345 346 346 344 343 341 337 335 334
299 299 298 300 301 298 299 298 298 299 299 299 300 297 296 294 294 289 292 295 302 302 304 306 306 306 308 311 313 315 316 318 319 320 321 329 323 324 325 325 325 325 327 329 331 332 333 335 337 338 340 342 343 344 345 346 345 344 343 339 334 333 334
300 302 301 301 301 300 299 299 300 299 299 298 299 300 299 299 298 295 296 297 302 304 306 308 308 309 310 311 313 316 318 319 319 320 320 321 322 323 324 324 325 325 326 327 330 331 333 334 335 337 338 340 342 344 345 345 345 343 341 334 332 333 334
299 299 301 302 300 301 301 299 299 300 299 299 301 301 300 301 299 301 300 300 304 306 307 309 310 311 311 312 314 315 316 318 319 319 320 321 322 323 323 324 325 326 327 328 329 331 332 333 334 335 337 338 340 342 343 344 344 342 337 333 332 333 333
297 299 301 300 300 300 299 301 300 300 299 300 300 299 301 303 303 302 301 302 303 307 308 310 311 309 309 310 313 315 317 318 319 320 320 321 322 322 323 324 325 326 326 326 328 329 331 332 334 335 337 338 340 341 342 342 342 339 335 332 333 333 333
294 298 299 299 300 300 299 299 300 300 298 297 298 299 302 301 300 300 300 299 301 307 308 309 308 309 310 311 311 313 315 317 320 320 320 321 321 321 323 324 324 325 326 326 326 328 331 333 334 335 336 337 338 339 341 340 339 337 335 333 333 333 333
293 297 299 299 299 298 296 297 299 301 302 305 306 308 307 304 303 299 297 298 306 306 311 308 308 308 309 310 310 311 313 315 318 319 320 321 321 322 323 326 328 328 330 330 330 329 330 333 335 336 337 337 337 336 337 336 336 335 333 333 332 333 333
292 297 298 298 296 290 290 300 302 304 304 306 305 304 307 308 307 302 303 304 307 308 309 308 308 308 309 310 313 314 315 315 315 317 319 321 322 323 325 329 332 333 333 333 334 333 331 332 336 337 339 337 334 335 335 335 335 334 333 332 332 333 333
292 297 298 295 291 290 303 308 309 307 308 308 306 306 307 307 307 308 308 307 308 310 310 311 310 311 312 313 314 315 316 316 316 317 317 318 321 322 323 325 329 331 333 333 334 333 333 334 335 336 335 333 331 333 334 334 334 333 333 332 332 332 332
293 292 293 290 290 301 308 308 308 312 310 309 308 305 306 308 308 308 307 307 308 310 310 312 313 314 314 313 315 314 314 316 317 316 317 317 318 318 320 323 324 328 332 334 335 334 335 335 335 335 332 331 331 331 333 333 333 333 333 331 331 332 332
292 291 290 293 301 304 305 306 308 307 303 305 306 300 305 310 309 309 307 307 308 309 310 311 312 312 312 310 310 313 315 317 318 315 316 316 317 318 318 321 323 328 331 333 335 334 333 333 333 332 331 331 330 330 331 332 332 332 332 331 331 331 332
294 292 290 295 293 292 298 306 310 312 311 309 311 306 302 310 312 311 310 308 308 309 309 309 309 312 310 305 308 311 314 317 317 316 320 322 322 327 329 331 332 331 332 333 334 333 331 331 331 331 330 330 329 329 330 331 331 331 331 330 331 332 331
295 293 291 290 291 296 303 306 310 312 313 311 310 306 299 308 312 313 313 310 310 309 309 308 310 308 303 302 308 311 314 319 322 323 328 333 335 335 334 333 333 332 331 332 333 331 329 329 329 330 330 330 329 328 329 330 330 330 329 330 331 331 331
296 291 289 291 297 300 306 309 311 313 314 311 306 295 296 305 313 313 313 312 311 310 309 308 307 306 304 303 309 312 319 325 329 329 332 333 334 334 334 333 332 332 332 332 329 329 330 329 329 329 330 330 330 329 329 330 329 329 329 330 331 332 331
297 297 293 295 301 309 312 310 312 313 314 304 296 292 299 311 312 313 313 312 311 310 310 309 307 308 307 310 313 320 326 329 330 332 333 333 334 334 333 332 337 330 329 329 329 329 328 328 329 330 330 329 329 329 329 329 328 329 330 331 331 331 331
295 294 292 294 297 308 311 312 313 315 307 296 295 302 309 314 313 314 314 313 313 314 313 314 313 314 318 324 326 326 326 325 327 331 331 332 333 334 335 334 330 326 326 326 325 326 326 329 330 330 329 329 329 329 328 327 329 329 329 329 330 330 330
298 295 293 290 290 302 311 312 311 312 301 301 307 313 315 317 313 313 314 314 314 316 314 315 316 318 321 323 325 327 328 327 327 328 328 327 328 329 329 328 329 328 325 324 325 325 328 329 329 329 329 328 328 328 326 325 328 328 328 328 328 328 327
293 292 290 291 299 305 313 311 307 310 311 313 315 312 311 314 315 315 314 314 314 315 315 315 317 318 320 322 325 328 329 329 328 327 327 327 328 330 331 331 329 329 325 325 325 326 327 328 327 327 326 326 327 326 323 325 327 328 327 327 327 327 329
300 299 300 306 310 311 313 313 312 314 316 317 316 316 315 315 316 318 318 318 320 320 320 320 322 323 325 324 326 325 325 326 328 327 327 329 330 329 329 330 331 329 327 326 325 324 325 326 326 326 325 327 328 324 323 326 326 326 326 327 326 326 325
311 310 310 313 311 311 311 313 315 314 314 315 316 316 315 315 318 321 320 321 321 321 324 324 325 325 324 324 325 324 324 325 326 328 328 329 330 330 329 327 329 329 327 325 323 324 324 325 326 327 325 327 327 325 327 328 326 326 327 327 326 325 326
301 297 307 309 309 310 310 311 313 313 313 313 313 312 313 314 317 319 322 324 324 325 326 325 324 325 325 325 323 324 325 326 325 327 327 327 328 328 328 328 330 326 325 325 324 325 324 325 326 327 328 329 329 329 328 328 328 328 328 328 328 328 328
300 303 309 312 313 312 314 312 309 309 310 312 312 312 313 313 314 315 316 317 317 322 323 324 325 324 326 324 325 325 326 326 326 326 327 327 328 328 328 328 328 325 326 325 325 325 324 324 325 328 330 329 328 328 328 329 328 327 328 327 326 325 325
307 311 312 313 312 314 314 314 313 312 311 311 312 313 314 313 313 314 315 315 313 312 313 319 318 316 319 326 325 327 325 325 325 326 326 326 325 325 327 328 328 325 324 324 324 324 324 324 327 330 330 329 329 328 328 328 327 326 327 329 327 325 324
302 303 306 311 304 304 309 313 316 315 316 312 311 312 314 314 313 315 315 315 316 315 313 314 315 313 314 316 322 326 326 325 326 326 326 324 325 325 327 327 325 325 326 325 325 325 325 326 328 330 329 329 330 331 331 330 329 328 328 327 327 326 325
302 307 312 312 309 309 309 311 312 312 313 312 310 311 312 313 315 316 315 314 313 313 314 318 318 316 316 317 320 323 326 325 325 326 325 325 325 326 327 326 325 325 325 327 326 325 324 326 329 329 328 330 330 329 328 330 330 328 326 324 324 325 325
312 314 312 311 308 305 307 309 311 311 313 312 311 311 311 311 310 311 310 310 309 309 311 312 313 313 315 317 320 322 324 324 323 325 325 324 325 327 328 327 326 326 326 325 324 324 325 327 327 327 328 328 326 326 326 327 327 325 326 326 324 324 325
312 314 310 309 308 308 309 310 310 311 314 313 312 312 311 310 311 311 310 309 309 311 311 312 313 313 314 316 318 321 324 324 326 326 328 327 325 326 326 327 326 326 326 324 323 324 325 325 325 325 325 325 325 326 325 326 326 325 326 327 326 325 325

ECMWFFLT2_sfc_thetae_018.txt.gz
Theta_e
299 300 303 302 303 294 296 298 294 296 300 299 296 298 296 293 290 289 294 297 296 300 307 309 308 312 311 313 315 316 316 318 321 322 324 326 328 330 332 334 335 337 339 341 342 343 343 344 344 345 346 348 348 348 347 347 348 348 348 349 348 348 348
300 300 304 303 304 300 296 293 297 300 302 299 297 290 288 287 286 287 293 295 294 297 295 304 308 308 310 310 312 315 316 318 319 322 324 326 327 330 333 335 336 338 339 341 342 344 344 344 345 346 347 348 349 349 348 347 348 347 347 348 348 347 347
299 301 301 300 302 303 303 296 301 300 293 294 292 292 287 286 286 286 289 293 294 296 298 300 305 308 309 309 311 313 314 317 319 321 323 326 328 329 331 333 335 337 338 340 342 343 344 345 346 347 348 349 349 349 349 349 348 348 348 349 349 348 347
299 299 298 295 298 301 301 301 299 302 298 292 293 294 291 293 285 286 287 290 291 298 298 302 304 308 309 310 310 311 315 317 319 320 322 324 326 328 330 333 335 337 339 340 342 343 343 344 345 347 347 348 348 349 349 349 349 349 349 348 349 346 345
298 294 295 297 299 293 295 297 294 298 301 298 296 296 292 292 287 286 285 287 289 295 301 303 306 307 310 311 311 313 315 317 319 321 322 324 326 328 330 332 334 336 338 340 342 343 344 345 346 347 347 347 348 349 348 349 348 348 348 348 348 347 344
292 292 296 299 299 299 296 297 296 296 293 295 292 291 294 291 292 284 285 288 289 299 306 307 306 308 310 312 313 313 315 317 318 320 322 325 326 328 330 332 333 335 337 339 341 343 344 344 344 345 346 347 347 347 348 349 349 348 348 348 347 347 344
296 297 300 300 300 301 300 301 298 299 297 295 292 287 289 292 293 294 290 289 293 300 304 308 309 307 311 314 314 314 315 317 317 320 323 325 327 328 330 331 333 335 337 338 340 341 342 343 344 344 345 346 346 347 348 348 348 348 349 348 348 347 342
297 300 300 301 300 300 299 298 298 298 297 297 296 294 292 294 291 293 292 290 288 297 307 309 309 309 310 314 315 315 316 317 318 320 322 324 325 327 329 331 333 335 336 338 338 339 341 342 343 343 344 345 346 347 347 348 348 348 349 348 347 344 339
292 294 296 297 298 299 295 296 296 297 298 298 296 295 293 295 292 294 291 287 290 299 309 308 310 310 312 312 315 316 316 317 318 320 321 323 325 326 327 329 331 333 334 335 337 338 339 341 342 343 344 344 345 346 347 347 348 349 349 349 346 342 337
284 285 287 289 293 294 293 296 296 297 299 296 296 295 295 290 292 294 291 289 292 299 302 304 307 308 309 311 314 317 317 317 318 319 321 322 324 325 326 328 328 330 333 334 336 337 339 340 341 342 343 344 344 345 346 348 348 348 348 348 345 340 336
291 292 291 294 298 293 296 294 298 297 297 299 299 294 292 293 288 293 289 295 297 300 304 304 305 307 309 310 312 315 316 317 318 320 321 322 323 324 325 326 328 329 330 332 334 336 337 339 340 341 341 342 343 344 345 346 348 348 348 346 342 337 335
298 298 297 297 299 296 295 296 296 297 298 297 297 295 295 294 293 289 292 293 300 300 303 305 306 305 307 310 312 315 316 317 318 320 321 328 322 324 324 325 325 327 329 330 332 333 335 337 339 340 341 342 342 343 344 345 347 347 346 343 338 337 335
298 300 299 299 298 297 296 296 297 296 297 296 297 297 297 297 297 295 296 295 300 302 304 307 308 308 309 310 313 316 318 319 320 319 319 320 321 321 322 323 325 325 326 328 330 331 333 335 336 338 339 340 341 342 343 345 346 346 345 341 337 336 335
298 298 298 298 298 298 298 297 296 296 296 296 298 299 299 299 299 300 300 298 301 304 306 307 309 310 311 311 314 316 318 317 318 318 318 319 320 321 321 322 323 325 326 327 329 330 331 333 335 336 337 338 339 341 342 343 345 344 342 339 336 335 335
296 298 298 297 297 298 298 299 298 297 296 296 297 298 298 301 299 300 300 299 301 305 306 308 309 309 310 310 313 314 316 317 318 318 318 319 320 320 322 322 323 324 325 326 327 329 330 331 333 335 336 338 339 340 341 343 344 341 340 337 336 335 335
292 296 296 297 296 296 296 297 298 297 296 294 295 296 298 298 298 298 298 297 299 305 307 310 308 309 310 310 311 313 314 315 318 318 318 318 319 320 320 321 322 323 324 325 326 328 329 331 332 333 334 335 337 338 340 342 342 339 338 336 335 335 335
290 296 296 296 295 295 292 294 296 297 298 298 297 300 304 302 301 298 297 297 304 307 309 308 307 307 309 309 309 311 313 315 317 318 318 318 319 320 320 322 324 324 325 326 327 328 330 331 332 333 335 335 336 338 340 342 341 337 337 335 335 335 335
289 294 294 295 292 287 288 295 298 299 298 297 298 298 300 303 303 300 301 302 305 306 307 307 307 306 308 311 311 314 316 315 316 317 318 319 320 320 321 323 325 325 327 328 328 329 331 333 335 336 337 336 337 339 341 340 338 337 336 335 335 335 335
291 293 294 291 287 288 296 303 305 303 301 301 301 304 306 306 306 307 305 304 305 307 309 309 310 311 312 312 313 314 315 318 318 319 319 320 322 322 323 325 327 328 329 330 330 330 330 332 334 335 335 337 337 338 338 338 338 336 335 335 334 334 334
292 292 290 285 284 294 304 305 307 313 306 305 305 304 306 307 306 306 305 305 305 306 308 311 310 310 313 312 313 315 317 319 319 319 320 321 323 324 326 327 329 329 330 331 332 332 334 333 334 335 336 336 335 336 337 337 337 336 335 334 334 334 333
291 289 289 289 296 301 304 304 306 306 303 304 302 298 302 307 309 306 305 306 308 308 310 310 311 311 312 310 311 312 314 316 318 321 322 323 325 326 327 329 330 331 333 334 334 335 334 334 334 335 334 334 334 334 335 335 336 335 334 333 333 333 334
291 289 289 292 293 290 295 301 309 310 309 311 308 302 303 308 310 310 306 306 307 308 309 310 310 312 310 307 310 312 315 317 316 318 320 320 322 322 324 326 328 331 333 334 335 335 333 333 333 333 332 333 333 333 333 334 334 333 333 333 333 333 333
292 292 288 286 287 293 299 304 307 311 311 312 309 303 300 307 310 312 307 307 307 309 309 309 309 308 303 303 308 313 318 325 323 325 328 330 330 329 327 328 330 332 333 334 333 332 332 331 329 331 331 332 332 332 332 333 333 333 332 333 333 333 334
294 289 287 289 293 297 305 307 309 311 311 309 304 295 296 304 310 311 310 309 309 308 308 309 308 306 305 305 312 314 328 329 330 329 330 330 331 331 331 331 331 332 334 334 331 330 330 328 329 330 331 331 332 331 332 332 332 332 332 333 334 335 335
294 296 291 292 297 305 309 308 310 311 312 304 296 291 298 309 311 313 311 310 311 313 313 312 309 310 310 311 317 326 330 331 331 332 332 332 332 331 331 332 335 330 329 329 328 328 327 328 329 330 331 331 330 331 330 330 330 332 334 334 334 334 334
293 290 291 292 294 302 308 310 311 312 306 296 293 300 307 311 312 314 314 314 315 315 315 314 313 314 321 326 328 329 329 329 329 331 332 332 333 333 336 335 331 328 328 327 327 327 327 329 330 330 330 330 329 329 329 329 331 332 333 333 333 333 333
296 292 292 292 291 303 311 310 309 310 299 299 304 311 313 316 312 312 313 315 316 319 318 320 322 324 326 327 327 327 328 329 328 329 330 330 330 329 329 329 333 329 326 325 325 326 328 329 329 329 330 330 330 330 328 330 330 331 331 332 332 332 332
293 290 290 291 301 306 311 310 306 309 310 310 311 314 313 316 315 315 315 316 317 320 321 321 321 323 323 324 325 327 327 327 327 327 327 327 328 329 331 330 330 329 325 326 325 326 327 327 328 329 330 329 329 329 328 328 329 331 330 330 331 331 333
298 297 298 305 309 309 311 312 312 314 316 317 317 316 316 316 317 318 319 319 320 321 321 321 322 322 323 324 325 325 325 326 326 326 327 327 328 328 328 330 333 328 327 325 325 325 326 327 327 328 329 330 331 327 326 329 329 329 329 329 330 330 329
310 309 309 312 311 310 310 311 314 315 316 317 318 318 318 318 319 321 321 321 322 322 322 321 321 321 321 323 324 325 325 326 326 328 327 327 328 328 328 329 332 329 327 326 325 325 325 326 327 328 328 330 329 327 328 330 329 329 329 329 329 328 329
302 298 309 309 309 312 312 309 311 312 313 314 314 313 313 313 314 315 317 318 319 321 323 322 321 322 323 323 323 323 323 324 323 325 326 327 327 328 328 329 332 328 327 325 325 325 325 326 326 327 327 329 328 328 329 329 329 329 329 329 329 329 329
301 303 310 312 313 313 312 312 312 310 310 312 312 313 313 313 313 313 313 313 312 314 313 314 315 317 320 321 322 323 323 324 324 324 325 326 327 326 327 330 330 327 326 325 325 325 325 325 327 329 329 329 329 329 329 329 329 329 330 330 329 328 328
307 310 312 312 313 313 313 313 311 310 311 311 312 313 315 314 313 313 313 314 314 314 314 313 314 314 315 319 321 324 325 324 325 325 325 325 325 325 326 328 328 326 326 326 326 325 325 326 328 329 329 329 329 329 329 329 329 329 329 330 328 327 327
302 303 305 309 304 302 309 313 316 313 312 311 311 312 313 313 312 312 312 313 315 315 317 317 317 316 317 318 319 321 323 324 324 324 325 324 324 324 327 327 326 327 328 326 326 326 325 326 329 329 328 328 329 329 329 329 330 330 330 328 327 327 327
301 307 310 308 308 308 310 310 313 314 313 310 308 308 308 308 309 311 312 311 311 311 312 315 316 316 317 318 321 321 323 324 325 324 324 325 325 326 327 325 324 325 325 328 326 326 325 327 329 329 328 328 328 329 329 329 330 330 329 328 327 327 326
306 308 307 308 307 305 307 309 311 311 311 310 309 309 309 309 310 310 310 310 310 309 311 311 313 315 316 317 317 316 317 320 325 326 325 325 325 327 328 326 325 325 325 326 326 326 326 328 329 328 328 328 328 328 328 328 328 328 328 328 326 324 324
304 306 307 307 306 306 307 308 310 312 316 313 311 311 312 312 312 311 310 311 311 310 309 309 310 312 314 315 316 316 316 317 324 330 330 331 328 327 327 327 325 326 326 326 326 326 326 329 329 328 327 327 328 328 328 328 327 325 325 326 324 324 324

ECMWFFLT2_sfc_thetae_021.txt.gz
Theta_e
306 308 309 308 310 298 304 305 301 304 312 307 306 303 302 303 301 300 309 307 310 315 315 318 321 321 321 324 323 323 325 327 330 330 331 332 333 335 337 339 340 343 344 346 347 348 347 348 349 350 353 355 355 355 356 357 358 360 359 359 359 360 361
305 309 310 309 309 310 304 300 305 308 311 312 307 298 302 300 296 301 304 302 305 306 303 324 318 318 319 322 323 322 326 328 327 328 332 333 333 335 339 341 344 344 344 346 346 347 347 348 349 351 355 356 356 357 357 357 358 358 359 359 359 359 360
307 306 307 306 309 311 307 306 312 304 300 299 311 305 295 296 295 297 302 305 305 308 307 313 314 318 319 324 327 323 323 324 326 328 331 334 335 335 337 338 341 342 344 345 347 347 347 349 352 354 355 356 356 357 357 357 357 358 359 359 360 360 360
305 305 305 298 303 306 306 309 307 309 308 306 302 303 308 302 297 297 298 300 300 310 311 314 313 319 325 323 324 323 322 325 327 329 330 333 334 335 336 337 340 342 343 344 346 347 347 349 351 352 352 353 353 354 356 357 358 359 360 359 359 359 359
303 299 302 301 303 301 302 304 303 305 306 308 309 307 304 300 299 298 298 297 303 311 317 316 319 322 325 325 325 328 327 325 327 329 330 333 335 336 337 338 339 341 342 343 346 348 348 350 352 351 350 351 352 353 354 355 356 357 357 358 358 359 359
299 302 306 305 305 305 304 303 303 304 303 302 298 298 304 304 301 296 298 296 307 313 318 320 321 322 323 326 326 328 328 327 328 329 331 335 335 337 338 338 339 340 343 344 346 348 350 350 349 349 350 351 352 352 353 354 354 355 355 357 359 359 360
301 304 307 308 308 308 307 306 304 307 306 306 302 295 300 302 303 305 306 301 304 321 321 320 321 321 321 324 324 324 325 328 328 329 329 334 337 337 336 338 338 340 344 345 347 349 350 350 351 351 351 351 352 353 354 354 354 355 355 357 359 361 360
307 307 306 306 305 306 304 305 307 306 303 305 304 303 309 302 304 301 301 299 304 318 324 322 319 327 326 326 322 325 325 327 328 328 329 334 336 338 338 339 339 343 345 347 349 350 351 351 352 352 352 353 353 353 353 354 354 355 356 357 358 360 359
299 301 304 304 305 305 303 303 305 306 306 307 307 310 311 303 305 303 301 295 302 316 326 323 322 320 319 320 322 326 326 330 328 329 332 334 338 339 338 340 342 344 344 346 349 349 351 352 352 353 353 353 353 354 354 354 355 356 357 358 358 358 358
290 290 292 294 299 301 304 305 304 305 305 305 305 301 305 297 308 308 301 301 312 321 323 320 321 321 321 322 323 323 326 329 328 329 331 336 337 338 339 341 342 341 345 349 350 351 352 351 351 353 354 353 353 354 355 355 355 356 357 358 358 357 356
297 300 304 309 307 304 300 302 303 303 304 306 306 310 303 298 305 303 305 309 308 313 315 319 319 322 320 321 326 326 328 328 330 333 334 334 337 338 337 341 342 346 346 346 348 350 350 350 352 353 353 353 353 355 355 355 356 356 358 358 358 357 355
306 305 306 307 306 303 303 302 302 304 304 305 304 303 301 316 304 298 308 315 309 311 316 320 322 322 325 327 329 328 329 330 329 330 334 333 334 336 340 340 341 342 345 347 348 349 350 350 353 352 353 354 354 355 354 355 355 355 357 358 358 356 355
305 306 306 306 305 305 305 304 304 303 304 305 303 306 308 312 303 300 310 314 313 314 315 319 322 324 325 323 327 328 330 329 330 331 329 330 331 334 335 339 342 343 344 346 347 348 349 350 350 351 352 353 355 355 355 356 354 355 357 358 357 356 354
303 304 305 305 304 304 304 304 304 305 304 304 305 306 308 309 311 310 314 316 313 313 315 318 322 327 325 327 328 326 325 325 330 329 331 330 331 332 334 338 339 342 344 346 347 348 349 349 350 350 351 352 353 352 353 354 355 355 358 358 357 355 353
301 303 304 304 303 303 302 304 305 305 305 305 305 306 307 310 309 311 311 316 315 318 323 323 328 330 323 322 320 321 327 329 328 329 329 331 331 332 336 339 339 341 343 345 347 347 348 348 349 350 351 352 352 351 352 353 354 356 358 358 357 355 353
300 303 303 303 303 303 302 302 304 304 303 302 303 304 309 307 307 310 309 308 309 316 320 319 322 323 324 322 325 327 328 327 330 329 330 331 333 333 335 337 338 340 341 343 344 345 346 348 349 350 351 351 350 350 352 353 353 355 355 356 355 355 354
301 305 304 303 302 301 298 300 303 305 304 306 306 306 310 308 309 308 306 306 315 318 323 319 320 318 322 324 324 327 329 331 329 331 332 332 333 334 336 337 338 338 338 341 343 344 345 346 347 349 351 349 349 351 352 354 354 355 355 355 355 354 353
302 305 302 302 299 292 295 306 308 307 305 305 304 304 306 309 312 311 314 315 318 322 321 317 320 321 324 326 331 331 331 331 331 331 334 334 333 334 334 337 337 339 340 341 343 346 347 348 347 350 350 349 351 353 354 356 356 355 355 355 355 353 352
301 303 302 298 293 296 309 315 314 309 308 308 306 307 308 309 312 314 315 317 321 323 320 322 323 324 331 325 325 323 323 328 330 331 330 333 333 334 336 337 337 340 342 343 344 345 345 345 348 349 348 349 351 352 353 353 355 355 354 354 353 352 351
304 301 300 292 295 308 312 311 313 313 310 309 308 306 311 315 311 314 312 316 318 324 323 322 325 325 324 324 326 326 326 329 329 328 329 330 331 333 335 338 340 342 340 341 341 344 346 347 347 346 347 348 347 350 353 353 354 354 353 352 352 351 349
299 302 300 299 309 306 308 308 311 312 310 306 305 302 306 315 316 315 315 317 321 321 321 321 321 324 322 324 324 323 324 325 327 330 332 331 334 337 339 338 341 346 346 346 345 349 347 346 346 346 348 347 348 350 350 351 352 352 351 350 350 349 347
304 301 298 300 299 296 305 311 315 316 314 316 316 314 311 318 319 318 317 319 320 322 320 319 322 324 319 315 320 325 326 325 326 328 332 333 335 337 338 346 345 347 347 348 348 345 346 348 351 351 349 349 350 349 350 351 350 350 349 348 349 348 347
303 302 297 297 296 300 313 312 314 316 317 316 316 309 305 319 319 319 319 318 321 322 321 322 322 318 313 315 323 328 329 327 327 330 331 333 335 338 339 341 343 345 348 348 346 348 348 346 346 349 350 350 349 348 349 349 348 347 347 348 347 346 346
303 301 298 297 303 303 311 313 315 316 318 315 312 300 302 319 319 320 320 319 320 321 323 322 321 318 313 317 322 329 333 333 335 337 337 337 337 339 342 344 346 346 346 346 346 346 344 343 345 347 348 347 348 347 347 346 346 346 346 347 347 347 346
303 300 301 304 306 314 314 313 315 316 317 313 304 297 311 319 321 320 319 319 320 322 321 320 319 321 328 331 333 336 336 335 337 339 341 341 342 341 341 341 343 343 344 344 343 343 342 343 344 345 346 345 344 344 344 345 345 346 347 347 346 345 345
301 303 299 300 306 311 312 315 315 318 310 302 303 315 316 319 318 319 319 318 319 321 325 325 328 332 333 334 336 337 338 338 339 339 339 339 339 340 341 341 341 340 340 340 341 340 341 341 342 343 345 344 342 343 343 343 345 345 345 345 345 344 343
305 303 300 297 293 311 315 313 316 318 309 314 315 318 320 320 322 322 324 324 326 329 329 332 333 332 333 334 336 337 339 340 340 340 340 340 339 339 339 339 340 340 340 340 339 338 337 339 341 343 344 342 342 342 343 344 344 344 344 344 343 343 342
304 302 299 297 309 312 315 313 309 316 318 319 321 322 320 325 326 326 327 329 331 332 332 331 332 333 333 334 336 336 337 338 340 341 343 343 341 339 337 337 339 340 338 336 334 335 336 339 341 342 344 342 342 342 343 343 343 343 343 343 342 342 341
307 305 311 313 315 315 316 315 315 320 324 326 326 326 325 325 325 329 327 327 329 330 331 331 331 330 332 333 334 335 335 336 336 335 336 338 339 339 338 337 339 339 338 337 336 336 337 339 341 342 344 344 343 343 342 341 342 341 342 341 340 340 340
315 313 314 316 316 316 314 316 315 315 317 319 321 321 319 320 322 325 325 326 327 330 332 328 329 330 331 331 332 334 336 337 340 340 339 339 340 340 340 338 338 338 338 338 337 336 337 339 340 341 343 345 345 344 341 341 342 342 341 340 339 340 340
306 300 316 312 312 315 314 313 315 316 316 316 318 319 320 320 320 320 322 322 323 325 327 328 328 328 330 330 332 335 335 335 337 339 342 342 342 342 340 340 340 339 338 337 337 337 336 337 339 339 341 342 345 342 340 341 340 341 340 340 339 338 338
309 307 312 315 315 315 317 315 314 314 316 317 318 319 321 321 322 322 324 325 324 325 324 328 327 327 330 331 332 331 333 335 336 337 338 340 341 339 341 341 341 340 340 340 338 338 337 337 338 339 339 340 341 340 339 338 339 340 339 339 339 338 337
309 312 313 313 314 315 317 316 316 316 317 317 317 318 318 320 320 320 320 321 322 324 325 328 328 328 329 331 333 331 334 336 336 336 337 338 339 340 340 340 341 342 340 339 339 338 337 337 337 338 339 338 338 339 338 338 340 339 339 338 338 338 338
305 307 308 312 306 305 314 316 316 316 316 317 317 316 316 317 317 317 316 317 320 321 323 324 324 323 324 326 330 329 333 335 336 336 335 335 336 337 338 339 339 339 340 340 338 337 337 337 337 338 338 338 338 337 337 338 339 339 339 338 338 338 338
305 311 313 313 312 313 313 316 315 315 317 317 316 316 315 315 316 317 316 315 316 317 318 321 320 320 320 321 323 323 326 331 334 335 335 334 335 335 337 337 338 339 339 338 338 337 337 337 338 338 338 338 339 337 338 339 339 340 339 337 335 335 335
309 310 311 312 313 309 311 315 316 316 315 315 312 312 314 317 317 317 317 318 316 316 316 317 319 319 319 320 321 321 323 325 327 329 332 334 335 336 337 337 337 336 336 337 336 337 337 337 338 338 337 337 338 338 339 339 340 340 338 337 335 334 335
308 310 312 313 312 312 314 314 315 317 319 319 314 313 314 314 315 317 318 317 320 317 317 316 318 320 319 320 321 322 322 323 325 327 329 331 331 333 333 336 337 337 337 337 338 338 337 337 338 338 338 338 339 338 339 339 338 338 338 337 335 335 336

ECMWFFLT2_sfc_thetae_024.txt.gz
Theta_e
310 310 311 310 311 301 307 307 303 307 314 312 308 309 310 310 307 303 313 311 312 318 320 322 322 322 322 323 324 325 327 330 337 336 337 340 341 343 345 346 347 350 351 352 352 354 354 355 356 356 359 360 360 361 362 364 366 366 368 369 368 369 369
311 313 312 312 311 311 310 303 307 313 316 314 310 302 306 304 300 303 308 307 309 309 306 319 319 317 318 320 321 321 326 331 333 334 336 338 340 342 345 348 350 351 351 352 352 353 354 355 356 358 360 362 362 362 363 364 364 364 367 368 367 368 369
310 312 311 309 311 312 309 308 315 307 303 302 309 308 299 299 299 301 305 308 309 310 310 315 316 317 318 320 322 322 322 330 333 334 337 339 341 342 343 345 349 350 351 352 353 352 353 356 358 359 359 361 361 362 363 363 364 365 366 367 368 368 369
310 310 308 301 305 310 312 313 311 313 310 306 305 306 308 307 300 301 301 305 304 314 314 316 316 319 320 319 320 321 322 324 334 336 336 338 340 341 342 343 347 350 350 351 352 352 352 355 356 357 357 358 358 360 362 363 364 366 367 367 368 368 368
308 302 305 303 305 304 305 305 305 309 308 312 310 310 307 304 302 301 301 300 306 314 318 317 318 320 321 320 320 322 322 324 327 336 336 339 341 341 342 344 346 348 350 351 352 353 353 355 356 356 356 357 357 358 360 361 362 364 364 366 366 367 368
303 304 309 308 307 308 307 305 304 306 306 304 301 301 311 308 304 300 301 300 309 316 320 321 319 321 320 322 322 322 323 323 327 331 338 341 342 344 344 344 345 346 350 351 351 353 354 353 353 354 355 356 357 357 358 359 359 360 360 363 366 368 369
304 307 310 312 311 310 309 309 305 308 307 308 304 297 303 308 308 309 307 304 307 318 322 321 321 321 321 322 322 321 322 324 327 337 337 341 345 344 343 344 343 345 349 351 351 353 354 354 355 355 356 355 356 357 358 359 358 359 359 361 365 369 368
310 311 312 312 312 310 307 308 309 308 305 306 306 306 308 306 307 305 304 302 307 317 325 323 321 324 322 323 322 324 324 323 330 338 338 342 345 346 344 344 342 345 348 352 353 353 354 355 356 356 355 357 357 357 357 358 358 359 360 360 362 367 368
304 306 309 309 311 309 306 305 307 309 309 309 309 309 311 305 306 307 304 299 305 317 326 331 327 322 320 320 321 327 331 332 331 338 340 340 345 347 344 344 345 347 348 350 353 354 356 356 355 358 357 356 356 357 357 356 358 359 361 362 361 365 367
294 295 296 298 301 304 307 308 307 308 307 307 306 302 305 299 307 310 305 305 311 317 326 323 324 323 322 322 322 322 327 336 336 339 342 344 345 347 346 345 345 346 350 353 355 357 358 357 357 359 359 357 356 358 358 358 358 360 360 362 361 363 365
301 304 307 310 310 308 303 305 306 306 308 308 307 307 304 301 306 305 308 310 311 313 315 316 318 319 319 319 322 321 328 332 336 345 344 344 345 347 344 347 347 351 354 355 357 358 358 357 359 359 358 358 358 360 360 359 359 361 362 363 363 362 364
308 309 309 310 310 307 307 306 305 307 307 307 306 303 301 310 305 300 308 313 309 311 315 317 318 319 320 321 322 322 323 332 337 340 348 346 344 346 347 348 349 351 354 356 358 359 359 358 359 360 359 359 360 361 360 360 360 359 361 363 364 363 364
309 309 309 310 310 309 308 308 307 306 307 307 305 306 307 309 303 302 310 313 311 312 314 317 319 320 321 319 321 322 322 323 337 348 345 341 341 345 344 348 350 352 353 356 358 358 358 358 359 360 360 360 362 363 363 364 361 361 364 364 365 364 365
309 310 310 310 309 309 308 308 308 308 308 307 307 307 307 307 308 309 309 312 311 313 315 316 318 321 321 321 323 322 323 326 340 342 344 339 339 342 344 348 349 352 354 357 358 358 358 358 359 358 359 361 360 361 362 362 363 363 364 365 366 366 365
307 309 310 310 309 308 307 308 309 309 308 308 308 307 308 309 308 308 308 309 310 316 319 318 319 321 320 320 320 321 324 324 329 337 337 339 338 340 345 349 349 351 353 356 357 357 357 358 359 359 360 362 362 360 362 363 364 364 364 365 366 367 366
304 308 308 309 309 309 307 307 308 308 307 306 307 306 308 307 307 308 308 307 308 314 318 318 319 319 320 320 323 322 322 324 330 337 337 337 341 340 344 347 349 350 351 355 355 356 357 358 361 362 362 362 362 360 362 362 362 363 363 364 365 367 367
304 307 308 307 307 306 303 304 307 309 309 309 310 310 311 310 310 307 305 306 313 316 317 315 317 316 319 321 322 322 324 337 336 337 338 338 341 343 346 348 348 349 350 354 356 356 357 358 360 361 363 361 361 362 363 364 365 364 364 363 366 367 368
305 307 307 307 303 297 299 310 312 311 308 309 307 307 309 311 311 309 312 313 317 316 316 317 318 317 317 321 331 331 334 339 345 339 338 339 340 343 345 348 349 351 352 353 355 357 359 361 361 363 364 362 364 364 365 366 365 364 364 365 366 366 367
304 307 307 302 296 298 311 314 314 314 312 312 310 310 311 312 313 313 312 314 316 318 318 319 320 324 327 330 331 331 337 341 339 342 339 341 343 345 347 349 349 351 353 354 357 357 357 358 361 362 361 362 364 363 364 364 365 364 364 366 365 366 365
309 306 305 295 297 310 312 314 315 317 315 313 311 309 311 313 313 314 313 314 315 317 319 320 322 325 324 330 339 343 338 336 335 332 335 339 342 343 346 349 350 351 350 353 354 356 358 358 359 361 359 358 358 362 364 364 364 365 365 365 364 365 364
302 304 303 302 310 308 310 311 314 315 312 312 310 305 309 313 314 314 314 315 315 316 318 319 320 329 330 328 329 332 332 335 334 332 334 336 340 342 346 346 348 354 355 355 357 359 358 356 355 354 355 356 359 362 362 362 364 364 363 362 362 364 362
307 304 302 303 303 300 306 315 319 322 320 321 319 316 313 317 316 316 316 316 318 318 318 319 324 330 323 317 318 326 331 334 335 334 336 336 339 341 344 348 352 355 353 352 358 354 355 353 356 357 357 356 360 361 360 361 362 361 361 360 362 363 361
306 304 300 300 299 302 315 317 317 320 321 320 320 313 307 317 318 318 317 316 319 320 319 319 329 322 314 314 319 325 332 333 332 333 336 338 340 344 347 349 349 348 351 354 354 354 356 358 359 361 360 361 360 359 359 361 360 359 358 360 360 361 360
304 303 301 299 306 304 315 317 318 319 322 318 315 302 303 317 319 320 320 317 318 320 321 327 327 320 313 314 322 337 335 332 333 337 339 341 342 343 346 347 351 356 357 356 355 357 357 359 361 362 362 358 357 358 360 358 356 357 358 360 362 361 360
304 303 302 306 307 317 316 318 319 320 321 319 307 299 310 324 327 327 331 325 321 322 323 329 323 325 330 340 337 337 337 338 340 342 345 347 347 346 347 351 352 355 354 354 354 357 358 359 359 359 358 358 358 359 358 356 356 357 360 360 359 359 358
302 304 301 302 307 318 317 321 320 322 315 306 306 318 325 328 325 328 326 326 328 329 331 330 326 334 336 338 338 339 341 343 344 343 344 346 348 351 351 351 351 352 355 359 358 358 359 358 358 359 360 358 358 357 357 357 358 359 359 358 358 357 355
306 305 303 300 295 314 320 319 319 321 311 316 323 326 328 328 329 327 328 326 328 330 331 332 337 335 335 337 340 341 342 343 344 345 346 347 347 348 350 352 353 353 354 354 353 353 352 354 357 357 358 357 356 357 357 356 356 357 357 356 356 354 352
301 302 300 300 309 319 321 319 314 320 320 323 327 328 328 329 332 333 332 334 332 333 337 336 338 341 341 343 344 344 345 346 347 347 348 348 348 347 348 350 351 351 351 350 348 349 350 354 356 357 358 356 355 356 354 355 355 355 355 354 353 351 350
308 305 309 320 322 321 321 322 320 321 323 324 326 328 328 330 331 336 335 335 337 338 339 338 338 337 339 340 341 341 342 343 344 344 344 344 344 345 345 346 349 348 348 349 349 349 351 353 355 356 356 356 356 353 353 355 354 354 353 352 351 349 349
319 318 321 322 321 320 320 322 322 321 321 324 326 327 327 329 332 334 334 335 336 337 338 335 336 336 336 336 337 339 342 344 346 347 347 347 347 347 348 349 348 348 348 348 349 349 351 352 353 355 358 358 355 352 353 353 354 354 352 351 349 348 347
308 303 320 319 317 318 320 320 322 323 323 322 325 327 328 328 329 330 331 332 334 335 335 336 335 335 337 338 340 342 343 342 343 345 347 349 349 349 349 350 350 350 350 348 348 348 348 351 351 352 356 355 353 353 352 352 352 353 352 350 348 347 346
311 315 318 318 318 319 320 320 318 319 321 323 325 325 326 327 327 327 328 329 328 330 332 334 331 331 333 335 336 337 339 341 344 345 346 347 347 349 352 352 351 350 349 349 348 348 348 349 350 351 351 351 351 351 349 349 351 351 349 348 346 346 345
314 318 318 319 318 318 317 319 321 322 322 322 323 324 324 323 323 324 325 326 326 328 329 332 334 335 335 334 335 335 339 341 343 344 345 347 348 348 349 352 352 351 351 351 350 348 348 350 350 351 349 347 348 349 348 350 351 350 347 345 346 344 343
310 311 315 320 311 309 314 316 319 320 321 321 321 322 322 323 323 323 322 323 325 326 328 330 331 330 332 335 337 336 338 340 342 343 343 344 345 346 348 349 351 351 352 352 350 349 348 350 349 348 347 347 348 346 348 349 350 349 347 345 344 342 342
309 313 319 319 317 319 318 319 319 321 320 320 318 318 319 321 323 323 322 321 322 323 325 327 328 329 330 331 333 333 334 337 340 342 343 342 342 343 345 345 346 347 348 349 349 349 348 348 347 347 347 347 347 346 348 349 350 349 348 345 342 340 339
314 315 318 321 320 315 314 316 318 320 322 319 318 318 319 319 320 321 321 321 321 321 323 324 326 326 327 328 328 329 331 333 336 337 339 342 343 342 343 345 346 346 347 347 346 345 346 346 346 347 346 347 347 347 348 349 349 349 348 344 342 340 340
315 316 320 320 318 315 316 317 317 320 321 322 317 318 320 320 320 321 320 320 322 321 321 321 323 325 325 325 326 327 327 328 330 331 333 334 335 338 340 343 344 344 343 343 344 345 344 345 346 346 346 347 348 347 348 347 347 347 347 344 341 340 342

ECMWFFLT2_sfc_thetae_027.txt.gz
Theta_e
312 311 312 311 312 301 308 309 305 308 315 312 308 310 311 310 306 304 312 310 313 318 318 321 323 323 324 325 325 324 325 326 329 328 328 333 339 338 342 347 349 351 352 353 353 354 354 356 355 354 356 358 359 360 361 365 368 369 371 371 370 370 370
314 315 313 312 312 312 310 304 308 315 317 314 310 303 306 304 301 304 308 306 309 309 306 319 320 320 321 323 324 324 325 326 324 326 331 333 338 343 346 349 352 352 352 354 354 354 354 356 357 358 359 360 360 360 362 365 367 367 369 370 370 370 370
314 316 314 310 312 313 309 308 315 307 302 302 309 307 299 300 300 302 306 309 309 310 311 317 317 318 319 322 323 324 323 324 325 326 331 337 339 341 346 347 350 351 352 354 355 354 355 357 360 361 360 360 360 361 364 365 367 367 368 368 370 370 371
313 313 310 303 306 311 312 313 311 314 310 307 304 307 307 307 301 301 302 306 305 313 314 317 317 320 320 321 322 323 323 323 323 327 328 331 338 342 345 347 349 351 352 354 354 354 353 356 359 360 360 361 359 360 364 365 366 368 368 369 370 370 370
312 305 308 305 307 304 305 305 305 309 309 312 312 310 307 304 303 302 302 300 306 314 319 318 320 321 322 322 322 323 323 323 324 326 327 330 334 338 344 347 349 351 352 354 355 355 354 356 360 360 360 359 359 360 362 362 365 365 365 366 367 370 370
305 307 312 311 310 310 307 305 304 306 306 305 302 301 310 308 305 300 302 301 311 316 320 320 321 322 322 324 324 323 325 325 330 327 329 330 333 343 346 346 348 350 353 354 355 355 355 355 357 357 358 358 357 357 359 361 360 362 362 364 367 370 371
306 309 313 314 313 312 311 309 306 308 308 309 305 298 303 308 308 310 308 304 308 320 322 323 322 322 322 324 323 324 324 327 326 327 326 331 339 345 345 345 345 349 353 354 355 356 355 355 359 358 357 356 355 355 357 360 359 361 360 362 366 370 370
311 313 314 314 314 312 309 309 310 308 304 307 307 307 309 306 307 305 305 303 307 318 325 325 322 327 324 325 324 325 324 324 325 326 329 334 339 348 347 346 344 348 352 356 359 357 358 358 360 358 357 357 355 354 355 357 358 359 359 360 363 369 370
305 307 310 309 312 311 307 306 309 310 309 308 310 310 312 306 306 307 304 300 306 317 322 324 324 323 322 323 324 325 324 326 325 328 329 333 340 349 348 346 347 350 350 354 360 360 362 362 358 360 358 357 356 356 355 355 357 359 359 360 362 367 369
296 296 297 299 302 305 307 309 308 309 309 308 306 302 306 301 309 310 305 305 312 318 323 320 321 322 325 324 324 325 326 327 325 326 328 343 345 352 351 349 348 349 356 358 362 363 363 359 358 362 363 358 357 358 358 357 357 358 359 359 360 365 368
303 305 309 311 311 308 304 306 307 307 309 309 308 307 304 301 306 306 309 310 311 314 316 318 319 321 321 322 324 323 324 325 327 333 346 343 350 353 349 349 349 355 359 358 359 362 359 358 360 360 358 359 359 362 361 357 357 360 362 362 363 363 367
310 311 310 311 311 308 308 307 306 307 307 308 307 304 302 311 305 299 308 314 310 311 316 318 319 320 322 323 324 324 325 327 327 328 353 352 348 351 350 349 350 352 355 358 359 361 361 359 361 361 361 360 360 363 361 359 358 359 360 363 363 363 367
310 310 311 311 311 310 310 309 308 307 307 307 306 307 308 310 304 301 309 314 311 312 313 316 320 321 322 322 323 324 325 325 329 334 336 347 349 351 348 350 352 353 353 358 359 360 361 361 361 362 362 362 363 364 364 364 358 360 364 365 364 364 367
309 310 310 311 310 310 309 309 310 310 309 308 307 307 308 308 310 310 311 314 311 314 314 317 319 323 323 323 325 325 325 324 330 328 328 337 339 346 350 351 351 356 356 360 361 362 363 361 362 362 362 363 362 362 362 361 362 362 366 367 367 366 366
308 310 311 311 310 309 307 309 310 310 310 310 309 308 308 310 308 308 309 311 310 315 321 320 321 323 323 324 323 323 326 325 324 324 324 328 328 331 347 355 353 357 359 361 362 362 362 362 362 363 365 365 364 362 363 363 364 363 365 369 368 368 367
306 310 311 311 310 309 307 307 309 309 309 308 309 308 310 308 308 309 308 307 308 313 319 320 322 321 322 320 323 325 325 324 325 326 326 326 329 329 331 340 354 357 359 362 362 362 362 361 364 365 366 365 365 363 365 365 362 363 366 367 368 369 369
305 309 310 309 310 309 304 305 307 309 311 311 311 312 312 311 310 307 305 306 313 316 318 317 319 319 320 321 321 323 325 333 327 326 326 326 327 330 345 349 354 356 357 360 364 363 364 362 364 366 367 365 366 367 368 369 368 367 368 369 370 370 371
305 308 310 311 306 298 299 311 314 313 310 311 309 309 311 313 314 311 313 313 316 316 315 315 316 317 319 322 327 327 327 327 331 325 327 326 327 326 329 340 343 358 359 359 363 366 366 365 364 368 370 367 367 368 369 371 368 369 369 370 372 371 373
304 309 309 304 299 299 312 315 316 316 314 313 311 312 313 314 315 315 314 314 315 317 317 317 318 321 321 322 323 323 323 326 325 328 325 329 329 331 336 341 336 353 361 360 364 366 364 363 366 366 367 367 368 369 370 369 369 369 369 370 371 372 371
310 308 306 297 298 312 314 314 314 316 315 314 312 310 313 314 315 315 314 316 317 318 317 318 321 322 320 321 324 326 323 324 324 322 323 327 327 326 331 345 354 360 358 360 361 363 364 362 364 365 366 368 366 368 370 369 369 370 370 370 371 372 371
303 304 304 303 311 310 311 311 314 313 312 313 312 308 313 317 316 316 315 316 317 318 318 318 319 322 321 321 320 322 322 325 325 324 325 326 327 327 342 339 348 362 362 362 363 367 364 363 363 364 366 366 367 368 369 368 369 370 369 369 370 371 371
308 304 302 303 303 299 306 319 319 322 320 319 320 317 313 318 317 318 317 316 317 318 318 319 320 322 318 315 317 323 324 325 325 324 324 326 327 328 335 352 356 364 363 362 364 363 362 363 366 368 366 367 369 368 368 368 368 368 368 368 369 370 369
307 305 301 302 299 304 319 316 318 320 321 319 320 313 307 317 319 319 319 318 318 318 318 319 320 316 312 312 317 324 326 327 327 328 330 332 330 334 343 351 356 358 361 362 363 364 363 363 366 369 368 368 367 366 367 368 366 364 366 366 367 367 368
306 305 302 301 308 307 316 320 319 320 320 320 315 301 303 330 328 330 329 328 326 328 333 320 318 316 311 312 318 323 326 328 328 328 330 332 331 334 347 351 357 361 363 363 363 361 360 366 368 367 365 366 366 365 366 365 362 362 364 365 368 368 369
304 303 303 305 308 317 319 319 320 321 321 316 306 299 313 327 330 329 332 330 330 330 330 330 316 319 320 321 325 325 327 326 326 329 338 339 336 339 345 348 357 359 361 362 360 362 365 365 362 363 365 365 363 364 363 360 360 361 365 368 368 367 367
303 304 302 302 308 318 321 322 320 322 315 306 307 322 330 331 327 332 330 331 333 333 330 331 330 322 322 323 323 330 335 337 339 339 340 341 345 350 351 357 356 358 357 360 360 359 363 362 362 364 365 363 362 361 359 359 362 365 368 368 366 366 364
306 305 302 300 295 318 322 320 318 322 311 314 324 325 326 327 329 329 331 330 333 335 332 330 332 333 324 322 324 333 337 344 345 346 346 347 346 351 356 356 357 355 357 358 362 364 362 362 363 363 364 362 359 360 361 364 365 366 365 364 363 362 361
301 301 299 299 310 320 323 321 313 323 323 323 326 324 324 329 330 330 330 332 334 337 336 331 330 328 330 334 338 343 347 346 346 349 352 355 357 356 354 354 356 359 361 359 356 358 357 360 363 363 362 360 362 362 361 363 363 363 363 361 360 357 357
307 305 308 321 322 322 324 324 322 324 326 328 328 329 328 329 330 334 334 333 334 336 337 335 333 332 336 342 344 344 346 348 349 350 352 352 352 351 352 355 357 355 351 351 354 357 359 362 362 363 365 363 361 359 360 361 361 360 359 356 354 353 353
321 322 322 323 322 321 322 322 325 324 325 328 329 328 329 330 332 334 333 333 334 336 338 332 338 338 340 341 338 342 347 347 350 351 351 351 353 354 353 353 353 355 355 356 356 357 360 362 362 362 362 361 357 358 360 359 359 357 356 354 352 351 351
311 304 319 319 319 321 321 322 324 325 324 323 325 326 330 329 330 331 334 335 335 336 336 337 339 340 342 343 344 346 346 347 348 347 348 348 349 349 350 351 351 351 352 351 352 354 354 357 356 356 356 356 357 358 358 358 356 356 354 351 349 349 349
312 313 321 322 324 325 324 323 323 321 322 324 326 327 328 329 329 330 332 334 334 336 336 339 338 339 340 341 342 343 344 345 347 349 351 352 352 352 351 352 353 353 352 351 351 353 353 354 354 353 353 354 355 355 354 355 355 354 351 349 347 347 346
316 319 321 321 322 322 322 323 324 324 325 325 325 326 325 325 325 327 329 332 336 333 335 337 337 335 337 339 343 341 341 343 344 346 348 350 352 354 354 353 353 353 353 352 352 351 351 352 352 352 351 351 352 354 353 354 355 351 348 347 348 347 346
308 312 316 318 312 312 317 321 323 322 323 324 323 323 323 323 323 325 325 326 328 328 330 331 333 333 334 336 338 338 339 341 343 345 345 346 347 350 353 354 354 355 355 354 352 352 351 352 351 351 350 351 352 352 354 355 354 351 350 348 347 345 345
306 315 322 322 322 320 321 322 323 324 324 323 321 320 320 320 322 322 322 322 323 324 326 328 328 329 330 332 333 333 335 339 342 343 344 344 344 345 347 349 351 353 354 354 354 353 352 352 351 350 350 351 352 353 354 356 354 352 352 347 345 344 343
318 320 321 323 321 317 320 322 323 323 326 323 320 319 319 319 322 321 322 322 322 322 323 324 326 326 327 328 328 328 330 332 336 339 342 343 344 345 348 350 350 351 351 352 352 351 352 351 350 351 350 351 353 353 354 353 354 353 351 346 343 341 342
317 319 323 322 320 320 321 321 321 321 321 323 319 318 319 320 320 322 322 321 322 321 320 320 322 324 325 325 326 326 327 327 330 333 336 338 339 341 341 342 346 348 348 349 351 352 352 352 351 351 350 351 352 352 352 351 352 351 349 346 341 340 342

ECMWFFLT2_sfc_thetae_030.txt.gz
Theta_e
313 312 313 312 312 300 306 307 302 304 311 309 305 307 308 308 304 302 310 309 312 316 316 318 321 322 323 324 324 324 326 326 329 330 333 334 335 335 336 339 343 347 347 349 352 352 351 352 353 352 354 356 358 359 361 365 366 367 367 366 365 367 368
313 316 314 313 313 311 308 302 305 311 313 311 306 299 303 302 299 302 307 305 307 308 305 317 317 318 319 322 322 323 325 328 327 331 333 334 335 338 340 343 346 347 348 351 352 351 351 351 352 354 356 357 358 360 361 363 365 366 367 367 365 366 367
313 315 313 310 313 313 307 306 313 304 300 299 306 303 297 297 297 300 305 306 307 309 309 314 314 316 318 321 324 323 323 324 325 333 332 337 339 338 339 340 346 347 347 349 353 352 351 352 354 356 357 357 357 359 361 362 364 366 368 366 366 366 367
313 312 310 302 306 311 312 311 308 312 307 304 301 303 305 305 299 299 300 304 303 312 312 315 315 318 320 320 322 321 323 323 325 327 335 338 336 337 337 337 341 344 346 346 349 352 351 352 355 355 355 354 353 356 360 361 364 368 369 368 367 366 367
312 304 308 305 306 304 305 305 303 306 307 310 308 307 305 302 300 300 300 299 305 312 317 316 318 323 322 321 323 324 324 325 325 327 329 335 336 338 338 340 341 343 344 346 349 352 353 353 356 355 354 353 351 353 357 360 363 365 366 367 368 367 366
306 307 311 311 310 309 307 304 302 304 303 303 299 298 307 306 302 298 299 299 308 314 318 321 321 327 321 323 325 325 324 324 328 328 332 331 336 341 340 339 340 342 349 351 352 353 355 354 353 354 354 352 351 351 355 359 361 363 364 367 368 367 367
307 310 313 315 314 313 311 308 305 306 305 306 303 295 301 306 306 307 305 302 305 318 326 325 322 323 321 324 324 324 324 325 326 328 328 333 338 339 337 338 338 340 347 347 346 349 355 354 355 355 354 352 351 353 356 357 359 362 364 366 367 368 367
311 313 315 315 315 313 309 310 309 307 303 305 304 304 306 303 304 302 302 301 305 316 339 329 322 335 323 325 325 329 324 324 326 327 328 336 342 341 339 338 338 344 346 347 346 347 354 355 357 357 357 355 354 354 354 356 357 362 363 364 365 368 368
304 306 310 310 312 311 308 307 309 309 308 307 307 307 311 304 303 304 302 298 304 315 322 337 328 322 320 321 323 324 324 327 326 329 342 337 343 342 341 342 344 345 344 345 348 353 357 357 357 359 358 357 356 356 355 355 357 361 362 363 363 365 366
295 295 297 299 302 305 308 309 309 309 308 307 304 300 304 298 310 310 303 303 311 317 321 321 322 322 327 326 323 322 326 340 328 332 339 345 344 348 348 349 346 344 344 348 356 360 360 358 358 360 360 359 357 357 357 357 357 360 361 361 363 364 363
301 304 309 310 310 308 304 306 307 307 308 309 307 306 302 298 304 305 309 310 310 314 315 319 318 320 321 323 324 324 328 329 335 346 352 348 346 350 348 351 348 349 351 353 359 363 360 358 359 360 360 359 358 359 357 357 358 359 361 359 362 364 366
307 310 310 310 311 307 307 306 306 307 307 308 306 303 300 309 305 298 308 318 310 310 314 320 321 319 321 324 329 324 328 337 338 329 341 355 352 353 355 355 355 356 364 363 362 364 362 359 359 361 361 360 359 359 356 355 356 356 358 359 362 365 367
308 309 310 312 310 309 309 308 307 307 307 307 305 306 307 310 302 299 309 317 315 314 313 315 320 327 324 320 323 325 327 327 337 357 343 350 349 351 351 354 355 358 364 366 365 365 363 360 359 361 361 360 360 361 358 356 354 356 359 360 361 364 367
308 309 308 310 310 310 309 308 308 308 308 307 306 306 307 307 309 310 310 318 313 312 313 316 318 322 321 325 332 327 327 324 331 351 336 332 344 348 349 354 356 360 363 366 366 366 365 361 360 360 361 361 360 361 359 358 356 358 361 361 362 365 366
307 309 310 310 309 309 308 309 309 309 308 308 308 307 307 308 307 307 307 310 311 313 319 318 319 321 321 323 322 321 325 326 324 327 333 328 331 342 350 353 353 357 361 365 365 364 365 362 362 360 362 362 362 358 361 358 359 360 363 363 363 365 367
305 308 308 309 309 308 308 307 308 308 308 307 308 306 309 307 308 310 307 307 308 313 317 316 320 321 320 319 321 323 330 326 328 326 324 327 336 345 349 352 350 355 357 361 362 363 363 364 364 363 364 363 362 359 362 360 358 362 365 364 363 365 369
303 308 309 308 308 307 303 304 307 309 310 310 310 311 312 310 309 306 305 306 314 318 321 317 318 316 320 320 319 321 323 334 330 328 329 327 333 339 348 352 353 355 354 358 361 361 362 363 363 364 366 364 362 362 364 365 362 364 366 365 365 366 370
302 306 307 309 304 298 300 311 313 311 309 310 308 308 310 312 311 309 311 311 317 318 316 315 317 317 320 326 330 331 334 335 348 338 330 328 329 332 347 353 354 355 356 359 362 364 365 365 363 365 366 365 365 366 368 368 364 366 368 367 367 367 371
301 305 306 301 296 298 311 315 316 315 313 312 310 311 312 313 314 313 313 313 315 318 318 318 320 322 326 325 324 321 322 328 327 330 332 338 333 332 343 355 354 358 360 363 366 367 366 364 366 367 367 367 368 368 369 367 366 369 370 368 369 368 370
304 303 303 294 296 309 312 313 316 318 316 314 312 310 312 313 313 314 316 315 318 321 318 317 320 322 319 319 324 331 324 324 326 323 324 326 328 332 336 343 360 361 361 363 364 367 366 366 363 364 365 365 364 367 370 367 367 371 370 369 369 369 369
300 302 301 301 310 308 310 310 312 314 313 312 310 305 309 314 315 315 317 320 320 321 322 319 318 320 318 319 320 320 320 323 323 322 323 323 326 328 334 334 350 364 365 365 366 371 369 365 363 363 364 365 366 368 368 366 370 370 370 369 369 370 370
305 301 300 301 300 298 305 314 319 320 319 318 317 314 311 319 319 320 325 322 320 320 320 321 325 327 320 313 316 322 320 321 321 322 323 323 324 327 328 333 334 361 366 366 367 370 368 365 366 368 368 367 367 368 367 366 369 368 369 369 370 371 371
303 301 299 300 298 302 312 318 318 320 320 319 319 312 306 321 325 328 325 324 325 325 326 329 328 325 316 317 317 321 322 322 321 321 322 322 323 325 327 328 330 357 365 365 367 369 369 366 368 371 370 369 368 368 368 367 367 366 368 370 371 370 371
305 303 300 299 305 304 314 318 319 319 321 320 316 302 303 328 330 327 328 326 325 329 331 331 328 323 315 316 325 325 322 323 324 327 328 328 327 326 328 328 331 363 367 366 368 368 366 367 370 371 370 369 367 367 367 366 365 366 367 370 372 372 370
304 304 304 305 306 316 321 319 320 321 320 317 305 298 310 326 328 327 328 326 328 331 330 332 326 330 331 329 329 325 324 324 323 330 339 341 338 338 330 332 361 369 368 366 366 367 367 370 370 371 370 368 367 367 368 367 365 367 370 372 372 371 369
302 303 301 302 306 315 320 319 319 321 315 304 303 322 328 328 323 327 326 327 329 331 332 333 333 334 334 333 331 327 325 329 336 330 339 344 342 336 339 360 362 364 362 370 369 369 371 371 370 369 370 368 368 368 367 366 367 369 371 371 371 370 367
304 303 301 299 294 312 317 318 317 320 309 310 322 325 326 326 327 328 329 330 333 332 331 332 332 333 333 334 333 336 338 336 338 340 341 351 352 355 359 362 361 358 363 366 365 365 363 365 367 369 370 368 368 366 365 367 368 370 369 369 368 366 364
299 298 298 298 309 315 319 319 313 322 323 325 328 325 322 326 327 327 328 331 333 334 333 333 334 334 332 337 343 340 341 343 343 345 349 359 357 354 355 357 357 359 365 365 361 362 361 366 367 368 369 366 364 364 365 368 368 367 367 366 364 360 359
304 303 306 315 322 321 322 323 324 325 327 327 326 326 323 323 324 328 327 329 332 335 338 338 336 334 335 339 341 343 345 346 347 347 355 356 355 354 354 354 360 360 360 361 361 362 364 366 367 368 367 363 362 363 365 365 364 364 362 361 358 356 356
320 320 320 321 322 322 322 323 324 323 322 324 325 324 324 324 327 330 331 333 334 336 338 336 337 336 337 340 340 341 342 344 346 350 354 355 355 354 355 356 359 358 359 359 359 359 362 366 366 365 366 365 361 361 363 362 362 361 360 358 356 355 354
313 302 320 320 321 322 320 322 323 323 323 324 326 326 326 326 330 333 334 334 333 334 336 336 335 333 334 334 335 336 337 337 338 338 341 350 357 356 357 359 357 358 357 355 355 357 359 363 363 361 360 360 360 361 360 360 359 359 357 355 353 353 353
311 310 318 321 322 323 324 322 323 321 323 325 326 327 329 330 330 330 330 331 330 331 330 332 333 332 332 333 333 334 333 333 335 335 333 331 333 351 359 358 358 357 357 355 356 358 357 358 359 358 358 357 358 358 357 356 356 355 353 353 351 350 350
313 315 317 320 320 320 321 323 324 324 323 323 323 324 325 325 325 325 326 326 326 325 325 327 330 331 332 332 333 331 332 331 330 332 333 334 332 331 336 345 350 355 355 353 352 352 353 355 356 355 355 354 354 355 355 354 354 351 349 348 349 347 346
309 310 313 319 312 310 316 319 321 322 323 322 322 322 321 321 321 322 322 322 323 323 324 326 327 327 328 330 331 331 332 333 331 333 334 334 334 335 335 337 343 346 345 349 349 349 349 351 351 352 353 353 353 353 354 353 352 349 348 347 346 345 346
308 316 320 322 318 317 318 319 322 322 323 322 320 319 319 319 320 320 319 319 319 319 320 322 323 328 330 329 329 329 332 334 331 333 335 335 332 333 334 336 337 340 350 351 350 350 350 351 351 351 351 352 353 352 352 352 351 350 349 346 344 343 343
317 319 321 323 320 314 315 318 320 321 322 320 319 319 320 320 320 319 318 317 316 316 318 319 320 321 321 322 324 327 328 330 334 334 334 338 337 337 338 338 338 344 348 349 349 349 351 351 351 352 350 351 355 353 355 355 353 352 350 347 344 341 341
315 321 321 319 318 316 317 318 319 319 320 321 318 318 319 318 317 319 318 317 317 315 316 316 318 319 319 320 322 323 323 324 326 329 331 334 337 340 340 344 346 347 348 350 350 350 351 351 351 351 351 352 354 354 355 353 352 351 351 348 342 341 342

ECMWFFLT2_sfc_thetae_033.txt.gz
Theta_e
308 308 312 310 310 295 300 301 297 300 304 303 301 302 303 303 298 295 306 304 306 311 310 313 314 317 319 320 320 321 322 324 327 327 328 329 330 332 334 337 337 339 341 341 342 342 343 345 346 346 347 349 351 353 356 357 357 358 358 359 358 358 359
309 311 312 311 311 308 301 298 300 307 307 306 301 292 296 294 290 295 301 298 299 301 297 310 311 313 316 318 319 321 322 324 325 326 328 330 331 332 333 335 338 339 340 341 342 344 344 345 346 346 348 349 351 354 356 356 357 358 358 359 358 358 358
309 311 310 308 310 310 304 301 308 300 293 295 298 300 289 290 290 292 297 300 300 302 303 307 308 309 314 316 318 319 320 322 324 326 328 331 332 333 332 333 335 338 340 341 341 342 345 346 347 348 349 350 350 353 356 357 357 359 360 360 359 359 359
308 308 306 299 302 307 309 308 304 306 300 296 295 297 297 295 291 294 293 298 295 308 304 308 309 310 312 316 317 317 320 322 322 324 329 330 331 332 332 333 334 337 339 341 342 342 344 346 347 348 349 350 350 352 355 357 359 360 361 360 359 358 359
308 300 304 301 302 300 301 301 300 301 301 304 300 301 297 293 292 290 292 290 298 305 311 309 310 311 313 316 317 318 321 322 323 325 328 330 331 331 332 332 333 336 338 341 343 343 345 347 348 349 349 349 350 352 354 357 357 359 360 360 359 359 359
301 303 307 307 306 305 303 301 300 301 297 295 292 291 301 299 294 289 291 292 301 308 315 313 313 315 315 316 318 318 320 322 322 325 328 330 330 331 331 332 333 336 339 341 343 344 346 348 348 348 349 349 349 351 353 356 358 359 360 360 360 359 359
300 306 309 311 310 309 307 305 302 304 300 298 294 286 292 297 298 301 299 295 297 309 313 313 314 320 318 317 319 318 319 321 321 327 329 330 331 331 332 332 334 336 339 341 343 344 345 347 348 348 348 349 349 350 352 354 356 358 360 361 361 360 359
306 308 310 310 310 309 305 305 306 303 300 300 297 296 298 296 298 295 295 295 299 310 312 327 318 316 321 319 321 319 320 320 321 326 329 329 330 331 333 333 335 338 340 340 342 344 345 346 346 347 348 349 349 350 351 353 354 357 359 361 362 360 359
295 300 304 304 308 307 304 302 304 305 304 303 302 301 305 297 297 298 294 291 296 309 312 313 315 318 317 317 319 321 319 319 320 320 328 330 331 332 332 333 334 336 339 339 340 344 346 346 347 348 348 348 349 349 350 351 353 356 359 361 361 361 360
289 289 291 293 296 301 304 305 304 305 304 302 299 295 295 288 299 300 295 295 300 307 310 312 312 311 313 318 318 320 321 320 319 320 329 330 331 332 332 332 333 335 337 340 341 344 346 347 348 348 348 349 349 349 349 351 352 354 357 360 361 361 361
294 297 301 310 309 303 301 303 304 304 305 305 302 298 294 290 293 299 298 300 305 308 307 309 310 310 311 313 319 316 317 322 322 321 329 330 332 332 331 332 334 336 339 340 342 344 347 348 349 349 349 349 349 348 348 350 352 354 357 359 361 361 361
302 306 306 307 308 304 304 303 303 305 305 304 302 297 295 299 296 289 297 307 305 304 306 309 309 310 310 318 316 317 323 330 329 328 327 337 332 332 332 332 333 335 338 340 341 341 343 348 350 351 351 351 350 348 348 349 352 354 357 359 360 361 360
304 305 306 307 307 306 305 305 304 303 304 304 301 301 302 303 296 294 298 304 305 307 306 309 314 315 313 316 322 319 319 325 330 331 329 330 331 330 330 332 334 336 336 338 339 341 342 345 348 351 351 351 351 350 349 350 352 353 357 358 359 360 360
304 304 304 305 304 305 305 304 305 305 304 304 304 303 303 303 302 302 302 304 305 308 306 308 308 317 323 324 327 324 319 319 331 333 332 331 331 331 331 333 336 337 338 338 340 341 344 346 347 350 352 352 351 350 350 350 351 353 356 357 357 358 358
302 304 305 305 304 303 303 305 305 305 305 304 305 304 304 305 302 303 303 303 304 307 307 308 310 313 316 317 318 322 326 328 337 332 333 335 335 338 339 335 337 338 338 339 342 345 347 348 349 350 352 353 353 352 352 351 351 353 355 356 356 357 357
303 305 304 304 305 304 303 303 304 304 304 302 303 302 304 302 301 303 303 300 300 306 312 312 311 310 314 314 318 320 323 326 329 335 335 338 339 342 342 340 340 342 346 346 347 349 351 351 351 352 353 353 353 353 353 352 352 353 354 355 355 356 358
299 303 305 304 304 302 299 300 303 305 306 309 306 305 307 306 305 301 299 297 303 305 312 308 308 308 308 310 312 314 317 318 318 321 331 337 340 342 342 342 342 344 350 351 350 352 353 353 352 353 355 354 353 353 353 353 353 352 353 354 354 355 358
298 302 303 305 301 293 295 305 308 308 305 306 304 304 305 306 305 303 304 304 309 315 314 310 308 307 308 309 313 315 314 317 319 321 322 323 326 340 342 343 343 345 351 354 355 354 354 355 354 354 355 355 355 355 355 354 351 351 351 353 353 354 357
296 302 303 297 292 295 309 309 310 310 309 309 307 307 307 308 310 310 308 308 309 315 316 316 315 314 317 322 322 319 321 321 327 325 326 329 326 327 339 342 343 344 347 351 354 354 355 355 354 354 355 356 356 355 355 353 351 350 352 352 352 354 357
300 298 297 290 292 307 311 309 313 316 312 310 308 305 307 309 308 314 314 314 318 317 316 319 319 318 318 315 316 318 318 319 323 323 322 321 325 330 334 340 343 343 344 348 351 353 356 356 355 355 355 356 356 355 356 355 352 351 352 353 352 354 356
293 294 294 295 304 303 308 310 311 309 308 312 306 300 308 316 318 318 317 317 318 321 321 321 321 322 321 317 315 318 316 319 319 317 317 319 319 320 330 340 343 345 346 348 352 354 355 356 356 356 356 357 357 356 356 356 354 352 355 354 353 354 356
298 293 292 293 293 292 299 310 315 316 315 314 313 311 308 324 321 321 320 319 322 324 325 322 319 318 314 311 313 320 325 322 317 317 316 316 316 318 325 341 344 349 350 351 353 354 355 356 357 357 357 358 357 356 355 357 355 354 357 356 355 355 357
297 296 292 291 291 295 306 312 312 317 316 315 314 308 304 323 324 323 321 323 325 325 325 324 324 315 310 312 316 325 328 326 324 319 317 317 316 317 317 330 342 348 349 351 352 355 356 355 357 358 358 357 357 355 355 356 356 354 357 358 357 357 359
302 300 293 292 299 300 307 313 315 315 319 317 310 297 299 317 326 323 324 324 325 326 327 328 325 321 316 318 323 328 329 330 326 326 325 326 328 326 319 318 323 342 349 349 349 353 355 356 358 358 358 357 356 356 355 357 356 355 357 359 360 360 363
299 301 299 298 300 315 320 318 316 317 318 315 299 292 308 324 324 326 327 326 327 327 325 326 322 325 327 327 327 331 339 339 333 331 331 330 332 340 344 335 336 322 344 350 352 354 357 358 358 359 358 357 355 355 356 356 355 356 359 362 362 363 365
298 298 297 297 303 313 318 316 319 318 313 299 297 315 325 325 324 326 327 327 328 329 328 327 327 329 332 337 338 339 339 340 340 341 341 348 350 357 356 353 350 337 321 340 353 356 359 358 358 359 358 356 355 356 356 356 356 359 362 363 364 365 365
302 302 299 294 288 309 318 319 315 318 309 310 319 322 322 324 324 326 329 331 332 333 331 334 334 334 336 337 337 337 337 338 337 338 338 338 341 346 349 350 350 352 355 350 353 357 360 360 360 360 359 356 355 356 356 357 359 362 365 365 365 365 364
296 297 294 294 305 312 316 316 311 316 321 322 326 320 317 323 324 326 329 331 333 334 333 332 332 333 333 334 333 334 335 336 336 337 337 336 335 338 343 344 344 351 353 354 357 360 361 361 361 361 359 356 356 357 357 360 363 365 365 365 365 363 360
303 301 305 313 318 319 321 321 320 321 322 323 322 322 325 326 328 331 329 329 331 332 332 330 330 329 331 332 333 332 332 332 333 334 335 334 333 335 336 337 338 338 337 338 340 345 357 361 362 362 361 359 356 357 360 362 363 365 364 363 361 359 358
315 315 316 318 318 319 320 321 321 321 321 325 328 329 326 327 327 327 326 327 329 330 330 328 327 328 329 330 330 331 331 330 331 333 333 333 333 333 335 337 339 339 340 341 340 344 352 362 362 360 361 360 357 360 363 362 364 364 361 358 356 356 355
304 298 316 316 317 319 319 319 321 324 325 325 326 324 324 324 324 323 324 325 326 327 326 325 323 324 327 327 329 330 330 329 329 331 330 331 332 332 332 333 336 338 340 339 336 337 344 352 362 363 362 362 361 361 361 363 362 359 356 354 351 351 350
308 307 314 317 320 318 319 318 317 318 321 322 322 322 322 322 322 322 322 323 323 325 323 322 321 321 322 324 326 329 329 328 329 330 329 329 331 333 333 333 335 336 335 334 334 335 335 338 343 343 344 347 349 354 359 359 356 353 351 350 350 349 347
312 315 315 316 317 317 317 318 318 318 317 317 319 320 319 319 318 318 318 318 317 318 319 323 323 321 320 321 321 322 324 327 329 330 329 328 331 332 332 333 334 332 332 332 334 336 337 338 341 342 342 343 346 350 351 354 353 350 348 344 346 345 344
305 306 311 316 308 307 313 316 319 317 317 317 316 316 316 317 316 316 316 316 317 317 317 317 318 318 319 320 320 320 320 322 327 331 329 327 328 329 331 333 332 336 336 333 333 335 336 337 339 341 341 342 343 344 345 347 346 344 343 344 343 342 342
305 314 316 319 317 314 315 315 317 318 318 317 315 313 313 313 314 315 315 314 314 314 315 317 316 315 315 316 317 318 319 321 325 332 333 329 327 328 331 330 330 331 334 338 336 336 337 339 341 342 342 344 342 342 344 345 344 342 341 340 341 341 341
315 318 319 320 317 313 314 316 316 317 318 315 314 315 315 314 314 314 314 314 313 312 313 314 316 316 315 315 315 315 317 320 322 325 332 333 332 332 333 333 333 334 335 333 333 334 334 337 339 341 341 341 340 343 342 342 343 342 341 341 339 339 339
313 320 320 320 319 318 319 317 316 317 318 318 315 315 315 315 315 316 314 314 314 313 312 312 314 316 316 315 315 315 317 320 322 323 322 324 329 332 333 333 333 333 334 337 335 338 338 340 341 343 343 342 344 346 346 345 345 342 341 340 339 338 338

ECMWFFLT2_sfc_thetae_036.txt.gz
Theta_e
306 305 307 305 304 293 296 299 295 297 299 299 295 298 300 299 296 290 295 300 298 303 306 311 314 315 317 318 319 321 322 323 324 325 326 327 329 330 331 331 332 332 334 336 337 337 338 340 340 341 343 344 346 348 350 349 350 351 353 354 352 352 352
307 309 307 307 307 301 296 296 295 301 303 300 296 287 292 291 287 290 296 294 294 299 294 307 308 311 314 315 316 319 321 323 322 325 326 327 327 330 332 332 333 334 334 336 337 338 339 340 341 341 343 345 347 349 350 350 350 350 352 353 354 353 352
306 309 307 304 307 307 301 296 301 298 291 291 293 291 288 286 287 287 292 295 295 297 297 303 304 306 310 314 316 317 319 321 322 324 325 327 328 329 330 331 333 334 334 335 337 338 339 341 342 342 344 345 347 349 351 352 351 352 352 354 354 355 354
305 306 304 297 300 305 306 303 299 300 295 295 291 292 290 291 286 289 288 293 291 300 299 303 306 307 309 313 315 316 318 320 322 323 325 326 326 327 329 331 333 334 335 336 337 338 338 340 341 343 344 345 347 349 351 352 353 353 353 353 355 354 354
303 298 300 300 301 299 300 300 298 299 299 298 298 296 294 290 287 284 286 289 292 298 304 307 306 307 309 313 314 317 318 320 323 324 325 325 326 327 329 331 332 334 335 336 338 339 340 341 343 344 344 345 346 349 351 353 352 353 353 354 354 354 355
295 298 303 304 304 304 302 301 299 299 294 293 289 287 296 294 291 285 287 288 290 301 309 310 309 310 310 314 316 317 318 320 322 324 325 326 326 327 329 331 332 333 335 337 339 340 341 341 342 343 344 345 346 348 350 353 354 354 354 354 355 355 355
297 300 303 307 307 307 305 303 301 300 295 294 290 286 287 295 293 297 292 288 293 302 307 309 311 310 310 314 316 317 319 320 322 324 326 327 328 328 329 330 332 334 335 337 339 339 340 341 342 343 344 345 346 347 350 352 353 354 355 355 356 356 355
301 303 304 304 306 307 304 304 304 301 297 296 294 290 290 291 292 291 291 291 290 300 308 309 309 310 310 312 315 316 318 320 322 324 325 326 327 329 330 331 332 333 335 337 338 339 340 340 341 343 344 345 346 347 349 352 353 354 355 356 357 356 356
292 298 299 299 303 304 302 301 302 303 303 300 296 297 297 294 291 292 289 288 290 300 308 309 309 311 309 312 313 316 317 318 321 324 326 327 328 329 329 330 330 331 333 335 337 338 339 341 342 343 344 344 345 346 348 350 352 355 356 357 357 356 356
286 287 288 291 294 298 301 302 302 303 302 299 296 294 293 287 292 294 289 290 291 300 306 307 308 308 306 307 312 316 317 320 321 322 325 327 328 328 329 329 329 329 332 335 337 338 339 341 342 343 344 344 345 346 347 350 352 354 355 357 357 356 356
292 294 294 298 301 299 298 299 300 301 303 302 300 296 291 291 289 294 291 296 296 300 303 303 305 306 305 307 306 313 314 316 319 320 324 326 327 328 328 329 329 329 332 334 336 338 339 341 342 343 344 344 345 346 347 349 351 354 355 356 357 356 356
299 300 299 302 303 299 300 299 299 301 301 301 299 295 294 294 292 291 293 297 298 299 302 304 304 306 306 307 308 310 313 315 317 319 322 332 326 327 328 328 328 329 331 334 336 338 339 341 343 344 344 345 345 345 346 348 350 353 355 356 356 356 356
301 301 301 302 303 301 301 301 300 299 301 301 298 298 296 297 294 293 294 298 299 300 304 305 305 306 307 308 311 313 316 318 318 320 322 324 325 326 326 327 328 330 331 333 335 337 339 341 341 343 344 345 345 346 347 348 349 351 354 355 356 356 356
300 301 301 303 301 302 301 301 301 301 301 300 301 300 299 298 297 297 297 298 300 301 302 303 305 307 311 314 317 318 319 324 322 320 320 324 325 326 327 328 328 330 332 334 335 337 339 341 341 343 344 345 345 345 346 347 348 351 353 354 355 355 355
298 301 302 302 302 301 301 300 301 302 301 301 301 301 300 301 299 299 297 297 298 301 302 304 305 306 313 310 311 315 317 321 325 322 323 324 325 326 327 328 329 330 332 334 335 336 338 341 342 343 345 345 346 346 346 347 348 350 352 353 354 354 355
295 300 301 301 302 301 299 298 299 299 300 299 300 299 300 299 298 299 298 296 297 300 304 307 307 304 307 308 311 315 318 320 326 324 323 324 325 326 327 328 329 330 332 333 335 337 339 342 343 344 345 346 346 346 347 347 348 349 350 352 352 354 355
293 299 300 300 300 299 296 297 299 300 300 300 302 303 305 304 303 299 296 297 300 303 306 306 306 305 305 306 309 313 320 324 326 326 326 326 326 327 327 328 330 331 333 335 336 338 339 342 344 346 347 347 346 347 347 347 348 348 349 350 352 353 354
293 298 299 300 295 290 293 302 303 303 301 301 301 300 301 302 304 300 303 304 302 302 304 305 305 305 304 306 309 311 319 320 324 326 328 329 329 329 329 330 331 333 335 336 338 339 340 342 345 347 349 348 349 349 349 348 347 348 348 350 351 352 354
292 296 300 296 290 291 301 304 305 305 305 304 303 303 304 304 305 306 307 307 304 306 305 305 305 306 310 314 313 314 317 314 317 327 329 329 330 331 332 331 332 334 335 336 338 339 340 342 344 346 348 350 350 350 349 348 348 347 348 349 350 352 353
294 294 294 290 291 300 307 304 306 307 305 304 304 307 313 315 307 305 309 311 311 311 313 313 312 313 316 320 322 322 323 320 319 317 317 327 329 329 331 333 333 333 334 336 337 339 342 343 344 345 347 350 350 350 350 349 348 348 348 348 350 351 352
290 292 293 294 301 303 305 305 307 304 301 302 302 304 308 316 318 313 313 314 316 316 317 316 315 316 313 314 318 325 325 324 323 316 319 318 322 325 329 336 338 338 336 337 339 341 342 344 345 346 347 349 350 350 350 349 348 348 348 348 348 350 351
295 291 290 293 293 291 295 302 309 313 311 310 314 312 308 317 320 319 318 317 319 319 318 318 318 314 310 313 317 323 332 333 331 327 327 323 318 314 320 329 337 341 341 341 343 345 344 344 346 348 348 348 349 349 350 350 349 348 347 347 349 350 351
297 293 288 289 290 292 298 306 309 312 313 318 314 311 304 314 319 320 322 321 321 320 318 318 315 311 308 312 316 326 335 337 338 336 337 336 333 327 317 324 332 337 341 342 343 346 347 348 349 349 349 349 350 349 349 350 349 348 347 348 349 349 351
298 292 290 288 294 295 301 308 312 311 311 311 306 296 300 312 320 323 323 321 321 321 321 322 320 315 311 314 319 331 335 337 336 335 334 334 336 340 346 342 329 333 339 341 341 342 345 349 352 352 350 350 350 350 350 350 349 348 348 349 350 351 352
297 298 291 293 297 306 312 312 314 313 313 307 297 289 303 316 320 324 324 324 324 324 324 323 321 321 323 327 331 334 335 334 334 335 335 334 335 338 340 340 344 328 332 341 342 342 344 348 351 352 352 351 350 350 350 350 349 350 351 351 350 351 351
295 295 293 291 296 307 313 314 317 317 310 298 291 304 317 322 326 329 330 328 329 329 328 327 327 328 331 333 332 331 331 331 332 333 333 333 334 337 340 341 340 343 343 336 334 341 343 345 348 350 352 351 349 350 350 350 351 353 353 351 351 351 351
300 298 293 290 288 301 314 314 313 316 304 302 312 321 324 329 328 328 328 329 329 329 326 328 327 328 329 329 329 329 329 329 330 331 331 331 331 332 335 337 339 339 337 338 340 342 346 347 350 351 350 349 349 349 349 350 353 354 354 352 352 352 351
294 295 294 293 303 309 315 314 304 311 314 319 321 324 323 327 328 327 326 326 327 328 327 326 326 327 327 327 328 327 327 328 329 329 330 331 332 332 333 335 336 340 336 336 340 343 345 345 347 352 352 350 349 347 349 353 354 354 354 354 354 353 352
302 299 303 309 310 314 317 316 315 321 326 326 328 327 326 324 324 327 325 325 326 326 325 324 325 325 326 326 327 326 326 328 328 327 328 330 331 331 331 332 334 336 339 336 337 338 340 342 343 343 350 352 350 350 351 353 353 354 355 355 355 355 355
313 312 311 314 315 315 316 318 318 319 323 325 325 324 322 323 325 325 323 322 322 322 323 322 322 323 325 324 325 326 327 327 328 329 329 331 332 332 332 332 333 335 337 338 337 336 336 338 341 342 344 346 350 351 355 356 356 357 357 356 355 356 357
301 294 310 312 314 316 316 316 318 320 321 321 322 321 322 322 322 321 321 320 319 319 319 318 317 317 319 319 321 324 326 327 327 327 327 328 329 330 330 331 332 331 332 333 334 333 333 336 339 341 343 342 341 343 344 349 353 353 352 355 354 356 357
304 303 309 312 316 317 317 316 314 314 316 318 317 317 317 317 317 318 318 319 318 318 316 316 316 315 317 317 319 323 326 328 328 325 326 326 327 328 329 331 332 331 332 333 334 335 335 338 340 340 339 339 340 341 343 344 344 344 343 344 349 353 355
308 311 313 313 315 315 314 315 315 315 315 314 315 316 315 315 315 314 315 316 315 315 314 315 315 314 315 316 317 318 321 324 327 328 328 327 327 328 328 329 331 332 333 333 334 333 334 338 339 338 337 338 339 339 340 341 341 338 336 335 338 345 350
301 301 306 312 306 305 311 313 314 315 315 315 316 314 314 313 313 313 312 312 314 314 313 313 314 313 314 316 316 316 317 318 321 324 326 328 330 330 331 330 330 333 334 333 332 331 332 336 338 337 338 339 340 342 340 339 339 337 335 335 336 337 338
300 310 314 315 314 312 313 314 316 316 316 315 313 313 312 312 312 312 311 311 311 312 313 313 313 313 314 315 317 317 317 318 320 323 325 326 328 330 332 332 331 330 331 333 332 331 330 333 336 337 338 339 339 340 339 339 339 337 337 336 335 336 336
312 315 316 317 312 310 312 315 316 317 318 315 313 313 312 312 311 311 310 311 310 311 312 313 314 313 315 316 317 316 317 318 319 320 323 325 326 328 331 333 333 331 330 331 331 331 330 331 334 335 336 337 338 339 339 338 338 337 336 335 333 333 333
310 318 319 317 315 314 316 316 317 317 318 316 316 314 313 312 312 313 312 311 312 312 311 312 313 315 316 317 317 316 316 317 319 319 321 323 324 324 326 327 330 333 333 334 333 333 333 335 336 336 335 335 338 338 337 337 336 334 334 333 332 333 333

ECMWFFLT2_sfc_thetae_039.txt.gz
Theta_e
302 303 305 303 302 293 294 296 293 296 296 297 291 295 295 294 290 288 293 295 295 298 303 304 309 312 315 318 319 320 320 321 321 322 322 322 323 324 325 327 329 330 332 333 334 334 335 337 337 338 339 342 343 344 344 344 345 346 348 350 350 351 351
303 305 304 305 304 300 293 293 295 298 300 300 294 286 289 289 285 286 291 292 292 296 292 304 307 307 312 314 317 319 319 320 319 321 323 324 324 324 325 326 329 330 332 333 334 335 335 336 337 338 339 342 344 345 345 344 345 345 347 349 350 351 350
302 304 303 301 303 304 303 297 299 298 289 290 289 287 287 284 284 285 286 291 292 294 295 301 303 306 308 311 315 316 317 318 319 320 322 324 325 325 325 326 327 329 330 332 334 334 335 336 338 339 340 342 344 345 346 346 345 347 347 349 350 351 351
301 302 300 295 299 303 303 299 297 298 294 293 289 292 288 289 283 286 285 289 291 297 296 301 304 307 309 311 312 314 317 318 319 320 322 323 325 326 326 326 327 328 330 332 333 334 335 335 337 338 339 341 343 345 346 346 347 347 348 348 349 350 351
300 294 297 298 299 297 298 296 295 295 296 295 297 295 293 290 283 281 284 285 289 293 299 303 304 306 309 310 311 314 316 318 320 321 322 323 325 326 327 327 328 328 329 331 333 335 336 336 337 339 339 340 342 344 345 347 346 346 347 349 349 349 350
294 294 300 302 301 302 300 299 296 296 293 291 288 288 289 290 289 283 283 287 291 294 304 306 305 305 308 310 313 314 316 317 319 321 322 324 324 326 327 328 329 329 330 330 332 334 336 336 336 337 339 340 340 342 345 346 347 347 347 349 349 350 350
296 298 301 303 305 304 303 301 299 297 293 291 289 284 287 292 290 293 290 286 293 298 305 307 307 307 307 307 311 314 316 317 319 321 323 324 325 326 327 329 330 330 331 331 331 332 334 335 336 337 339 339 340 341 343 346 347 347 348 349 350 351 351
298 300 301 300 301 303 301 301 301 299 295 295 295 292 289 291 288 290 288 289 291 297 306 307 307 307 305 308 310 312 315 317 319 320 322 323 323 325 327 329 330 331 331 332 332 332 333 334 335 337 338 339 340 341 343 345 346 347 348 349 350 351 351
290 294 297 297 299 300 298 297 300 301 301 299 294 293 292 292 290 290 287 287 291 299 307 307 305 307 308 308 308 311 312 315 317 318 320 322 323 325 326 327 328 330 331 331 332 332 333 334 336 337 338 339 340 341 343 344 346 348 349 349 350 350 351
284 285 286 289 292 295 297 299 300 301 301 298 294 293 292 290 291 291 288 288 287 295 299 303 304 303 303 306 308 310 312 313 315 317 318 320 321 323 325 326 327 328 330 331 332 333 334 335 336 337 338 339 340 341 343 345 346 347 349 350 350 350 351
290 292 292 294 299 295 296 297 298 299 301 301 300 294 290 291 287 291 290 293 297 297 299 302 302 302 303 304 303 307 310 311 314 316 318 319 321 323 324 325 326 328 328 329 331 333 335 335 336 337 338 339 340 341 342 345 346 348 349 350 350 350 350
296 298 297 299 300 297 298 297 298 299 299 299 298 296 294 293 290 290 292 294 295 296 296 298 301 303 302 301 300 304 308 311 313 315 317 327 321 323 324 325 325 326 327 329 331 333 334 336 337 338 339 340 341 341 342 344 346 348 350 351 351 351 351
297 298 299 300 299 300 299 298 298 298 299 298 297 298 295 296 295 294 294 295 295 296 298 300 301 304 305 304 305 306 308 312 313 315 316 318 320 322 323 324 325 325 326 328 331 333 335 336 337 338 339 340 341 342 343 344 346 348 350 351 351 351 351
296 298 299 300 298 298 297 299 299 299 299 299 299 299 298 297 298 298 297 297 297 299 300 302 304 305 305 304 308 313 310 311 312 313 314 316 319 321 323 324 325 326 327 328 330 333 334 335 337 338 339 340 341 341 342 344 346 348 350 351 351 351 351
294 297 299 299 298 298 297 297 298 299 299 300 300 300 299 298 298 297 295 296 297 300 301 304 305 304 305 308 310 312 310 312 314 313 314 316 318 321 324 325 326 327 327 328 330 332 334 335 337 338 339 341 341 342 343 344 345 348 350 350 351 351 351
291 296 296 297 297 298 297 297 297 297 297 297 299 298 298 296 296 297 294 293 295 299 300 301 302 301 303 304 306 306 309 314 317 314 314 316 317 320 322 323 324 326 327 327 329 331 334 336 337 338 339 341 341 342 343 343 345 348 349 350 350 351 352
288 294 297 296 297 295 293 295 298 299 299 299 300 300 302 301 301 297 295 296 299 301 303 301 302 302 302 301 302 303 306 311 316 317 316 316 318 319 321 324 326 326 327 328 330 332 334 336 337 339 341 341 341 342 343 344 346 346 348 349 350 350 352
289 293 295 296 291 286 290 300 302 301 299 298 297 297 298 300 301 301 302 303 304 302 301 301 301 302 301 302 303 309 310 311 315 320 321 321 318 321 322 324 326 327 328 329 331 332 334 337 339 340 342 342 343 344 344 345 345 345 347 348 349 350 351
288 292 293 290 285 289 299 302 302 303 302 300 300 299 299 300 300 300 300 301 302 302 302 303 303 304 313 318 322 324 324 317 314 319 321 322 323 322 322 324 325 326 327 329 330 332 334 337 339 340 341 343 343 344 344 344 344 345 346 347 348 349 350
291 290 288 283 284 295 301 304 304 304 302 301 302 302 307 309 305 300 300 300 302 302 302 304 311 319 321 325 327 328 332 330 323 318 315 315 322 324 325 325 325 327 329 330 331 333 337 338 340 341 341 343 343 343 344 344 344 345 345 346 347 348 349
286 288 288 289 296 296 299 302 302 300 298 299 301 296 301 310 315 304 302 303 308 308 306 311 316 317 320 321 323 329 333 332 333 331 331 331 322 321 321 325 328 328 331 331 332 335 337 338 339 341 343 343 343 343 343 344 344 344 344 344 345 347 348
292 287 285 287 287 287 293 302 310 313 312 306 305 304 303 311 315 315 307 308 310 309 311 314 313 312 315 313 317 325 333 334 333 333 332 334 335 337 337 333 328 329 333 332 334 334 334 336 338 340 342 343 343 343 343 344 344 343 343 343 345 346 347
292 290 286 286 286 288 299 305 310 312 314 313 310 303 299 309 314 317 313 312 313 313 313 312 309 308 306 310 315 322 331 333 333 331 331 332 334 336 336 337 338 337 330 334 334 336 334 334 336 339 340 342 343 343 344 344 344 343 343 344 345 345 347
292 290 288 287 290 292 304 308 311 314 315 314 306 294 294 308 318 319 318 317 316 315 311 311 308 308 312 314 318 327 331 332 332 330 330 330 332 334 336 337 338 336 334 333 336 336 336 338 339 341 342 342 343 344 344 345 344 343 344 345 346 347 347
295 297 290 291 293 305 309 310 313 315 316 307 296 291 299 312 319 322 321 322 321 321 320 319 319 321 318 323 326 330 330 330 330 331 331 331 332 332 334 336 339 337 337 334 334 335 336 340 344 342 343 342 342 343 345 345 344 345 346 347 347 347 347
295 294 292 291 293 303 311 313 314 317 308 296 292 298 309 324 324 326 326 325 325 326 325 326 325 326 329 330 329 328 328 328 328 329 330 331 332 333 335 336 335 337 336 336 337 339 340 340 343 347 345 343 342 342 343 344 346 348 349 348 348 347 347
299 297 293 290 285 299 312 313 313 316 305 302 311 320 325 326 325 325 324 325 324 327 325 326 325 326 327 327 327 327 327 327 327 328 329 329 329 329 330 331 334 336 335 335 335 337 340 341 342 343 347 344 344 343 343 344 347 349 349 348 347 347 347
292 294 291 290 303 308 314 313 304 310 312 316 321 323 322 323 323 323 323 323 324 325 325 324 325 325 324 325 326 326 326 327 328 329 330 330 331 331 332 332 332 336 334 335 335 335 336 337 339 340 341 344 345 344 345 348 348 348 348 349 348 348 347
300 297 301 310 310 313 318 315 312 313 315 318 321 323 322 321 321 322 322 321 322 324 324 323 322 321 324 324 326 325 325 326 326 327 328 329 329 330 330 330 332 333 334 333 333 333 335 337 338 340 340 339 339 344 347 347 346 348 349 350 348 348 347
312 314 314 315 316 315 316 315 314 313 313 315 317 319 317 317 318 319 320 319 320 320 320 318 317 318 321 324 325 326 326 326 326 328 328 329 330 331 331 332 332 332 334 335 334 334 336 337 338 339 339 338 337 340 341 346 349 349 349 348 348 348 348
299 293 313 311 311 315 316 314 314 315 314 314 314 314 315 317 317 317 317 316 316 317 317 317 317 319 322 323 323 324 325 326 327 328 328 329 329 329 329 332 333 333 334 335 335 335 335 337 338 338 336 338 338 339 340 341 346 349 349 349 348 348 348
300 302 309 312 315 316 317 314 312 312 313 315 315 313 313 313 314 315 315 316 315 317 316 316 315 315 316 317 317 318 320 322 325 326 328 329 330 330 331 331 331 330 331 331 332 334 334 336 336 335 335 336 337 338 339 341 343 342 347 348 349 349 349
307 311 312 314 315 315 314 313 313 315 314 314 314 313 312 312 311 312 312 313 314 315 314 315 315 314 314 316 317 318 319 321 323 325 327 329 330 332 332 331 330 329 329 327 327 330 333 334 335 334 334 336 337 336 339 340 340 339 338 337 340 342 347
299 300 304 311 302 303 310 312 314 315 316 316 312 311 310 309 309 310 311 311 313 313 314 315 315 314 314 315 317 318 320 321 323 324 325 326 328 329 333 333 332 331 332 331 330 328 329 333 334 335 335 336 337 339 339 340 339 338 337 335 334 335 336
298 309 313 313 310 310 311 314 315 316 317 316 314 311 310 310 311 310 310 310 311 312 313 315 315 314 314 314 316 317 318 320 322 323 323 323 325 326 329 330 332 333 333 334 333 331 328 330 332 334 335 336 336 338 338 338 339 337 335 335 335 333 334
312 315 316 316 312 308 311 314 315 316 317 317 315 316 315 313 312 312 310 310 310 311 313 314 315 314 314 313 314 314 315 317 319 320 322 324 325 326 328 329 330 332 333 334 333 332 330 329 331 333 334 336 336 337 336 335 335 334 333 332 330 330 331
309 316 317 315 313 314 315 314 315 316 318 318 315 315 315 315 315 314 311 311 311 312 312 313 314 315 313 313 313 312 312 313 316 318 320 323 324 324 326 328 330 331 333 335 335 334 333 333 332 332 332 334 335 334 334 335 335 333 333 332 330 328 328

ECMWFFLT2_sfc_thetae_042.txt.gz
Theta_e
302 303 303 302 302 292 293 296 293 296 296 296 292 293 290 291 287 284 289 293 293 296 300 303 305 305 308 313 315 316 317 318 318 318 319 321 323 325 327 328 329 331 332 333 333 333 334 335 335 337 338 340 341 343 344 344 345 346 347 348 349 350 350
300 302 304 302 304 298 293 292 295 296 299 298 294 286 287 287 282 284 288 290 289 294 291 303 304 304 306 309 312 315 317 317 317 318 319 320 321 324 326 328 329 330 332 333 333 334 334 334 335 336 338 340 342 343 343 343 345 345 346 347 348 349 350
300 301 301 298 301 300 299 295 298 298 287 289 288 289 285 283 282 282 284 288 291 292 293 299 302 304 305 307 310 313 314 316 317 318 319 320 321 322 323 325 327 328 330 331 333 333 334 335 336 337 338 339 341 342 343 344 344 345 346 347 349 350 350
298 299 299 293 296 299 301 297 296 297 293 291 288 290 285 288 282 284 282 287 290 294 296 298 303 305 307 307 309 311 314 316 317 319 320 320 321 321 322 324 325 327 329 331 332 333 333 334 335 336 337 338 339 341 343 343 344 346 346 347 349 349 350
297 293 295 296 297 295 296 294 293 293 296 294 295 292 292 288 284 282 283 283 287 292 298 302 303 305 308 308 309 311 314 316 318 319 320 321 322 322 322 323 324 326 328 330 332 333 334 334 335 336 336 337 338 340 342 343 343 344 345 346 347 349 350
291 291 298 301 300 300 298 296 294 294 292 290 287 286 289 290 288 283 282 286 289 291 301 304 303 305 307 309 310 311 313 315 317 319 320 322 322 323 324 324 324 325 327 329 331 333 334 334 334 335 336 337 338 339 341 342 343 343 344 345 347 348 350
292 296 300 303 304 302 301 299 297 297 292 290 288 283 287 289 289 291 288 285 292 297 302 304 305 305 306 308 310 311 312 314 316 318 320 321 323 323 324 325 325 325 326 328 330 331 332 333 334 334 336 337 338 339 340 342 343 343 344 345 347 348 349
296 297 297 298 299 300 298 299 299 296 294 295 293 293 289 290 287 289 288 288 291 297 302 304 305 305 304 305 307 311 312 313 314 316 318 320 321 323 325 326 326 326 326 327 329 330 332 333 334 334 335 337 338 339 340 342 342 343 345 345 346 347 348
290 293 294 294 296 298 295 295 298 299 298 297 296 294 290 291 289 291 287 287 290 298 306 307 306 305 305 306 305 308 310 311 313 315 316 318 320 322 322 324 326 327 326 326 327 329 331 332 333 334 335 336 337 338 340 341 342 344 345 346 346 347 347
283 283 284 285 288 292 293 295 297 299 298 296 294 292 290 289 290 291 289 289 287 293 298 303 304 305 304 303 304 308 308 310 311 313 315 317 318 320 322 323 325 326 327 328 328 329 330 332 333 334 335 336 337 338 340 341 342 344 345 346 347 347 347
286 289 290 293 298 293 292 295 296 296 298 299 297 295 291 290 287 290 293 292 292 297 300 300 302 302 303 304 302 304 308 309 310 311 314 316 317 320 321 323 324 327 328 328 328 329 329 331 332 334 335 336 337 338 339 341 343 344 345 346 347 347 347
295 295 294 297 298 294 295 295 295 296 297 298 296 294 293 293 289 290 293 292 294 294 296 297 299 301 301 301 301 301 301 304 308 311 313 322 317 318 320 322 324 325 327 328 329 329 330 330 332 334 335 336 337 338 338 340 342 343 345 346 346 347 347
294 295 295 297 296 296 297 297 296 295 296 296 296 296 295 296 295 293 295 293 294 295 296 298 299 302 303 303 304 303 304 304 307 309 310 311 314 317 317 321 323 325 326 327 329 330 330 331 331 333 334 336 337 338 339 340 341 343 345 346 346 346 347
292 294 295 297 295 295 295 296 296 297 297 296 297 298 297 296 297 298 297 295 296 297 299 299 300 301 303 302 304 309 309 307 308 310 310 311 313 315 317 319 322 324 326 327 329 330 331 331 332 332 334 335 336 337 338 340 341 343 345 346 346 346 346
290 293 296 296 295 294 294 296 296 296 297 298 298 298 298 298 297 297 295 295 296 299 299 303 304 305 302 306 310 308 308 307 309 309 309 310 312 314 317 320 321 324 325 327 328 330 331 332 332 333 334 335 337 338 339 340 341 343 345 345 346 346 346
287 292 293 294 295 295 294 294 295 295 295 294 296 296 298 297 295 296 296 294 295 298 300 301 302 301 303 303 303 305 308 309 313 313 311 311 311 312 314 318 321 323 324 325 326 328 330 332 333 334 335 336 337 337 339 340 341 343 344 345 345 346 347
284 291 293 292 293 293 292 294 297 297 297 297 296 297 300 301 300 297 295 296 300 301 303 301 302 302 301 301 301 304 306 306 308 312 314 314 313 313 315 318 321 322 324 325 327 328 330 332 334 335 336 336 337 338 339 341 343 343 344 345 346 346 347
285 290 291 293 289 284 289 298 299 300 298 297 296 296 296 298 300 301 302 302 302 302 301 301 302 303 303 302 305 304 308 310 312 311 313 316 318 318 319 318 320 323 325 326 327 329 332 334 335 337 338 337 339 340 341 342 342 343 344 345 346 347 348
284 289 290 288 283 287 297 299 302 308 302 299 299 299 298 298 299 300 299 300 301 302 303 303 305 305 316 319 325 326 327 318 317 317 317 317 320 321 322 321 321 323 326 327 328 329 330 333 335 337 338 339 340 341 342 342 343 343 344 345 346 347 348
289 287 285 281 284 293 297 299 305 312 304 305 299 297 300 300 299 300 299 300 301 302 301 302 304 318 323 325 325 328 330 329 327 326 326 328 330 328 328 325 323 324 325 327 328 329 333 335 336 337 337 339 340 341 342 342 342 343 344 345 346 347 348
283 284 284 286 293 293 295 300 305 307 304 305 302 294 296 299 303 300 300 300 300 301 301 302 312 321 321 320 323 328 331 329 330 330 329 330 331 333 334 334 330 327 327 329 330 335 334 335 336 337 338 340 341 341 341 342 343 343 344 344 345 346 348
290 284 282 284 283 283 289 303 309 312 312 312 310 303 299 303 308 305 302 300 301 303 305 310 319 318 316 313 318 324 330 332 330 331 330 332 333 334 335 336 337 337 332 332 334 333 334 335 337 339 340 340 341 341 341 342 342 342 343 343 345 346 347
288 286 282 281 282 286 294 303 308 311 313 313 312 300 296 301 309 313 304 301 302 304 307 315 315 312 308 307 315 320 328 330 331 329 330 331 332 333 334 334 336 336 336 334 336 336 334 335 336 339 340 340 340 340 341 342 342 342 342 343 344 346 347
289 287 284 283 288 289 300 306 309 311 313 314 303 291 291 304 315 317 311 304 303 305 312 317 314 311 305 307 318 325 329 330 330 329 329 330 330 331 333 335 337 337 339 339 337 336 335 336 338 340 341 341 341 340 341 341 341 341 342 344 345 346 348
290 291 287 289 292 299 307 308 311 313 314 304 294 290 296 312 314 319 319 312 308 308 314 315 312 313 316 319 325 329 329 328 329 330 331 331 331 331 333 334 337 336 336 338 338 338 338 339 340 341 341 341 341 341 342 341 341 342 344 346 347 348 348
287 289 287 288 291 297 309 310 311 312 306 293 291 302 312 313 315 322 324 320 315 313 315 315 321 324 327 328 328 327 327 327 328 329 330 330 331 332 334 335 335 336 335 335 337 337 337 339 341 342 342 340 341 342 342 341 343 345 346 346 346 346 347
294 294 290 288 284 295 312 310 309 311 302 300 308 310 313 315 321 323 323 323 322 323 323 326 326 325 325 326 326 326 326 327 327 327 328 328 328 329 331 331 334 335 333 332 333 334 337 338 339 341 343 341 342 342 342 344 347 349 349 347 347 347 346
290 292 290 288 296 306 312 310 303 307 310 313 313 312 311 319 321 320 321 323 325 326 325 324 324 324 323 323 325 325 325 326 328 328 329 329 330 331 332 332 333 334 334 334 334 336 337 338 339 339 340 341 341 341 341 344 346 348 350 348 348 347 346
298 294 299 306 309 311 311 311 310 312 314 314 313 313 313 313 314 317 320 323 325 325 325 324 323 323 324 323 324 324 325 327 328 328 329 330 330 330 331 331 333 334 334 334 334 335 336 337 338 338 338 339 339 339 340 341 344 347 348 348 348 347 346
308 308 311 312 312 311 311 313 314 312 313 314 314 311 309 311 312 314 314 316 319 321 324 323 323 323 324 324 325 326 327 328 329 330 330 331 332 332 332 332 333 333 333 334 334 334 335 336 336 337 336 337 337 337 340 341 343 346 347 347 347 347 347
299 293 311 310 310 311 311 311 313 315 315 314 314 311 311 311 312 312 314 315 318 319 323 324 323 324 325 324 325 326 327 327 328 329 330 330 331 331 330 332 333 332 331 330 331 332 333 334 335 336 336 337 337 338 339 341 343 344 346 347 347 347 347
298 299 308 311 313 311 312 311 310 311 313 314 315 314 313 313 313 313 314 315 315 316 317 320 321 321 323 322 322 323 324 325 327 328 329 330 331 332 332 333 333 332 331 329 330 331 332 333 335 336 336 336 337 337 339 340 341 341 342 343 345 347 348
303 310 310 312 312 311 311 312 312 313 314 314 315 316 314 313 312 313 315 315 314 315 314 317 319 319 320 322 323 323 324 324 325 326 327 329 330 332 332 333 333 332 332 331 330 331 331 333 335 335 336 337 337 337 338 339 340 340 339 338 340 342 344
295 300 304 310 301 301 308 311 312 313 316 316 315 315 315 314 312 313 314 314 315 315 314 314 316 318 319 321 322 322 322 323 324 326 327 328 329 330 332 334 334 334 334 333 331 330 330 332 334 335 336 336 336 338 337 338 338 338 338 338 339 339 338
297 306 310 310 309 309 310 312 313 314 316 316 314 313 314 314 314 314 314 313 313 314 315 315 315 314 315 317 320 321 321 323 324 326 327 328 329 330 333 333 333 334 334 333 333 332 331 332 334 335 335 336 336 336 337 336 336 335 335 336 335 333 334
304 310 313 312 309 307 310 312 312 313 316 317 315 316 316 316 316 316 315 315 313 313 315 316 316 314 313 314 316 317 318 320 323 325 326 327 328 330 332 332 333 333 333 334 333 332 333 333 333 333 334 335 335 336 336 336 335 334 334 333 331 330 331
303 313 315 313 312 312 313 312 313 314 317 316 314 315 316 316 317 318 316 316 317 316 315 315 315 315 313 313 314 315 316 318 320 322 323 325 325 325 327 329 330 331 331 333 334 334 334 334 335 335 334 335 336 337 335 334 333 333 332 332 331 331 331

ECMWFFLT2_sfc_thetae_045.txt.gz
Theta_e
307 307 308 307 308 296 301 303 298 301 307 303 298 298 300 297 295 293 302 299 302 309 308 310 312 313 313 315 317 320 322 324 328 328 330 333 335 337 338 338 339 342 343 345 345 345 345 346 346 347 349 350 351 353 353 354 356 357 357 358 357 358 359
307 310 309 308 308 309 302 298 302 306 308 306 301 293 298 294 291 295 296 295 298 299 297 315 310 312 312 313 315 318 322 325 325 325 328 331 333 335 338 340 341 343 343 344 344 344 345 345 345 347 350 350 352 353 352 353 355 355 357 357 357 358 358
306 307 309 305 309 309 305 303 309 301 295 295 302 298 290 290 290 292 296 297 298 300 301 308 309 310 312 314 317 317 319 322 323 325 327 330 333 334 336 338 340 340 341 343 344 343 344 345 347 349 349 349 350 351 353 352 353 354 356 356 357 358 359
304 306 305 298 301 305 304 307 304 308 303 300 297 298 300 298 292 292 292 295 294 303 303 306 307 314 315 315 316 316 318 321 324 325 326 328 330 332 334 335 337 339 340 341 342 343 343 344 345 346 346 347 346 348 351 352 353 356 356 356 357 357 358
304 298 303 301 302 300 300 301 301 301 302 304 304 301 298 295 294 294 293 292 299 306 309 307 308 312 317 317 318 320 320 321 323 326 327 329 330 331 332 334 336 337 339 340 341 343 343 344 345 345 344 345 346 347 348 350 352 353 353 354 356 357 357
298 301 305 306 306 305 303 301 300 301 299 296 294 294 300 299 296 292 293 292 301 305 311 311 311 313 315 321 320 321 321 321 324 325 328 331 331 332 333 333 334 336 338 339 340 342 344 343 342 343 343 344 345 345 346 348 349 351 351 353 355 356 357
299 302 305 308 309 308 306 305 302 304 303 302 298 292 295 298 299 300 300 295 299 311 314 315 315 316 315 319 322 321 321 324 323 326 325 330 335 333 331 332 331 333 337 339 339 342 343 343 343 342 343 342 344 345 346 347 348 349 350 352 354 357 357
303 304 305 305 305 304 303 305 306 304 301 302 300 300 304 297 298 296 297 294 299 308 320 317 317 322 318 321 319 323 321 322 324 325 326 331 334 336 334 333 331 334 336 339 342 343 343 343 345 343 343 343 343 344 345 346 347 348 350 352 354 356 356
297 299 303 303 303 303 301 302 304 304 304 304 304 305 305 298 299 298 296 292 299 308 319 316 315 314 314 316 317 319 321 324 323 324 327 329 335 337 335 336 335 335 334 337 339 340 342 343 343 344 344 343 343 344 345 345 346 348 350 352 353 354 354
288 288 290 293 297 299 302 303 303 304 303 302 301 298 300 294 302 302 297 297 305 310 314 313 315 315 318 319 318 317 318 322 321 323 324 333 335 336 337 339 339 336 337 339 339 341 342 343 342 343 344 344 343 344 345 345 346 348 349 351 352 353 353
296 297 297 298 299 299 298 299 302 302 303 304 303 303 300 295 303 299 301 303 303 305 308 312 313 315 315 317 321 320 320 322 324 327 328 329 332 334 333 338 340 343 342 340 339 341 341 340 343 343 343 344 343 346 346 345 346 348 350 352 353 352 352
296 297 297 298 299 296 298 298 300 303 302 302 301 299 298 311 300 294 303 310 303 304 309 315 319 318 318 319 321 321 321 323 325 326 328 327 325 329 333 336 338 340 343 343 341 341 342 341 343 342 344 344 345 346 345 345 346 348 350 352 353 352 352
295 297 298 299 299 299 299 300 300 300 302 303 300 301 306 306 299 297 308 312 306 306 307 309 316 323 323 316 321 323 322 318 320 325 324 324 325 328 329 335 338 339 340 343 343 342 342 341 342 342 342 344 346 347 348 348 346 348 350 352 352 352 353
295 296 297 299 298 298 298 298 299 300 301 301 302 302 303 304 305 306 307 312 306 307 308 310 312 321 320 322 324 318 317 316 325 324 325 320 322 324 328 334 334 339 340 342 345 345 345 342 342 341 343 344 344 345 346 347 348 348 353 354 354 352 353
293 295 298 299 298 297 296 298 299 300 301 301 302 302 303 304 303 304 304 310 308 310 317 314 316 324 315 314 314 316 321 325 321 324 322 325 326 328 331 334 333 336 339 341 344 345 346 345 344 342 342 345 345 343 346 345 348 350 350 351 354 354 354
291 295 296 296 297 297 297 298 300 300 300 299 301 301 303 302 302 304 303 304 305 312 314 314 316 315 315 315 319 321 322 320 322 325 327 329 333 330 329 330 331 334 335 338 341 342 342 343 344 344 343 344 344 343 346 347 347 348 349 352 352 355 354
290 294 295 295 296 296 294 296 299 301 302 303 304 305 306 305 305 302 301 302 309 313 316 314 315 313 315 317 316 319 320 327 322 324 325 328 330 331 333 332 332 330 331 334 341 341 342 343 343 342 344 342 346 345 347 349 350 350 351 352 353 354 356
290 293 294 295 293 288 291 302 301 304 302 303 301 301 303 305 306 305 308 308 312 315 314 312 313 314 316 318 321 323 324 325 328 323 327 328 327 328 331 333 333 334 334 334 337 342 345 345 342 346 346 345 347 349 349 353 352 351 350 351 353 354 357
288 292 293 290 286 289 302 303 311 312 314 312 310 307 306 306 307 307 307 308 311 315 315 315 316 316 324 329 322 317 320 327 327 330 329 337 338 341 342 343 341 341 339 338 339 341 340 340 345 347 346 345 347 350 353 352 353 352 352 353 354 355 356
292 290 291 284 287 297 299 303 313 316 310 315 312 306 307 308 308 309 307 309 311 316 317 315 317 326 331 334 337 338 337 338 337 336 336 339 340 341 344 345 346 347 345 341 338 339 341 340 341 343 344 345 344 349 352 351 353 354 354 353 353 355 355
286 289 289 289 297 295 297 300 310 312 309 311 311 305 312 316 315 313 309 310 311 312 314 315 318 321 326 327 333 338 338 338 338 338 340 339 341 342 344 344 344 347 349 348 343 342 342 341 341 343 344 345 347 349 349 350 353 353 353 353 353 354 354
292 288 287 288 289 286 295 310 313 315 315 316 315 310 309 317 320 321 320 317 313 312 313 314 318 325 317 313 319 335 338 338 338 338 338 339 341 341 342 344 346 348 349 347 345 341 342 343 346 350 349 348 352 354 352 353 352 351 351 351 353 355 354
290 288 285 285 285 291 307 309 311 315 316 316 317 308 304 315 316 318 318 319 323 323 317 316 324 318 309 311 318 338 338 338 338 338 339 339 340 341 342 342 344 346 349 348 343 346 346 346 350 353 353 352 350 351 351 351 350 349 350 352 353 354 355
290 289 286 285 290 292 303 310 312 315 317 315 312 297 298 313 316 317 319 319 321 324 328 321 319 314 309 311 321 338 338 338 338 338 338 339 339 341 342 343 345 348 351 352 351 350 348 351 352 354 353 350 349 351 352 350 348 349 351 353 356 357 356
288 289 288 290 292 301 303 309 314 316 316 313 301 295 309 314 316 319 321 321 324 327 326 325 316 319 326 332 339 337 337 335 335 336 335 336 336 338 339 340 343 346 346 346 345 345 347 351 350 351 352 350 350 353 353 351 350 351 355 356 357 357 358
287 289 287 288 293 302 309 316 314 317 308 299 299 312 315 316 316 319 319 319 323 327 327 327 324 332 330 336 336 336 335 334 334 334 334 335 336 338 339 339 341 343 344 344 345 345 348 350 351 350 351 352 353 353 352 352 354 355 357 358 358 358 358
290 290 287 287 283 303 312 314 312 315 303 308 314 315 318 317 318 317 317 319 323 327 327 329 328 330 332 334 334 333 332 332 332 332 332 333 334 336 337 339 340 341 341 341 341 342 344 347 351 354 350 352 353 352 353 357 358 356 356 356 357 357 358
286 286 285 286 297 313 316 312 304 316 318 317 317 316 316 317 317 316 316 319 320 323 327 327 328 330 330 329 329 330 331 331 332 333 334 334 335 336 336 337 339 340 340 339 338 340 342 343 346 351 357 354 353 353 351 352 356 362 358 357 358 357 357
294 292 297 308 308 310 316 318 318 318 317 318 317 316 316 315 315 316 316 317 320 323 326 327 327 326 327 327 329 329 330 331 332 333 334 334 334 335 336 336 338 339 338 337 337 337 339 341 343 345 349 350 348 345 345 349 352 355 359 360 358 357 356
301 303 303 306 308 311 313 317 318 316 316 317 316 316 316 315 314 315 315 317 318 321 324 326 326 326 326 327 329 330 331 332 332 334 334 335 336 336 337 337 337 337 337 337 336 336 337 339 340 341 342 344 342 342 346 348 350 352 357 360 358 357 357
293 289 310 310 312 313 314 315 317 318 317 316 317 317 316 316 316 317 318 319 319 320 322 326 326 326 328 327 328 329 330 330 331 332 333 334 335 335 335 337 338 338 338 337 336 336 335 338 340 340 340 340 341 343 345 347 350 352 355 356 357 358 357
291 292 299 303 305 310 315 315 315 315 316 317 318 317 318 318 318 318 319 319 319 320 320 323 324 325 326 326 327 328 328 329 330 331 333 333 334 336 337 338 338 338 337 336 336 336 336 338 339 339 340 341 342 343 344 346 348 348 349 351 353 354 356
294 297 299 300 302 304 310 314 316 318 318 318 318 318 318 318 318 319 319 319 319 320 319 320 323 324 325 327 328 327 328 329 330 332 332 333 334 335 336 336 336 335 335 335 335 335 335 338 339 338 339 340 342 343 343 345 346 345 346 347 349 350 349
289 291 296 305 299 300 308 313 315 317 319 320 318 318 318 318 317 318 318 318 319 319 318 318 319 319 323 326 327 327 328 329 331 332 333 334 335 335 336 336 336 336 336 336 335 335 336 338 339 338 339 340 340 341 342 343 343 342 343 343 343 344 345
290 298 303 305 307 307 309 313 317 319 321 320 317 317 317 318 319 318 317 317 318 317 317 317 316 316 317 321 327 327 328 329 330 331 333 334 334 334 336 336 336 336 336 337 337 336 337 339 339 339 339 340 341 341 342 342 342 341 341 340 339 339 339
298 300 301 304 304 301 305 311 316 318 321 320 318 318 318 318 318 318 317 317 317 317 316 316 317 317 318 319 325 324 325 327 328 329 330 332 334 335 335 334 335 335 336 337 337 337 338 339 339 339 339 340 342 342 342 342 342 342 340 339 337 337 337
297 303 305 306 306 307 310 312 314 317 322 320 318 317 316 315 315 317 316 317 318 318 317 316 316 319 321 322 322 322 321 322 325 327 328 329 330 331 332 334 334 335 335 336 336 337 337 338 338 338 339 341 343 343 343 342 341 340 339 339 338 337 336

ECMWFFLT2_sfc_thetae_048.txt.gz
Theta_e
310 309 311 310 312 300 306 306 301 303 310 307 302 303 303 303 302 299 306 303 305 310 311 314 315 315 316 317 318 318 320 322 325 328 333 336 337 340 343 345 347 350 351 353 353 355 355 356 356 358 360 361 361 361 362 364 365 367 366 366 364 363 363
310 313 312 311 312 312 308 301 305 310 312 309 304 297 301 298 294 297 302 300 303 302 300 311 311 311 313 314 315 317 320 322 324 328 333 336 337 339 343 347 349 350 351 353 353 353 355 355 356 357 360 362 362 362 363 363 364 365 366 365 364 364 364
310 312 311 309 312 313 309 306 313 304 299 298 304 302 294 295 294 296 299 302 302 304 305 311 311 310 311 314 316 316 317 319 322 327 331 336 338 339 342 345 347 349 350 351 354 353 354 355 358 359 359 360 360 361 362 362 364 364 365 364 364 364 365
310 310 308 301 305 310 312 313 308 311 308 303 300 301 303 302 297 298 298 301 299 308 308 310 311 314 315 314 315 316 317 318 321 326 328 331 336 338 340 343 345 348 349 351 352 352 352 354 356 357 357 357 357 358 360 362 364 365 365 365 366 365 365
309 302 306 304 306 303 304 305 305 306 306 310 308 306 302 300 298 298 299 297 303 311 313 311 312 315 317 317 317 318 318 319 320 324 327 330 335 338 341 343 345 348 349 349 351 353 352 354 356 356 356 356 356 357 358 360 361 362 362 363 364 365 365
303 305 310 309 309 309 306 305 304 306 303 302 299 298 306 303 300 296 298 297 307 309 312 313 313 315 315 316 317 319 322 321 324 324 328 332 335 340 342 342 344 346 349 349 349 352 353 351 352 353 354 355 355 356 356 357 358 359 360 361 364 365 365
304 307 311 313 313 312 310 308 305 308 307 306 302 295 301 304 303 304 303 300 304 315 315 315 315 315 315 317 316 317 319 322 323 325 327 334 340 341 341 342 342 344 348 349 349 350 352 352 352 352 353 353 354 355 355 356 356 357 358 360 362 365 364
308 310 312 312 312 311 308 308 309 308 305 306 304 303 307 303 303 300 300 299 304 313 318 316 315 318 316 318 317 318 318 320 323 326 329 337 342 344 341 342 339 342 344 348 351 350 351 352 353 352 352 353 354 354 353 354 354 355 357 359 360 363 364
302 303 307 307 310 310 307 306 308 309 309 308 308 308 308 303 304 303 300 296 303 312 317 320 317 316 316 316 317 319 319 321 321 324 333 338 343 344 339 339 339 341 341 345 350 351 354 353 351 353 352 352 352 353 353 353 354 355 357 359 359 361 363
293 292 293 296 300 303 307 309 309 309 307 307 305 301 304 297 306 307 301 302 309 313 316 315 315 315 317 318 317 317 320 324 325 328 331 337 340 343 344 343 342 340 344 347 352 353 354 352 351 354 355 352 351 352 353 353 353 355 356 357 359 360 361
301 303 306 306 309 306 302 304 306 307 308 309 308 306 303 300 304 303 306 307 308 310 311 312 314 316 316 316 318 318 320 324 330 339 335 335 342 347 343 345 345 346 347 347 352 354 351 350 352 352 352 352 351 353 354 353 354 355 357 358 359 359 360
304 302 303 304 305 305 305 304 304 306 307 307 306 303 301 310 304 298 307 311 306 309 311 313 314 315 317 317 319 320 323 329 325 325 343 342 335 341 344 346 346 348 349 350 351 354 352 350 352 351 352 351 352 353 352 353 353 354 355 357 358 358 360
301 301 302 304 304 305 305 306 305 305 306 307 305 305 307 308 303 302 309 311 309 310 311 313 315 316 317 316 318 320 322 321 324 334 329 323 326 341 341 346 349 351 350 354 353 352 351 349 349 350 350 351 353 354 354 354 352 353 356 357 358 358 360
299 301 301 303 303 303 304 305 305 306 306 306 306 306 307 307 308 308 309 312 310 311 313 314 315 318 317 317 319 320 320 318 322 322 327 324 323 324 337 345 346 350 350 353 356 354 354 350 349 348 349 352 351 352 353 352 354 354 356 357 359 359 360
299 301 302 301 302 302 302 304 305 305 306 306 307 306 307 308 307 307 308 309 309 314 318 317 318 319 318 318 317 317 320 320 319 320 320 323 322 323 326 349 347 350 350 349 353 355 355 353 351 350 351 352 351 350 352 353 354 354 354 359 360 360 361
298 300 300 301 301 301 301 301 303 304 304 303 305 304 307 306 306 308 307 306 307 313 316 317 318 318 319 319 318 318 318 318 319 319 320 322 324 324 325 328 343 352 351 351 351 352 352 353 353 352 353 352 351 349 352 353 353 352 353 355 358 362 362
296 300 300 299 299 299 297 299 302 304 305 306 307 308 309 308 309 306 304 305 312 315 317 315 317 316 316 316 316 318 319 322 320 321 321 321 322 323 327 329 349 345 341 344 353 349 349 350 351 351 353 349 352 353 354 356 356 354 354 356 361 363 363
296 298 298 299 297 291 294 307 308 307 305 306 304 305 307 309 310 308 311 311 315 316 315 314 315 316 317 318 321 321 322 322 323 321 323 321 322 323 324 328 340 343 347 347 345 348 353 351 348 354 355 350 352 355 355 356 356 358 357 358 362 363 363
294 297 297 294 290 293 307 309 311 310 309 308 307 308 309 309 311 311 310 312 313 315 316 316 318 320 320 319 319 319 321 324 326 327 325 325 328 330 333 340 341 346 353 356 355 352 348 347 350 352 352 351 352 354 355 354 357 358 357 358 360 363 362
297 295 295 288 291 302 304 307 310 316 313 314 312 308 311 312 312 312 310 312 313 315 315 315 318 319 318 319 322 326 327 324 327 323 322 323 324 325 333 345 358 361 355 356 356 356 354 350 348 349 352 352 348 352 356 357 358 358 360 361 360 363 362
291 294 294 294 303 300 302 302 310 313 311 313 309 303 307 311 313 320 322 320 317 316 316 316 316 318 317 318 323 324 324 328 329 327 325 325 339 348 353 351 351 359 361 360 360 361 358 352 348 347 349 351 350 351 355 355 359 359 359 360 360 362 362
296 292 292 293 293 291 298 306 314 317 318 318 317 313 311 321 323 323 323 321 323 321 321 324 326 324 318 314 316 321 322 326 331 334 335 343 347 346 349 355 354 358 360 360 361 359 356 353 352 352 351 352 353 353 355 356 357 357 356 357 360 362 362
293 292 289 290 290 295 306 308 314 316 318 314 321 307 303 322 324 324 325 323 326 327 327 330 331 322 313 313 318 322 322 325 335 338 342 343 346 351 352 352 352 355 360 360 357 357 354 351 353 354 354 354 351 352 356 356 356 354 354 356 357 359 361
292 292 290 289 295 295 306 312 313 316 317 316 315 298 300 320 324 323 327 325 326 329 331 332 330 323 314 314 322 342 344 343 346 347 350 350 350 351 352 352 354 357 358 360 358 357 355 361 360 358 355 353 353 356 356 354 353 352 354 356 360 361 361
291 290 291 294 296 303 304 310 314 316 313 312 302 294 313 318 323 325 327 325 326 329 329 331 327 332 329 330 337 341 344 341 345 347 348 348 348 349 349 349 351 356 355 356 356 357 359 360 356 358 355 354 353 356 357 355 353 353 357 360 362 362 363
290 291 289 290 296 303 305 307 307 311 306 299 299 316 320 324 323 328 326 326 328 329 329 330 331 333 336 337 337 337 341 344 346 346 346 347 348 349 349 348 351 354 353 356 357 357 359 358 355 357 356 354 354 358 358 355 356 357 359 362 363 364 364
293 293 290 288 284 299 305 309 306 309 301 304 318 321 326 322 325 325 328 327 328 328 327 330 331 332 333 335 337 341 343 342 344 345 345 346 345 345 347 350 350 351 352 353 353 354 354 359 358 356 356 357 358 360 357 359 360 362 363 364 365 365 365
289 289 288 288 298 308 312 313 304 310 313 320 322 321 314 324 325 326 326 330 329 328 328 328 330 332 333 336 338 338 340 342 342 342 343 343 345 344 344 346 348 349 350 350 350 353 354 359 364 362 361 359 360 361 361 364 367 365 365 364 365 363 363
296 293 296 303 306 309 311 313 314 318 320 322 324 323 322 322 325 327 327 329 329 329 329 329 330 330 332 333 334 335 338 340 340 340 341 342 343 344 343 342 346 348 348 348 349 350 351 355 358 361 361 359 358 356 358 361 364 365 366 363 362 361 361
303 304 303 305 306 307 309 314 316 317 319 321 321 322 322 325 327 328 327 327 327 327 329 329 330 331 331 332 333 335 336 337 339 340 341 342 343 344 344 344 345 346 347 348 348 348 350 352 352 354 356 357 354 354 357 357 361 363 364 365 364 361 361
295 291 304 304 305 308 310 310 313 314 318 320 322 323 326 325 326 328 328 327 327 327 328 328 329 330 332 332 334 337 337 337 338 339 340 342 343 343 343 344 345 347 347 345 345 346 347 350 351 351 352 352 354 355 356 358 360 361 363 363 363 364 364
293 294 300 303 305 307 308 309 309 310 316 320 323 324 326 327 327 327 328 328 327 328 326 327 328 329 331 333 333 333 335 336 338 338 339 340 341 343 344 343 344 346 346 345 344 345 344 346 347 347 348 349 351 353 353 356 358 359 360 362 362 362 361
297 301 302 303 304 304 305 306 309 312 315 319 322 323 324 326 327 327 328 327 327 326 326 327 327 328 329 332 333 333 333 336 337 337 339 340 341 342 341 342 343 343 343 343 343 343 342 344 344 345 346 347 348 349 351 353 356 355 356 356 358 358 356
292 294 298 305 299 299 304 308 314 317 316 315 317 321 324 326 327 328 327 326 327 326 326 326 325 323 324 329 332 332 333 334 336 338 339 340 340 340 341 342 342 342 342 341 341 341 342 344 344 344 344 344 347 348 350 352 352 351 351 351 352 352 353
293 300 305 306 306 305 306 309 312 313 313 312 311 315 319 322 327 328 327 325 325 325 326 327 326 325 325 328 332 332 332 333 336 338 339 339 339 340 341 341 341 341 341 342 342 341 342 344 344 344 343 343 345 347 347 349 349 348 348 345 346 346 346
301 303 304 305 303 301 304 308 309 310 314 313 311 312 313 318 326 329 328 327 324 323 324 325 327 327 327 328 328 328 330 332 333 334 337 339 339 340 341 340 340 340 340 341 341 341 343 344 344 345 344 343 343 344 346 347 347 347 347 345 343 343 343
300 305 305 306 306 307 308 309 309 311 313 313 311 310 311 317 326 328 329 326 324 323 324 325 326 328 327 327 328 327 328 329 332 333 334 335 337 337 339 340 340 339 340 341 342 343 343 343 343 344 343 344 345 345 346 346 346 345 345 344 344 344 344

ECMWFFLT2_sfc_thetae_051.txt.gz
Theta_e
313 313 314 312 314 302 308 308 303 306 312 309 306 308 308 308 305 302 309 306 308 313 313 315 317 317 318 318 320 321 324 325 328 331 333 332 332 334 336 342 348 351 354 357 357 358 358 360 359 359 361 362 364 365 367 367 368 368 368 368 366 367 367
313 316 315 314 314 314 310 303 306 312 314 312 307 300 305 302 299 302 306 303 305 305 302 315 315 314 315 317 318 319 323 325 324 327 333 333 331 333 339 346 351 352 354 356 357 357 358 360 360 360 363 363 365 365 367 368 368 368 368 368 367 367 365
312 315 314 311 313 315 311 308 314 305 300 300 306 304 297 298 297 300 304 306 306 307 307 312 312 312 313 316 318 318 319 321 322 322 327 334 335 333 336 342 348 351 352 355 357 357 358 361 363 363 363 363 364 366 368 368 367 369 369 367 367 366 366
312 312 310 302 306 312 314 315 310 312 309 304 302 303 305 305 300 299 300 303 302 310 311 313 314 315 315 315 317 317 318 320 321 323 324 329 333 333 334 339 346 350 352 353 356 356 357 359 361 362 363 363 363 364 366 367 367 370 369 368 367 366 365
311 304 308 305 306 304 306 307 307 308 307 311 309 308 304 302 301 301 302 300 305 311 314 313 315 318 317 317 316 318 319 322 323 325 326 329 334 335 334 336 343 349 351 352 355 357 357 359 361 362 361 361 362 363 364 366 367 367 366 367 367 367 366
305 306 311 310 310 309 307 306 306 308 304 303 300 299 308 305 302 298 300 301 310 313 317 317 317 318 319 319 319 318 320 319 323 324 328 331 333 337 337 336 341 347 352 353 354 356 357 357 358 359 361 362 361 362 362 364 365 365 364 365 367 367 368
306 309 313 314 314 312 311 309 307 310 309 308 304 296 302 305 305 306 306 303 307 316 318 318 318 318 318 320 320 320 320 322 322 323 324 329 334 335 334 336 338 342 351 353 353 356 357 356 358 359 360 360 360 361 362 363 362 364 364 365 366 369 368
311 313 314 314 314 312 309 310 311 310 307 308 306 306 309 305 305 302 303 301 307 315 320 319 317 320 317 321 319 320 320 322 322 323 325 329 333 336 335 337 336 342 348 353 356 356 357 357 358 358 358 360 361 361 360 361 361 362 363 364 365 369 368
305 307 310 309 312 311 308 307 309 310 311 311 310 311 312 306 306 306 302 298 304 315 319 319 319 317 316 316 318 319 320 323 323 324 327 330 339 341 339 342 342 345 348 353 357 357 362 361 355 358 359 359 359 360 360 360 360 362 363 364 365 367 367
296 296 297 299 302 305 308 310 310 310 309 309 308 304 307 300 310 310 305 304 311 315 319 318 317 317 318 318 318 318 321 324 324 326 331 339 341 345 343 343 343 345 354 358 361 362 363 357 355 360 362 358 358 359 360 360 360 361 362 362 363 366 366
303 305 313 311 311 308 305 307 309 309 310 311 310 309 305 302 307 307 310 311 311 313 313 315 315 317 317 317 319 318 320 323 328 334 333 333 340 347 343 345 344 351 355 356 358 361 356 355 356 356 356 358 358 361 360 359 360 361 363 363 364 365 365
311 309 310 309 311 308 308 307 307 310 309 309 308 305 304 313 306 300 310 314 310 311 314 315 316 317 319 318 320 320 323 324 328 329 335 342 338 345 347 347 347 347 350 352 357 359 356 354 355 356 356 356 359 360 359 359 359 359 360 363 364 365 366
309 312 307 309 309 310 309 309 308 308 309 308 306 308 309 311 306 304 311 315 312 313 314 315 317 319 320 318 320 322 325 323 326 330 327 326 331 341 341 349 353 351 350 354 355 356 355 354 355 355 355 357 360 360 360 361 358 359 362 362 363 363 366
309 309 308 310 307 308 308 309 309 310 309 309 308 308 310 310 311 311 314 315 311 314 315 316 318 320 319 320 322 323 323 320 325 324 324 322 326 326 333 342 349 354 353 356 358 359 360 356 356 353 354 358 357 357 358 358 360 359 362 363 365 364 365
306 308 308 308 308 307 307 309 309 309 309 310 310 309 310 311 310 311 311 314 313 316 319 319 321 322 320 321 319 319 322 322 321 322 321 323 324 328 332 346 346 350 354 358 360 360 361 360 357 356 357 357 356 355 357 357 359 359 359 367 367 366 367
301 305 305 306 307 306 306 307 308 308 308 307 308 308 310 309 308 310 310 309 310 317 320 320 321 321 321 320 320 320 321 321 322 322 321 323 325 326 326 337 343 353 351 354 360 360 359 359 359 357 360 356 356 354 357 357 356 357 357 359 362 367 366
300 304 306 305 305 305 302 303 307 309 309 310 310 311 312 312 312 309 307 309 315 318 320 318 319 318 319 320 320 322 323 325 322 323 323 323 324 326 330 330 330 327 331 347 355 351 352 356 357 356 357 355 357 358 360 361 361 358 359 358 363 366 367
299 304 304 305 301 295 297 310 312 311 309 309 308 308 310 312 313 312 314 315 318 318 318 317 318 318 320 322 324 324 325 324 324 322 324 323 324 325 326 328 328 333 336 343 342 351 357 353 349 358 360 354 356 359 360 364 363 364 364 362 366 365 367
299 302 301 298 293 295 309 311 313 313 312 311 310 310 311 312 313 313 312 314 316 318 318 319 320 322 322 322 323 322 322 325 324 324 324 327 330 330 330 330 328 335 342 351 355 351 346 345 350 353 356 356 357 358 361 361 364 367 364 364 364 365 366
301 300 298 291 294 306 308 310 312 315 313 312 311 308 311 312 313 314 312 314 315 317 318 318 321 322 321 321 323 323 323 323 323 322 324 325 325 326 328 332 357 361 356 358 354 357 359 354 349 350 351 356 354 357 360 359 361 364 366 365 364 366 366
295 298 298 297 306 303 306 307 309 312 309 310 308 304 308 313 314 314 314 315 316 316 317 318 319 320 319 318 319 321 321 322 324 325 326 326 327 327 333 341 350 365 365 360 357 360 360 357 350 350 350 353 356 355 357 357 363 363 363 363 362 364 366
299 297 296 297 297 295 301 309 315 318 318 315 315 311 308 315 315 316 316 316 318 318 319 320 321 325 321 317 319 323 324 324 324 326 325 326 328 329 340 352 354 358 359 363 364 362 362 363 364 362 356 355 360 362 360 361 360 361 359 359 361 365 367
297 296 294 294 294 298 308 309 313 317 319 318 318 311 306 319 319 321 320 318 321 321 320 323 330 324 315 314 319 326 334 338 344 351 334 329 343 353 354 353 351 354 364 364 362 360 362 364 366 365 362 359 357 358 359 358 358 357 358 359 361 362 367
296 296 294 293 300 300 307 312 313 315 316 315 313 299 302 322 323 323 324 321 323 328 332 332 328 320 312 312 319 337 339 340 344 350 349 352 350 351 351 356 358 358 364 362 364 363 360 362 363 363 359 357 358 358 357 356 356 357 360 361 363 365 366
294 294 295 298 301 307 307 312 315 315 316 312 303 296 311 323 324 326 323 324 326 330 330 330 323 327 326 330 339 338 339 339 347 351 350 350 349 350 349 353 354 356 361 362 361 364 366 367 366 365 359 356 356 358 358 359 359 360 363 364 365 367 367
292 295 293 294 300 307 309 314 314 316 309 300 301 315 324 324 323 324 325 326 328 327 330 329 330 331 333 335 335 336 339 345 347 348 347 349 350 351 357 355 354 358 359 361 362 361 361 362 359 359 361 358 358 359 358 359 362 363 365 366 366 367 368
294 296 293 292 287 304 309 310 310 312 304 311 317 320 323 322 323 323 324 325 331 329 327 329 331 332 332 334 335 337 339 341 344 346 348 347 347 350 350 355 356 353 358 358 357 359 361 364 360 360 360 360 361 361 361 363 364 364 364 364 366 366 367
290 291 290 291 300 310 311 310 305 315 315 317 321 318 317 321 322 324 322 327 331 331 329 330 330 332 333 335 337 339 341 341 342 343 348 349 349 351 350 350 353 354 356 357 356 358 359 365 367 361 361 359 361 362 363 367 365 364 365 365 368 366 367
297 294 297 308 308 311 312 313 313 316 317 318 321 321 320 320 323 328 326 328 329 330 332 331 333 331 334 335 336 337 337 338 340 343 346 346 347 349 349 348 351 354 353 354 355 356 357 360 364 367 368 366 365 364 366 368 369 368 368 369 368 366 366
305 306 306 309 309 310 311 312 314 313 314 316 317 320 321 325 326 327 326 328 330 330 332 331 331 333 333 334 335 336 337 340 342 344 344 344 346 348 349 349 350 351 351 352 353 353 354 356 357 360 361 361 358 358 362 365 368 369 368 367 367 367 367
296 292 306 306 307 309 309 310 311 313 314 314 315 319 324 325 326 327 328 329 328 330 331 331 332 332 334 334 335 338 339 339 342 342 342 346 347 348 348 348 348 350 350 349 349 351 352 354 355 354 356 357 360 361 363 363 365 368 369 369 365 365 365
296 297 304 307 308 309 309 309 309 311 313 314 318 322 323 324 326 327 329 330 329 329 328 331 331 331 333 335 336 337 336 338 340 341 342 344 345 346 347 348 349 350 348 348 348 349 348 349 352 353 354 355 357 358 360 363 366 368 366 367 366 367 365
300 303 304 305 306 307 307 309 310 312 312 317 319 321 320 320 322 323 325 328 329 328 328 330 331 331 333 334 335 336 336 338 339 340 342 344 344 345 345 347 348 348 348 348 348 347 346 348 350 351 351 352 355 356 358 360 364 365 363 363 365 366 366
295 296 300 304 298 298 304 308 309 312 316 317 316 317 319 320 321 321 321 323 327 329 330 330 329 330 330 333 336 336 337 338 340 341 341 342 343 343 344 345 346 346 346 347 347 346 347 348 348 348 350 351 352 353 356 358 359 358 358 358 357 359 361
294 301 304 305 305 305 307 309 312 313 314 313 313 315 317 318 319 320 320 321 323 328 330 331 330 331 331 332 337 337 337 339 340 342 342 342 342 343 344 345 345 345 345 345 345 345 346 348 347 347 348 348 350 352 354 355 355 355 355 353 352 353 354
303 305 305 306 305 303 307 309 311 312 313 312 314 315 316 317 318 319 320 321 323 326 329 329 331 331 332 333 334 334 335 337 338 340 342 343 343 344 344 344 343 343 344 345 345 345 347 347 346 346 347 348 349 349 351 352 353 353 353 352 349 349 349
302 306 306 307 307 307 309 310 311 312 313 314 313 314 315 316 317 318 319 321 325 328 329 329 330 332 331 332 332 333 334 335 337 339 340 340 342 342 343 344 343 343 343 345 346 347 347 346 345 344 345 346 347 349 350 350 350 350 350 349 349 349 349

ECMWFFLT2_sfc_thetae_054.txt.gz
Theta_e
313 312 314 313 314 301 307 307 302 304 311 308 304 305 306 305 302 299 306 304 306 310 311 313 315 314 315 316 317 318 322 326 332 331 332 329 328 337 337 338 340 343 345 350 351 352 353 355 355 355 358 360 361 362 363 364 365 364 364 364 364 364 364
313 316 315 314 314 314 309 302 305 311 313 311 305 298 303 301 297 299 303 301 303 303 300 312 313 313 314 315 315 317 320 324 331 330 331 331 331 338 339 341 342 343 344 348 350 353 355 356 355 357 360 361 362 364 364 364 365 364 365 364 364 365 364
312 316 314 312 314 315 310 307 313 304 300 299 305 303 296 297 297 299 303 304 305 305 305 309 309 310 312 315 317 316 317 320 327 331 333 334 332 334 336 339 343 343 344 346 354 354 356 357 359 358 361 360 362 363 364 364 364 365 365 364 365 365 365
312 313 311 303 307 312 314 314 310 311 308 303 301 302 304 304 299 299 300 304 301 309 309 311 311 313 315 314 315 315 316 321 326 330 330 331 333 333 337 339 340 341 345 353 355 355 355 357 358 357 357 358 359 361 364 365 366 367 366 365 366 365 364
311 304 308 306 307 305 305 306 306 307 307 310 308 307 303 301 300 301 300 298 303 310 314 313 314 315 317 316 316 320 318 320 323 333 330 333 334 333 335 335 339 346 349 352 355 356 357 358 359 358 357 357 357 359 363 365 365 365 364 363 363 364 364
305 306 311 311 311 310 307 306 305 307 304 302 299 298 307 304 301 297 300 299 311 312 316 316 316 319 317 318 318 319 319 319 324 326 334 335 334 334 335 336 335 339 346 350 354 356 357 357 358 357 357 358 358 359 362 364 364 364 363 363 364 363 364
307 310 312 314 314 313 311 309 307 310 308 306 302 295 300 304 304 306 305 302 307 318 317 319 318 318 318 319 318 318 318 320 322 325 329 335 335 334 332 339 336 339 344 347 353 357 357 357 358 358 358 357 357 359 362 364 363 364 363 363 364 365 364
312 312 313 314 314 313 309 309 310 309 306 306 305 304 306 303 303 301 302 301 305 314 331 325 318 325 319 320 319 321 318 319 323 324 324 337 335 335 333 333 336 340 344 353 356 357 358 358 360 359 359 359 359 359 361 362 363 364 364 364 363 365 364
305 306 308 309 312 311 308 307 308 310 310 310 309 309 310 304 304 303 301 296 304 313 321 321 319 317 317 318 318 320 319 321 321 324 329 334 338 338 336 337 340 342 345 351 355 357 359 359 359 361 361 360 359 359 360 361 363 364 364 365 364 364 363
295 295 295 298 302 304 308 310 308 309 308 309 306 302 306 299 309 309 303 303 311 314 321 317 316 316 321 318 319 319 322 323 320 322 342 336 337 337 338 340 343 339 344 352 357 359 359 359 358 362 362 361 360 360 361 362 363 364 365 365 365 364 363
302 304 308 309 310 307 304 306 307 307 309 309 310 308 305 301 307 305 310 310 309 312 313 315 315 316 315 314 318 318 324 328 331 341 341 344 350 341 340 344 345 342 344 352 359 361 360 357 357 361 361 360 360 363 363 362 363 364 366 366 365 363 364
310 311 310 311 311 307 307 306 306 308 307 308 308 305 303 317 307 299 313 323 309 310 313 314 317 315 321 318 319 319 328 329 328 333 342 345 337 343 349 352 360 361 355 360 361 362 360 358 358 358 361 360 362 365 363 362 362 362 363 365 365 365 365
309 311 311 312 311 309 309 308 307 306 307 307 306 307 309 312 306 305 317 317 312 313 313 314 317 320 319 316 317 322 325 324 332 339 331 329 334 341 340 358 363 360 365 364 363 363 362 359 358 358 358 360 363 365 365 364 361 362 365 365 365 365 366
308 309 310 311 310 310 310 308 308 308 307 307 307 308 309 310 314 314 315 320 312 313 314 315 316 319 318 319 323 324 324 324 335 328 332 327 330 333 340 347 349 360 361 367 365 366 365 360 361 356 359 362 362 362 363 363 364 363 365 365 365 364 365
305 308 310 310 310 309 307 309 309 308 308 308 308 308 309 310 310 310 310 315 314 316 321 318 319 324 320 323 321 320 326 322 321 322 323 325 326 326 332 349 346 356 360 363 366 366 366 364 362 359 360 362 363 358 360 360 363 364 365 366 365 364 365
302 306 307 309 309 309 308 307 309 308 308 306 308 307 309 309 309 311 310 311 310 317 320 318 321 321 322 320 323 323 322 320 324 321 321 324 330 328 335 342 343 355 354 359 361 362 360 360 364 362 364 362 362 357 361 360 360 360 362 365 365 366 367
300 305 307 307 308 306 303 303 307 310 310 310 311 311 311 311 312 308 307 310 316 321 322 317 317 317 319 320 318 321 323 333 325 324 323 323 326 334 341 347 354 347 347 351 360 357 356 357 356 358 364 359 359 361 362 363 363 360 360 362 367 367 367
299 304 305 307 303 296 298 310 312 312 310 310 309 308 310 312 312 311 314 316 321 320 318 317 318 318 321 323 331 326 331 330 332 322 323 323 323 325 329 338 342 341 353 356 357 359 365 361 353 359 361 358 361 363 366 367 364 364 363 362 369 367 368
298 303 303 299 294 296 310 313 314 314 313 312 311 312 311 312 313 313 314 316 318 320 320 320 323 328 323 322 323 322 323 327 325 329 324 327 330 334 342 337 335 356 351 360 361 360 352 352 361 361 361 360 364 365 366 368 366 365 365 363 366 369 367
301 300 299 292 294 307 311 312 313 315 313 313 311 309 312 314 314 315 314 317 317 320 320 320 323 325 321 322 325 326 323 322 323 321 322 324 324 327 334 345 363 365 358 361 352 363 362 350 346 354 359 356 354 360 365 366 367 365 366 365 364 370 368
295 297 298 297 306 305 307 307 311 310 309 310 308 305 310 315 315 315 315 316 317 317 318 319 320 322 320 320 324 322 321 321 320 323 330 324 325 329 340 344 356 362 363 357 356 361 357 357 351 356 353 356 357 358 362 363 366 366 365 364 363 367 368
299 296 295 297 297 295 301 309 313 315 315 315 315 311 308 314 315 316 316 315 316 316 316 317 319 319 317 314 316 322 322 322 329 345 348 346 348 348 348 355 357 365 367 366 364 363 362 362 366 372 364 366 367 364 362 363 364 365 364 363 364 366 369
296 296 292 294 294 298 307 308 312 314 316 315 315 309 304 314 315 316 315 314 316 317 320 319 319 315 311 312 326 331 335 336 346 346 346 347 346 350 354 353 351 352 360 360 356 358 359 355 367 373 373 371 367 369 366 363 362 361 362 363 364 364 368
294 295 294 293 300 299 307 310 312 315 317 316 313 299 301 321 323 323 319 315 320 330 329 327 323 319 313 318 328 333 335 336 347 347 347 348 350 351 352 350 349 353 358 363 364 365 363 370 370 371 368 364 365 368 368 362 359 358 361 364 367 367 368
295 294 294 298 301 309 310 312 314 315 317 313 302 297 312 320 324 325 325 326 327 329 328 327 323 327 328 329 333 335 336 338 342 346 349 348 348 347 347 351 358 356 360 363 359 361 362 366 368 369 366 362 362 366 371 364 360 360 365 369 370 369 369
293 295 293 295 300 308 310 315 314 317 310 301 300 316 321 323 323 324 326 326 327 326 327 327 325 326 328 331 334 335 335 336 340 343 343 347 348 347 349 353 357 353 359 359 360 359 364 364 361 360 366 367 366 369 370 366 368 368 372 373 373 372 371
295 295 294 292 288 303 309 312 313 315 308 307 315 319 320 323 324 324 325 327 327 327 327 326 326 327 328 331 333 334 337 337 339 341 342 347 346 348 350 352 353 351 355 356 358 358 359 364 364 360 359 364 363 367 368 369 372 373 375 374 374 373 373
290 291 290 292 301 307 312 312 305 309 311 316 319 317 318 321 323 323 324 326 327 327 327 325 327 326 329 329 331 332 336 337 338 340 343 348 347 346 348 350 349 350 356 356 357 357 356 363 367 364 365 363 363 364 363 368 377 374 378 378 376 372 371
294 293 297 307 307 310 311 311 310 312 314 316 317 318 319 321 322 325 324 325 327 327 328 328 328 328 328 330 331 332 333 337 339 341 344 344 344 345 346 347 349 349 351 352 354 355 357 360 363 368 367 363 361 365 368 374 369 373 373 374 374 372 369
304 304 304 306 309 311 309 311 312 311 313 314 316 318 319 321 321 322 323 324 325 327 329 328 329 329 329 329 331 332 334 336 338 342 343 344 345 346 347 349 348 348 350 352 352 353 355 357 360 365 364 365 366 362 366 369 370 372 372 371 370 371 370
296 292 305 306 308 310 310 309 311 313 313 313 316 318 318 318 318 320 323 323 324 326 329 328 327 328 329 330 332 334 335 336 338 339 341 343 344 344 346 349 349 350 351 348 350 351 351 353 355 356 357 360 362 361 361 363 366 368 368 372 371 372 372
296 297 303 305 307 308 309 309 309 310 312 314 317 317 317 317 319 320 320 322 323 325 325 328 328 328 330 332 331 332 333 335 337 339 339 342 343 346 347 348 348 349 349 349 348 348 349 351 354 355 356 357 360 362 362 365 367 368 369 369 368 369 369
300 303 305 306 307 307 308 309 310 311 312 315 315 315 315 317 317 318 318 320 322 323 324 327 329 328 329 331 332 332 334 336 338 339 341 342 344 346 346 347 348 348 349 348 347 346 347 348 351 351 352 353 356 360 362 369 370 366 369 367 370 368 366
295 297 301 305 298 299 304 308 310 311 313 313 314 314 314 315 315 317 317 317 320 322 324 325 327 328 329 330 332 332 334 337 339 341 343 343 342 344 346 346 347 347 347 348 347 346 346 349 350 351 352 353 356 356 361 365 367 366 365 365 365 365 368
294 301 305 308 306 305 306 308 310 311 312 312 311 311 312 314 316 316 316 315 316 319 323 325 327 329 329 330 332 332 334 336 339 340 342 342 343 343 344 344 345 345 345 345 345 345 347 348 348 349 350 352 354 356 358 359 361 362 362 361 359 359 359
302 304 305 306 305 303 306 309 310 310 312 311 311 312 313 314 314 315 316 316 316 317 321 324 327 329 330 331 331 331 332 337 339 340 343 344 344 344 345 345 344 344 344 345 345 345 346 346 346 349 349 349 352 351 355 357 359 358 357 357 356 355 355
300 306 306 307 307 307 308 309 310 311 312 313 311 312 312 313 313 315 316 317 318 319 320 323 327 330 330 331 331 332 332 334 338 340 342 343 346 345 344 344 344 344 346 346 347 348 347 346 346 347 348 349 352 352 355 356 356 355 355 356 354 354 354

ECMWFFLT2_sfc_thetae_060.txt.gz
Theta_e
305 305 307 306 307 295 300 301 297 299 301 300 295 298 297 295 292 290 294 297 297 298 300 303 304 307 308 313 322 325 326 327 328 329 330 331 333 335 336 336 336 337 338 339 340 341 341 343 344 345 345 347 346 347 347 347 347 349 349 350 349 349 349
305 308 307 308 308 303 300 297 300 303 305 302 296 287 291 290 285 288 294 293 291 293 291 301 302 302 305 308 321 324 326 327 327 329 330 331 332 334 336 337 337 338 339 339 340 342 343 343 345 345 346 348 348 348 348 348 347 347 349 350 349 349 348
305 308 307 304 308 308 304 302 305 301 291 294 294 293 287 285 286 286 290 294 294 293 294 298 299 302 302 304 318 323 324 326 327 328 330 332 333 334 335 335 336 338 339 339 340 341 344 344 346 347 348 349 350 350 350 350 348 349 349 350 351 351 350
304 305 304 296 300 306 306 305 304 303 298 296 292 295 291 291 285 289 287 292 290 298 296 300 301 303 304 304 308 322 324 326 327 328 330 331 332 333 334 335 337 338 339 340 340 341 342 344 345 347 348 350 350 351 351 350 351 350 350 350 351 350 350
302 297 300 299 301 299 299 299 299 301 301 299 298 298 293 290 287 286 287 287 291 297 303 305 304 304 305 305 304 320 325 327 328 329 330 331 332 333 335 336 337 338 339 340 341 341 343 345 347 348 349 349 350 351 351 352 350 350 350 351 351 351 351
296 297 304 305 304 304 301 299 297 300 297 293 293 289 298 295 291 285 287 288 293 302 308 307 306 307 307 307 307 313 325 327 328 329 330 331 332 333 335 336 337 338 339 340 341 342 342 343 345 346 349 350 351 351 352 352 352 351 351 351 351 352 352
297 302 305 307 308 306 305 302 298 302 299 296 294 288 290 295 293 299 294 289 293 303 308 308 308 308 308 308 308 308 324 327 328 329 331 332 333 333 335 336 338 339 339 340 341 341 341 342 344 346 348 349 351 352 352 353 352 352 353 352 352 352 352
302 306 308 307 307 307 304 303 301 301 299 299 298 295 292 294 293 292 291 290 292 301 308 308 309 309 310 309 308 307 323 327 328 329 330 331 331 333 335 336 337 338 339 340 340 340 340 341 343 345 346 349 350 352 353 353 353 353 353 353 353 352 352
293 297 300 301 305 305 302 302 302 302 303 302 298 299 296 294 293 294 289 286 293 300 311 308 308 309 308 307 308 311 322 326 328 328 329 330 331 332 333 334 335 337 338 339 339 340 340 341 343 344 345 347 349 351 353 354 354 355 355 355 354 353 352
285 287 287 289 293 297 302 304 303 302 301 300 297 294 294 289 294 295 291 289 296 301 305 305 306 306 306 306 309 314 321 325 327 327 328 329 330 331 332 333 334 335 336 338 339 339 340 342 343 344 345 347 349 351 352 355 355 355 355 356 355 354 353
288 291 294 300 301 300 298 301 302 302 301 302 300 296 291 291 292 294 295 297 297 300 302 303 305 304 304 304 307 315 320 324 326 327 328 329 329 330 331 332 334 335 335 337 338 339 340 341 343 345 345 346 348 350 351 354 356 356 356 356 355 354 354
293 294 294 298 300 298 301 301 301 303 302 300 299 296 295 295 294 289 297 299 298 299 302 303 304 307 310 312 313 314 320 323 325 326 328 336 329 330 331 332 332 333 335 336 337 338 339 340 343 346 347 347 348 349 350 353 355 356 357 357 356 355 354
292 293 294 297 299 302 304 304 302 301 302 300 298 297 298 300 296 293 298 300 299 300 303 304 305 308 314 317 318 317 321 324 324 325 327 329 328 329 329 330 332 333 334 335 337 338 339 340 342 345 347 348 349 350 351 352 354 355 357 357 356 355 355
290 292 296 301 302 303 303 303 302 303 303 302 301 300 301 302 299 300 301 302 302 304 305 305 307 309 315 318 321 321 320 322 324 324 326 328 328 328 328 329 331 333 334 336 337 338 340 340 342 346 347 348 349 350 350 352 354 356 357 356 356 356 355
289 294 300 300 299 301 300 302 302 303 303 303 302 301 301 304 303 302 305 303 303 305 307 309 315 313 313 317 318 321 321 323 324 323 325 327 327 328 328 328 329 332 334 336 337 338 340 341 343 347 349 349 350 351 351 352 353 356 357 356 356 356 355
286 295 295 297 299 301 300 301 302 300 301 300 302 300 301 301 301 304 305 302 301 305 311 311 311 311 312 311 311 314 320 323 324 324 324 325 326 327 328 328 329 332 335 337 338 339 341 343 345 347 350 351 351 351 351 352 353 356 357 357 356 356 357
285 292 294 295 297 297 296 298 301 302 302 301 301 303 305 304 304 302 300 302 305 307 312 310 309 311 310 309 310 312 315 320 323 324 325 325 326 328 328 328 331 333 335 338 342 343 344 345 347 349 351 351 351 352 352 353 354 355 357 357 357 357 357
285 289 293 298 295 288 291 302 307 307 302 307 307 307 310 313 314 302 305 306 309 309 309 308 309 312 313 318 322 319 316 318 321 325 329 331 330 331 329 331 332 334 336 339 343 347 348 349 350 351 354 353 353 354 354 354 354 354 355 357 358 357 358
284 289 294 295 289 290 302 306 308 309 312 314 312 312 313 313 315 316 312 310 308 313 314 321 325 329 333 336 336 338 339 336 333 335 337 337 335 336 338 340 341 341 344 346 346 347 349 350 350 351 353 354 355 355 355 354 354 354 354 355 357 358 358
289 291 289 287 290 302 305 306 307 309 309 308 313 311 313 314 314 315 313 311 310 316 328 333 335 335 336 337 337 337 338 338 337 337 337 340 344 344 345 344 344 346 348 349 349 349 352 353 351 352 353 355 355 354 355 355 355 355 354 354 355 357 357
284 287 286 290 302 303 303 302 303 304 302 303 306 304 309 314 315 316 315 315 314 319 328 332 333 335 335 332 333 337 337 338 341 341 341 342 344 347 349 350 348 348 349 349 350 350 348 349 350 351 353 354 355 354 354 355 355 355 355 354 354 356 357
290 284 284 289 293 288 295 302 306 308 309 310 309 311 308 315 316 318 317 317 317 316 320 324 328 330 327 324 327 335 337 337 339 343 346 348 349 349 348 348 349 350 351 352 354 351 352 353 354 354 353 351 352 353 353 354 354 354 354 354 354 355 356
286 285 284 285 285 293 300 301 304 307 310 312 311 310 305 314 316 317 318 318 319 320 321 321 326 324 318 317 323 332 338 339 340 341 343 346 348 348 348 348 348 350 351 352 352 353 353 352 352 355 353 351 348 350 352 352 353 353 353 354 354 354 356
287 286 285 283 292 290 298 303 305 307 312 314 309 300 301 314 316 317 318 318 319 319 321 324 322 321 317 319 326 335 337 338 339 340 341 341 342 345 348 350 349 350 351 349 349 350 352 353 355 355 354 355 356 350 349 349 351 352 353 354 354 355 356
287 288 286 292 296 301 304 305 306 308 314 313 301 294 306 315 316 317 318 319 320 321 321 322 319 321 325 328 334 337 337 336 338 340 342 342 342 343 346 348 354 348 348 347 346 348 350 352 354 355 353 352 351 353 352 348 348 350 351 352 353 354 356
284 285 284 286 295 302 306 306 307 313 311 300 298 311 318 316 314 316 317 318 319 321 321 321 322 324 327 330 331 332 334 335 336 338 341 342 342 343 345 351 349 345 346 346 346 348 349 351 353 354 353 350 350 350 349 349 351 354 351 352 353 353 354
290 289 287 287 283 298 306 306 309 313 304 305 314 318 317 313 312 313 315 317 318 320 321 323 323 324 326 327 328 330 332 333 334 336 338 339 339 339 340 342 346 345 344 345 345 345 348 349 350 351 354 354 350 349 346 349 354 356 355 352 353 354 353
287 289 288 288 299 304 308 306 301 310 313 318 317 316 313 312 311 311 312 314 317 319 321 322 322 323 324 325 327 329 331 333 335 336 337 338 340 340 342 343 344 345 343 344 344 345 346 346 347 348 350 351 355 352 345 352 355 359 356 354 354 354 354
294 293 297 300 302 307 312 310 309 314 314 317 318 317 315 311 310 312 310 311 314 318 320 321 322 322 323 323 325 326 329 332 333 334 334 336 337 339 340 342 345 343 343 342 342 342 343 344 344 345 347 347 350 347 348 354 355 355 355 354 354 354 354
301 302 303 304 304 305 306 312 315 314 314 315 318 316 314 314 314 312 310 311 312 314 318 319 321 322 323 323 324 326 328 330 332 333 333 334 336 337 339 340 342 342 342 343 341 341 340 342 343 345 345 345 345 346 350 354 356 355 357 355 354 353 354
292 288 300 299 300 304 304 307 311 311 314 316 316 315 315 313 315 314 312 312 312 313 314 317 319 321 323 323 323 325 326 327 328 330 331 332 334 335 336 339 343 340 341 340 340 340 339 340 341 345 345 346 347 348 350 352 358 356 357 355 356 354 354
292 294 298 299 301 306 303 305 307 308 309 313 316 316 316 314 313 315 316 313 312 313 312 314 319 320 322 323 322 324 324 325 326 327 329 331 333 335 337 338 341 338 339 338 337 338 338 339 340 343 344 344 346 347 349 351 355 354 357 356 354 355 355
295 298 300 299 300 303 302 305 306 308 307 310 311 316 314 314 311 312 313 313 314 313 311 312 317 319 320 322 323 324 324 324 324 325 327 329 331 332 335 337 338 336 338 339 337 336 336 338 338 339 341 343 346 346 348 350 352 353 353 355 352 353 354
289 291 294 298 293 293 298 302 303 305 309 310 310 311 310 310 311 310 312 314 314 313 312 311 311 315 319 321 322 323 323 324 324 324 326 329 330 332 335 337 336 336 340 339 336 335 335 337 338 338 338 340 344 346 348 349 350 350 348 347 347 348 350
288 294 296 299 299 298 299 301 303 304 306 307 310 309 309 310 310 312 312 310 310 310 311 311 310 311 318 319 321 322 323 323 324 325 326 327 329 331 333 334 335 335 335 340 338 337 335 337 337 338 338 340 341 345 347 348 348 347 346 346 345 345 348
295 297 297 300 298 296 298 301 302 303 305 305 306 308 311 313 313 313 311 309 308 309 310 310 311 310 318 321 322 321 322 323 324 327 328 329 329 331 332 333 334 335 334 336 336 337 335 336 336 336 337 338 340 345 347 347 348 346 345 347 345 345 346
293 298 298 299 299 299 301 302 302 303 305 306 307 307 309 311 314 314 312 309 309 309 309 309 310 310 314 322 322 322 321 323 326 330 331 332 331 330 331 332 333 336 334 336 335 335 336 335 336 337 335 337 340 343 346 347 347 344 342 342 344 344 346

ECMWFFLT2_sfc_thetae_063.txt.gz
Theta_e
304 306 308 307 306 294 299 301 297 299 300 299 294 296 296 293 289 291 292 292 293 295 299 301 301 304 308 316 320 322 322 323 324 325 327 329 331 332 334 335 335 336 336 336 337 337 338 338 339 340 342 343 344 344 345 345 346 347 348 349 349 350 350
303 306 307 308 307 301 298 296 300 301 303 301 296 288 290 288 285 286 289 291 290 292 292 300 300 300 304 310 316 320 322 323 323 325 327 329 330 332 334 335 336 337 337 337 337 338 338 338 339 340 342 343 344 345 345 345 345 345 347 348 349 349 349
301 304 303 302 306 308 303 300 304 300 291 293 294 291 286 284 284 283 287 291 292 291 294 296 299 299 300 308 313 317 319 321 322 324 326 329 330 332 333 334 335 336 337 337 337 337 338 339 341 341 342 343 344 345 345 345 345 346 347 348 349 350 350
300 301 299 294 298 303 307 303 302 301 296 296 292 294 290 289 283 286 285 289 291 295 295 297 300 301 300 306 312 316 319 321 322 324 326 328 329 330 332 333 335 336 337 338 338 337 338 339 340 341 342 343 343 344 345 345 346 347 347 347 349 348 349
300 293 296 296 298 296 298 298 297 298 299 297 298 294 291 290 283 282 283 286 289 293 298 300 301 301 302 305 312 317 319 321 323 324 326 328 329 330 332 333 335 336 337 338 338 339 339 340 341 342 342 342 343 344 344 345 345 345 346 347 348 348 348
291 294 300 299 299 299 298 298 297 299 296 292 291 290 294 291 290 283 283 286 290 295 303 303 302 303 303 303 312 317 320 322 323 324 326 328 329 331 332 334 335 336 337 338 339 339 339 339 340 341 343 343 343 343 344 345 345 345 346 347 347 348 348
292 297 301 303 303 303 302 300 298 300 298 294 292 287 289 293 292 294 290 287 293 300 302 304 304 305 306 304 309 315 319 322 323 325 327 329 330 331 332 334 335 336 337 337 338 338 339 339 340 341 342 343 343 344 344 345 345 345 347 347 348 349 348
294 297 300 301 303 303 300 300 300 299 298 298 298 295 291 293 291 292 289 289 292 297 303 304 305 305 305 305 308 313 318 321 324 325 326 328 329 331 333 334 336 336 337 337 337 337 338 339 340 341 342 343 344 345 345 346 345 346 346 347 348 348 348
290 295 299 298 301 301 298 296 298 300 302 301 297 295 293 294 291 294 288 287 294 298 310 308 307 306 305 305 305 312 315 320 323 325 326 328 329 330 331 332 334 335 336 336 337 337 338 339 340 341 342 343 344 345 346 346 347 347 347 348 348 348 348
281 284 284 285 287 290 294 297 299 300 299 299 295 293 292 290 292 293 290 292 296 298 300 301 301 303 305 306 304 307 313 319 323 325 326 327 329 329 330 332 333 334 335 337 337 337 338 339 340 342 343 344 345 346 347 348 348 348 348 349 349 348 348
282 285 286 292 294 291 289 292 294 295 298 299 299 294 290 291 289 292 294 296 296 299 302 302 303 302 302 303 302 305 310 318 324 325 326 327 328 329 330 332 333 334 335 336 337 338 338 339 340 342 343 344 345 346 347 349 349 349 350 349 349 349 349
289 290 291 292 293 289 290 290 291 295 297 299 297 296 294 294 291 289 294 296 296 299 302 302 302 301 302 301 302 306 312 319 323 325 326 335 328 329 330 332 332 333 334 336 336 337 338 339 339 341 343 344 345 346 347 349 350 351 351 351 350 349 349
291 292 292 293 292 292 291 293 293 295 299 299 296 297 296 297 295 293 295 296 296 300 302 304 302 302 305 304 304 309 315 321 323 324 325 326 327 328 329 331 332 333 334 335 336 337 338 339 339 340 342 343 345 347 348 350 351 351 352 351 350 350 349
289 290 291 292 291 292 295 296 297 297 299 300 300 298 297 299 297 298 298 297 298 302 303 303 304 303 305 307 308 309 315 319 322 323 324 326 327 328 329 330 332 333 334 335 336 337 338 338 338 339 341 342 344 345 347 350 351 352 353 352 351 350 350
287 289 292 294 292 293 294 298 301 302 303 302 301 299 299 300 299 301 297 298 299 301 303 303 307 308 311 316 313 313 315 318 321 322 323 325 326 327 329 330 331 333 334 335 336 337 337 338 339 339 341 342 343 345 347 349 350 352 353 352 352 351 350
284 289 290 290 291 293 295 298 299 300 303 297 297 296 302 298 297 300 300 296 298 300 305 308 307 307 309 311 313 313 314 317 321 321 323 324 325 327 328 330 331 332 333 333 335 336 337 338 339 340 341 342 343 344 345 347 350 353 353 353 352 352 352
282 287 289 289 291 294 293 295 298 300 305 307 309 310 311 309 307 298 297 298 301 303 309 309 312 323 326 327 325 314 315 317 320 321 323 325 326 327 328 329 331 331 332 333 335 337 338 339 339 340 342 343 343 344 345 347 350 351 352 353 353 353 353
282 287 288 292 293 288 288 299 303 302 303 308 307 306 309 311 311 305 305 306 310 307 307 313 322 327 327 326 329 329 317 315 317 320 322 324 326 327 328 329 330 331 333 334 336 337 338 339 340 341 344 344 345 346 347 348 349 350 351 352 353 353 354
280 286 289 291 287 290 301 304 305 305 305 305 310 310 311 311 312 312 312 309 311 321 326 326 328 329 330 333 334 335 336 331 323 323 326 323 323 324 326 327 328 329 331 333 335 336 338 340 340 341 343 345 346 347 348 348 349 350 351 352 352 353 353
286 286 284 284 289 300 304 305 303 305 305 304 305 309 311 312 312 312 311 314 318 328 328 329 329 330 333 335 336 337 341 341 336 335 336 335 333 332 330 330 330 330 331 333 335 336 339 342 341 342 343 347 347 347 349 349 349 350 351 351 352 353 353
279 284 282 283 294 297 303 298 299 300 298 300 299 300 308 312 312 312 312 315 317 317 323 325 329 329 334 331 332 337 339 342 343 343 343 344 343 343 342 342 342 342 342 341 344 348 344 344 344 344 347 349 349 349 349 349 349 350 350 351 352 353 354
287 281 281 283 289 287 294 298 301 304 305 305 305 303 308 314 314 314 315 316 317 318 321 321 321 323 328 324 327 333 337 340 342 344 344 345 346 346 347 347 348 349 349 351 352 349 349 348 347 349 350 351 350 349 349 350 349 349 350 351 353 354 355
285 283 280 280 282 290 296 297 301 305 307 306 306 305 305 313 313 313 315 317 318 319 321 324 326 326 322 322 326 332 336 338 340 340 343 345 346 346 346 348 348 349 350 351 352 352 352 351 350 350 351 351 351 350 351 350 351 350 350 351 352 354 355
284 283 282 280 289 284 295 300 303 306 308 309 305 298 300 310 313 313 315 316 318 320 323 326 327 326 321 322 327 334 336 338 338 337 338 340 343 344 345 346 346 348 350 349 348 348 349 349 350 351 349 351 352 351 351 351 351 350 351 352 353 354 356
285 286 284 287 291 299 301 303 305 308 311 310 300 293 304 313 312 312 314 316 319 321 322 324 321 324 327 329 332 334 335 336 336 338 338 339 342 344 344 345 350 345 346 346 345 345 346 349 351 352 353 352 351 350 349 348 350 351 352 353 354 354 355
282 283 282 283 291 300 303 306 309 311 307 297 295 307 315 314 312 311 312 314 317 321 321 323 324 326 330 332 332 332 332 333 334 336 337 339 340 342 347 350 347 343 343 343 343 343 345 347 350 352 352 351 349 348 345 344 346 349 350 352 353 352 353
287 287 285 287 283 297 307 307 309 308 300 301 310 313 313 314 310 309 311 312 315 319 321 323 324 325 326 327 328 329 330 331 332 333 335 336 337 339 340 342 345 342 340 339 340 340 343 344 346 348 350 350 348 345 344 344 348 350 352 350 350 352 352
286 288 286 286 295 300 310 308 300 307 308 312 313 313 309 312 310 309 310 311 314 318 321 321 322 323 323 324 326 326 328 329 331 332 334 335 337 339 341 342 342 342 339 338 338 339 341 342 343 344 346 347 348 345 342 345 347 350 350 351 349 350 351
292 291 294 297 302 308 310 310 309 311 313 315 314 312 311 310 309 312 311 310 312 314 319 321 321 321 322 322 324 324 324 326 328 329 331 333 334 336 337 340 342 340 338 337 337 338 339 340 342 343 343 344 345 343 343 347 350 351 351 349 348 349 349
296 302 302 303 302 307 307 310 311 311 312 314 314 311 308 309 310 311 311 312 311 311 316 319 319 320 321 322 322 323 323 324 326 328 329 331 333 335 337 338 340 338 338 337 337 337 337 339 341 343 342 342 342 339 342 346 348 351 354 349 346 348 348
290 289 300 299 299 303 306 307 308 308 310 309 313 312 310 309 309 310 312 313 312 311 312 314 318 318 320 320 321 322 322 322 323 325 326 327 329 331 332 336 339 336 336 336 336 337 336 335 337 340 340 341 340 340 344 346 349 351 353 352 351 349 347
290 292 296 300 300 304 307 306 304 304 306 307 309 310 312 312 311 312 312 314 312 311 309 309 313 318 320 319 319 320 320 321 322 323 324 325 327 329 331 334 337 334 334 333 334 334 334 333 334 335 337 337 339 340 342 345 347 349 351 352 350 347 345
293 295 299 296 298 301 304 305 306 307 306 306 306 309 309 312 311 312 312 311 311 311 310 310 309 312 317 319 319 319 319 320 321 322 324 325 325 327 329 331 335 333 333 334 330 333 332 332 333 334 334 336 339 339 342 344 345 348 349 350 346 347 347
287 288 293 294 290 290 295 300 303 304 306 306 305 306 306 309 311 312 310 309 311 311 311 311 309 307 312 318 318 318 318 319 320 322 324 324 325 326 328 330 330 333 336 333 331 331 330 331 333 334 333 335 338 340 341 342 344 346 345 344 341 342 345
287 293 295 296 295 294 295 297 300 302 305 305 304 303 305 307 312 313 311 308 309 309 310 314 310 308 308 314 318 317 318 319 321 321 323 324 324 326 327 328 328 330 332 336 334 332 330 331 332 332 333 333 336 339 341 341 342 342 342 342 340 341 342
294 296 296 297 295 293 296 298 299 300 303 305 304 304 306 308 310 312 311 311 309 309 310 312 315 312 310 312 317 317 317 318 321 324 325 323 323 327 327 326 327 328 330 331 332 333 331 332 331 332 332 334 334 338 341 341 340 339 340 340 339 340 340
293 297 298 298 298 298 299 299 299 300 302 305 302 302 304 310 312 313 312 310 313 312 311 311 312 313 311 312 315 317 317 318 322 327 329 329 328 328 328 330 330 330 330 330 328 330 331 333 333 332 331 332 334 337 340 341 339 339 339 339 339 339 339

ECMWFFLT2_sfc_thetae_066.txt.gz
Theta_e
299 303 306 305 305 293 297 300 296 298 300 299 294 295 295 291 286 289 290 290 291 294 298 299 301 303 305 309 314 318 320 322 323 323 325 326 328 330 332 332 333 334 335 336 337 338 339 340 340 341 343 344 345 345 345 346 347 347 348 350 350 350 351
300 303 302 305 306 301 298 295 299 301 303 301 296 288 288 287 284 284 286 292 290 292 293 300 300 301 304 307 311 315 319 321 321 323 324 326 327 329 332 333 334 335 335 336 336 338 339 340 340 341 343 344 345 346 346 345 346 346 347 349 349 350 350
298 301 300 300 305 306 302 299 304 300 290 292 295 292 286 284 284 281 286 290 291 292 294 295 298 299 302 305 309 313 316 319 321 322 324 326 328 329 330 332 333 334 334 335 336 336 338 340 341 341 343 344 345 345 346 346 345 346 347 349 350 350 351
297 298 296 293 298 303 306 302 302 301 296 295 291 293 288 289 283 284 285 287 289 294 295 297 299 300 302 304 305 309 314 318 321 322 323 325 326 328 330 331 333 334 335 336 336 336 337 338 340 341 342 343 344 345 346 346 346 347 347 348 350 349 350
296 291 294 295 298 296 297 297 296 298 298 296 299 293 292 289 284 282 282 284 288 293 296 299 301 301 303 304 305 308 312 316 321 323 323 325 327 328 330 331 332 334 335 336 336 337 337 339 340 341 341 342 343 345 345 346 345 345 346 347 349 349 350
288 291 296 297 297 296 295 295 295 296 295 292 291 289 294 291 289 283 283 286 286 294 301 301 301 303 304 305 306 308 310 314 319 322 324 325 326 328 330 331 333 334 335 336 337 337 338 338 338 339 340 342 343 343 344 345 346 346 346 347 348 349 350
288 292 296 298 298 298 298 298 295 297 295 292 292 287 288 292 293 293 288 286 290 298 300 302 302 302 303 305 307 308 310 313 317 321 324 325 327 328 330 331 333 334 335 336 337 337 337 337 338 339 340 341 342 343 344 345 345 345 346 347 348 349 349
291 294 296 297 299 297 296 298 297 295 293 294 295 294 290 291 289 292 292 289 293 299 303 302 302 305 302 303 308 310 312 314 317 319 322 324 325 328 330 331 333 334 335 337 337 337 336 337 337 338 339 341 341 343 343 344 344 345 346 347 348 349 349
287 292 293 296 296 296 292 291 293 295 296 295 294 295 293 292 291 294 289 287 294 300 309 305 305 305 305 303 303 309 311 313 317 319 321 324 326 327 328 330 332 333 335 335 336 337 337 337 337 339 339 340 341 342 343 344 345 346 346 348 347 348 348
279 282 283 282 283 287 290 292 292 294 292 292 293 291 291 288 292 293 291 291 297 300 302 303 303 303 304 304 302 304 307 310 314 318 321 323 325 326 328 329 331 332 334 336 337 337 337 337 337 338 339 340 341 342 343 344 344 345 346 347 347 347 347
281 283 284 289 291 289 286 289 291 291 293 294 294 293 289 290 289 291 293 296 298 299 300 301 303 301 301 302 303 304 305 306 309 316 321 323 324 326 327 329 331 333 334 335 336 337 337 338 338 339 339 340 341 342 342 344 345 345 346 347 347 347 347
287 289 289 290 292 288 289 289 289 291 292 293 292 291 291 294 290 290 294 296 295 298 300 300 301 302 303 301 302 303 304 306 307 310 318 330 324 326 328 329 330 331 333 334 336 337 337 338 338 339 340 341 341 342 342 343 344 345 346 346 346 347 347
289 290 290 291 290 290 290 290 290 290 292 292 291 292 295 295 294 293 296 295 296 299 301 302 302 302 303 303 303 305 306 306 307 309 314 320 323 325 326 328 330 331 332 334 335 336 337 338 338 339 340 341 342 343 344 344 345 345 346 346 346 346 346
288 288 289 290 289 289 290 290 291 292 292 294 297 296 296 296 294 296 297 297 297 301 303 302 304 303 301 302 305 307 307 306 307 308 313 319 323 324 326 328 330 332 333 334 335 336 337 337 338 339 340 341 342 343 343 344 345 346 347 346 346 346 346
285 288 291 291 290 289 288 290 292 295 297 299 301 301 300 299 296 297 296 296 298 302 304 307 307 308 310 312 313 313 310 308 313 314 316 320 323 325 327 328 330 332 333 334 335 336 337 337 338 339 340 341 342 343 344 345 346 347 347 346 346 346 346
283 288 289 289 289 289 288 289 294 297 298 301 302 299 302 297 295 295 295 294 296 301 307 307 315 324 324 323 325 326 321 311 316 318 320 322 324 325 327 328 330 331 333 334 335 336 336 337 338 339 341 342 343 343 344 345 346 348 348 347 347 347 347
281 286 288 288 288 291 291 292 296 298 300 301 307 309 309 308 306 299 296 297 302 310 312 310 320 325 327 329 330 330 330 321 314 318 321 323 324 326 327 329 331 331 333 334 335 336 337 338 338 340 341 342 342 344 345 347 348 348 348 348 348 348 349
280 285 287 288 289 284 286 298 302 301 300 301 299 306 308 309 309 306 306 309 312 315 317 319 322 327 329 330 332 335 334 329 316 316 319 322 325 326 328 330 331 332 334 335 336 337 338 339 340 341 342 342 344 346 347 349 349 349 349 349 349 349 350
279 284 286 288 283 286 298 301 302 304 304 304 302 303 311 310 310 309 310 312 314 316 323 325 327 329 332 333 333 335 336 337 325 316 318 320 324 325 327 329 331 332 334 335 336 337 338 339 340 341 341 343 344 345 347 348 349 350 350 350 350 350 350
284 282 280 278 284 296 302 302 302 305 306 304 303 304 311 310 310 309 308 312 317 319 319 326 328 330 332 334 335 336 337 338 339 333 324 320 323 324 327 329 330 332 333 334 335 337 340 341 340 341 341 343 343 344 346 347 349 350 351 350 350 351 351
277 280 280 282 290 295 299 297 297 300 297 299 299 295 304 310 310 310 309 312 318 320 321 323 323 323 328 330 331 336 336 337 339 341 340 338 325 325 327 329 330 332 334 335 337 341 339 340 340 340 341 343 343 343 344 346 348 349 350 350 351 351 352
285 279 278 278 285 286 291 297 300 303 304 305 305 301 303 311 309 310 310 309 316 320 323 324 325 324 327 324 327 333 335 337 337 341 342 343 342 336 333 334 332 333 335 338 341 339 339 339 340 341 343 344 344 344 344 345 346 347 349 349 351 352 352
283 280 276 276 280 289 296 296 301 303 305 306 307 300 302 309 309 311 310 311 314 319 322 325 326 324 321 322 325 331 334 335 338 339 341 343 344 345 342 337 336 336 338 339 341 340 340 339 341 344 345 345 345 344 345 345 346 346 347 349 351 352 353
284 281 279 276 284 283 295 300 302 304 307 309 303 296 299 305 308 311 311 312 313 318 323 326 325 324 320 321 325 332 334 335 338 339 340 342 343 344 346 348 346 346 348 346 341 339 339 340 343 345 346 345 346 345 346 346 345 346 347 349 351 353 354
285 285 281 284 286 299 301 302 304 308 309 306 297 291 299 308 309 310 311 312 314 319 321 323 321 324 327 328 330 332 333 334 335 339 341 342 343 343 344 346 350 347 347 346 345 345 346 347 346 346 346 345 346 348 347 346 346 347 349 351 352 353 354
281 281 280 281 288 299 303 306 308 308 305 295 293 303 312 308 306 309 311 311 312 316 322 322 323 325 328 327 328 328 330 331 333 335 337 339 341 341 344 347 346 343 344 345 346 348 350 351 349 348 347 347 349 349 348 346 348 351 352 352 353 354 355
286 284 282 285 282 296 305 306 306 306 297 297 304 307 308 308 306 307 309 311 311 312 318 322 323 323 323 323 325 326 327 329 330 332 333 335 337 338 338 338 342 342 341 341 342 344 348 352 352 352 351 351 350 350 348 349 351 353 353 352 355 354 355
285 287 285 285 296 299 306 304 295 302 303 307 308 306 303 306 306 306 308 310 312 311 313 318 320 320 320 321 322 323 324 326 328 329 331 333 335 337 339 339 339 341 339 340 340 342 344 347 350 352 351 349 350 349 347 349 350 354 355 354 353 354 354
289 287 292 296 302 305 306 306 304 304 305 306 307 307 306 304 305 308 308 308 311 311 310 313 318 318 319 319 320 320 321 323 324 326 327 329 331 334 336 338 341 338 337 338 339 340 341 343 345 347 349 349 349 346 346 351 352 353 353 352 352 351 352
295 296 299 302 300 305 304 304 304 302 303 305 305 304 304 306 307 308 308 309 309 310 311 310 312 315 318 318 318 319 320 322 323 325 325 327 329 331 334 337 338 337 337 337 337 337 338 340 341 343 344 346 345 344 348 353 351 353 355 353 351 351 351
289 288 297 296 296 300 303 302 304 304 305 304 305 304 304 305 307 308 307 309 309 309 310 310 310 311 312 317 318 318 319 320 322 323 324 325 327 328 329 334 338 335 336 336 336 336 336 336 338 340 341 342 344 346 348 349 351 353 356 354 354 351 350
289 291 294 296 297 301 304 303 302 302 303 304 305 305 305 305 307 307 309 310 309 309 308 310 310 309 310 310 313 317 317 319 321 323 324 324 326 328 329 331 336 335 334 334 335 335 335 335 337 338 339 340 341 344 346 349 351 353 355 357 354 351 349
291 294 296 295 297 302 302 302 303 304 304 303 304 304 303 304 305 305 308 309 308 307 308 311 309 308 308 309 311 314 317 318 320 322 324 325 325 327 328 330 334 333 335 335 333 334 334 334 336 337 338 339 341 343 345 347 349 351 352 351 349 349 349
287 288 292 294 288 289 296 299 299 300 303 303 302 304 303 304 304 304 307 308 309 309 308 310 309 307 308 308 309 312 317 318 319 321 324 325 325 327 329 331 331 333 335 337 334 334 333 334 336 337 337 338 340 343 344 345 347 350 348 346 347 347 347
287 293 295 296 295 295 296 297 299 300 303 303 301 302 303 304 305 305 306 307 307 308 309 311 309 308 308 307 308 311 316 318 320 322 324 324 325 326 329 329 330 332 334 337 336 336 334 334 334 335 336 336 338 341 342 343 345 345 345 346 344 345 346
295 297 297 298 296 294 297 299 300 300 303 303 301 302 304 305 305 306 307 309 308 308 309 307 308 310 309 307 308 310 316 319 320 323 325 325 326 328 330 329 330 332 333 334 334 334 333 334 332 333 335 335 336 339 341 342 341 342 344 345 344 342 341
294 299 299 299 299 299 300 301 301 302 303 304 301 302 303 304 306 307 308 310 311 311 307 306 306 310 311 308 308 311 315 318 323 325 324 325 326 327 328 329 330 331 332 332 331 332 332 334 333 333 334 335 336 338 340 342 342 342 341 343 342 342 342

ECMWFFLT2_sfc_thetae_069.txt.gz
Theta_e
303 303 304 306 308 296 303 304 299 301 308 304 298 299 302 298 296 293 301 299 302 307 308 311 312 311 313 315 315 317 320 325 330 329 331 334 336 338 339 339 340 343 343 345 345 346 346 348 349 349 352 354 354 354 354 355 356 356 356 357 357 357 358
303 305 305 304 306 308 305 298 302 308 310 307 301 292 297 294 291 295 297 295 297 299 296 309 310 309 311 313 313 314 318 324 327 328 331 333 335 338 339 341 342 343 344 344 344 345 346 347 348 350 353 354 355 355 355 355 355 355 356 357 356 357 358
303 305 305 304 307 309 305 303 311 301 296 295 301 298 290 290 289 292 296 297 297 300 300 306 307 309 310 313 315 314 315 321 324 327 330 334 336 337 339 339 341 342 342 343 344 344 346 347 350 350 352 352 354 355 355 354 354 355 356 356 357 358 358
301 302 303 297 302 308 309 310 306 309 305 300 297 298 299 298 292 292 293 296 294 302 303 305 307 311 312 313 315 314 316 320 323 326 329 332 334 336 338 339 340 341 342 343 343 344 344 346 348 349 350 351 351 352 354 354 355 356 357 356 357 357 358
300 296 301 299 302 301 302 302 302 304 304 307 305 304 299 296 294 293 293 291 297 304 309 307 308 311 315 315 316 320 319 320 323 327 329 332 334 335 337 338 339 340 341 342 343 344 345 346 348 349 348 349 350 351 352 353 354 354 354 355 356 358 358
296 298 302 300 299 299 299 301 301 303 301 298 295 294 303 300 297 293 293 292 300 306 311 310 309 311 315 317 318 319 320 320 324 326 330 334 334 337 337 338 339 340 342 342 343 344 345 345 346 346 347 348 349 350 351 352 353 353 353 354 357 357 358
295 299 301 302 301 300 300 300 300 301 302 304 299 292 297 300 300 301 299 295 299 311 315 312 313 313 313 317 317 317 318 321 323 326 329 333 336 336 336 337 338 340 342 342 343 344 344 344 346 346 347 347 348 350 351 352 352 352 353 354 356 358 358
297 300 301 301 302 301 299 299 300 300 298 297 297 299 302 299 300 297 297 294 299 309 319 317 312 315 313 313 313 317 318 320 322 324 327 332 336 338 337 338 338 340 342 343 344 344 344 345 346 346 346 348 348 349 350 351 351 352 353 354 355 357 357
293 296 299 299 300 301 297 296 298 298 298 299 299 300 302 297 299 300 297 292 299 308 319 320 316 314 311 312 313 313 313 318 320 322 326 330 338 339 337 337 339 341 341 342 344 344 345 346 345 347 347 347 348 349 350 350 351 352 353 355 354 356 356
284 284 286 290 294 294 295 296 296 297 296 296 298 297 299 293 301 302 298 298 305 310 317 315 312 313 318 315 314 313 314 318 318 321 324 331 335 339 338 339 340 339 342 344 346 347 347 345 344 347 348 347 347 349 350 351 351 352 352 354 354 355 354
289 290 289 290 293 294 292 294 295 295 296 297 297 298 296 295 301 299 302 303 304 307 307 311 312 314 313 314 318 316 317 317 319 326 328 329 332 336 337 340 340 344 345 346 347 348 345 343 344 346 346 347 347 350 350 351 351 352 353 354 354 354 354
292 293 292 293 293 291 293 293 293 296 295 296 295 295 297 301 297 294 304 308 302 304 307 311 312 313 318 316 319 319 322 323 320 322 331 333 331 333 337 339 341 342 346 347 347 347 345 343 345 345 346 346 347 350 349 350 351 352 352 353 354 354 354
292 293 293 294 293 293 293 294 294 294 296 296 294 296 298 299 297 297 305 310 307 306 307 309 312 318 319 314 319 319 317 317 319 323 321 321 326 332 333 339 343 343 342 346 347 346 345 345 345 345 345 346 349 351 350 351 351 352 354 354 354 354 354
291 292 293 294 293 293 293 293 294 295 295 296 297 298 300 299 300 302 303 306 306 306 308 314 315 319 318 316 319 320 321 316 320 319 318 316 318 323 330 336 337 343 344 345 348 348 348 345 345 344 345 347 348 348 349 349 351 352 354 354 354 353 354
290 292 293 294 294 293 292 294 295 295 296 297 300 303 307 307 305 305 304 305 305 311 321 324 324 324 332 328 326 333 338 338 337 333 328 321 317 318 327 333 338 341 343 345 348 348 347 347 347 345 347 347 347 346 349 349 351 352 354 355 355 354 354
288 292 292 293 294 293 293 293 295 296 297 299 305 307 309 307 304 305 304 303 305 318 324 326 326 330 334 333 335 336 337 338 339 339 338 332 326 321 320 327 335 340 341 344 346 346 345 345 347 347 348 347 347 346 348 348 350 352 352 353 353 355 356
286 292 292 291 292 294 292 294 296 298 304 307 308 311 312 311 311 308 304 304 316 317 324 326 329 333 333 333 333 334 336 337 338 339 340 340 333 326 324 325 333 336 338 342 345 344 345 345 345 346 348 346 347 348 350 350 351 351 351 351 353 355 355
287 290 291 293 291 286 288 304 304 305 305 307 306 306 308 310 311 309 311 312 317 319 321 326 329 330 331 334 337 338 337 337 337 339 341 342 336 330 328 326 328 336 341 342 345 346 348 348 347 348 349 347 349 350 352 353 351 353 353 353 355 354 356
285 290 291 289 284 288 302 306 307 307 309 308 309 308 309 307 309 309 310 312 313 315 318 322 328 334 336 337 337 337 338 339 338 338 340 343 340 331 331 332 331 339 344 345 346 348 346 347 349 349 349 349 351 352 353 352 353 356 354 354 355 355 355
289 287 288 282 286 296 301 304 305 309 309 308 311 307 308 306 307 307 307 309 311 314 315 320 329 333 334 335 338 338 339 339 339 339 340 343 344 339 333 336 339 343 341 343 343 345 347 347 347 348 348 349 349 350 352 352 353 354 354 355 354 355 355
283 286 287 288 296 296 300 301 301 303 303 304 307 304 304 306 306 306 305 307 309 311 314 319 329 335 334 331 334 338 337 338 340 342 343 344 346 345 340 338 340 347 346 347 345 350 348 347 347 347 348 349 349 351 351 352 355 354 354 354 354 355 355
289 285 285 286 288 286 295 300 303 305 306 307 307 308 305 306 305 306 304 305 308 310 312 318 329 334 330 327 329 334 336 338 339 343 345 346 348 347 340 341 345 347 347 348 351 346 348 347 349 351 351 350 353 353 352 354 355 354 353 353 355 356 354
288 286 284 284 284 291 298 300 304 307 309 308 308 306 303 304 304 304 304 305 308 309 310 318 332 331 324 324 327 331 333 336 339 340 343 345 347 349 345 340 341 343 348 348 348 350 349 348 352 355 354 353 352 353 354 353 352 352 352 353 355 356 356
287 287 285 285 290 287 298 303 305 308 311 309 307 297 298 302 304 303 304 305 307 309 310 320 324 322 321 322 326 332 334 335 337 338 340 342 345 348 349 345 345 350 353 352 347 348 346 350 352 354 353 351 351 352 353 352 351 352 353 356 357 358 358
286 287 287 290 291 299 304 304 306 309 310 307 298 295 299 305 305 305 304 307 308 309 309 313 315 319 322 324 327 331 331 331 333 337 340 342 345 346 348 350 351 348 349 348 346 346 350 355 352 352 351 350 352 354 354 353 352 353 357 360 360 361 361
284 287 287 287 292 302 304 307 309 307 304 296 296 302 308 306 305 306 307 307 308 308 309 310 314 319 323 324 327 326 326 328 330 333 337 341 344 347 348 351 352 352 347 350 350 350 354 351 351 352 353 353 353 355 353 353 355 357 361 363 363 363 363
289 289 287 286 283 297 305 306 305 305 298 296 303 307 307 307 305 306 307 308 308 308 307 310 312 315 317 321 322 323 325 326 328 330 333 335 338 342 345 347 349 351 353 353 351 350 348 349 350 351 351 353 353 354 353 356 357 359 361 361 363 363 363
286 286 285 285 294 300 305 303 294 299 300 303 305 306 303 306 306 305 306 307 308 309 308 309 310 312 312 315 319 321 322 325 326 329 331 333 335 338 343 346 347 350 351 352 352 353 349 351 353 353 352 355 355 355 355 360 361 361 362 362 363 362 362
290 290 293 296 300 303 304 304 301 302 303 304 305 305 304 304 304 307 305 305 308 308 308 309 309 309 308 310 315 319 321 323 324 327 329 330 332 335 338 342 346 348 349 351 352 353 356 359 358 358 358 357 357 356 363 364 363 362 362 362 361 361 360
295 297 298 299 298 301 302 303 304 303 304 305 305 305 304 304 306 306 305 304 307 307 308 307 309 307 307 307 310 316 321 321 323 327 328 330 333 335 337 340 343 346 348 349 350 351 353 357 360 363 362 361 359 362 363 365 365 365 364 362 361 360 361
290 288 296 296 297 299 303 302 304 305 305 305 306 305 305 305 306 306 308 306 307 308 308 306 307 308 307 307 308 312 320 321 322 325 326 328 331 333 335 338 342 343 345 345 346 348 349 352 355 357 360 362 363 363 364 365 366 368 366 364 363 364 364
290 291 294 297 298 300 304 305 303 303 304 304 304 305 306 306 308 306 307 308 306 308 308 307 307 307 307 307 307 308 316 321 322 324 325 326 328 332 335 338 341 343 344 345 345 346 347 350 352 354 356 358 360 362 364 365 365 366 365 364 363 363 363
293 296 297 297 298 301 302 304 306 306 303 303 304 305 305 306 306 306 307 308 307 307 309 309 308 307 308 308 309 309 314 320 322 323 324 326 328 330 332 336 342 342 344 345 345 345 346 349 351 353 354 356 359 363 364 366 368 366 364 365 366 364 363
288 290 292 296 290 291 296 300 302 303 304 303 304 305 304 304 305 306 305 306 308 308 310 310 308 307 308 309 310 310 311 317 322 323 324 325 327 329 331 335 340 343 344 346 346 345 346 349 350 351 352 354 357 358 363 367 371 367 363 364 367 367 366
287 294 296 297 297 296 297 299 302 303 304 303 302 302 303 305 306 307 306 305 306 307 310 312 310 308 308 309 309 309 310 315 322 323 323 324 326 327 329 332 335 339 342 344 345 345 346 348 349 349 350 351 354 356 359 362 367 369 369 367 365 365 364
296 298 297 298 297 295 297 300 302 303 304 304 303 304 305 305 305 306 306 307 306 307 310 311 312 310 310 310 309 309 311 316 320 322 323 325 326 327 328 330 332 335 338 340 341 342 344 345 346 348 348 348 351 354 357 359 361 365 368 367 366 365 366
293 298 298 299 299 299 300 301 302 304 306 306 304 304 305 305 306 307 306 306 309 309 310 310 311 312 311 310 310 311 311 316 319 322 323 326 326 325 325 328 329 330 333 336 340 342 343 345 346 346 346 346 349 352 355 358 360 362 363 365 365 364 364

ECMWFFLT2_sfc_thetae_072.txt.gz
Theta_e
309 309 311 310 311 299 305 306 300 303 309 306 301 303 304 304 301 298 306 304 306 311 312 315 316 316 318 319 320 320 321 323 326 325 328 334 338 341 344 345 346 349 350 352 352 353 354 355 356 356 358 360 360 360 361 362 364 364 363 363 361 361 361
308 312 311 311 311 311 308 302 305 310 311 309 303 296 300 298 295 298 302 300 303 303 299 312 312 312 314 316 318 319 322 323 323 324 326 332 335 339 344 347 349 350 350 352 352 353 354 355 355 357 359 361 361 361 361 362 363 363 363 362 361 361 361
308 310 310 308 311 313 307 307 313 303 298 297 303 301 294 294 293 296 299 301 301 303 304 310 309 309 311 314 317 318 318 321 322 324 327 332 334 336 342 345 347 348 349 350 352 352 353 355 357 358 358 359 360 361 361 361 362 362 363 362 362 363 363
307 307 307 299 303 309 311 312 309 311 307 303 300 301 303 301 295 296 297 299 298 306 306 309 310 312 312 312 314 316 317 319 321 324 328 331 332 335 339 343 346 347 349 350 351 351 352 353 355 356 357 358 358 359 361 361 362 363 364 363 363 363 363
305 299 304 301 304 302 304 304 304 307 306 310 308 306 302 299 298 298 298 296 301 308 312 310 311 314 315 314 314 317 318 320 321 324 327 329 333 335 338 343 345 347 348 349 351 352 352 353 356 356 356 356 357 358 359 360 360 361 361 361 362 363 363
298 300 307 307 307 306 305 304 303 305 304 301 298 297 306 303 299 295 297 296 306 310 314 312 312 314 314 317 317 318 319 320 323 324 327 329 332 338 340 342 344 346 348 349 350 352 352 352 353 354 354 355 357 357 358 359 359 359 359 360 362 363 364
300 303 306 308 307 307 305 307 305 307 306 306 302 294 299 303 303 304 303 300 304 314 315 315 314 314 314 315 315 315 317 321 322 323 324 329 335 339 340 342 342 345 348 350 350 351 351 351 352 353 354 354 355 357 358 358 357 358 359 360 361 364 363
302 304 307 308 307 305 304 306 308 307 304 306 305 304 306 303 303 300 301 298 303 313 318 316 315 318 317 319 318 319 318 318 320 322 324 328 334 340 340 341 341 345 348 351 351 351 351 351 353 353 354 355 356 356 357 357 357 358 359 360 361 363 364
296 297 302 303 307 306 304 304 307 308 307 306 305 305 307 302 304 304 300 295 302 311 317 317 316 315 315 316 317 318 318 319 320 324 328 329 336 342 341 341 343 345 346 349 350 351 353 352 351 354 353 354 355 355 356 356 356 358 359 361 361 362 363
286 286 288 293 297 300 303 306 305 304 305 306 305 301 304 297 305 306 302 302 309 315 317 316 317 316 316 316 317 318 319 320 319 320 323 335 341 345 346 344 344 344 348 351 352 353 353 352 351 354 355 354 354 354 355 357 357 358 359 360 361 362 362
292 295 296 298 298 299 299 301 302 303 305 305 306 306 303 299 303 303 306 307 309 310 312 314 315 315 314 314 317 318 319 320 322 326 327 329 334 338 341 344 344 348 351 351 352 354 352 351 351 353 353 353 353 355 356 356 358 358 360 360 361 361 362
296 298 298 298 297 294 297 298 299 302 302 303 304 302 300 309 305 299 308 310 306 308 312 313 314 315 316 316 319 319 321 323 324 326 335 337 329 336 339 342 344 346 348 351 353 353 352 350 351 352 354 353 354 355 355 356 357 357 358 360 360 361 362
295 297 297 298 297 297 297 298 298 299 302 302 301 303 305 308 303 300 308 312 310 310 312 313 315 320 320 320 323 323 322 323 328 329 327 325 324 332 336 342 346 346 347 352 354 354 352 351 351 352 353 353 355 356 357 357 356 358 360 360 360 360 362
294 295 296 297 296 296 297 297 299 300 300 301 302 303 305 305 305 308 309 310 309 312 314 316 320 323 321 321 324 324 325 328 334 334 332 327 326 323 329 340 344 349 349 353 354 355 355 352 352 351 352 354 353 354 355 355 357 358 359 360 360 361 361
292 295 297 297 296 296 295 297 298 300 301 301 302 302 304 305 305 306 307 308 308 313 319 326 327 326 323 323 321 328 332 335 335 336 333 331 335 337 339 333 341 346 350 352 355 355 355 352 351 350 352 354 354 354 355 355 357 358 359 360 361 361 362
289 294 295 295 296 296 295 295 297 298 299 299 301 301 304 304 304 308 308 306 306 312 324 326 326 324 322 320 327 332 336 339 340 340 340 341 344 344 345 348 342 339 346 349 354 354 353 351 351 351 354 354 354 353 355 355 355 357 358 359 360 362 362
287 293 295 296 296 295 292 294 297 299 301 302 304 305 314 314 313 307 306 306 315 321 323 322 324 327 328 327 328 336 338 341 340 340 341 343 345 347 349 350 352 347 338 344 353 353 352 351 350 351 353 353 354 354 356 357 357 356 358 359 361 362 363
288 292 294 296 293 287 289 302 304 303 301 302 301 306 313 315 313 311 315 317 320 320 319 320 322 325 328 334 337 339 341 340 341 341 342 344 345 347 349 351 353 352 347 341 345 353 355 354 350 353 355 353 355 356 358 359 358 359 360 361 363 362 363
287 291 293 288 285 287 301 308 310 309 307 306 305 312 311 312 314 314 314 316 317 317 319 320 323 326 329 333 336 337 339 341 340 341 342 344 346 347 349 351 353 354 348 342 342 350 353 351 353 353 353 354 356 356 358 357 358 359 360 361 362 363 363
291 288 288 280 285 298 306 307 310 313 312 309 311 308 309 312 312 313 313 314 315 317 319 321 325 327 329 332 336 338 340 341 341 340 341 343 345 346 349 351 353 356 351 343 338 343 354 352 351 352 353 354 355 355 358 357 358 360 361 362 362 364 363
284 287 288 288 297 297 301 303 306 309 308 310 306 301 303 309 312 312 311 312 314 314 317 320 324 328 330 330 333 335 340 339 340 340 342 344 345 347 349 351 353 356 354 346 342 347 353 351 349 352 353 353 353 354 356 357 358 359 361 361 362 363 362
290 286 286 287 289 286 294 306 308 311 312 312 312 309 303 309 311 311 311 310 311 311 313 317 322 327 328 325 328 334 333 336 336 339 341 345 347 348 350 353 355 353 348 347 347 347 352 351 351 354 355 353 355 356 356 357 357 359 359 359 361 363 362
289 287 283 283 283 290 302 304 308 311 312 313 314 309 303 306 310 310 310 309 309 308 308 312 322 328 323 322 328 328 329 331 333 335 340 344 347 349 351 352 352 347 348 349 347 351 354 351 353 357 357 355 354 357 357 357 357 357 357 359 360 362 362
289 288 285 284 291 289 302 305 307 311 314 311 312 297 296 302 308 309 309 308 307 306 308 313 316 315 319 316 318 322 324 328 331 335 339 343 346 348 351 353 355 354 352 352 349 351 350 352 355 358 356 354 356 357 356 355 355 356 357 359 362 363 363
288 287 287 291 294 303 306 306 307 310 313 311 300 292 300 307 308 307 308 308 307 306 307 310 309 310 311 313 315 317 319 325 330 335 341 343 346 347 349 351 356 353 352 351 350 350 352 356 355 357 355 354 354 357 357 356 355 355 359 361 362 363 364
286 287 285 286 292 303 305 309 310 310 308 298 296 303 309 308 306 307 308 307 307 307 307 308 310 310 311 313 314 315 317 324 329 334 338 341 344 347 350 352 354 355 350 352 352 351 356 356 356 355 356 355 358 359 357 356 358 359 361 362 363 364 364
290 289 286 284 281 297 305 305 307 308 302 299 302 307 307 309 307 306 307 306 306 308 306 308 309 309 310 310 312 315 317 325 327 330 334 337 339 343 347 350 352 353 353 350 350 351 354 356 356 356 356 358 359 358 357 360 360 361 361 363 364 365 365
286 285 283 285 296 299 304 303 297 301 302 305 306 305 306 308 307 306 306 306 306 307 307 307 307 308 308 309 310 312 314 322 326 328 332 335 337 341 346 348 352 351 355 356 351 352 354 356 356 357 357 359 359 360 360 364 362 362 364 364 366 365 365
293 290 293 298 301 301 303 304 304 304 306 307 306 305 306 306 305 308 307 307 308 308 308 309 307 306 307 308 309 309 311 319 324 326 329 332 334 337 342 348 352 352 352 356 356 353 354 356 358 359 358 360 362 361 364 366 363 363 365 366 366 365 365
298 298 298 300 300 301 301 305 306 305 305 307 308 306 303 305 306 308 308 308 309 310 311 309 310 308 307 308 309 310 312 316 323 326 328 330 333 335 339 345 349 352 353 353 356 358 359 359 359 360 361 363 363 363 366 366 365 366 368 368 367 366 366
290 288 299 299 299 300 302 304 305 307 307 307 306 306 307 306 307 308 310 311 311 311 310 309 310 310 310 309 309 311 312 314 322 324 326 328 331 332 335 342 346 349 352 353 353 355 357 360 360 358 360 360 364 366 368 366 366 370 370 369 367 366 367
288 291 297 299 300 302 304 306 306 305 306 307 308 308 308 308 309 309 310 311 310 312 311 310 311 311 310 309 309 311 312 314 321 323 325 327 329 331 336 340 345 345 346 349 352 354 355 358 362 363 364 366 368 369 367 365 365 368 366 367 365 366 366
294 298 299 299 300 302 305 306 308 307 306 305 306 308 307 308 308 309 310 311 311 311 310 313 312 312 311 311 312 311 314 316 319 322 324 327 329 330 333 337 341 343 344 345 348 350 353 357 359 361 362 364 366 367 366 366 366 367 366 364 366 366 365
290 290 293 296 291 292 299 302 304 307 307 306 306 307 307 307 307 308 308 310 312 311 312 311 312 310 311 312 312 312 314 317 319 321 324 327 329 330 332 335 336 339 343 345 345 347 350 354 356 358 360 363 366 367 370 371 371 369 367 365 365 366 366
287 294 296 297 297 297 299 302 305 306 306 306 305 305 306 308 308 309 309 309 310 311 312 313 313 312 312 312 312 312 313 316 319 322 325 326 328 328 330 331 332 334 338 342 343 344 346 349 352 354 356 359 361 365 368 371 371 368 369 365 363 364 365
296 298 297 299 297 296 299 302 304 305 307 306 305 307 308 309 310 309 310 310 309 309 310 312 314 313 313 312 311 312 314 316 319 321 323 327 330 329 328 329 330 331 333 337 340 342 345 347 348 351 351 354 358 362 365 368 372 372 370 368 365 366 366
293 299 299 300 299 300 302 305 305 307 309 310 307 308 309 310 311 311 310 310 311 311 311 312 314 314 313 312 311 312 314 315 318 321 323 324 325 328 329 330 330 330 332 335 337 340 343 345 347 348 349 350 353 356 361 365 368 369 369 370 369 369 369

ECMWFFLT2_sfc_thetae_075.txt.gz
Theta_e
310 311 313 311 312 300 307 308 302 305 311 308 304 305 307 306 302 300 307 305 307 312 314 316 318 319 321 322 323 324 326 327 332 333 333 334 336 340 340 342 347 353 355 356 355 356 356 357 357 357 359 360 361 363 364 366 367 367 368 368 367 366 365
310 313 313 313 312 312 309 304 307 312 313 311 305 298 303 301 298 300 304 302 304 304 300 313 315 316 318 320 321 323 325 327 328 330 333 336 338 341 342 345 349 353 354 356 355 356 357 357 358 358 361 362 364 364 366 366 367 366 367 367 365 364 365
309 312 311 309 312 313 307 307 315 305 300 299 304 302 295 296 296 299 303 305 305 306 306 310 311 313 316 319 322 322 322 324 326 327 329 332 335 338 340 344 348 350 353 354 356 356 357 358 360 360 361 361 363 364 365 366 366 367 367 366 365 365 365
308 309 308 300 304 311 312 312 307 312 309 304 301 302 303 303 298 298 299 303 301 309 310 311 311 314 316 317 319 320 322 323 323 325 326 327 331 336 338 342 343 342 351 354 355 355 355 357 359 359 360 360 361 363 365 366 367 369 369 367 365 364 363
305 300 305 302 305 303 304 305 304 306 307 311 308 307 303 301 299 299 299 297 303 310 314 314 315 315 316 316 316 319 320 322 323 324 325 327 329 333 339 339 338 341 349 352 355 356 355 357 360 360 359 360 361 362 363 365 366 366 366 365 365 364 363
299 300 307 307 307 308 307 305 303 306 304 302 299 299 307 304 301 297 300 299 309 312 314 314 315 317 317 318 318 318 319 320 323 324 327 328 329 332 337 340 341 344 345 351 354 355 355 356 357 358 359 360 360 361 362 363 364 365 365 364 364 364 364
299 303 307 309 310 309 308 308 305 308 308 307 302 295 301 304 304 306 305 302 306 316 318 317 315 316 317 319 318 318 318 320 320 323 325 328 332 331 333 336 338 340 345 348 352 355 354 354 356 358 358 358 359 360 361 362 363 364 364 363 364 365 363
303 305 308 309 308 308 306 307 308 307 303 306 305 304 307 304 305 302 302 300 305 314 320 318 317 319 318 320 318 319 319 320 321 322 324 329 331 335 335 336 336 340 342 350 354 355 354 355 356 357 358 359 360 360 361 362 361 363 363 363 362 364 363
295 298 302 303 307 306 304 304 307 308 308 308 308 309 309 303 305 305 301 296 303 313 318 319 317 317 316 316 317 319 319 320 321 323 325 326 333 335 334 336 336 339 340 348 355 355 358 356 354 357 357 358 359 359 360 360 361 363 363 364 363 364 364
287 287 289 293 297 301 304 306 305 308 307 307 304 301 303 298 306 308 303 303 309 314 318 316 316 316 317 317 318 319 321 322 321 321 324 334 337 336 336 338 337 337 346 353 357 359 358 355 355 358 359 358 359 360 360 361 361 362 361 362 363 364 363
292 295 299 301 302 301 299 302 304 306 307 307 306 304 302 300 305 304 307 308 309 310 313 315 317 317 316 315 317 317 319 321 323 327 327 327 337 337 334 338 337 346 358 356 356 359 355 354 355 357 358 358 358 360 361 361 362 361 362 362 363 364 363
297 298 299 302 300 298 300 300 300 303 303 304 305 303 301 309 304 299 308 312 307 310 313 315 317 317 317 316 318 319 320 321 322 323 328 335 330 338 343 346 347 346 350 357 358 357 356 355 354 356 358 357 358 359 359 361 361 360 361 361 362 364 363
296 297 298 300 300 300 299 299 300 300 301 301 302 302 305 308 303 300 308 311 310 312 313 315 321 322 322 321 323 324 324 324 328 329 326 324 325 330 331 338 343 345 347 357 358 356 356 355 354 355 356 357 359 360 361 362 360 361 363 361 362 363 364
295 296 296 298 298 298 299 300 301 302 301 301 302 304 306 306 306 308 309 311 310 314 316 318 322 325 324 324 324 325 326 327 330 330 327 325 324 326 328 335 339 345 348 353 359 358 360 356 356 353 355 358 357 358 359 359 361 361 362 362 363 363 364
292 295 296 297 297 297 297 299 301 301 302 303 304 306 306 306 305 308 308 309 309 315 319 320 325 326 325 324 323 322 327 330 330 331 330 331 333 333 334 338 338 344 346 350 357 360 360 358 356 354 356 358 358 357 359 359 360 361 362 364 364 365 365
290 294 294 295 296 297 297 298 299 300 300 300 303 302 306 304 304 306 307 306 307 313 318 319 325 323 323 323 324 324 327 331 333 331 331 332 334 335 336 339 342 345 344 347 351 356 357 356 356 355 358 357 357 356 358 358 358 360 361 362 363 366 366
289 293 295 294 295 294 292 295 299 301 302 303 304 305 307 308 308 305 303 304 311 314 318 319 322 323 323 324 325 328 329 330 330 332 333 334 334 334 338 340 344 346 346 345 351 354 356 355 353 354 355 355 358 358 360 360 361 360 361 362 364 366 367
289 293 294 296 292 286 288 300 304 304 301 302 301 302 305 308 309 306 310 311 314 316 320 320 322 323 326 328 330 328 327 326 326 330 338 340 339 338 339 344 341 345 354 357 357 352 359 358 354 355 357 355 358 359 360 362 361 364 364 364 365 365 368
288 292 293 289 284 287 299 303 305 306 306 306 304 305 306 307 309 310 309 312 315 321 322 322 324 326 327 329 328 328 328 329 327 330 338 342 343 344 345 347 349 353 356 357 359 358 355 354 358 356 353 355 359 359 361 360 362 366 363 364 365 366 366
291 289 288 280 284 297 300 302 304 307 307 307 306 303 306 309 312 315 312 314 315 318 320 321 324 325 326 327 330 329 328 337 338 338 339 340 342 343 345 347 350 353 354 357 358 360 361 351 353 357 354 354 355 358 360 360 361 363 365 366 365 367 367
285 288 288 288 295 294 297 298 300 303 302 304 304 299 305 313 314 316 316 318 319 319 319 321 322 325 326 324 324 331 331 331 333 334 337 339 342 344 347 348 349 353 356 357 359 361 360 356 349 355 355 354 355 357 359 359 362 362 363 364 364 366 366
290 286 286 287 288 284 291 301 310 310 311 316 314 308 306 315 316 317 315 315 317 316 317 319 322 324 322 318 320 328 326 327 329 332 336 340 343 345 347 350 351 353 355 358 359 357 355 354 351 358 357 355 357 360 359 361 361 360 360 361 364 366 366
290 287 285 284 283 289 302 305 309 310 310 313 312 307 300 311 314 314 315 314 314 313 314 317 322 322 316 315 320 320 321 323 327 331 335 338 340 344 347 349 349 350 354 357 356 358 356 350 351 359 362 357 354 357 359 359 360 358 358 362 364 366 366
291 289 285 284 289 288 303 307 307 309 311 312 308 295 296 307 312 313 313 312 312 313 316 319 320 318 315 318 316 318 319 322 325 331 335 336 340 343 347 350 351 353 355 356 356 355 352 352 352 359 359 356 356 357 358 359 358 358 360 363 367 369 368
290 288 288 290 292 300 305 308 307 309 312 308 296 291 301 310 311 311 312 311 312 314 316 318 314 314 314 314 316 317 320 322 324 327 334 336 339 343 345 348 350 351 354 354 356 355 355 357 352 355 358 356 356 359 360 360 359 359 362 366 368 369 369
289 290 287 287 292 304 306 309 307 312 305 295 293 302 308 311 310 310 311 310 311 313 314 315 314 312 314 315 316 317 318 320 321 324 330 333 336 341 346 348 350 352 351 354 357 356 356 353 354 356 357 360 361 362 360 359 361 362 365 367 368 370 369
292 292 288 286 283 298 307 308 306 307 297 299 303 305 309 310 309 309 309 310 311 313 313 314 314 312 312 314 314 314 316 316 317 319 326 329 331 336 342 347 351 353 351 353 354 354 352 353 355 355 355 360 360 362 359 363 364 365 366 367 369 370 370
289 288 286 286 294 301 307 306 300 303 304 306 307 306 306 310 309 309 308 308 310 312 313 312 313 313 313 313 313 313 313 314 316 319 325 329 332 336 339 345 351 353 354 355 354 353 352 354 356 357 359 360 361 361 362 366 366 366 368 368 369 369 368
293 292 296 302 304 304 307 308 307 307 308 308 308 307 305 305 306 309 308 308 311 312 313 314 313 312 312 312 312 312 312 313 315 318 324 328 330 333 337 343 350 353 354 354 354 354 354 358 360 362 360 360 361 363 365 369 368 366 367 368 368 368 366
302 302 302 304 304 305 307 307 310 307 308 309 309 308 306 307 307 308 308 309 310 312 315 313 312 313 313 313 312 313 313 314 315 321 324 327 330 334 337 342 346 352 355 355 355 357 356 358 360 364 362 360 362 364 368 368 367 367 367 367 367 367 367
295 290 302 301 302 305 306 306 308 309 308 308 310 308 309 308 309 309 308 309 311 313 314 313 312 313 314 313 313 314 317 316 316 319 322 326 330 333 334 337 342 347 354 353 355 356 357 357 356 355 358 359 364 367 368 366 365 368 368 368 367 367 366
293 293 300 302 304 306 306 307 308 306 307 308 308 308 309 310 310 311 310 310 311 313 313 314 313 314 313 312 312 312 315 317 317 319 323 326 329 332 335 336 339 342 347 350 353 356 357 361 362 360 360 363 365 366 366 365 364 369 368 368 366 367 366
296 299 302 301 302 304 307 308 308 308 308 307 307 308 309 310 309 310 310 310 311 312 313 314 314 314 313 313 313 313 315 318 318 319 322 325 329 332 334 335 336 339 342 346 350 354 356 360 362 366 363 362 365 366 366 366 370 369 367 370 369 369 367
290 291 294 298 293 295 299 300 303 306 308 308 307 307 308 309 310 310 311 311 312 312 314 314 314 314 314 315 314 314 315 318 319 321 322 324 327 331 334 335 336 336 338 341 342 346 352 356 360 361 364 365 366 364 366 367 369 367 369 369 368 368 368
288 295 298 299 298 298 299 301 304 306 307 308 306 307 308 310 311 312 311 311 311 312 313 314 315 315 315 315 316 315 315 317 320 323 323 323 325 329 333 333 333 333 335 338 339 340 345 352 355 358 360 362 364 366 367 369 369 369 369 365 364 365 367
295 298 299 300 298 296 299 303 304 305 308 309 308 309 310 311 312 312 311 313 312 311 312 314 316 316 316 316 316 316 318 317 318 321 325 325 326 329 332 331 332 332 332 334 336 338 342 349 351 352 354 356 359 363 365 371 368 369 368 365 363 364 365
293 300 301 301 300 301 304 305 305 307 309 309 308 309 310 312 313 313 312 312 313 313 312 312 315 317 316 316 316 318 318 319 317 320 324 325 324 325 326 328 329 331 331 332 334 337 339 343 346 348 348 351 356 359 366 369 372 368 367 367 365 366 366

ECMWFFLT2_sfc_thetae_078.txt.gz
Theta_e
308 309 312 310 310 298 305 305 300 302 309 306 302 302 304 304 301 298 304 302 304 309 309 313 315 317 319 321 321 322 326 336 334 333 334 335 336 336 337 342 345 348 348 350 349 350 351 353 353 351 356 358 358 360 361 362 364 364 363 364 364 364 363
310 312 312 312 311 310 307 301 305 310 312 309 304 296 300 299 295 299 303 300 301 301 298 310 312 313 316 319 320 321 324 325 330 331 333 335 335 337 340 345 347 348 347 347 348 350 351 351 351 353 357 358 360 361 361 361 363 363 363 362 362 363 363
308 311 310 309 311 312 306 305 313 304 298 298 303 301 294 294 294 297 302 304 303 304 304 307 308 310 313 316 320 321 322 324 332 332 335 336 336 336 340 341 341 342 346 348 350 349 350 353 356 356 358 357 358 360 361 363 362 363 362 361 363 363 363
306 307 307 299 304 309 311 311 306 310 307 303 299 301 302 301 295 297 298 302 300 307 308 310 309 311 314 315 318 319 321 322 334 332 332 334 336 341 340 339 341 341 342 346 349 349 349 351 354 356 355 355 356 358 361 363 364 364 365 364 364 362 362
303 297 302 301 304 302 303 303 303 305 305 308 307 306 302 299 297 297 298 297 302 310 313 313 313 313 315 316 318 322 321 324 326 334 333 334 334 334 338 340 343 343 343 345 347 350 350 350 356 355 354 355 356 358 361 364 364 363 364 363 362 362 363
297 299 306 307 306 306 305 304 301 304 303 300 297 296 306 303 299 296 297 297 307 311 315 315 315 316 315 317 318 321 323 323 326 328 331 334 334 336 342 341 340 340 347 348 347 349 349 351 352 354 355 356 356 358 360 363 364 364 364 363 363 364 364
296 301 305 307 306 305 304 305 304 306 305 305 301 294 300 303 303 305 303 300 304 315 317 316 316 316 317 318 318 319 321 324 325 327 328 333 336 337 341 342 341 343 344 344 346 348 348 349 348 349 351 354 356 357 360 363 363 364 364 364 365 366 364
300 302 304 306 306 305 303 304 305 303 302 305 303 303 305 302 303 300 300 298 303 313 320 320 318 321 318 319 319 319 319 321 324 326 327 329 333 338 338 340 340 343 343 345 347 347 346 345 349 352 355 357 356 357 360 363 363 364 364 365 364 364 363
294 296 299 300 304 304 301 300 304 306 306 305 306 306 308 301 302 303 299 295 301 311 318 319 317 315 316 317 318 319 319 320 321 322 324 328 334 335 335 337 341 344 345 346 348 348 349 349 350 355 358 358 358 359 360 361 363 365 365 365 364 363 362
284 285 286 289 296 298 302 305 304 306 304 303 303 299 302 296 305 307 301 300 307 313 319 316 316 316 319 317 318 318 319 322 320 320 322 327 336 334 335 339 339 338 342 346 350 350 350 348 349 358 360 358 358 359 360 362 363 364 365 365 364 363 362
290 293 296 299 302 300 297 300 301 301 303 304 303 303 300 297 303 301 307 308 308 310 312 313 314 315 314 315 317 317 317 320 324 338 334 329 337 337 337 343 342 343 344 348 352 353 351 350 353 357 358 358 358 361 361 361 363 364 365 365 365 363 362
294 296 297 299 299 296 299 300 300 302 302 301 299 296 296 306 300 297 308 316 307 308 312 315 315 315 316 316 319 317 320 321 320 324 336 340 332 337 339 339 342 343 344 349 351 354 356 353 354 355 357 358 360 362 360 361 362 363 364 365 365 364 362
294 296 296 297 297 297 297 297 298 298 300 300 298 299 301 302 298 296 307 314 309 310 313 318 319 321 318 316 320 321 319 321 328 339 326 326 327 332 333 347 349 344 354 353 354 355 356 354 354 355 356 357 360 363 361 362 361 362 365 365 364 363 363
293 294 295 296 295 295 296 296 297 299 299 298 299 300 302 303 302 304 306 313 308 311 318 318 320 323 322 322 324 325 326 325 330 325 326 325 328 328 331 339 342 350 355 355 358 359 358 355 356 353 356 359 360 360 361 360 362 363 365 364 364 363 362
291 293 295 295 295 295 293 296 297 298 298 299 300 301 302 303 302 304 305 308 308 318 320 320 322 324 323 324 323 328 329 329 330 330 329 331 330 332 335 341 343 346 350 355 362 369 363 360 359 357 359 359 358 358 359 360 362 363 365 364 364 364 364
289 293 293 294 295 295 294 294 296 297 297 296 299 300 303 302 302 304 304 304 306 313 317 319 320 321 321 324 325 326 326 325 325 325 329 331 332 333 334 337 340 342 342 350 352 359 359 359 363 359 362 360 358 356 360 360 360 361 362 364 364 365 367
288 292 294 293 293 292 290 291 294 297 298 299 301 303 305 305 305 303 301 303 310 312 317 315 319 320 324 325 325 326 327 327 325 324 325 331 334 336 336 338 341 340 343 349 355 356 351 352 350 355 360 357 359 359 361 362 362 361 362 362 364 366 367
288 291 293 294 290 283 285 297 300 300 298 299 298 300 303 305 306 305 307 308 314 313 314 317 320 320 322 324 326 327 328 331 332 331 334 339 339 340 341 341 341 347 348 350 351 355 361 360 353 354 358 356 361 361 363 366 364 363 364 363 365 365 367
286 290 292 287 282 285 297 300 301 302 302 302 301 302 304 305 307 307 307 308 309 311 320 318 320 323 324 326 325 326 330 332 331 332 334 337 338 340 341 343 344 347 350 353 354 355 353 357 359 352 354 355 361 363 364 364 364 365 366 365 365 366 367
290 288 287 279 282 294 297 299 301 303 302 303 304 300 304 305 306 308 306 308 309 313 319 319 322 323 323 325 327 327 326 327 327 328 331 334 337 338 340 342 345 349 348 350 349 351 357 356 355 357 349 351 352 359 363 365 363 365 367 367 366 366 367
284 287 286 286 294 292 295 294 297 299 300 304 304 298 304 307 308 308 309 315 311 316 318 320 321 323 322 321 322 324 322 324 326 327 330 335 337 339 341 343 344 348 350 351 351 356 356 358 358 358 358 346 352 355 359 360 363 363 366 367 366 366 366
291 286 285 286 286 283 289 297 306 309 310 312 310 306 304 310 314 315 314 314 316 315 316 318 320 320 317 314 315 320 320 322 324 327 329 332 335 337 339 342 345 348 350 352 354 354 354 355 356 361 361 361 357 358 359 361 362 361 362 365 367 366 366
289 287 283 283 282 287 297 302 307 309 310 311 312 303 297 309 312 313 315 312 313 313 314 316 319 318 312 311 314 316 319 321 324 325 326 328 331 335 337 339 341 344 348 351 352 353 354 352 357 360 361 362 359 358 360 360 361 359 360 364 366 366 366
290 288 285 282 288 287 300 306 306 309 310 309 306 292 293 305 311 312 313 312 312 312 314 317 317 316 311 310 311 316 319 322 323 324 324 325 328 332 336 338 341 344 348 350 352 353 353 357 362 362 360 357 357 358 360 359 357 357 358 362 366 368 368
290 288 287 289 290 297 305 305 307 308 310 304 294 288 300 307 309 310 310 312 312 313 313 315 312 315 315 314 316 318 321 321 322 323 325 326 329 331 334 336 340 341 345 348 350 352 356 360 360 360 358 354 354 360 360 358 357 358 361 363 368 369 369
287 288 286 286 291 298 301 308 308 309 300 290 289 303 308 309 309 309 310 309 312 312 312 313 314 315 317 318 317 317 318 319 320 321 322 325 327 330 333 336 338 341 344 347 350 352 356 359 358 358 358 357 358 363 360 358 360 362 364 366 368 370 370
290 289 287 285 282 299 305 306 304 308 298 299 304 307 309 309 309 309 309 310 310 311 310 313 314 315 315 316 316 316 317 317 318 318 320 321 323 326 330 334 338 341 343 346 349 353 356 356 358 358 354 355 359 364 360 361 363 365 367 367 370 371 371
285 287 285 285 296 299 306 305 299 305 306 308 309 309 306 309 309 309 308 309 309 310 310 311 312 314 315 316 315 315 316 317 317 319 321 322 324 326 330 334 337 340 342 347 350 355 358 358 360 362 358 357 362 364 363 366 366 368 369 369 371 371 369
290 289 293 299 301 303 303 307 306 308 310 311 310 310 309 308 308 310 309 309 310 310 309 310 312 311 314 314 314 313 314 315 316 318 319 320 322 324 327 331 336 339 342 347 352 357 358 362 364 366 366 363 369 366 368 369 368 368 369 369 370 370 369
298 300 300 301 302 303 305 306 307 308 310 311 311 310 308 309 310 310 309 310 309 309 310 308 310 311 312 313 312 313 314 314 317 318 319 321 323 324 326 329 335 338 340 346 350 353 360 363 365 367 369 366 369 369 373 370 370 369 370 370 369 369 369
293 289 300 299 299 302 303 305 307 310 310 311 311 309 309 309 310 311 310 310 310 310 310 309 310 311 312 313 312 314 314 315 316 317 318 320 322 324 326 328 335 336 338 343 346 351 355 359 361 366 358 364 376 377 373 371 369 371 371 370 367 368 369
292 291 298 300 301 302 304 306 304 304 308 309 310 310 310 311 311 312 312 312 309 310 310 311 310 311 313 313 313 313 314 315 317 317 317 318 321 325 327 330 336 334 336 340 344 348 353 358 362 366 368 369 376 373 369 366 365 371 371 369 368 368 368
294 298 299 298 299 301 305 303 305 305 306 307 308 310 309 310 310 311 312 312 311 310 311 311 311 311 313 314 314 313 315 316 317 317 318 319 322 325 325 329 335 332 333 336 342 344 348 354 359 360 365 366 368 371 372 370 368 367 369 366 367 368 367
290 291 293 296 290 291 297 300 303 304 305 307 307 308 309 310 309 310 310 311 313 313 312 311 311 311 312 314 315 314 315 317 317 318 319 320 323 324 325 332 334 332 331 334 338 340 342 346 349 354 357 360 364 367 369 373 372 368 368 368 367 367 366
288 294 296 297 297 296 299 301 303 304 306 306 307 308 309 310 311 312 312 310 311 311 312 313 312 312 313 315 315 314 315 318 320 319 319 320 322 323 326 328 330 330 330 332 336 338 340 340 342 343 345 347 352 358 362 364 367 370 371 367 365 366 365
295 297 297 298 298 296 299 302 303 304 306 306 306 309 310 310 311 312 312 312 311 311 312 313 314 314 314 315 315 314 316 318 320 319 321 323 324 325 326 328 328 329 329 329 332 335 337 338 339 341 342 342 344 346 355 361 359 363 368 366 365 364 365
294 300 300 300 301 302 304 304 304 304 306 307 306 307 310 311 312 313 312 312 313 312 312 313 314 315 314 315 315 316 316 317 320 320 321 324 323 324 323 325 328 328 329 329 330 332 333 334 336 338 338 340 343 344 351 353 353 355 357 356 355 363 365

ECMWFFLT2_sfc_thetae_081.txt.gz
Theta_e
302 302 305 306 307 293 299 301 296 299 303 300 296 298 299 298 294 291 303 299 299 303 303 305 307 307 307 308 321 326 328 331 332 332 332 334 335 336 337 337 338 339 343 344 345 344 345 346 346 347 348 349 351 351 352 352 352 353 352 354 354 353 352
301 305 304 305 307 306 301 295 297 305 305 303 299 290 294 292 288 292 298 294 294 295 291 303 303 304 306 307 310 327 330 332 331 331 333 334 334 336 338 338 339 341 343 344 345 346 346 347 347 347 349 350 352 354 353 353 353 353 353 353 354 353 352
300 302 303 303 307 309 302 300 308 297 293 291 296 297 288 288 288 290 294 298 298 296 297 301 301 303 305 307 309 326 329 330 330 331 332 334 335 336 336 337 340 343 343 344 344 346 347 348 349 349 350 351 352 354 356 355 354 355 355 355 355 355 353
299 298 298 294 298 306 308 306 303 306 302 297 293 297 296 296 289 293 291 296 292 302 300 302 302 304 305 308 309 325 328 329 330 331 332 334 335 335 336 337 341 343 343 344 344 345 347 347 348 350 350 352 352 354 356 357 357 357 357 356 356 355 354
298 291 296 294 295 293 296 299 298 300 301 304 301 301 296 292 291 290 290 290 297 302 307 304 304 306 307 308 309 317 327 329 330 331 333 334 334 334 335 337 341 342 343 344 344 345 347 348 349 350 350 351 353 354 356 357 357 357 357 357 357 357 356
291 293 299 299 298 298 297 296 295 296 295 294 292 291 302 298 293 288 291 290 298 306 311 311 309 308 309 309 311 313 328 329 330 331 333 334 333 334 335 339 342 343 343 343 344 345 346 347 348 349 350 351 352 353 356 357 358 358 358 358 358 358 358
292 295 299 301 302 302 300 299 297 300 299 298 294 287 293 298 297 301 297 293 296 308 311 311 312 311 310 311 312 316 330 330 331 332 333 333 334 334 336 339 342 343 342 343 343 344 345 345 346 348 349 350 351 353 355 357 357 358 359 359 359 359 358
296 298 300 300 301 300 298 300 300 300 298 299 297 296 297 294 297 294 293 293 296 307 309 311 314 311 312 312 313 314 328 330 331 332 333 333 333 335 338 340 340 341 342 342 343 344 345 346 346 348 349 350 351 352 355 356 357 358 359 359 359 359 358
288 291 294 295 300 300 296 296 300 301 302 301 300 301 299 294 297 295 293 289 295 307 315 315 316 313 311 313 314 314 313 328 330 331 332 333 334 335 336 337 337 338 340 341 343 344 344 345 347 349 350 349 350 351 353 356 358 359 360 360 360 359 358
279 280 281 285 289 293 294 298 298 299 299 297 296 292 293 287 296 296 295 296 301 308 315 316 318 318 314 314 314 315 315 314 326 330 331 331 333 335 335 336 337 338 339 341 343 344 345 346 347 348 349 350 350 351 352 356 359 360 361 361 361 360 359
283 286 289 294 295 292 290 293 294 295 297 299 298 296 293 289 293 293 297 303 300 302 312 314 316 317 319 321 321 320 316 316 316 321 328 330 331 334 335 336 338 338 339 340 342 344 345 346 347 348 349 350 350 351 351 355 359 361 361 361 361 360 359
289 290 290 292 294 290 292 292 293 295 295 296 295 292 290 295 293 287 300 300 298 300 304 313 314 318 320 322 321 321 321 322 323 327 330 337 331 335 336 336 336 337 339 341 342 343 345 345 346 348 349 350 350 350 351 354 359 361 362 361 361 360 359
291 292 291 292 292 292 292 292 292 292 294 294 292 293 296 296 292 289 296 299 298 301 303 312 316 319 321 322 323 323 323 325 326 329 330 331 332 332 334 335 337 337 338 340 342 343 344 345 345 345 347 349 351 351 353 355 358 360 362 361 361 360 359
290 291 291 292 291 291 291 291 292 293 294 293 294 294 296 296 295 298 298 299 301 304 313 316 318 322 323 323 324 324 324 327 330 332 332 333 334 335 337 339 342 344 345 341 342 343 344 344 343 344 346 348 350 351 353 355 357 360 362 361 360 360 359
288 291 293 292 292 291 290 291 292 293 294 294 295 295 296 298 297 298 300 301 302 311 317 319 323 322 322 322 324 325 326 329 331 331 333 335 335 336 338 341 342 343 343 342 342 342 342 345 346 343 352 350 352 354 355 356 357 360 361 361 361 360 359
285 290 290 291 292 291 290 290 291 292 292 291 294 294 297 296 295 297 298 298 300 312 320 321 322 320 319 320 322 323 324 327 329 330 332 333 335 337 338 339 341 343 344 343 341 342 347 349 347 346 341 343 349 354 356 356 357 359 361 361 360 360 360
284 289 291 290 290 289 286 287 290 292 293 294 296 297 298 298 298 295 294 297 304 306 318 319 319 319 321 319 318 319 321 322 324 327 330 332 334 335 336 339 340 343 344 346 348 348 348 348 347 347 349 348 344 343 351 357 359 358 359 360 360 360 360
284 288 289 290 286 279 281 293 296 295 293 294 293 295 297 299 299 297 301 304 309 314 316 317 317 318 319 317 317 319 319 320 321 324 326 329 332 334 335 337 339 341 344 345 345 351 351 351 347 346 346 347 347 348 345 346 355 358 358 359 360 360 360
283 288 288 284 278 280 292 296 297 298 297 296 300 300 302 308 304 308 311 310 311 315 315 317 319 320 319 318 315 316 318 320 320 321 322 323 326 329 331 333 335 338 340 344 346 347 350 352 357 352 346 345 347 349 349 349 353 357 357 358 359 359 359
289 285 283 276 279 291 295 295 297 299 298 301 304 302 305 309 309 309 309 310 312 313 314 316 318 319 320 317 317 316 318 320 320 320 320 322 323 324 328 330 332 334 337 340 343 346 350 351 351 359 355 352 348 347 351 355 356 356 357 358 358 359 359
280 284 283 283 290 289 291 292 294 295 299 301 301 294 300 307 308 307 308 309 310 311 313 315 316 318 318 315 313 315 317 319 320 321 321 322 323 325 327 330 332 335 337 338 340 344 345 348 349 350 352 354 354 348 352 356 357 357 356 357 358 359 359
289 282 281 283 282 279 285 294 300 305 306 308 307 302 298 306 308 308 308 308 309 310 312 313 315 319 316 308 308 313 316 318 319 320 321 322 323 324 327 329 332 333 335 337 340 342 344 347 350 352 353 353 353 353 351 352 355 356 356 356 358 359 359
287 284 280 280 278 283 295 300 305 305 306 306 306 299 291 305 307 307 308 307 308 309 309 311 314 311 306 305 308 312 315 317 318 318 319 320 322 323 325 327 329 331 333 337 340 342 343 345 348 352 353 354 354 353 353 353 355 355 355 355 358 359 359
287 285 282 280 285 282 296 302 303 305 307 305 299 287 288 301 306 307 307 306 307 307 309 310 310 307 303 305 309 314 315 316 317 317 318 319 321 322 324 326 328 331 335 336 338 339 341 343 347 349 351 352 353 354 354 353 352 354 356 356 358 361 361
287 286 284 286 287 294 300 300 301 303 306 300 285 282 296 304 306 307 306 306 307 307 307 308 305 308 310 313 315 314 315 315 315 317 319 319 320 321 322 324 329 329 331 334 335 338 340 343 346 348 351 352 352 353 354 353 352 353 357 357 358 361 362
284 285 283 283 288 296 299 301 301 305 301 287 283 298 304 305 305 306 307 306 307 307 306 306 306 308 311 315 315 315 315 313 314 316 317 318 319 322 324 326 326 327 329 332 335 338 340 343 347 350 352 352 351 352 352 351 352 355 357 357 358 362 361
289 286 283 282 279 294 301 300 300 304 294 296 301 303 306 308 306 306 306 306 307 308 306 308 308 308 310 312 312 314 314 313 313 314 316 317 317 318 319 321 324 327 326 330 334 337 339 342 347 351 354 354 354 353 351 352 354 355 356 357 358 362 362
283 283 282 283 291 295 303 300 292 298 301 304 306 306 304 307 306 305 304 306 307 308 307 307 308 308 309 310 311 311 314 313 313 315 316 316 317 318 320 322 324 327 327 331 334 336 338 342 347 351 354 356 357 354 353 354 354 355 357 357 358 361 361
288 286 289 294 297 300 302 304 302 303 305 307 306 305 306 305 306 307 305 305 307 307 308 308 308 307 309 309 311 310 313 313 313 314 315 316 317 318 319 322 325 326 327 331 333 334 336 340 345 351 357 358 359 358 359 356 353 356 357 357 357 359 361
296 297 297 299 298 299 300 301 305 305 306 307 308 306 304 307 307 307 306 307 307 307 308 306 307 308 308 309 311 311 312 314 315 316 316 316 318 319 321 322 324 326 329 331 331 331 333 338 343 349 354 358 358 359 362 360 358 358 358 357 356 358 360
290 286 299 297 295 298 299 299 304 307 307 308 309 308 307 307 308 307 308 308 308 308 308 307 306 307 309 309 310 312 312 313 314 315 315 316 318 319 320 322 325 326 329 328 329 330 331 336 342 345 346 351 353 355 357 364 362 360 358 357 356 358 360
289 289 294 296 297 298 300 301 299 299 302 304 306 307 307 307 308 309 308 309 308 309 308 308 307 308 309 309 309 310 311 312 314 314 315 315 317 320 322 323 325 325 327 327 327 328 330 335 338 340 342 343 345 346 349 358 363 361 358 357 357 358 360
291 294 297 295 296 297 300 299 300 300 301 301 303 304 305 306 306 307 309 310 308 308 308 309 309 307 308 309 310 311 311 313 313 314 315 316 318 320 321 322 324 322 325 327 327 327 329 331 332 335 339 341 343 343 345 353 360 360 359 357 358 359 361
287 288 290 294 288 289 293 296 298 300 301 302 302 303 303 304 305 307 307 309 310 310 310 310 309 308 308 310 311 312 312 313 314 313 314 316 318 321 322 322 322 322 325 327 326 325 326 327 329 331 334 337 340 342 344 350 355 356 359 359 358 359 360
286 293 295 297 296 294 295 297 299 301 302 302 302 302 303 304 306 307 307 307 308 308 310 312 311 309 310 311 312 312 313 314 315 315 315 316 318 321 322 320 321 321 325 325 325 324 324 326 326 328 331 334 337 340 342 348 350 352 354 357 359 359 359
296 298 298 299 297 294 296 299 301 302 304 303 303 304 305 305 306 307 308 308 308 308 310 311 312 311 311 312 312 311 312 314 315 315 316 318 320 322 322 319 321 322 324 321 322 322 323 324 324 326 329 333 334 337 341 348 348 349 352 353 351 347 350
294 299 300 300 300 300 302 303 303 303 304 305 303 303 304 305 306 308 308 309 310 310 309 310 312 313 312 312 312 312 312 313 316 318 320 321 320 320 320 320 320 323 322 320 321 322 322 323 323 324 326 331 333 334 337 345 346 346 348 349 345 343 341

ECMWFFLT2_sfc_thetae_084.txt.gz
Theta_e
297 298 299 298 300 290 295 297 294 295 298 298 293 297 297 296 292 287 293 295 296 297 301 303 302 310 319 322 323 324 325 330 331 331 332 333 334 335 336 337 338 339 339 338 339 338 338 339 339 339 339 340 342 342 341 342 344 346 347 349 348 347 346
299 300 299 299 301 300 296 292 295 301 302 299 292 286 288 288 284 286 294 291 291 291 290 300 300 304 315 320 321 323 324 329 329 330 331 333 333 334 336 338 339 340 340 339 339 340 339 339 340 340 341 342 343 344 343 342 344 344 347 349 349 348 347
297 300 299 298 300 302 296 293 301 295 288 289 291 291 285 285 285 285 290 293 294 293 294 298 300 300 302 315 321 321 322 327 329 330 331 333 334 334 335 337 338 338 339 339 339 340 340 340 341 341 342 343 343 345 345 344 344 346 347 350 351 351 350
295 296 296 287 292 299 300 300 297 299 295 294 290 291 290 289 284 288 285 291 289 297 295 299 301 302 302 305 317 320 322 326 329 330 331 332 333 334 335 337 338 339 339 340 340 340 340 340 341 342 343 344 344 345 347 346 346 347 348 349 351 350 350
294 288 292 290 292 290 292 293 292 296 296 297 295 295 294 290 286 284 285 285 290 298 304 303 304 307 306 305 306 320 323 326 329 331 332 332 333 334 335 336 338 339 339 340 341 341 342 342 343 344 344 344 345 346 347 347 346 346 347 349 350 351 351
288 289 296 296 295 294 292 291 290 294 293 291 288 287 296 294 290 284 287 286 293 303 312 312 314 317 318 318 311 315 323 326 329 331 332 333 333 334 335 336 337 339 339 341 342 342 342 343 343 343 344 345 346 346 348 348 348 347 347 348 350 351 352
288 292 295 298 298 299 296 296 294 296 294 293 289 282 288 292 292 296 292 288 292 305 307 307 313 319 320 320 313 316 321 325 329 330 332 333 334 334 335 336 337 338 339 341 342 342 342 343 343 344 345 345 346 347 348 349 349 348 349 349 350 351 352
291 292 296 299 299 297 294 294 296 294 291 292 291 290 293 290 292 288 288 289 292 304 306 307 311 321 322 323 319 314 322 325 328 330 331 331 332 334 335 337 338 339 339 341 341 342 342 343 343 344 345 346 347 348 350 350 349 350 350 351 351 351 351
283 285 291 294 297 295 291 290 293 294 294 294 294 295 296 290 292 291 289 285 291 301 305 306 314 320 321 322 326 324 323 326 328 329 331 332 332 333 334 335 337 339 339 340 340 341 342 343 344 345 345 346 347 348 350 351 351 352 352 353 352 351 351
274 275 276 282 284 287 290 292 292 293 292 291 290 286 289 284 291 291 289 287 295 301 303 304 312 319 320 323 326 330 325 325 328 329 330 331 332 333 334 335 336 338 339 340 341 341 342 343 344 345 346 346 347 349 350 353 353 353 353 354 354 353 352
280 281 285 290 292 289 286 289 290 291 292 293 292 291 289 285 289 288 290 295 294 296 299 302 315 318 319 320 323 327 329 327 329 328 332 332 334 334 333 334 336 338 339 339 340 341 342 343 344 345 346 346 347 348 350 352 354 355 355 355 355 354 354
286 288 288 289 291 287 289 289 289 291 291 292 291 287 285 292 288 283 292 295 292 294 299 306 315 317 319 318 320 322 329 332 333 334 337 343 338 339 339 336 335 337 338 339 340 340 341 342 344 345 346 347 347 348 349 352 354 355 356 356 355 355 355
289 289 289 291 290 290 290 290 290 289 291 291 289 290 292 292 288 286 292 294 293 296 300 315 316 317 317 319 319 321 325 330 333 333 334 335 336 337 339 339 339 338 338 339 339 340 341 342 342 343 345 346 347 348 349 352 354 355 357 356 356 355 355
288 289 289 291 289 289 289 290 291 291 291 290 291 291 292 291 290 293 294 294 296 299 308 316 317 318 318 317 323 322 319 321 324 326 329 331 333 335 336 336 337 338 340 341 341 341 342 343 343 343 344 345 346 347 348 350 353 356 357 356 356 356 355
286 288 291 290 290 289 288 289 290 291 292 291 292 291 292 295 293 295 296 295 296 304 313 316 318 316 318 317 319 320 318 319 320 320 321 324 326 328 331 334 336 337 339 340 342 343 344 343 343 343 345 346 347 348 348 349 351 356 357 356 356 356 356
283 288 288 289 290 290 288 287 289 290 290 289 290 290 292 291 290 293 293 293 300 307 313 317 316 313 314 315 316 318 318 319 320 320 319 320 322 324 327 330 332 334 337 338 339 341 342 343 346 345 344 346 347 348 349 349 350 355 358 357 357 357 357
281 287 289 288 288 286 283 285 287 290 291 292 293 294 298 301 301 296 292 298 306 309 314 311 313 311 312 313 315 317 318 318 317 319 320 322 323 323 325 327 330 332 335 335 338 340 340 341 343 345 347 348 347 348 349 350 351 352 356 358 357 357 358
281 287 288 288 283 276 278 291 293 292 291 292 290 294 304 307 308 305 308 311 312 311 310 310 311 310 311 314 317 317 318 317 316 317 318 320 322 323 324 325 327 329 332 334 336 337 339 343 343 346 346 345 349 349 348 349 350 350 350 354 358 358 358
279 285 286 282 275 278 290 294 295 295 294 294 294 302 305 306 306 307 308 307 308 309 310 311 314 314 313 314 316 314 317 318 317 316 317 318 320 321 323 324 326 329 330 331 334 336 337 342 345 343 345 346 345 347 348 348 351 351 351 351 355 358 358
284 281 279 271 276 288 293 293 295 297 297 301 301 301 303 305 306 305 305 307 308 309 309 311 313 315 314 314 316 315 316 317 319 318 315 317 319 319 321 322 325 326 327 331 333 336 341 342 344 347 347 348 347 345 346 348 348 349 349 350 353 357 358
277 280 279 280 288 288 289 290 293 299 295 296 296 291 297 304 307 306 305 306 307 307 309 310 311 313 315 311 310 317 315 315 316 319 319 318 318 319 321 322 323 326 327 329 332 338 339 340 342 343 347 350 347 346 345 345 348 349 349 349 351 356 358
285 281 278 278 278 277 283 293 300 303 301 302 303 297 295 305 305 307 307 304 304 305 307 308 309 312 310 305 307 312 316 316 315 316 319 319 319 320 320 322 323 325 327 329 332 336 336 337 340 341 343 345 346 344 345 347 347 347 349 350 352 354 357
284 282 278 275 273 280 292 294 298 299 301 303 303 295 291 303 304 306 306 305 305 305 305 306 308 306 301 302 307 310 312 315 316 315 316 317 319 319 320 320 322 324 326 328 331 333 336 336 338 340 342 343 345 347 347 348 351 351 350 350 351 352 356
284 282 279 278 282 279 291 296 298 299 301 303 295 282 286 301 304 305 306 305 305 304 305 306 305 302 298 300 305 314 312 314 317 316 315 315 316 318 319 321 324 325 328 327 328 330 334 336 338 340 341 343 346 349 351 352 352 351 352 354 355 356 356
286 286 283 284 285 293 297 297 299 299 303 299 284 280 294 301 302 305 306 305 306 305 305 305 302 305 306 307 310 316 315 312 313 317 319 317 317 317 319 321 326 324 326 327 328 330 333 335 337 339 341 343 345 347 350 351 352 354 355 355 355 356 357
282 283 282 282 286 293 297 299 299 301 297 285 283 296 301 302 303 306 307 305 306 306 305 305 305 307 309 311 311 312 314 314 313 315 318 317 317 318 321 323 324 324 325 327 329 330 332 333 336 337 339 340 343 347 350 352 355 359 359 356 355 355 356
285 283 283 282 278 292 299 298 296 300 289 291 297 298 301 306 306 306 306 306 307 306 304 306 307 307 308 309 309 310 312 314 313 314 316 316 315 316 318 319 322 324 323 326 327 328 330 332 334 336 339 341 344 346 348 353 357 357 357 358 358 355 354
279 280 279 281 290 292 300 297 290 294 298 300 301 301 299 303 304 305 305 305 306 307 306 305 306 307 307 308 308 309 311 313 314 315 316 316 317 316 319 320 321 324 322 325 326 327 328 330 333 335 336 335 338 340 342 347 347 348 349 352 356 356 354
285 282 285 291 293 296 298 298 298 299 301 304 304 303 302 301 302 305 304 304 305 306 306 306 306 306 307 307 308 308 310 313 314 314 314 314 316 317 318 319 322 323 322 323 325 325 326 327 328 330 330 330 333 335 339 342 342 343 345 349 354 356 354
293 294 295 296 296 296 296 298 300 300 303 304 304 302 300 302 303 304 303 304 305 306 307 306 306 306 307 308 308 308 309 311 314 315 314 314 316 318 320 319 321 322 322 323 322 322 324 325 325 327 327 328 329 332 336 338 340 341 344 348 352 354 355
287 283 297 295 294 295 296 296 299 300 300 300 301 300 300 301 302 303 304 304 305 306 306 306 306 306 308 308 308 309 308 310 312 313 313 313 314 317 318 320 321 320 322 321 320 321 321 322 323 324 324 326 328 331 333 336 338 340 343 347 350 353 354
288 288 292 293 294 295 296 296 296 296 297 298 299 300 301 301 303 303 303 304 305 307 306 307 306 307 308 308 308 308 308 309 311 312 312 312 314 317 320 320 321 320 321 318 318 319 320 320 322 323 323 324 326 329 332 334 336 338 342 346 347 351 354
289 292 293 294 294 294 296 298 298 298 298 297 298 299 300 301 301 302 303 305 305 306 306 308 307 307 308 308 308 308 309 310 312 312 312 312 314 317 319 319 320 319 321 318 318 319 319 320 321 321 322 323 325 327 329 332 334 335 341 344 347 350 355
284 284 287 291 287 287 292 295 296 297 298 298 298 300 300 301 301 302 302 303 305 306 307 307 307 307 308 308 308 309 310 312 314 313 312 312 314 317 319 318 318 319 322 319 318 319 318 320 321 321 321 322 324 326 327 330 332 334 340 343 346 349 353
283 289 292 292 293 293 294 296 297 298 299 300 299 300 300 301 302 303 302 302 302 303 305 308 307 307 308 309 310 310 311 312 313 314 314 314 314 315 318 316 316 318 320 320 318 318 318 320 320 320 320 321 322 324 325 328 330 334 339 341 345 348 346
291 293 294 295 293 292 295 298 299 299 300 300 301 301 302 302 302 303 303 303 302 303 305 307 308 308 309 310 310 309 310 311 312 312 314 315 315 316 317 316 317 319 320 318 317 318 319 320 319 320 320 321 321 322 324 326 329 333 338 337 340 344 342
290 294 296 296 295 297 298 299 300 300 301 303 301 301 302 303 303 305 304 304 305 305 305 306 308 309 309 310 310 310 309 311 313 314 318 321 317 316 316 317 318 319 319 317 318 318 319 319 319 319 319 320 321 321 322 324 327 331 335 335 335 339 340

ECMWFFLT2_sfc_thetae_087.txt.gz
Theta_e
295 295 297 297 297 288 292 292 288 291 295 293 290 296 294 292 287 286 290 292 294 295 299 305 311 313 308 313 320 323 324 326 330 331 332 333 334 334 335 336 336 337 337 337 337 336 336 336 336 336 337 337 336 338 339 340 341 341 343 344 344 345 345
295 298 297 297 298 296 292 286 292 297 298 295 291 286 284 283 283 284 289 289 288 289 292 304 308 310 315 316 315 319 322 324 328 330 332 333 334 334 335 336 337 338 337 337 337 337 337 336 336 336 337 337 337 338 339 339 340 340 342 344 344 344 344
294 297 296 294 296 298 293 291 298 292 287 288 289 289 284 283 283 282 288 291 292 293 295 302 303 306 311 316 318 317 316 321 325 329 332 333 334 334 334 335 336 337 338 337 337 337 338 337 338 337 338 338 338 337 339 340 340 341 341 344 345 345 345
293 293 293 285 289 296 298 298 294 297 292 291 286 290 287 285 282 284 283 286 290 298 298 300 300 306 312 318 319 320 320 319 323 327 330 332 333 333 334 335 336 337 338 339 338 338 337 337 337 338 338 338 338 338 339 340 341 341 341 342 345 344 344
291 286 289 287 288 288 290 291 289 291 291 295 293 292 290 288 284 281 281 283 291 297 302 300 301 307 318 319 318 320 323 324 321 325 329 331 333 333 334 335 336 337 338 339 339 339 339 339 339 339 338 338 338 339 338 340 340 340 341 342 343 345 345
285 286 293 293 292 292 290 289 287 288 287 286 284 284 291 291 286 283 283 283 290 298 304 301 302 314 320 319 318 318 322 328 325 322 328 330 332 334 334 335 336 337 338 339 340 339 339 339 338 338 338 338 338 339 339 339 340 341 341 342 343 344 345
285 288 292 295 295 295 292 291 288 290 289 288 284 278 283 288 289 294 290 286 290 301 302 302 305 318 321 320 319 317 320 325 328 321 328 331 332 333 334 335 336 337 338 339 339 338 338 338 338 338 339 338 338 339 340 340 340 340 342 343 344 345 345
287 291 292 295 294 292 289 290 291 290 287 288 286 285 287 287 288 284 284 286 289 299 302 302 308 320 321 321 321 319 319 321 328 325 324 330 331 332 334 335 336 338 338 339 339 338 338 338 337 338 339 339 339 339 340 341 340 340 342 343 345 345 346
279 282 286 289 291 291 288 286 289 290 290 290 290 291 291 287 289 287 284 281 287 297 302 301 316 318 318 319 321 320 318 319 321 330 327 329 331 332 333 334 335 336 337 338 338 338 338 338 338 338 339 339 339 340 340 341 342 342 342 344 344 345 346
274 274 274 278 281 285 288 290 290 290 289 288 287 283 285 279 288 287 284 283 290 296 298 301 316 315 316 319 319 320 318 318 319 322 329 333 334 332 332 333 333 335 337 338 338 338 339 339 339 339 339 340 340 341 341 342 343 343 343 344 344 345 346
275 277 281 288 292 286 284 287 288 288 289 289 289 288 284 281 285 284 285 289 290 291 295 298 313 313 314 317 318 317 317 317 318 320 322 325 329 332 335 336 337 337 339 337 338 339 339 339 339 340 340 340 341 341 342 343 344 344 345 345 345 345 346
284 285 286 288 291 286 287 286 287 289 288 288 288 285 283 289 285 280 288 293 288 290 293 302 311 311 313 316 318 318 317 317 317 318 320 326 324 326 330 333 335 336 337 337 339 341 339 340 340 341 341 341 342 342 342 344 345 346 346 346 345 345 345
287 287 287 288 288 288 288 287 288 288 289 288 286 288 289 290 285 282 288 290 289 291 295 308 311 310 313 315 318 319 318 317 317 317 318 319 320 322 324 327 329 332 335 337 337 338 339 340 340 341 342 342 343 343 344 345 346 347 348 347 346 346 346
287 287 287 288 287 287 288 288 288 289 289 288 288 288 289 288 287 289 290 290 290 294 301 310 310 312 314 316 318 318 316 316 316 316 317 318 319 320 321 324 326 328 330 334 336 338 339 340 340 341 342 343 343 343 344 346 347 349 349 348 347 347 347
284 287 289 288 288 288 285 287 287 288 288 289 290 289 289 294 290 291 291 291 291 296 308 312 312 312 314 314 314 314 315 316 316 316 316 317 318 319 320 322 324 325 327 330 333 335 338 339 341 343 343 343 344 345 345 346 348 350 351 349 349 348 348
281 285 287 287 288 287 285 285 286 286 287 287 290 288 290 291 292 294 292 289 290 299 309 311 311 311 311 310 312 313 314 315 315 315 316 316 317 318 319 321 322 323 325 327 330 333 335 339 340 341 341 344 343 344 344 346 349 351 352 351 350 350 350
278 284 287 287 286 283 281 282 284 288 290 290 291 293 296 302 304 298 291 291 303 305 310 307 308 309 310 310 311 312 313 315 315 316 317 318 318 318 319 320 321 322 323 325 328 331 334 337 340 341 343 343 342 346 344 346 348 351 352 352 352 352 352
278 284 286 287 281 274 276 285 292 291 288 289 289 293 300 304 303 302 304 305 306 305 305 305 306 308 309 310 313 316 315 314 314 316 317 317 319 320 320 320 321 322 324 325 327 330 334 337 340 343 345 345 345 345 346 347 348 347 351 352 352 352 353
279 282 284 280 273 276 287 292 293 293 292 293 296 298 303 304 304 304 303 304 305 304 305 306 307 311 311 313 312 313 316 317 316 315 315 315 318 319 319 320 321 322 323 325 326 328 332 336 338 339 340 343 346 345 344 343 344 345 345 347 351 354 353
280 279 277 269 274 283 290 291 297 301 298 298 297 294 300 303 302 303 301 303 305 304 304 305 307 308 312 313 313 313 315 317 317 316 315 315 317 318 319 319 321 322 324 325 327 329 334 335 336 338 338 341 343 345 347 345 344 344 344 344 345 347 349
278 278 277 279 285 286 287 290 295 296 291 293 292 287 292 301 302 302 302 303 304 304 304 305 306 307 311 309 309 313 312 315 317 318 317 318 317 317 320 321 322 325 326 326 328 331 333 334 336 336 338 340 342 344 346 346 344 344 344 343 344 345 348
283 279 277 278 276 275 281 293 299 300 299 298 299 294 290 301 302 304 303 302 304 304 304 304 305 307 309 303 303 309 313 315 314 317 318 318 319 318 320 321 322 324 325 326 328 331 332 334 334 335 337 338 340 343 346 346 345 345 344 344 346 346 347
281 280 277 273 272 278 286 290 296 298 298 299 300 294 286 299 299 302 303 303 304 303 303 304 305 302 298 298 302 306 312 314 315 314 318 317 319 320 318 320 320 322 324 326 329 330 330 330 332 335 337 339 340 341 344 347 348 348 347 346 347 347 347
283 280 276 276 281 277 287 294 296 298 298 301 295 281 283 297 297 300 302 302 303 304 303 305 302 300 297 298 302 308 311 315 315 316 315 316 317 317 320 321 322 323 325 325 327 327 327 328 330 333 336 337 340 342 343 346 349 352 354 354 352 352 351
285 286 279 281 284 290 294 294 297 297 300 297 283 278 291 297 297 300 303 303 304 305 303 303 300 303 304 305 308 310 312 312 314 316 317 318 318 317 318 319 324 322 324 324 326 326 326 327 328 331 333 334 337 340 341 343 345 345 345 346 349 352 354
280 280 280 280 283 289 294 297 297 298 294 281 281 291 296 297 298 301 303 303 304 305 304 303 303 305 307 309 309 308 309 310 312 315 317 317 316 319 320 322 322 322 323 323 325 325 325 327 327 327 328 329 331 333 336 338 339 340 342 342 344 346 349
283 281 281 280 277 290 297 295 293 298 287 287 294 296 299 302 301 301 301 302 303 304 303 304 304 305 306 307 307 308 308 309 310 313 315 315 315 316 317 320 321 322 321 322 323 322 324 325 324 325 325 325 327 330 330 332 335 337 338 340 342 344 347
275 278 280 280 287 291 298 294 287 291 296 297 298 298 297 300 300 300 300 301 302 303 302 302 303 304 305 306 307 308 308 308 309 312 314 315 316 315 318 321 322 322 321 322 321 321 322 324 323 324 324 323 325 327 326 329 332 335 336 338 340 342 346
283 281 284 289 291 293 296 296 295 296 298 298 299 301 300 299 299 301 300 299 301 301 302 302 303 303 305 306 306 306 307 309 309 309 312 314 314 315 317 319 321 322 321 321 320 320 321 322 322 323 323 322 323 323 325 328 330 333 334 336 338 341 345
289 292 293 294 294 294 295 297 298 297 297 301 302 300 297 298 299 300 298 300 300 301 302 301 302 304 305 305 306 307 308 308 309 311 312 314 315 315 317 319 320 321 321 322 319 319 320 321 320 322 322 322 321 322 325 327 328 331 332 334 337 341 345
286 282 293 292 292 293 294 295 296 297 299 298 298 297 297 298 298 298 300 300 300 301 301 301 302 304 305 305 306 307 307 308 309 309 309 312 313 314 315 319 321 319 320 320 319 319 319 320 320 321 320 321 322 323 324 325 327 329 331 333 337 340 343
285 286 289 291 293 294 295 295 294 294 295 296 297 298 298 298 299 300 300 301 301 302 301 302 302 303 305 305 305 306 307 308 308 309 310 311 313 315 316 318 320 318 318 319 319 318 318 319 319 320 320 320 321 322 323 324 326 327 329 333 336 339 341
288 290 292 292 292 293 293 294 295 296 295 296 296 298 298 299 299 300 301 302 301 302 302 303 302 302 303 305 305 306 306 307 308 310 311 312 313 314 315 317 319 316 318 319 319 318 318 319 319 319 319 320 321 320 321 323 325 325 328 332 336 338 340
283 285 288 289 285 286 289 292 294 295 296 297 297 297 297 298 299 300 300 301 302 303 303 302 302 302 303 304 305 305 306 308 309 310 311 312 313 314 316 317 316 316 319 320 319 318 318 318 318 318 318 319 320 320 321 322 324 324 327 331 335 335 337
284 289 291 291 291 290 292 294 295 296 297 297 297 297 297 299 300 301 300 300 301 301 302 304 303 302 303 304 305 305 306 307 309 310 311 311 313 314 316 316 314 315 318 320 319 317 317 318 318 318 318 319 319 319 321 321 322 323 326 330 332 332 333
292 292 291 292 292 291 292 294 295 296 297 297 298 299 299 300 300 301 301 302 301 301 302 303 304 304 304 305 305 305 306 308 309 310 311 312 313 315 316 315 315 316 317 318 316 316 316 317 317 317 317 317 317 318 320 321 321 322 325 328 328 329 330
292 293 293 294 294 294 295 295 296 297 299 300 298 298 299 301 302 303 303 303 304 304 303 303 305 306 305 305 306 306 306 307 310 311 314 317 318 317 315 316 315 316 316 315 314 314 314 316 316 316 316 316 316 317 319 320 321 321 325 325 326 327 329

ECMWFFLT2_sfc_thetae_090.txt.gz
Theta_e
293 293 295 295 295 287 291 291 289 290 292 291 290 296 293 289 285 286 287 290 295 297 298 303 304 315 319 320 320 320 320 322 324 327 330 332 333 334 334 334 335 335 335 335 336 336 335 335 336 336 337 338 338 339 340 341 342 343 343 345 345 345 346
294 296 294 294 295 295 289 286 289 294 296 292 290 285 283 281 282 284 287 290 289 290 290 300 302 315 318 318 319 319 320 321 321 324 327 331 333 334 335 336 336 336 336 335 336 336 336 336 336 336 337 338 339 339 340 341 342 341 342 344 344 345 345
292 295 293 291 294 297 291 291 297 291 287 289 287 286 283 282 283 283 288 291 291 291 291 296 302 310 316 317 318 318 318 319 320 322 325 329 332 334 335 335 336 336 336 336 336 336 337 337 338 337 338 338 338 339 340 341 341 342 342 343 345 345 346
291 291 291 283 288 294 295 294 291 293 291 288 284 290 285 285 282 282 285 287 287 295 294 297 301 311 317 316 316 317 318 319 319 320 323 327 330 333 334 335 336 337 337 337 336 336 336 336 336 337 337 338 337 338 340 340 342 342 343 343 345 344 345
287 283 287 286 287 285 287 288 286 288 288 291 291 290 288 286 281 279 282 283 289 296 299 299 305 314 317 317 314 315 318 319 320 320 322 325 329 331 334 335 336 337 337 338 338 338 337 337 338 338 337 337 337 337 338 340 340 341 341 342 343 344 345
283 286 290 291 289 289 287 286 285 285 285 284 283 285 288 289 283 280 281 285 291 298 301 300 311 315 317 318 315 314 315 318 319 320 322 324 328 329 334 336 336 337 338 338 339 339 338 337 337 337 337 337 337 337 337 339 340 340 341 341 343 344 345
284 288 290 293 292 291 290 290 287 288 287 286 281 279 284 286 288 292 287 285 290 300 300 301 314 315 317 319 319 315 316 316 317 319 321 323 326 328 332 336 336 337 338 339 339 338 338 337 337 337 337 337 337 337 337 338 339 340 341 341 343 344 344
285 288 290 293 292 290 287 288 290 288 285 286 286 283 286 285 285 282 282 286 289 300 300 300 314 315 317 319 319 317 316 317 318 318 319 321 322 326 328 334 336 337 338 339 339 339 338 337 337 337 337 337 338 338 337 337 338 339 341 341 342 343 344
279 280 285 286 289 290 286 285 288 288 288 288 288 288 289 285 286 286 282 282 288 297 299 300 314 313 315 316 318 318 315 316 317 317 320 320 322 323 324 327 331 336 338 338 338 339 339 338 338 338 337 337 337 338 338 337 338 339 341 342 342 342 343
275 277 277 277 281 283 286 288 288 289 288 287 286 283 285 278 288 286 283 282 288 294 297 303 311 312 313 315 316 317 317 316 317 318 318 319 320 321 323 324 326 329 333 336 338 340 340 339 338 338 338 338 337 338 338 339 338 339 340 341 342 341 342
275 277 280 285 292 284 282 285 286 287 288 288 288 285 281 281 284 284 284 286 288 289 292 303 308 310 310 311 313 313 314 316 318 318 319 319 318 320 321 323 324 326 328 331 335 337 339 339 339 339 338 338 338 338 339 339 340 340 340 341 342 341 342
283 282 286 287 289 285 285 285 285 287 287 287 286 284 283 287 284 279 287 291 287 288 295 307 307 309 310 311 311 312 314 315 316 317 318 322 318 319 321 322 323 323 325 328 331 335 338 340 341 339 339 339 339 339 338 339 340 340 340 341 341 342 342
285 286 285 287 286 286 286 286 286 286 287 286 285 286 287 288 283 282 286 288 287 289 302 307 308 309 309 310 311 312 314 315 316 316 316 317 317 318 319 320 322 323 324 326 328 331 335 338 340 342 341 339 340 340 340 340 341 341 342 341 341 341 342
285 285 286 287 286 286 286 286 287 286 286 286 287 286 287 287 286 288 288 289 289 294 304 308 309 310 310 310 312 312 312 313 315 315 315 316 317 318 319 320 321 323 323 325 327 329 332 334 337 340 342 344 340 340 340 340 341 342 343 342 341 341 341
283 285 289 286 286 287 284 285 286 286 286 286 286 287 289 293 290 291 293 291 290 298 306 307 311 311 311 310 309 310 311 312 314 313 314 316 317 317 319 319 321 322 323 324 326 328 330 332 335 337 339 342 344 343 341 341 342 343 343 343 343 342 342
279 283 285 285 286 285 283 282 284 284 286 286 287 287 290 289 287 292 295 291 296 303 305 307 309 309 308 307 308 309 310 312 313 313 314 315 316 319 319 319 320 321 322 324 325 327 329 332 334 335 337 339 342 343 345 344 343 344 344 344 343 343 344
277 280 285 285 283 279 279 283 285 287 287 289 289 290 294 301 301 296 294 294 303 303 305 302 304 308 307 307 308 308 310 311 312 313 314 314 316 318 319 319 319 320 322 324 325 326 329 331 333 336 338 338 339 341 345 345 348 346 345 345 345 345 345
277 281 283 285 277 274 275 285 290 290 287 289 287 288 293 301 302 300 303 303 305 303 302 301 302 305 307 307 309 312 310 310 311 313 314 315 316 316 318 319 319 320 322 324 326 328 330 332 334 336 338 338 339 343 345 347 346 349 347 347 346 346 347
279 280 282 279 273 274 283 290 293 294 291 292 289 290 298 301 301 303 302 303 303 304 303 303 304 305 310 310 309 310 311 312 311 311 312 314 315 316 316 318 319 320 321 323 325 327 330 332 333 333 334 337 340 341 344 347 346 347 350 348 348 348 348
279 278 276 269 273 281 288 290 295 299 296 296 294 292 297 300 300 301 300 302 304 304 304 305 305 305 307 312 311 309 310 313 312 311 312 313 314 315 316 317 319 320 321 323 324 326 332 332 331 332 333 336 339 340 344 348 347 346 346 350 350 350 350
276 278 276 277 283 284 286 291 292 293 290 292 291 287 291 298 300 300 300 301 303 303 304 304 305 306 307 308 307 309 309 310 313 314 314 314 315 316 318 318 320 323 323 324 326 328 330 330 330 330 332 335 338 340 342 345 348 347 346 346 347 350 354
280 277 276 276 275 274 279 289 297 299 298 297 297 293 289 298 298 300 300 300 301 302 303 303 304 305 308 303 304 307 308 310 311 314 316 316 316 316 318 320 320 322 324 325 327 328 329 328 329 329 331 335 336 339 341 343 342 350 347 347 348 350 350
280 279 276 273 272 278 284 290 295 297 298 298 297 291 285 295 296 298 299 299 300 301 301 303 303 300 297 298 302 305 308 309 311 311 314 316 316 317 317 319 320 321 323 325 325 326 327 326 327 328 329 331 334 337 338 339 341 342 340 343 345 347 349
281 280 276 276 280 277 286 291 295 297 297 298 291 279 280 293 295 298 299 299 300 301 302 304 301 299 295 297 301 307 308 309 310 311 312 313 316 317 318 318 322 323 325 325 324 323 324 324 326 327 327 327 330 333 335 338 338 336 336 338 340 344 345
285 285 278 279 282 289 293 293 296 296 298 293 282 278 286 293 295 298 300 300 301 302 301 302 298 302 303 304 306 308 309 308 309 310 312 314 316 317 318 317 322 323 323 323 323 323 324 325 326 324 324 324 326 328 331 332 333 333 335 337 338 340 343
280 280 280 279 282 286 292 295 296 298 292 281 279 290 294 293 296 299 300 300 301 301 301 300 300 302 304 306 306 307 307 307 308 309 311 312 313 316 318 319 321 322 322 323 323 324 323 322 325 323 323 322 323 325 327 328 328 329 332 334 337 338 340
282 281 281 279 275 285 296 296 294 297 286 285 291 294 296 300 299 299 299 300 300 301 299 301 301 301 301 302 304 306 307 307 307 308 309 310 311 313 315 316 318 320 320 321 322 322 323 322 324 322 322 322 322 324 324 325 326 328 330 333 335 337 339
278 279 278 279 285 290 296 292 286 291 295 295 296 295 293 298 299 298 298 298 299 300 299 299 299 300 300 301 303 305 306 307 307 308 309 310 311 312 314 316 318 320 320 321 322 323 322 323 323 322 322 321 322 322 323 324 325 327 329 331 334 335 338
282 280 283 288 290 294 296 294 292 294 296 297 297 297 297 298 297 299 297 297 298 298 299 299 299 298 300 301 302 303 305 306 307 307 308 309 310 311 313 315 318 319 319 320 321 322 323 322 323 322 322 321 321 321 322 323 325 326 327 329 331 334 336
288 290 291 292 292 292 294 296 297 296 296 297 298 299 296 296 297 297 297 297 297 298 299 298 298 299 300 300 301 303 305 305 306 309 309 309 310 311 313 314 316 319 320 319 319 321 321 322 322 323 322 321 319 320 322 323 323 325 327 328 330 333 336
285 281 288 291 292 293 294 294 296 297 298 297 298 296 295 296 297 297 298 298 298 298 299 299 299 299 301 301 302 303 304 304 305 306 307 309 310 310 311 314 318 318 318 317 317 319 320 321 321 320 320 320 321 321 321 322 323 324 326 327 330 332 335
284 285 287 290 291 292 293 294 293 293 294 295 298 297 297 298 298 299 299 299 299 300 299 300 300 300 301 301 301 302 302 304 305 306 307 308 309 311 312 313 316 317 317 316 316 318 319 320 320 320 320 320 321 321 321 321 322 323 324 327 328 331 334
288 290 292 292 292 293 293 294 294 295 294 295 295 296 297 297 297 298 299 300 300 300 300 301 301 300 301 301 302 301 302 303 304 305 306 308 309 310 311 313 316 315 317 317 317 318 320 320 318 319 319 320 320 320 319 320 321 321 323 326 328 330 334
283 285 288 290 286 285 287 291 294 295 295 296 296 296 296 297 297 298 298 299 301 301 302 301 301 300 301 301 302 302 302 303 304 305 306 307 308 310 312 313 314 315 318 318 317 319 320 318 317 318 318 319 320 319 319 319 319 319 322 324 327 330 331
284 290 292 291 291 290 291 292 294 295 296 296 296 296 296 297 298 298 298 298 299 300 301 303 302 301 301 302 302 302 302 303 304 305 306 306 307 309 311 312 312 314 316 318 319 320 319 317 317 317 317 317 318 318 318 318 318 319 319 322 325 325 327
293 293 291 292 292 292 292 293 295 295 296 296 296 297 297 298 298 299 299 300 300 300 301 302 302 302 302 303 303 302 303 304 305 305 307 307 308 310 312 312 313 314 316 318 318 318 317 316 316 316 316 316 317 317 316 317 318 318 318 320 322 322 323
293 295 293 293 294 294 293 294 295 296 298 299 296 297 297 297 298 300 300 301 302 301 300 299 300 302 302 303 304 304 304 305 306 307 310 312 312 312 313 313 314 315 316 318 319 318 315 314 315 316 315 316 317 316 316 317 317 317 318 319 320 321 322

ECMWFFLT2_sfc_thetae_093.txt.gz
Theta_e
298 298 299 299 299 295 298 299 297 298 300 300 299 298 297 298 297 295 301 299 302 305 306 315 320 322 321 320 321 324 325 327 328 328 329 330 332 335 338 340 340 342 343 344 344 345 343 343 344 345 348 350 350 350 351 352 353 355 354 355 355 355 357
298 300 299 299 299 299 299 297 298 301 302 301 300 294 296 295 291 294 299 297 300 299 296 313 317 317 319 318 318 321 324 326 326 326 328 329 330 334 337 340 342 343 343 343 344 344 344 343 343 345 349 350 351 351 350 351 352 353 353 354 354 355 356
297 300 299 298 301 301 299 297 300 297 295 295 298 298 290 290 290 293 296 297 298 300 301 309 312 314 317 318 318 318 319 321 323 325 327 329 331 332 334 338 340 341 342 343 344 344 344 344 345 346 347 347 349 349 350 350 350 351 352 352 353 355 355
295 298 298 292 294 300 299 300 299 298 299 300 298 298 298 299 292 293 293 297 293 300 302 309 313 315 317 317 318 317 318 320 321 324 326 328 329 330 332 335 338 340 341 343 343 343 343 343 344 344 345 346 346 347 349 349 350 352 353 352 353 353 354
296 292 294 291 293 292 296 297 295 297 297 298 300 298 297 296 295 295 294 292 294 299 305 311 314 316 318 318 318 318 318 319 321 322 323 327 330 331 332 334 339 340 342 342 343 344 343 344 345 344 344 344 345 346 346 348 349 350 350 351 352 354 354
291 291 294 294 294 295 294 294 291 292 293 296 294 293 297 295 296 292 295 291 294 299 308 313 316 317 318 319 319 318 318 319 320 320 323 325 327 331 332 334 337 341 343 343 343 343 343 343 343 343 343 344 344 344 345 346 347 348 348 349 352 353 354
291 293 295 297 296 296 295 295 292 295 294 294 296 291 293 296 295 296 300 294 293 302 310 316 316 318 318 319 319 318 319 320 321 321 322 324 327 329 331 332 335 337 342 344 344 343 343 343 343 343 343 343 343 344 345 346 346 347 348 349 351 354 353
294 295 296 297 297 296 295 295 296 295 292 292 292 293 297 296 294 296 297 295 293 302 311 317 317 318 318 319 318 318 319 320 321 321 321 322 324 327 330 332 334 335 338 340 343 346 345 344 344 343 343 344 343 344 344 345 345 346 348 349 350 352 352
290 293 294 293 296 296 293 292 294 295 295 295 294 297 299 294 292 292 296 292 294 299 312 316 316 316 316 316 317 318 318 319 320 321 322 322 323 325 326 328 331 334 335 336 339 342 346 348 343 344 344 343 343 343 344 344 345 346 348 349 349 350 350
283 283 285 287 290 291 292 293 293 294 294 293 294 293 295 291 293 293 294 293 296 301 311 313 314 314 315 316 316 318 318 319 319 321 322 322 322 323 325 326 327 330 333 336 338 339 341 343 346 346 346 344 343 344 344 345 344 346 347 348 349 349 349
289 289 289 290 294 292 289 291 292 292 294 295 295 295 294 291 293 293 293 293 294 298 307 308 311 313 312 313 315 315 316 318 319 321 322 322 322 322 323 325 326 328 330 333 336 339 340 341 343 347 344 344 343 345 345 344 345 346 347 348 349 349 349
290 291 291 291 292 290 290 290 290 292 292 293 293 292 291 294 292 290 294 297 293 298 305 308 310 311 312 312 313 314 315 317 318 319 321 324 322 322 323 324 325 325 328 331 333 336 338 340 341 344 346 349 345 346 345 345 345 345 346 348 348 349 349
291 291 292 292 292 291 291 291 290 290 292 292 291 291 292 293 292 291 294 296 296 302 305 308 310 311 311 312 313 314 315 316 318 319 318 319 320 320 320 322 323 325 326 327 330 332 335 338 340 340 342 347 349 353 348 347 345 345 347 347 348 348 349
291 291 292 292 291 291 291 290 291 291 291 291 291 292 293 292 293 294 296 299 301 304 306 308 311 312 313 313 316 315 314 314 316 317 317 317 318 319 319 320 322 323 324 327 328 331 333 335 337 338 340 343 346 349 351 347 347 346 347 348 349 347 347
289 291 292 292 291 291 289 290 291 290 290 291 292 292 294 296 294 300 302 300 300 305 308 310 313 314 314 314 313 313 313 314 314 314 315 316 317 318 319 320 321 323 324 325 327 328 330 332 335 337 339 341 344 348 350 352 352 348 348 349 349 348 348
287 289 290 290 292 291 289 289 291 291 290 290 292 292 294 295 296 300 299 299 300 305 309 310 312 312 312 311 311 312 313 314 314 313 313 314 316 317 318 320 321 321 322 324 325 327 329 330 332 332 335 339 342 344 348 351 353 355 348 347 347 350 350
286 290 290 290 290 288 286 288 290 292 292 293 294 295 299 302 303 297 294 298 306 307 308 306 307 309 311 311 311 312 313 314 313 314 314 315 315 316 317 318 320 320 321 323 325 326 329 330 331 332 333 335 337 340 344 350 355 356 355 348 349 350 350
287 289 290 291 287 281 283 293 294 295 293 294 291 293 298 304 305 303 306 306 308 308 307 305 305 306 309 311 312 314 312 312 313 314 315 316 316 317 317 318 318 320 322 323 325 327 329 331 331 331 332 332 334 338 343 348 354 355 356 356 351 350 352
287 290 290 286 280 282 292 295 298 300 299 297 295 295 301 304 306 305 305 306 307 308 308 307 308 309 310 313 312 312 312 313 313 312 313 314 316 317 317 317 317 320 322 323 325 326 329 331 331 330 329 330 332 334 339 345 346 353 355 356 354 352 353
291 288 286 279 281 291 293 295 299 303 301 301 300 296 301 304 304 304 302 305 306 307 308 308 310 310 310 312 315 313 312 313 313 312 312 313 314 316 318 318 319 320 322 323 324 325 330 330 329 329 328 329 330 332 339 342 343 347 348 354 356 357 354
284 287 286 286 291 290 293 294 296 300 297 297 295 291 298 303 303 303 303 304 305 306 307 308 309 309 311 310 313 314 312 312 313 313 313 314 315 316 318 319 320 321 323 324 326 327 327 328 327 327 328 329 329 332 336 338 341 345 344 344 346 354 357
290 286 285 286 285 282 289 297 301 302 302 303 302 297 294 301 302 304 303 302 302 303 305 306 307 308 309 306 309 311 311 312 313 314 314 315 315 316 317 320 321 322 323 324 326 327 327 326 327 328 328 328 329 332 333 336 338 340 339 337 339 344 351
289 287 284 283 281 286 295 297 299 302 303 303 304 295 290 299 301 302 303 301 302 302 303 304 305 304 301 302 307 310 310 311 313 312 314 314 315 316 317 318 319 321 323 324 325 326 326 324 325 327 327 328 329 330 331 332 334 335 333 332 335 339 343
289 288 284 283 288 286 295 300 300 301 303 301 298 285 287 298 300 301 303 301 302 303 304 304 303 301 298 301 306 310 309 311 312 313 313 314 315 316 317 318 320 322 324 324 323 323 324 325 326 326 326 326 329 329 329 330 330 330 329 330 331 335 339
289 287 287 289 290 296 298 300 301 302 303 299 288 283 295 301 301 302 303 303 303 304 303 304 300 304 305 306 308 309 309 309 310 313 314 314 315 315 316 317 321 321 322 322 322 323 324 326 325 325 325 326 327 328 328 328 328 328 328 330 332 333 335
288 289 286 287 291 297 302 304 303 303 297 287 286 299 300 302 302 304 304 303 304 304 304 304 304 305 306 307 307 307 307 307 309 311 312 312 314 315 317 318 319 319 320 322 323 322 324 323 325 324 324 325 327 327 327 327 327 327 328 329 331 332 333
289 288 286 285 281 296 302 302 300 303 292 294 300 301 302 303 303 303 304 304 304 304 303 304 304 304 305 305 305 306 306 307 308 309 310 311 311 312 314 316 317 317 319 320 321 322 322 322 324 325 324 324 325 327 326 327 328 328 329 329 329 330 332
286 285 284 285 293 301 304 300 295 300 301 303 303 301 300 303 303 303 304 304 304 304 303 302 303 303 303 304 305 306 306 307 308 309 310 311 312 312 313 314 316 317 317 320 321 323 323 324 325 325 324 323 325 326 326 327 328 329 329 328 329 329 330
291 290 293 299 299 302 304 304 304 306 306 305 305 303 302 301 303 305 303 303 303 303 303 303 303 302 303 304 305 304 305 306 307 308 309 310 311 311 311 313 316 317 316 317 319 322 323 324 325 325 324 323 324 324 325 326 327 328 328 328 327 328 329
298 299 299 300 300 301 303 304 305 304 304 305 305 303 302 304 304 304 302 303 302 303 303 302 302 302 303 304 304 305 306 306 307 309 309 310 311 311 312 313 315 316 316 317 318 320 322 325 324 325 323 323 322 324 326 326 327 327 327 326 326 327 329
292 289 302 298 299 301 302 303 304 305 305 305 305 304 303 304 304 303 303 303 303 303 303 303 302 303 304 303 304 305 305 306 307 307 308 309 310 311 311 313 315 315 316 315 317 319 320 323 324 323 322 323 323 324 325 324 325 325 326 325 325 326 327
292 293 299 300 301 302 303 303 303 302 304 304 305 305 305 305 305 303 303 304 303 304 302 303 303 303 303 303 303 304 305 305 306 306 307 308 310 311 312 313 314 314 315 316 316 318 320 323 324 324 322 322 323 323 323 323 323 323 324 325 324 324 325
296 299 300 300 300 300 300 301 303 304 305 304 304 304 304 304 303 303 304 304 303 303 303 304 304 302 303 304 304 304 304 305 306 306 307 309 310 311 311 313 314 313 314 315 317 318 319 322 324 323 321 322 322 322 322 322 322 321 322 324 324 324 325
292 293 297 301 294 294 300 302 303 304 305 304 303 304 303 303 303 303 302 303 304 304 304 304 303 302 303 304 304 304 304 305 306 307 307 308 309 310 312 313 314 314 315 316 317 318 320 323 324 323 321 321 322 321 321 321 321 320 321 321 322 323 325
292 299 302 303 301 301 302 303 306 306 305 304 303 302 302 303 303 304 303 302 302 303 304 305 304 303 303 303 304 303 304 305 306 307 308 307 308 309 311 312 312 313 315 316 317 318 320 323 324 322 320 320 320 320 320 320 320 320 320 320 320 321 323
302 304 304 304 302 299 303 304 305 305 306 304 303 303 304 304 303 303 303 303 302 302 303 304 304 304 303 303 303 303 304 305 306 306 308 308 309 310 312 312 313 314 315 316 317 319 321 323 323 322 320 319 319 319 319 318 319 319 319 319 319 320 321
299 303 304 304 303 304 305 305 305 306 306 305 303 303 304 304 304 304 303 304 304 303 302 302 303 304 304 304 304 304 304 305 307 307 309 310 309 310 311 312 313 314 315 317 319 321 322 322 322 321 319 319 319 319 318 317 317 317 317 318 318 319 320

ECMWFFLT2_sfc_thetae_096.txt.gz
Theta_e
304 304 305 305 305 298 304 305 301 305 309 307 304 304 304 304 302 300 307 307 312 317 319 320 323 323 324 326 326 327 329 330 333 332 334 336 337 340 342 342 345 349 348 349 350 351 350 351 352 352 355 356 357 358 360 362 364 365 365 366 365 366 365
304 306 305 305 306 306 306 300 305 309 310 308 305 298 301 299 296 299 304 302 305 306 304 318 319 320 321 323 324 325 327 328 329 330 333 334 335 338 341 343 346 347 349 350 350 350 351 351 352 353 355 356 357 358 360 361 362 363 363 364 363 364 365
303 306 305 304 306 307 304 303 309 303 299 298 304 303 294 294 294 299 301 304 305 306 308 313 315 316 318 321 323 324 324 325 327 329 331 333 335 337 339 341 343 345 347 348 351 350 351 352 353 354 353 354 356 358 359 359 360 361 361 361 363 363 364
302 304 304 299 302 306 307 308 306 308 306 303 300 302 304 302 295 298 299 303 301 309 311 313 314 317 319 320 321 322 323 324 325 328 329 330 332 335 338 339 342 344 345 347 349 350 350 351 351 351 352 353 353 356 357 357 359 361 362 361 362 362 363
301 298 301 298 300 300 303 303 302 304 305 307 306 306 304 301 298 299 299 296 302 308 314 315 316 317 319 320 320 322 323 324 326 327 327 328 330 333 337 339 342 345 346 346 348 350 351 351 352 352 351 352 353 353 354 355 356 357 358 359 360 362 363
298 296 300 299 299 300 301 302 302 302 302 300 298 297 305 303 300 297 298 296 301 309 316 316 317 319 320 321 322 321 323 324 326 326 326 326 327 330 335 339 342 344 347 350 348 350 351 350 350 350 350 351 352 351 351 353 353 355 356 357 360 362 363
297 298 300 302 301 301 301 302 300 302 303 304 301 294 299 302 303 304 305 298 299 312 317 317 318 319 320 321 322 321 322 324 325 327 326 326 327 327 330 335 340 343 346 347 349 349 353 351 351 350 350 349 350 351 351 352 352 353 355 356 358 362 362
299 301 302 302 301 301 301 302 302 302 300 301 300 301 305 301 302 300 302 300 298 311 318 318 319 321 321 322 322 322 322 323 325 326 326 326 326 326 328 331 336 339 342 346 347 349 350 350 355 351 351 351 350 350 350 350 351 352 353 355 356 360 361
295 296 300 299 301 302 299 299 300 301 302 302 302 304 308 302 302 301 300 296 298 308 317 318 318 319 319 319 321 322 321 322 324 326 327 326 326 326 325 327 330 334 337 341 344 347 348 348 350 351 354 350 350 350 351 350 350 351 352 355 355 357 359
287 288 289 292 294 297 299 299 298 299 299 300 302 299 303 296 304 306 301 299 304 311 315 315 316 318 318 320 320 322 322 322 322 325 326 325 325 325 325 326 327 328 332 335 341 345 347 347 348 350 350 353 350 351 352 352 351 352 351 353 354 355 357
295 296 297 297 300 299 296 295 296 297 299 300 302 303 302 298 303 302 301 304 304 306 310 312 314 315 315 316 319 319 320 322 323 326 326 325 325 325 324 325 327 329 330 331 335 339 343 346 347 347 347 351 353 355 352 352 353 352 353 353 354 352 354
298 297 296 297 298 297 296 295 295 296 297 298 300 300 298 303 302 296 301 306 305 306 309 311 313 314 316 316 318 319 320 321 322 323 325 325 324 325 325 325 325 325 327 329 332 335 338 340 345 347 347 346 352 355 354 352 352 351 351 352 353 353 354
296 297 296 297 297 296 296 295 295 295 296 297 298 298 298 302 300 298 300 305 307 307 309 311 312 314 315 316 317 319 320 320 321 323 322 322 322 323 324 325 326 326 325 327 329 332 334 337 338 342 344 346 349 352 355 357 351 352 353 352 353 353 354
295 295 296 296 295 295 295 295 295 296 295 296 297 297 298 299 301 302 304 306 306 308 309 311 313 315 315 316 321 320 320 319 321 320 320 320 320 321 322 324 326 327 326 326 327 330 332 335 336 337 339 342 345 346 348 352 357 357 353 353 353 353 353
293 294 295 297 295 294 294 294 295 295 295 296 296 297 297 299 300 302 305 306 305 310 313 313 315 316 316 317 318 319 320 319 319 320 319 320 320 321 322 324 325 327 327 327 326 327 329 332 335 335 337 339 342 342 345 350 354 355 354 353 352 353 355
292 293 294 293 295 294 293 293 294 294 294 294 295 296 299 299 301 302 304 303 305 309 313 313 314 314 314 313 315 318 319 319 319 319 319 320 321 321 322 322 324 325 326 327 327 326 327 330 333 335 335 337 339 341 344 347 351 356 355 354 353 354 355
292 294 293 293 292 293 290 291 294 296 296 299 299 300 300 303 306 301 298 300 309 311 311 311 312 312 314 313 314 316 318 320 319 319 319 320 320 321 323 323 323 323 325 327 328 327 328 328 331 333 335 335 336 339 343 346 350 352 354 355 356 357 355
293 293 293 294 292 286 288 298 300 299 296 296 296 297 301 305 303 305 309 309 311 310 310 310 310 311 312 315 316 318 318 318 319 318 319 320 321 322 322 323 323 324 325 327 328 330 330 329 330 331 333 333 334 337 342 345 348 351 351 354 357 357 358
292 294 293 291 285 287 297 301 302 301 301 299 298 301 302 305 305 307 306 308 308 310 310 311 312 314 314 316 317 315 317 318 318 318 317 318 320 321 322 323 324 326 326 327 329 329 329 330 331 331 331 331 333 336 340 341 344 346 348 350 352 355 357
296 293 291 283 285 295 299 300 302 305 303 302 300 298 301 305 306 307 306 308 308 309 310 311 313 314 314 314 317 317 316 318 318 317 316 317 318 319 321 322 323 326 326 326 327 329 331 331 331 332 332 332 333 335 339 341 342 341 340 343 345 347 352
289 292 291 290 297 295 296 296 299 300 299 300 298 294 300 306 308 307 306 307 307 307 308 310 311 312 312 312 314 317 316 316 317 317 317 318 318 319 321 321 323 325 327 327 329 330 330 329 329 331 332 333 333 335 338 339 342 342 339 338 339 342 345
296 292 289 290 290 286 293 299 304 307 307 307 305 298 301 308 308 308 307 307 307 307 307 308 309 309 307 305 310 316 316 315 315 316 317 318 319 319 320 322 322 325 325 327 328 329 329 330 331 333 332 332 332 335 337 338 341 341 339 337 337 338 340
295 291 288 287 285 290 301 302 304 305 307 305 307 297 293 306 308 306 308 306 307 307 307 308 308 306 301 302 309 313 314 314 314 313 314 316 317 318 319 319 320 321 323 326 327 328 329 327 330 331 332 332 331 333 336 336 338 339 338 337 336 336 336
294 293 289 287 294 291 301 305 304 304 307 303 303 290 291 304 308 307 307 305 306 307 309 308 307 304 300 303 310 311 312 312 313 313 314 314 315 316 318 319 321 322 324 325 325 325 326 329 329 330 329 329 330 332 334 336 337 336 336 335 336 337 336
293 291 291 294 295 303 305 304 305 305 305 302 294 288 299 306 307 309 308 308 307 308 307 307 304 308 309 310 311 312 311 311 312 314 314 315 315 315 315 317 321 320 321 321 322 324 326 329 328 328 329 327 328 330 331 332 334 334 336 336 336 335 335
292 294 291 291 296 302 306 307 306 307 301 290 291 303 309 309 307 308 307 306 307 307 306 306 307 308 309 310 310 310 311 311 312 312 313 313 314 316 317 318 319 318 319 321 322 322 326 327 327 327 327 327 327 328 329 330 332 334 335 336 337 337 337
295 295 292 290 285 301 306 307 304 305 295 298 305 307 309 308 308 307 308 308 307 308 306 307 308 308 307 307 308 308 309 310 311 312 312 313 313 313 315 317 317 316 317 319 320 320 321 324 326 327 327 327 326 327 327 331 332 333 334 336 337 337 337
290 290 288 289 298 304 308 305 299 304 303 309 309 306 306 308 307 307 307 308 309 308 307 306 306 307 307 308 309 309 309 310 311 312 313 314 314 314 314 315 316 316 317 318 318 321 321 323 325 327 327 326 326 327 328 330 330 331 332 332 334 336 337
295 294 297 303 305 307 309 308 307 310 311 312 312 308 306 305 306 309 307 306 308 308 308 307 307 306 307 307 307 307 308 309 310 311 312 313 314 314 314 314 317 316 315 317 317 319 321 323 324 326 327 326 327 326 329 331 331 330 330 330 331 333 335
304 305 305 307 305 306 307 308 311 310 311 311 308 307 305 307 307 308 307 308 307 307 308 306 306 306 306 306 306 307 308 309 310 312 312 312 314 314 315 316 317 317 317 317 317 318 320 322 323 325 327 327 326 327 329 331 331 330 329 329 329 331 333
297 292 305 303 303 305 306 307 311 312 311 310 309 308 307 307 309 308 308 308 308 307 308 307 306 306 307 306 307 308 309 309 310 310 311 311 312 312 313 315 316 316 317 316 317 318 319 321 322 322 324 326 328 329 329 328 328 329 328 328 328 330 332
298 297 304 306 308 308 308 307 307 307 309 310 311 309 310 310 310 309 309 309 307 308 307 308 307 307 307 306 307 307 308 308 309 309 310 310 311 313 314 314 316 316 316 317 317 318 319 321 322 323 324 327 329 328 328 329 329 330 329 328 326 326 328
300 304 305 306 307 305 306 307 308 309 309 310 311 310 309 310 309 309 309 309 308 307 307 308 308 307 307 308 308 308 308 309 309 309 310 310 311 312 313 314 316 315 316 317 317 318 318 320 322 323 323 325 327 328 328 328 329 328 327 327 328 327 328
297 297 301 305 298 299 303 306 307 308 309 310 310 310 309 309 309 309 308 308 309 308 308 308 307 306 307 308 309 308 308 308 309 310 310 310 310 311 313 314 315 315 317 317 317 318 319 321 323 323 324 325 327 326 327 328 328 326 326 326 326 327 327
296 303 305 306 306 305 305 307 308 309 310 310 309 309 309 309 309 310 309 308 308 308 309 309 308 308 308 309 309 308 307 308 309 310 310 309 310 310 311 311 312 313 314 316 317 318 319 321 322 323 325 325 326 327 327 328 327 325 325 323 323 325 326
304 306 306 308 306 303 306 308 309 309 311 310 309 310 310 310 310 310 309 309 308 308 308 308 308 308 308 308 308 307 308 309 309 309 310 310 311 311 312 311 311 311 313 315 316 317 319 321 322 323 324 325 326 326 327 327 327 326 324 322 322 322 324
303 308 308 309 308 308 309 309 310 310 311 310 309 309 310 310 310 311 310 309 310 309 308 307 308 308 308 308 308 308 307 307 309 309 311 311 311 311 311 312 312 312 312 314 315 317 318 320 321 322 323 324 326 326 326 326 326 325 324 324 323 323 323

ECMWFFLT2_sfc_thetae_099.txt.gz
Theta_e
308 308 309 309 310 300 307 308 304 307 312 309 305 306 307 307 304 301 309 310 315 319 322 325 325 325 325 327 328 329 331 332 335 334 336 337 340 340 343 344 344 347 347 350 349 348 348 350 350 351 353 355 357 358 360 362 365 366 366 368 367 368 366
307 310 310 309 311 310 308 303 307 313 314 312 307 300 303 301 298 301 305 306 308 310 308 323 323 322 323 323 325 326 330 331 332 332 334 336 338 340 343 347 348 349 349 349 350 351 350 351 352 352 357 357 359 358 359 362 365 366 364 367 365 366 367
307 309 309 307 310 312 307 306 312 305 300 300 306 304 297 297 296 300 303 307 309 309 310 318 318 319 320 322 324 326 326 328 329 331 333 336 338 340 341 343 346 348 349 351 352 350 350 351 352 352 353 355 355 357 361 362 363 363 361 360 363 364 366
306 307 306 299 303 310 312 311 309 312 308 305 303 305 306 305 299 299 300 305 303 311 313 317 317 319 320 321 321 323 325 327 328 329 330 333 335 338 340 342 342 344 348 349 352 350 352 355 352 352 351 354 356 358 360 360 358 360 362 364 363 363 363
305 300 304 302 304 302 304 305 305 306 306 311 309 308 305 303 301 300 300 298 306 313 319 318 318 319 320 321 321 323 325 327 328 329 330 332 334 337 340 342 344 345 348 348 348 352 352 354 355 354 355 354 356 355 355 356 355 355 361 359 359 364 362
299 302 306 304 304 305 305 304 303 306 303 303 300 300 307 305 302 298 299 298 307 315 321 319 319 320 320 322 322 322 325 326 328 329 330 331 332 335 337 339 342 345 348 350 347 351 355 351 351 350 351 354 355 355 354 356 355 357 356 353 356 362 364
301 303 305 308 307 307 306 307 305 308 307 306 303 296 301 304 305 307 306 302 304 316 320 320 320 321 321 322 323 323 324 326 327 328 329 331 331 331 333 336 340 344 348 350 351 351 351 352 351 352 351 353 352 355 353 353 353 354 355 355 356 364 363
303 306 306 307 307 306 305 306 307 306 304 306 304 304 306 304 304 303 303 301 305 316 321 321 321 322 322 323 323 322 323 325 326 328 329 328 329 330 331 334 337 340 343 347 348 352 351 353 354 354 356 355 357 355 352 351 352 354 356 356 357 361 362
299 300 302 303 306 305 303 304 306 306 306 306 307 306 308 303 304 304 302 298 302 314 320 321 319 319 320 320 322 323 322 324 325 327 328 327 328 328 329 330 332 333 336 340 342 346 350 351 351 352 351 352 353 356 355 355 351 351 353 357 357 362 361
290 289 291 293 297 300 303 304 303 304 304 305 304 301 304 297 307 307 303 302 309 314 318 318 318 319 319 320 321 322 323 324 324 326 327 329 327 327 328 329 329 329 331 336 340 342 344 346 349 352 354 352 355 355 355 356 354 353 355 356 356 356 359
297 299 301 303 305 303 300 300 302 302 304 305 305 305 302 299 304 304 307 307 308 310 312 314 316 317 317 318 320 320 320 323 325 327 327 328 328 327 327 328 328 329 329 331 335 338 340 342 345 349 350 351 351 355 357 357 357 356 358 355 358 354 358
301 300 300 302 303 301 301 300 300 301 302 303 304 301 300 310 302 298 309 311 307 309 312 313 314 316 317 318 319 320 321 322 323 324 326 329 326 327 327 327 327 328 328 329 331 335 336 338 341 344 346 346 349 351 353 356 356 353 356 359 356 355 355
299 300 300 301 301 301 301 300 300 300 301 303 303 304 304 308 304 302 310 312 309 310 312 313 315 317 317 317 318 320 321 322 324 325 324 324 324 326 325 326 327 328 326 328 329 331 333 336 338 340 342 344 348 350 352 355 356 357 359 359 355 357 356
298 299 299 300 299 299 299 300 300 300 300 301 302 303 304 306 309 311 311 312 309 311 313 314 315 318 318 318 321 321 321 320 323 323 323 323 323 324 324 326 326 328 328 330 329 330 332 334 335 337 339 342 344 346 348 352 355 356 357 355 356 356 356
297 298 298 298 298 298 298 299 300 299 300 300 301 302 304 307 307 308 310 309 309 312 316 315 317 318 318 319 318 318 319 320 320 321 322 323 323 324 325 327 326 328 329 329 330 330 330 331 332 333 337 340 341 343 346 349 352 355 358 355 353 357 355
296 298 297 297 298 297 297 298 298 299 298 298 300 300 304 304 305 308 308 307 307 312 315 316 317 317 317 316 318 318 319 319 320 320 321 322 323 324 325 326 327 328 327 329 329 329 329 330 330 332 336 337 337 339 345 346 350 356 356 354 356 356 355
295 298 297 296 296 296 293 295 298 300 300 301 302 303 305 306 307 305 304 306 311 312 315 314 314 315 315 316 316 317 319 320 319 321 322 323 323 324 325 326 327 327 328 329 330 329 331 332 333 333 333 335 337 340 344 347 351 352 352 353 353 356 356
296 297 297 296 293 288 290 301 303 302 300 301 300 301 302 307 309 307 311 311 314 314 314 314 312 313 315 317 318 320 319 318 320 319 322 322 324 324 324 325 326 328 329 330 330 332 332 332 332 331 333 333 336 339 343 346 348 349 349 351 351 351 355
296 298 297 291 287 290 301 304 304 304 304 303 302 303 303 307 307 311 312 312 313 314 314 314 315 316 316 317 318 318 318 321 319 319 320 321 322 323 324 325 325 328 329 330 331 331 331 332 332 333 333 333 334 337 340 341 343 345 347 348 348 349 351
299 297 294 284 288 300 303 302 304 305 303 302 302 303 306 307 306 310 310 312 312 313 313 314 316 316 316 317 318 319 319 320 321 319 318 319 320 321 322 324 325 327 327 328 330 330 334 332 332 333 332 333 332 335 339 340 342 343 344 345 346 348 349
293 295 293 293 301 299 300 299 302 301 300 301 299 296 301 305 308 308 309 311 312 312 313 313 314 315 314 313 316 318 317 317 319 319 319 319 320 320 322 322 324 326 326 327 329 332 332 333 332 331 333 334 332 332 335 338 341 341 342 340 341 343 347
298 295 292 293 293 289 296 302 305 306 309 310 308 304 302 307 310 310 311 311 310 310 310 311 312 310 308 306 311 316 317 317 317 317 317 318 319 319 320 322 322 326 326 325 326 329 331 333 333 333 333 332 333 333 333 334 337 339 338 338 338 340 340
297 294 291 291 289 293 302 303 306 308 309 308 306 301 297 309 310 309 310 309 309 310 309 311 309 305 303 306 312 316 317 317 316 315 316 316 317 317 318 319 319 321 324 324 326 327 328 328 330 334 334 334 333 332 332 332 335 337 337 337 337 338 339
297 295 291 289 296 296 304 306 306 306 308 305 304 291 292 309 310 309 309 310 309 310 311 310 308 306 303 307 312 314 315 314 316 315 315 316 316 316 317 318 320 322 323 324 323 324 323 326 329 332 331 331 332 332 332 332 332 334 336 336 337 339 340
294 294 294 295 297 306 308 306 307 307 305 303 294 289 303 311 311 311 311 311 311 312 311 309 306 310 311 312 312 312 313 312 313 315 315 316 315 316 316 317 321 319 320 320 320 322 325 327 326 328 330 329 329 331 332 331 330 331 333 336 337 338 339
294 295 293 292 296 307 310 309 308 308 301 292 291 306 313 312 311 311 311 310 311 310 310 309 309 311 311 311 310 311 311 310 312 313 314 315 316 317 318 320 319 319 318 319 321 321 324 323 324 326 328 328 329 330 330 330 332 331 333 334 336 338 338
297 296 294 291 287 304 311 308 306 307 297 301 310 311 313 313 312 311 310 310 310 310 309 309 310 310 309 309 310 310 311 311 311 312 313 313 314 315 317 318 319 318 318 319 318 319 320 321 323 325 325 327 328 329 328 330 331 332 332 333 335 335 336
292 293 290 291 300 307 312 308 301 306 305 312 313 311 309 311 311 309 310 311 311 311 309 309 308 309 309 309 310 311 311 311 313 313 314 315 315 315 315 316 318 319 319 319 318 319 319 322 323 324 326 326 327 328 330 332 332 332 332 333 334 333 333
298 296 299 305 308 310 311 310 310 312 313 315 314 312 311 311 310 312 310 310 312 312 311 310 309 308 309 309 310 309 309 310 311 312 313 313 314 314 315 315 318 318 318 318 319 320 320 322 323 325 325 325 326 326 330 334 333 332 332 331 331 331 332
307 307 308 310 309 310 310 309 311 312 314 315 313 311 308 309 310 311 310 311 311 311 312 309 310 309 309 309 309 310 310 310 310 313 313 313 315 314 315 316 317 318 317 318 318 319 321 323 323 324 324 324 324 326 330 332 333 332 331 331 330 331 331
299 294 307 306 307 309 310 309 311 313 315 314 312 310 309 310 311 311 310 311 311 311 311 310 310 309 309 309 309 311 311 310 312 312 313 314 314 315 315 316 317 316 317 316 317 318 319 322 322 322 323 323 325 327 328 329 330 331 332 331 330 330 331
299 300 306 308 310 310 310 309 309 310 312 313 313 312 312 312 312 312 312 312 310 311 310 311 310 310 310 309 310 310 310 311 312 312 312 314 314 315 316 316 317 316 316 316 317 318 318 320 321 322 323 324 325 326 326 327 330 331 330 330 328 328 329
303 305 306 307 309 310 310 310 311 311 312 312 312 313 312 312 311 311 311 312 311 310 310 311 310 310 310 311 311 310 311 311 312 312 313 314 315 315 315 316 316 315 316 316 317 317 317 319 320 321 322 323 325 326 326 327 329 329 328 328 328 328 328
299 300 304 307 300 301 307 309 310 310 312 311 311 312 311 311 311 312 311 311 312 310 310 311 310 310 310 311 312 311 311 311 312 313 313 313 313 314 315 315 315 315 316 315 315 317 318 319 320 321 322 323 325 325 326 327 328 328 327 327 326 326 327
298 306 309 310 308 307 308 309 311 312 312 312 310 311 311 312 312 312 312 310 311 311 312 312 311 311 311 311 312 310 310 311 312 313 313 312 312 312 313 313 313 314 314 315 315 316 317 319 319 320 321 323 324 325 326 327 327 327 327 325 324 325 326
307 310 310 311 309 306 309 311 312 311 313 311 311 311 312 312 312 312 311 312 311 311 312 312 312 311 311 310 310 310 311 311 312 312 312 312 312 312 313 313 313 314 315 315 315 315 317 318 318 319 319 321 323 324 326 327 327 327 326 325 323 323 324
306 312 311 311 312 312 312 313 313 313 313 313 311 311 311 311 311 311 311 312 313 312 311 310 310 311 310 309 310 310 310 310 311 311 312 312 312 312 313 313 313 313 314 315 315 315 316 316 317 319 319 320 322 323 325 326 327 326 326 325 325 323 324

ECMWFFLT2_sfc_thetae_102.txt.gz
Theta_e
310 311 314 312 311 299 307 308 304 306 312 308 304 305 306 307 303 301 312 309 314 319 321 323 324 324 326 328 328 328 329 331 335 336 337 339 341 343 345 343 340 342 344 347 352 352 349 349 348 349 353 353 354 358 361 363 363 362 362 365 365 364 364
309 314 314 311 311 310 307 302 306 311 313 311 306 298 302 300 297 301 308 306 308 311 307 323 321 323 325 324 326 327 329 330 330 331 334 338 340 342 344 344 346 345 346 346 350 352 351 351 352 353 358 358 356 357 360 362 364 363 361 362 363 363 363
307 310 309 307 310 312 307 305 311 304 300 299 305 302 295 296 295 299 305 309 310 312 310 317 316 318 321 324 325 325 325 327 329 331 333 337 340 341 343 345 345 347 346 347 349 351 354 350 354 353 355 355 355 353 357 362 362 364 362 362 362 363 362
307 307 306 298 303 309 311 311 307 311 306 304 301 303 305 304 297 298 303 308 306 314 314 318 317 319 321 320 322 322 325 326 327 329 331 334 336 339 340 342 343 347 347 350 352 349 349 352 350 351 355 357 356 357 359 362 358 360 363 365 363 362 361
305 299 302 300 303 302 304 305 304 306 306 310 307 307 304 301 300 299 300 299 305 313 320 319 319 319 321 321 321 323 324 326 327 328 330 332 335 338 341 342 344 345 347 348 350 352 350 357 356 355 354 353 357 355 357 358 355 358 356 357 362 363 363
299 301 305 305 306 307 305 305 303 306 304 302 298 298 307 305 301 297 299 300 308 315 323 320 319 321 321 322 322 322 324 325 327 328 330 331 334 337 337 339 342 345 347 348 352 355 355 353 352 354 353 353 355 356 353 355 356 357 358 355 359 361 362
300 304 306 309 309 308 307 306 305 308 307 306 302 294 301 304 305 311 308 304 305 319 321 322 321 321 321 322 323 322 323 325 326 327 329 330 332 332 335 337 338 340 344 348 351 352 353 354 354 355 354 353 353 356 356 353 354 355 359 357 354 357 361
304 306 308 308 309 307 305 306 308 306 304 304 303 303 304 302 305 305 304 302 306 317 322 321 321 322 322 323 323 322 323 325 325 326 328 328 329 331 333 335 335 336 338 342 348 350 349 350 352 353 355 356 355 355 357 356 355 354 353 355 358 355 353
298 300 303 303 306 306 304 303 306 307 307 307 307 306 307 302 303 303 300 297 304 315 321 321 320 320 320 320 321 323 322 324 325 325 327 328 328 329 330 331 332 334 334 336 340 347 347 349 349 351 354 355 356 358 357 354 356 357 354 354 354 354 356
290 290 291 293 297 300 304 306 305 306 304 304 304 301 304 296 305 307 303 303 310 316 319 318 318 319 319 320 321 323 323 324 324 325 326 328 327 327 328 328 329 330 332 333 336 342 346 347 348 350 351 353 356 358 357 355 351 353 353 353 354 355 356
297 298 300 304 305 302 299 302 303 303 305 306 305 304 301 299 304 304 308 308 308 311 314 315 316 317 317 318 320 320 321 323 324 326 326 327 327 327 327 328 328 331 331 331 333 336 341 344 345 347 351 351 351 350 350 353 354 357 360 357 357 356 356
302 301 301 304 304 301 301 301 301 303 303 304 303 300 300 307 303 299 309 312 308 309 312 314 315 316 318 318 319 319 321 322 322 323 326 329 326 328 328 328 328 328 330 330 331 332 335 340 341 344 349 350 349 350 351 352 357 357 357 359 358 360 358
302 302 302 303 302 302 303 302 302 301 302 303 301 302 304 305 301 301 310 312 309 311 313 315 316 317 318 318 318 320 321 322 323 324 323 324 324 326 326 327 328 328 327 330 331 331 333 336 338 340 343 342 347 352 353 355 356 354 355 355 356 356 359
300 301 301 303 302 301 301 301 301 302 301 301 302 303 305 305 308 310 310 312 310 313 314 316 317 319 319 319 322 321 321 320 322 322 322 323 323 324 325 326 326 328 328 330 331 332 332 331 333 335 338 341 344 347 348 352 354 354 355 354 355 357 355
298 300 301 301 301 300 299 301 301 301 301 301 303 303 304 306 309 310 311 309 308 314 317 317 319 320 319 319 320 319 320 320 320 321 321 322 323 324 325 326 326 328 328 329 330 331 331 331 330 334 336 338 341 342 344 350 354 354 353 353 357 355 355
296 299 299 299 300 299 298 299 300 300 299 298 300 300 304 304 305 310 309 307 307 313 317 318 318 317 317 317 318 319 320 320 321 320 320 322 323 323 325 326 327 327 327 328 329 330 331 330 331 332 334 336 338 339 342 343 346 351 353 353 353 355 354
294 298 299 298 298 297 294 295 298 300 300 301 302 303 305 305 305 304 304 307 312 314 316 314 315 317 317 317 318 318 319 321 320 320 321 322 322 323 324 325 326 326 327 328 329 330 331 333 335 335 334 333 336 339 341 342 345 344 347 347 350 352 355
294 298 298 298 294 288 290 301 303 302 300 301 299 300 302 307 308 308 309 312 315 315 315 313 313 313 315 317 319 321 321 319 319 320 320 321 323 323 323 324 325 326 327 328 329 331 333 332 330 332 336 333 334 337 342 344 344 345 343 343 345 346 351
294 298 298 293 287 289 301 304 305 304 304 303 302 303 304 307 310 310 311 313 314 315 314 315 315 317 318 319 319 319 320 321 319 319 318 320 321 322 322 323 324 324 324 326 328 329 331 332 332 331 331 332 334 334 336 337 340 343 341 340 341 341 343
298 296 295 286 289 300 303 303 304 306 305 304 304 302 305 307 309 312 310 314 314 315 316 315 317 317 318 318 318 319 320 320 321 317 317 318 319 319 320 322 324 325 324 323 325 328 330 332 331 331 332 332 333 334 335 334 338 341 341 341 339 341 341
292 294 295 293 301 299 300 299 301 301 300 301 301 298 303 308 309 312 312 313 313 313 314 315 315 316 315 314 315 318 319 319 319 319 318 319 319 319 320 319 322 324 324 324 326 329 328 328 327 328 334 334 334 334 334 333 337 339 339 338 337 338 339
297 293 292 294 292 289 296 303 306 306 306 306 305 302 300 308 308 310 312 311 312 312 312 313 314 313 310 307 310 315 317 318 318 318 317 318 318 317 317 319 319 323 322 322 323 324 327 329 329 330 331 332 334 334 334 333 335 335 335 335 335 337 336
297 294 291 290 289 294 302 303 306 308 309 309 307 299 296 306 309 309 312 311 312 312 312 312 312 307 303 304 311 315 316 317 317 316 316 316 317 316 316 315 316 319 321 321 321 323 324 324 326 329 333 335 331 331 332 332 333 333 333 333 334 336 336
297 295 292 290 295 295 303 306 306 306 307 305 301 289 291 307 309 311 313 311 311 311 312 312 309 305 301 307 311 315 316 315 316 316 315 315 315 315 315 316 319 319 322 321 318 318 319 322 324 326 325 327 329 330 331 332 332 333 333 334 335 337 338
294 295 294 296 299 306 306 306 306 305 305 301 293 288 301 309 310 310 312 310 311 312 311 309 306 310 313 312 314 314 314 313 313 314 315 315 315 315 315 316 321 318 319 318 317 318 322 327 321 321 324 324 325 328 329 329 329 330 334 335 335 335 335
292 293 291 292 300 306 309 309 307 307 301 291 290 307 314 312 310 312 312 311 312 312 312 308 310 311 312 312 312 311 311 311 312 312 313 313 314 315 318 319 319 318 318 320 320 320 321 319 320 321 323 325 326 327 327 327 329 331 333 334 334 335 335
295 295 293 291 287 304 311 308 305 306 298 303 311 312 313 313 312 312 312 312 312 311 310 310 311 311 310 310 310 310 311 311 311 312 313 314 313 313 314 315 316 317 317 318 317 319 320 321 321 321 321 323 324 325 325 327 328 332 333 333 333 334 335
292 292 290 290 303 307 311 308 301 305 310 313 314 312 310 312 312 311 310 312 312 310 311 309 309 309 309 309 310 311 311 311 312 312 314 314 314 313 314 314 315 316 316 317 317 318 319 321 322 323 324 323 324 323 325 329 329 332 334 333 334 333 333
298 296 298 304 310 312 311 311 310 312 314 316 314 314 313 311 310 313 312 311 312 312 311 310 309 308 308 308 310 309 309 310 310 312 312 313 314 314 313 314 317 317 315 315 315 317 319 321 322 323 323 322 323 323 327 330 332 330 331 331 332 332 331
307 308 308 310 309 310 311 310 313 313 313 315 314 312 311 312 312 311 311 311 312 312 312 310 309 308 309 309 309 309 310 311 311 313 313 314 315 314 315 315 316 315 315 316 316 316 318 320 320 323 322 322 322 325 326 329 328 328 329 331 332 331 330
299 294 308 306 307 310 310 310 311 313 315 314 312 310 309 310 311 311 312 313 313 313 312 310 309 309 309 308 309 310 311 311 312 312 313 314 314 315 314 316 316 316 316 315 315 316 316 319 319 319 319 320 322 324 326 325 325 328 329 330 330 330 331
299 299 306 308 309 310 311 311 310 309 312 314 313 312 313 312 313 312 312 312 311 311 309 310 310 309 309 309 310 310 310 311 312 312 313 314 314 315 316 316 317 316 315 315 315 315 316 317 318 319 319 320 321 322 322 324 325 327 327 328 326 327 327
303 305 306 307 309 309 309 310 311 312 312 313 313 313 312 312 312 312 312 312 311 311 310 312 311 311 310 311 311 310 310 311 312 313 313 313 314 314 314 315 315 315 315 314 315 315 315 316 317 318 318 319 320 321 322 322 325 325 326 327 329 327 326
299 300 303 308 301 300 306 310 311 311 313 312 312 312 312 312 311 311 310 311 312 311 311 311 311 310 311 311 312 311 311 311 312 312 313 313 313 313 314 315 315 315 315 315 315 315 315 317 317 318 318 319 320 320 321 322 324 325 325 326 327 327 327
299 306 308 311 309 308 308 310 311 312 313 312 312 311 312 312 313 313 312 310 311 310 311 312 311 311 311 312 312 311 310 312 313 313 313 312 312 312 313 313 313 314 314 315 315 315 316 317 317 317 318 318 320 320 322 323 324 324 325 325 325 325 326
308 310 313 312 310 307 310 312 313 313 314 312 312 312 313 313 313 313 313 313 311 311 311 311 312 311 311 311 311 310 311 312 312 312 313 313 312 312 313 313 313 313 314 314 314 315 315 316 316 317 317 318 320 320 322 322 322 322 323 324 324 324 323
308 313 313 313 312 312 312 313 313 314 315 315 312 312 312 312 313 313 312 313 313 312 311 310 311 312 311 311 310 311 310 311 312 312 312 312 312 312 312 312 312 313 313 314 314 315 316 317 318 318 317 318 320 319 322 322 321 321 322 322 322 324 325

ECMWFFLT2_sfc_thetae_105.txt.gz
Theta_e
309 308 311 311 308 295 302 304 298 301 308 306 305 307 305 304 300 301 309 308 312 318 319 322 326 326 326 329 330 332 332 334 334 334 335 336 340 341 342 343 346 346 345 345 348 350 351 350 344 345 345 346 349 352 352 352 354 354 355 357 357 358 356
307 309 310 311 310 307 302 298 300 305 309 309 305 295 298 299 296 301 308 304 306 307 303 319 321 321 323 325 326 328 330 332 331 332 335 338 339 343 343 344 346 346 347 348 350 350 352 351 349 347 348 353 351 354 353 353 354 353 355 357 358 358 357
305 311 309 304 306 308 302 300 307 299 296 295 306 300 292 294 293 298 305 307 307 308 307 315 316 317 319 322 324 325 325 327 328 330 332 335 338 338 339 341 342 345 346 345 347 348 351 353 352 351 354 355 356 357 356 355 355 355 356 358 359 359 359
303 306 301 294 298 306 309 307 302 306 301 297 299 298 301 300 295 298 298 301 298 313 313 317 316 319 320 320 321 322 324 325 326 327 331 334 336 337 340 341 343 344 347 346 349 350 349 348 351 352 352 351 353 354 358 359 358 358 357 357 359 358 359
303 294 298 296 299 297 298 299 297 301 301 304 301 302 297 295 296 298 295 293 300 310 316 320 318 319 320 321 320 321 323 324 326 327 329 333 336 335 337 338 340 343 343 346 349 350 348 350 355 352 355 349 349 354 356 358 359 359 358 359 359 357 356
293 296 302 302 303 302 300 298 297 298 297 295 292 292 302 300 297 294 296 295 304 313 321 319 321 321 322 322 322 322 323 324 325 326 327 329 331 333 333 334 335 339 346 346 348 351 353 349 353 351 354 353 351 353 354 354 349 355 358 356 353 353 352
295 300 304 306 307 306 303 302 299 301 300 300 297 287 294 304 306 309 305 300 304 317 321 325 324 322 322 322 322 322 323 324 325 325 327 329 331 331 332 332 333 335 342 344 345 345 348 351 352 353 353 353 353 353 353 351 352 352 354 354 357 354 352
300 302 305 305 307 304 301 302 302 301 298 300 297 297 302 303 304 300 300 298 304 317 323 325 323 326 323 323 322 321 322 323 324 324 325 326 328 329 331 333 333 333 339 346 346 346 346 347 351 351 352 352 354 354 355 352 352 352 355 357 357 354 353
293 295 297 298 302 302 299 297 301 303 303 303 303 303 306 299 304 302 300 295 302 315 320 320 324 325 321 321 322 322 321 323 323 324 325 325 326 327 331 332 330 331 332 338 341 342 343 345 345 347 350 350 350 353 355 354 353 354 353 352 354 352 351
285 285 286 288 291 294 298 301 301 304 302 301 299 294 298 292 303 306 301 300 308 314 317 317 320 321 320 321 322 323 323 323 323 324 324 325 326 326 329 332 329 328 329 331 336 340 341 342 342 344 345 347 349 351 352 352 351 353 354 353 353 354 354
291 294 296 303 305 299 294 298 301 302 302 302 302 301 297 295 302 303 304 305 306 309 312 315 315 316 315 316 318 319 321 323 323 324 324 325 325 326 327 329 328 329 328 329 330 333 340 343 343 346 347 348 348 348 350 354 356 356 357 357 354 352 352
301 299 298 300 302 297 298 298 299 300 300 301 300 295 296 303 303 295 306 308 306 307 311 313 314 314 315 316 317 318 320 321 322 323 324 327 324 325 325 326 327 327 328 328 328 329 331 333 339 342 345 349 351 351 351 354 355 354 354 359 357 357 355
301 301 300 301 300 299 299 299 299 299 300 300 299 301 303 306 301 299 307 308 306 308 311 313 313 314 314 315 316 319 321 322 322 321 321 322 323 323 324 325 327 327 327 327 327 327 329 331 332 336 341 345 350 350 351 353 354 354 356 355 355 356 356
299 300 299 300 298 298 299 299 298 299 299 298 299 301 304 309 307 309 310 308 308 311 312 314 314 316 317 317 318 319 319 319 320 320 320 321 321 322 323 324 325 326 327 328 327 328 328 329 330 332 335 337 340 345 348 351 349 351 353 355 355 353 352
296 298 300 301 299 298 296 298 299 299 298 298 299 302 308 311 310 310 309 307 306 315 315 314 316 316 317 318 317 316 317 319 320 319 320 321 321 322 323 324 325 326 327 327 327 326 327 327 329 330 332 333 336 338 340 344 346 350 353 351 352 352 353
292 297 297 298 298 298 297 297 297 298 297 296 299 300 302 304 306 308 308 304 305 311 315 316 316 315 315 315 315 315 316 318 319 318 319 320 321 322 322 323 323 324 325 326 326 327 328 328 329 330 330 331 332 335 339 340 340 343 344 346 348 349 349
292 296 297 296 298 296 291 295 295 298 300 300 300 302 307 307 310 306 303 303 310 313 315 313 314 315 315 314 314 315 316 317 318 318 318 319 320 321 321 322 322 323 323 324 326 327 326 326 328 330 331 330 331 333 335 339 341 339 339 340 343 345 346
291 295 295 296 294 284 285 299 300 300 297 297 298 298 300 306 308 305 310 311 313 313 313 312 312 314 314 315 317 318 316 316 317 318 319 318 319 320 320 320 320 321 322 324 325 327 327 327 328 329 333 331 331 333 334 336 339 338 338 338 338 340 343
293 294 296 289 283 285 301 301 302 302 301 300 299 300 304 307 311 311 311 312 313 313 314 313 314 315 317 318 317 317 318 318 317 317 318 318 319 319 319 319 320 320 321 322 323 324 327 327 327 329 329 331 332 332 332 334 337 337 336 336 336 338 338
296 292 290 280 285 298 299 299 301 306 303 302 300 301 304 309 311 311 310 311 312 312 313 315 316 316 317 317 318 317 318 317 315 317 316 316 317 318 320 319 320 319 320 322 324 324 327 323 323 325 330 331 331 331 332 333 334 334 334 334 334 336 336
289 292 291 291 298 299 298 301 301 299 297 299 298 293 299 309 311 311 311 311 311 312 313 315 316 317 316 314 313 318 317 317 316 315 314 315 314 316 320 320 319 319 318 319 322 328 323 322 322 323 325 333 332 331 330 332 332 331 331 331 333 335 335
298 290 287 290 288 286 292 302 305 304 304 304 303 300 298 308 311 312 311 309 310 311 311 312 311 313 310 307 308 314 316 316 315 316 315 314 313 312 314 317 318 318 319 318 318 325 323 321 320 322 326 330 330 329 329 329 331 329 329 329 332 335 334
293 291 286 286 286 293 300 301 304 304 304 304 304 295 290 303 309 312 311 310 309 309 308 309 310 305 301 302 307 312 315 314 314 313 312 313 313 313 314 314 314 316 320 322 321 320 319 318 318 320 326 328 328 327 328 328 331 330 329 329 331 331 333
294 292 288 286 296 292 302 305 302 302 304 306 298 285 287 302 305 310 311 310 309 309 308 307 306 303 301 301 304 311 312 311 312 312 311 311 312 312 314 314 315 319 321 318 316 316 317 317 320 320 322 324 329 328 326 327 326 328 330 330 331 330 331
291 294 290 292 296 303 307 303 302 301 304 300 287 281 294 308 308 310 309 308 308 308 307 308 304 306 307 306 308 310 310 310 310 311 312 312 311 311 312 315 324 316 316 316 316 316 317 318 319 320 321 323 324 327 326 324 324 325 330 331 333 333 331
288 291 287 287 297 305 305 303 303 305 303 287 287 302 311 308 307 309 310 308 307 307 307 307 306 306 309 310 309 309 308 308 309 310 311 311 311 311 318 323 319 315 316 316 315 315 315 318 320 320 320 322 322 323 321 323 323 324 332 330 331 330 331
291 292 289 286 284 300 312 306 305 308 297 299 308 308 308 309 308 309 309 309 309 308 306 308 307 307 307 307 307 308 308 309 309 310 311 310 310 310 311 312 316 316 314 314 313 313 316 319 319 319 320 320 321 322 319 323 325 326 332 332 330 329 331
286 286 285 286 298 303 311 307 299 306 307 309 309 307 304 308 308 307 307 307 308 309 307 306 307 306 307 308 308 308 308 309 310 311 311 312 311 311 312 314 315 317 312 313 313 314 317 319 319 320 319 319 321 322 320 322 324 326 326 325 326 329 333
296 294 296 300 307 306 308 310 309 310 313 313 314 310 308 306 306 309 307 307 308 309 308 307 306 304 305 306 308 307 306 308 308 309 310 311 311 311 312 313 317 313 311 313 314 315 316 317 317 319 318 317 319 319 319 322 323 322 324 325 327 330 327
308 307 305 308 308 307 308 311 311 311 310 312 312 311 307 308 309 309 308 308 308 308 309 305 304 305 306 306 306 307 307 308 310 313 311 311 312 312 313 313 313 315 314 314 314 314 315 315 315 318 317 316 315 317 319 321 320 320 323 324 324 324 326
294 290 303 303 306 307 308 309 312 312 313 311 311 309 309 308 309 309 311 311 310 309 309 309 307 306 306 306 307 308 307 309 310 310 311 311 312 312 312 313 316 314 315 314 314 314 314 315 315 316 315 317 318 318 319 319 319 319 320 323 324 324 324
295 299 305 305 309 308 309 308 308 309 310 310 311 310 310 310 310 310 310 310 309 309 308 309 307 308 306 307 307 307 308 309 310 310 311 311 311 312 312 314 315 313 313 311 312 313 314 314 315 315 316 316 317 318 319 320 319 319 321 322 322 322 323
301 304 307 309 308 307 309 310 311 310 310 308 307 309 309 309 309 308 309 309 309 308 307 308 308 307 308 310 308 308 308 309 310 310 311 311 310 310 311 312 314 312 312 312 313 313 314 314 314 315 315 316 318 317 318 319 319 319 319 322 323 322 322
297 298 301 306 298 298 303 306 308 311 313 311 309 308 308 308 308 308 307 308 309 308 308 308 308 308 308 308 310 309 309 308 309 310 310 309 310 311 311 311 311 311 313 312 312 314 313 314 314 314 314 315 316 317 317 318 319 318 320 320 319 320 321
297 304 308 306 306 304 307 308 311 311 312 310 311 311 310 308 310 309 308 306 307 307 309 309 309 308 308 309 309 308 308 310 309 310 309 310 310 310 309 309 309 310 310 314 314 313 313 314 314 314 315 316 315 317 317 318 319 319 318 318 319 318 321
308 310 309 310 307 305 308 311 311 312 313 311 310 312 312 312 310 311 309 309 307 307 307 308 308 309 307 308 308 306 308 309 309 309 310 310 309 309 310 309 309 310 312 312 312 312 311 313 313 314 315 316 317 317 317 318 318 317 317 318 316 317 318
306 312 312 311 310 309 311 311 312 312 313 314 312 312 312 313 313 314 312 312 312 309 307 307 308 309 308 308 308 308 307 308 310 310 313 313 309 310 310 310 310 311 310 310 310 310 311 312 314 316 316 317 318 319 318 318 318 316 317 317 317 317 318

ECMWFFLT2_sfc_thetae_108.txt.gz
Theta_e
306 305 308 309 304 295 297 302 297 298 302 304 298 303 307 307 304 300 308 305 311 317 318 320 324 326 328 330 331 332 332 333 333 333 334 335 337 339 340 341 340 342 342 343 343 343 345 344 338 339 344 347 347 347 349 349 348 352 352 350 352 352 353
306 306 307 307 304 301 296 294 295 302 304 304 298 292 297 297 296 298 307 304 305 308 305 320 320 322 325 328 328 329 330 331 330 332 334 335 337 339 341 342 342 342 342 342 345 344 346 345 348 348 346 347 348 349 349 349 349 350 353 351 352 352 353
303 304 303 303 305 303 298 296 301 298 295 297 297 295 289 293 294 298 304 306 306 306 304 314 316 320 322 324 326 325 327 329 330 331 333 335 338 340 341 342 344 345 342 342 344 347 350 348 350 350 352 351 349 349 350 351 350 351 354 354 353 354 354
300 299 298 293 296 300 305 302 298 301 297 295 295 294 294 301 295 298 298 304 301 309 310 315 316 321 322 321 322 323 326 327 328 331 332 332 332 333 336 340 344 346 346 347 347 347 346 348 350 350 351 352 352 352 351 351 352 351 353 354 354 354 354
300 293 295 294 295 295 295 295 294 298 298 299 298 298 295 298 297 298 297 294 298 307 317 318 318 320 323 321 320 321 323 325 327 328 329 329 330 331 332 337 342 344 345 346 347 347 350 352 353 352 352 350 350 352 352 354 352 352 353 355 356 355 355
292 293 297 300 299 296 296 293 293 295 295 295 291 290 302 303 300 294 296 293 303 314 321 319 321 323 323 324 321 321 322 324 325 327 328 329 329 330 331 338 342 342 343 345 347 349 349 349 351 352 352 350 350 351 351 352 353 353 354 355 357 357 357
291 296 299 303 303 302 299 297 297 298 295 294 291 287 296 304 304 307 302 298 301 316 321 323 324 325 325 325 323 321 321 323 325 326 327 328 329 329 331 333 341 343 343 344 346 346 347 349 349 351 348 346 347 349 351 352 352 353 354 355 357 357 356
296 298 301 302 302 300 298 297 298 297 296 298 295 293 299 300 304 301 298 297 303 316 321 322 322 326 325 324 322 320 321 322 323 325 326 327 328 329 330 332 337 341 342 343 343 343 344 345 347 348 350 348 348 349 350 350 350 353 354 354 356 353 353
288 291 293 295 299 297 295 295 295 299 299 302 301 303 301 299 301 303 299 294 303 314 321 322 323 324 325 322 322 322 320 321 323 324 325 326 327 327 328 329 330 335 338 339 339 341 342 343 345 346 347 347 347 349 351 350 350 352 353 354 353 351 351
281 282 281 286 289 291 295 298 298 299 299 299 299 298 296 291 301 303 300 300 307 313 317 318 320 322 321 322 322 322 322 321 322 323 324 325 326 326 327 327 328 328 329 333 338 340 341 343 344 345 345 347 347 349 350 350 351 352 354 353 352 349 349
287 289 289 294 303 295 292 295 299 298 299 302 301 298 296 295 299 299 303 306 306 308 312 314 317 322 319 318 320 320 320 321 322 322 323 325 325 326 326 327 326 327 328 329 330 333 340 342 343 345 347 347 348 349 351 352 353 353 354 353 352 349 349
294 296 296 297 299 294 295 296 295 297 297 301 300 299 298 302 302 292 304 308 305 307 312 314 316 318 319 319 320 320 320 320 321 321 323 326 324 325 325 325 325 325 326 328 330 331 332 335 342 344 345 347 348 349 349 349 350 351 353 354 351 349 349
296 297 297 296 296 295 296 295 296 295 295 298 299 301 305 304 300 298 305 307 306 309 312 315 316 317 318 319 320 321 321 321 321 321 321 321 322 324 325 325 325 324 325 326 327 328 330 331 332 337 343 344 346 346 346 346 347 347 349 352 352 350 348
296 296 296 297 295 294 295 295 296 295 297 298 303 305 307 306 304 308 308 307 308 311 312 315 316 317 319 320 321 321 320 319 319 320 320 321 322 322 323 324 325 324 324 325 326 328 328 330 331 332 333 336 341 343 344 345 345 347 348 352 350 350 350
293 296 297 295 295 294 293 293 294 295 296 303 306 307 309 310 308 309 309 307 307 313 315 314 314 317 318 319 318 318 318 319 319 319 319 320 320 321 323 324 324 325 325 325 326 327 328 328 329 330 332 334 337 338 339 341 343 346 347 347 348 349 349
289 293 294 294 295 294 292 292 293 294 293 294 300 305 309 307 304 306 306 304 304 309 313 314 314 315 315 314 314 315 317 319 319 318 318 318 318 319 321 322 322 324 325 324 323 324 326 328 329 329 330 332 334 336 337 338 341 344 344 344 343 344 346
287 292 294 294 292 288 287 289 291 295 296 297 295 305 311 310 310 305 303 303 308 310 314 312 312 313 313 314 314 314 315 317 318 318 317 317 317 318 319 320 321 321 323 324 323 323 324 326 328 329 331 331 332 334 336 337 338 339 339 341 341 342 343
287 292 293 293 287 281 283 291 296 298 296 296 297 304 308 311 312 308 310 309 311 312 312 311 311 312 313 314 315 317 316 315 316 317 317 316 317 317 317 318 318 319 321 322 324 323 322 325 329 330 332 331 332 335 335 335 334 334 335 336 337 337 341
287 291 291 286 281 282 292 296 298 301 298 303 302 305 309 310 309 311 310 310 311 312 313 313 313 314 315 316 316 316 317 317 316 316 316 315 316 315 315 315 316 317 319 320 320 319 321 323 324 328 328 329 330 331 331 330 331 331 333 333 334 334 335
290 288 286 279 280 289 297 297 298 305 300 306 306 303 305 310 311 311 310 310 311 312 313 316 316 315 315 315 317 317 317 318 317 316 316 316 316 315 315 315 314 314 316 319 319 318 322 318 319 323 327 329 329 329 330 329 328 329 329 330 331 333 332
285 288 287 286 292 294 293 295 295 295 296 299 302 295 300 306 311 312 310 310 311 313 314 315 316 317 314 310 310 316 317 317 318 318 317 318 317 316 315 314 313 314 315 319 320 318 317 319 320 322 327 328 327 328 328 328 327 327 327 327 328 329 330
291 285 281 283 282 283 288 296 301 301 303 304 307 305 299 305 308 312 311 310 311 313 314 314 314 313 308 304 305 311 314 314 312 314 317 317 315 314 314 314 315 316 316 316 318 316 317 318 319 323 326 326 325 325 326 326 326 326 326 326 326 327 327
287 285 280 282 280 286 293 297 300 300 300 304 306 303 296 301 308 310 312 311 311 312 312 312 313 309 303 302 305 309 310 309 312 312 312 312 312 312 312 313 315 316 317 317 317 317 316 316 318 320 322 325 324 323 324 322 324 325 325 326 325 326 326
290 287 282 283 290 289 297 300 299 298 299 298 300 292 291 296 306 310 310 310 309 311 312 312 310 307 302 300 303 308 309 309 310 310 309 309 310 312 314 315 315 316 316 315 315 315 315 315 318 320 321 322 326 323 322 321 320 320 324 326 327 326 326
288 291 285 288 291 298 303 301 301 302 304 293 285 282 289 301 304 308 311 310 310 310 308 308 302 303 305 305 306 308 309 308 307 308 309 310 312 313 314 316 320 313 312 313 313 314 315 316 317 319 320 321 321 321 320 318 320 321 323 327 327 325 325
285 284 283 284 289 297 302 301 307 306 299 286 282 292 303 305 304 305 307 306 306 306 305 304 303 304 306 308 307 307 307 307 307 307 309 310 312 315 320 321 316 311 312 311 313 315 315 317 318 318 319 320 320 318 316 316 318 321 322 323 323 323 323
285 284 283 285 283 294 306 303 300 304 290 290 296 303 304 306 304 305 306 306 305 306 303 304 304 305 305 306 306 307 307 307 306 307 308 308 309 309 310 311 316 313 310 311 312 313 315 316 316 317 317 319 319 316 314 315 318 320 321 321 322 324 329
279 281 281 282 289 296 305 300 294 302 303 306 305 303 301 304 304 304 303 304 304 305 304 303 304 304 304 305 306 306 307 307 307 308 308 309 310 310 311 312 313 316 311 312 312 313 313 314 314 315 315 316 318 316 312 316 318 320 319 319 321 323 325
291 289 290 296 299 302 306 307 304 307 309 308 306 305 304 303 303 305 303 303 304 304 304 304 304 303 304 305 306 306 306 307 307 307 308 308 309 309 310 312 315 312 311 311 312 312 312 312 312 313 313 313 315 313 313 318 318 316 318 319 320 321 321
299 300 299 303 304 305 306 307 306 307 306 307 307 306 305 305 305 305 303 303 303 303 304 303 302 303 304 304 305 305 306 307 308 309 308 309 309 309 309 310 313 312 312 312 312 312 312 313 312 315 313 311 312 312 315 318 317 316 318 319 320 320 321
291 289 297 300 302 304 305 306 307 307 306 305 306 305 305 306 307 306 306 306 304 303 303 303 302 303 304 304 305 306 307 307 306 307 307 307 308 308 308 312 314 311 311 311 312 312 312 312 312 314 312 313 314 315 317 317 317 316 317 318 320 320 318
289 293 300 301 304 305 306 305 304 303 303 305 306 306 307 307 308 308 307 306 305 305 304 304 303 304 305 304 304 305 306 306 307 307 307 307 306 307 309 312 311 309 308 308 310 311 311 311 311 312 313 312 313 314 314 315 316 315 318 318 318 316 317
295 300 300 302 302 303 304 306 306 304 304 304 304 305 306 306 306 306 306 307 306 305 304 304 304 303 304 305 305 306 305 306 306 306 306 306 307 307 308 309 310 306 310 310 310 312 310 310 310 311 312 313 314 314 314 315 315 315 316 320 318 315 316
291 294 297 301 294 295 300 304 306 306 307 304 304 304 304 304 304 305 305 305 306 306 306 305 305 304 303 305 306 305 306 306 306 306 306 307 307 307 308 310 307 309 313 309 311 311 309 309 310 312 312 313 314 316 316 316 315 314 318 318 316 314 315
290 298 302 303 299 300 303 305 306 308 308 305 304 303 303 303 304 304 304 304 304 304 305 306 306 305 305 305 305 305 306 306 306 306 306 306 305 305 306 305 306 306 308 313 311 310 309 311 311 312 312 314 314 316 317 316 316 315 314 316 318 316 318
302 304 305 305 303 301 304 306 306 307 309 307 307 307 308 306 306 305 304 304 304 303 304 305 306 306 306 306 306 305 305 305 305 306 306 306 305 306 306 304 306 310 310 309 309 309 308 310 310 311 313 314 315 316 316 316 316 316 315 315 314 314 315
300 305 306 307 305 306 308 307 307 309 311 311 308 309 310 309 311 311 307 304 304 304 304 305 305 307 307 306 306 306 305 305 307 307 309 309 307 306 306 307 309 309 309 307 306 306 308 310 311 313 312 314 314 315 314 314 314 314 315 315 315 314 315

ECMWFFLT2_sfc_thetae_111.txt.gz
Theta_e
303 305 306 306 303 294 298 304 300 303 306 302 297 304 308 308 303 298 307 306 309 315 318 322 326 327 327 330 333 334 334 334 333 333 335 336 338 339 341 341 338 338 339 339 336 334 335 337 339 340 342 344 344 344 346 345 345 347 346 348 348 348 348
304 304 303 303 302 302 297 298 301 302 303 303 298 293 296 295 295 300 307 304 306 307 304 321 322 322 323 326 328 330 331 332 331 333 335 337 337 340 342 344 343 339 340 342 342 339 336 336 338 339 342 345 345 345 346 345 345 347 346 347 348 349 349
301 300 304 301 303 301 298 297 300 299 295 294 295 298 291 292 294 298 303 306 306 304 303 316 317 318 320 323 327 328 328 330 331 333 335 338 339 340 341 342 341 340 340 341 342 343 345 344 343 339 342 345 345 345 346 346 345 348 348 348 349 350 351
299 296 298 294 295 301 300 299 298 298 296 294 293 295 295 299 295 298 299 305 300 308 308 317 316 320 320 322 325 326 329 330 331 332 334 335 336 338 341 341 342 343 343 345 345 343 345 347 346 346 343 345 345 345 348 347 347 348 349 348 350 349 351
297 295 293 292 293 293 297 298 292 297 297 298 297 296 298 297 296 296 297 296 301 305 315 319 319 321 323 324 324 325 327 329 332 331 330 330 332 335 341 343 344 345 345 348 347 347 349 351 351 350 348 345 345 346 347 349 347 348 350 350 349 349 350
290 291 294 296 295 296 296 292 295 296 294 293 290 291 297 302 298 292 296 295 302 312 321 321 321 323 323 325 324 324 326 327 328 330 331 330 332 337 341 343 344 345 346 347 348 348 348 349 349 348 349 349 348 347 348 349 349 349 350 351 351 351 351
292 295 297 299 299 296 295 296 297 295 293 293 288 285 292 302 302 304 298 296 299 315 321 323 322 322 322 323 323 322 325 325 327 329 332 332 334 338 340 341 342 344 345 346 347 347 346 348 347 347 345 346 348 349 350 351 350 349 352 353 353 352 352
294 295 296 299 299 296 296 294 294 296 294 293 292 289 298 299 300 297 295 296 303 315 322 322 322 322 323 323 323 323 324 325 327 328 329 330 332 335 338 342 342 343 343 344 344 343 343 344 345 346 345 345 347 349 349 349 351 353 353 353 355 354 353
287 287 290 292 297 296 293 294 294 297 300 303 300 302 300 300 300 300 297 293 302 314 321 321 321 321 320 321 323 324 323 325 326 327 328 329 330 331 334 336 339 340 339 339 339 339 341 342 343 344 345 346 347 347 349 350 351 352 352 352 350 348 348
281 282 281 284 288 290 293 296 296 297 306 305 303 299 295 291 299 300 298 300 308 315 319 319 320 319 318 320 321 323 323 324 325 325 326 327 328 328 328 329 332 332 335 339 340 340 341 342 343 344 345 345 344 346 347 350 350 351 351 352 349 347 346
285 285 286 291 301 292 291 294 293 296 300 302 301 298 295 293 297 298 301 306 307 310 314 315 316 316 315 316 319 320 321 323 324 325 325 325 325 327 327 328 330 332 332 334 338 340 340 342 342 343 344 344 345 348 348 348 347 349 349 349 350 348 347
293 292 293 294 298 293 292 293 294 294 297 302 302 300 296 301 301 293 304 310 307 309 313 314 315 316 316 317 318 319 321 322 323 323 324 326 325 325 326 327 328 328 329 331 333 338 340 342 343 344 346 346 347 347 347 349 350 351 350 349 349 348 348
295 294 293 293 293 293 294 292 293 295 296 300 301 299 304 305 300 298 305 309 308 310 313 315 315 316 316 316 317 319 321 322 323 322 322 322 322 323 324 324 326 327 327 329 330 332 333 335 337 341 344 345 345 344 345 345 346 346 348 350 349 347 346
293 294 294 292 292 292 291 292 292 296 300 301 304 304 305 303 301 306 309 308 309 312 314 316 317 318 318 318 319 320 320 320 321 321 321 321 322 322 323 323 324 325 326 327 328 330 331 332 334 336 338 340 341 342 342 343 344 345 349 349 349 347 346
291 294 295 293 291 291 290 291 292 296 304 306 306 307 308 309 307 309 308 307 307 313 317 317 319 320 320 319 318 318 318 319 320 320 320 321 321 322 323 324 324 325 325 326 327 328 329 330 331 333 335 336 337 338 339 340 341 343 345 345 347 347 347
288 291 292 292 291 290 289 290 291 291 294 302 304 304 307 305 304 306 307 304 305 311 317 317 318 318 317 316 316 317 318 319 319 318 319 319 320 321 322 322 322 323 323 324 325 327 328 330 332 332 333 333 334 334 337 338 340 341 341 341 341 341 343
285 290 292 292 288 286 286 288 290 292 296 298 305 307 310 310 310 306 304 305 311 313 316 314 315 316 316 315 316 316 318 318 318 318 317 318 319 320 321 322 321 321 321 322 324 327 329 330 331 332 333 332 332 332 333 336 337 337 337 338 338 338 339
285 290 292 292 284 280 282 289 293 296 300 305 304 304 307 311 311 308 311 310 311 313 314 314 314 315 314 315 317 319 318 317 317 318 318 317 318 319 320 320 319 318 318 318 321 324 327 329 331 331 332 330 330 332 332 332 332 332 333 333 333 334 336
286 290 290 288 280 281 289 295 296 296 295 307 306 307 308 308 309 309 308 309 310 312 314 315 315 315 315 317 318 318 319 318 317 316 316 316 317 316 316 316 317 316 315 315 317 320 323 328 328 329 328 328 327 328 328 328 329 328 328 329 329 330 332
289 287 284 280 281 288 294 295 296 302 306 308 308 304 304 304 309 310 308 309 311 312 313 314 314 314 315 316 317 317 317 318 316 315 315 315 315 314 314 314 315 315 315 315 316 318 325 324 326 327 326 328 327 326 327 326 326 326 326 326 327 329 329
285 287 286 286 290 291 292 293 296 295 294 303 305 298 299 303 309 310 309 309 311 312 313 313 314 315 315 312 311 316 317 316 316 316 315 314 312 312 312 314 314 315 316 317 320 321 320 322 324 324 325 326 327 327 326 326 325 325 325 325 325 327 328
291 287 284 283 282 281 285 293 297 301 299 297 301 303 298 303 310 311 311 310 310 311 312 312 313 314 310 306 307 313 316 316 315 315 313 312 312 313 313 314 314 314 315 317 319 318 318 318 319 322 323 324 323 322 321 321 321 322 324 324 325 326 325
288 285 281 283 282 286 293 296 299 300 298 298 303 301 295 300 306 313 313 311 311 311 311 311 313 310 305 304 307 309 313 315 314 310 310 311 312 313 314 314 314 314 315 317 317 317 316 316 317 320 321 321 320 319 319 318 318 318 319 322 323 323 324
289 284 282 284 288 289 297 297 299 300 302 303 302 292 290 299 302 309 312 311 311 311 312 312 311 308 304 304 305 309 314 312 310 309 310 311 312 312 313 314 314 316 317 315 314 314 314 315 318 319 319 320 322 318 317 317 316 317 318 319 321 321 322
288 290 282 286 289 296 299 299 299 300 302 296 290 286 296 301 302 308 313 312 312 312 309 308 302 302 305 307 307 310 309 308 308 310 312 312 312 312 313 315 319 313 313 314 313 313 313 315 317 319 319 316 316 317 315 314 316 316 317 319 320 321 324
284 282 282 282 286 292 297 300 301 302 297 287 284 293 297 301 304 309 311 311 312 311 309 308 309 309 309 311 308 308 307 308 309 311 312 313 314 315 317 318 315 312 312 312 312 312 313 315 317 317 317 317 315 313 312 313 314 316 317 317 318 320 322
283 280 281 282 282 294 303 302 297 300 292 287 288 297 302 303 306 309 310 311 310 310 307 309 308 309 311 310 309 309 308 308 308 308 308 308 308 309 310 312 315 313 310 310 311 311 312 313 314 314 316 316 315 312 310 312 315 316 318 317 318 319 321
279 280 281 281 287 293 300 299 292 297 300 299 300 299 299 302 304 307 308 309 310 309 307 307 307 308 308 306 307 306 306 307 307 307 307 307 308 309 310 312 312 315 310 310 310 310 311 312 312 312 313 314 315 313 309 312 315 317 315 316 317 319 321
289 288 283 288 294 297 302 302 301 304 304 304 303 302 301 301 301 302 303 303 305 308 307 306 305 304 304 304 305 305 305 306 307 306 307 307 308 309 310 311 314 312 310 309 309 310 310 311 311 311 310 312 313 312 311 315 317 314 315 317 318 318 317
296 296 296 299 301 302 303 303 304 304 304 304 303 303 301 300 301 301 301 302 303 303 305 304 304 304 304 304 305 305 306 306 306 308 306 307 308 309 310 310 311 310 309 309 309 309 309 310 311 312 309 310 311 310 312 314 314 313 316 317 316 317 316
290 289 294 298 300 301 302 302 302 303 304 304 303 302 302 302 302 302 302 303 304 306 308 306 304 303 305 304 305 306 306 306 306 306 306 306 307 308 308 311 312 308 309 308 310 310 309 308 309 311 309 311 311 311 313 313 313 313 314 317 317 316 313
289 290 295 299 301 301 303 302 300 300 302 303 305 304 303 303 303 303 303 304 306 308 308 307 308 309 309 307 305 305 305 305 306 305 305 305 306 307 308 309 308 306 305 306 308 309 308 307 308 310 311 311 312 312 314 314 312 311 315 316 315 312 313
294 297 298 299 301 301 303 304 304 304 303 302 304 304 304 304 303 302 302 304 304 305 305 306 306 305 305 306 305 305 305 305 304 304 305 306 306 306 306 307 309 305 308 309 308 309 307 307 308 310 311 312 313 313 314 314 313 313 316 317 316 313 313
289 291 295 297 295 294 299 302 303 305 305 302 302 303 303 303 302 302 302 302 303 303 304 304 304 303 303 304 305 305 305 304 304 304 305 305 304 304 306 307 307 310 310 308 308 309 306 306 309 312 311 312 312 314 313 313 314 315 316 316 314 313 314
289 294 299 299 296 298 300 302 304 305 306 305 306 305 303 302 303 303 303 301 301 302 303 305 305 304 304 304 305 305 305 304 305 305 305 304 304 304 304 304 305 307 308 310 310 309 306 310 311 312 312 311 311 312 312 312 312 312 312 315 313 312 315
300 300 302 301 299 299 301 303 304 305 307 306 306 307 307 306 306 304 303 303 302 301 302 303 305 305 305 305 305 304 304 304 304 304 304 305 304 305 305 305 308 309 308 308 308 309 307 309 309 309 310 310 310 311 311 310 310 310 310 311 310 310 312
300 302 303 303 303 304 305 304 305 306 308 309 307 307 308 309 308 307 304 304 304 303 302 303 303 306 306 305 306 305 305 304 306 306 307 307 306 304 304 307 308 308 308 307 306 306 307 308 309 310 308 308 309 310 309 309 309 309 309 309 309 309 312

ECMWFFLT2_sfc_thetae_114.txt.gz
Theta_e
301 301 302 301 313 299 302 307 302 304 307 304 298 304 305 305 300 297 304 304 308 314 318 325 329 328 327 328 330 332 331 333 333 333 335 336 337 338 338 329 327 329 331 332 334 335 337 338 338 339 342 343 343 344 344 344 344 346 346 347 346 347 347
301 301 302 303 306 307 304 301 306 303 305 303 298 293 292 292 292 295 302 301 303 306 304 322 324 324 326 327 328 330 331 332 331 332 334 336 336 338 341 340 336 332 332 333 334 336 337 338 338 339 342 343 344 345 345 344 344 344 345 346 346 347 347
301 300 302 299 301 301 310 308 310 302 295 297 295 298 289 290 291 294 299 303 303 305 306 316 318 321 323 326 328 328 328 329 330 332 334 337 338 339 340 339 338 336 333 333 334 335 337 339 341 340 341 344 344 345 346 345 344 345 346 347 347 348 348
296 297 296 292 294 299 300 304 299 300 297 293 294 297 296 298 294 295 296 300 297 307 309 317 317 322 324 326 326 327 328 330 331 332 334 336 337 338 340 340 340 340 339 335 335 335 336 338 339 340 341 344 344 344 347 346 347 347 347 347 349 348 348
296 294 292 293 292 293 295 298 295 297 295 298 298 295 298 297 294 293 291 291 298 305 314 318 320 322 325 327 326 328 329 331 333 335 336 336 337 338 340 341 340 342 344 345 343 341 340 341 341 341 341 343 344 345 345 347 345 346 347 347 348 348 349
291 289 292 295 295 299 298 296 295 293 292 293 293 290 296 301 296 291 292 291 301 311 320 321 322 324 326 328 328 327 330 332 332 332 332 334 336 340 342 344 344 344 344 345 347 348 347 345 345 341 341 343 345 345 346 348 347 347 348 348 348 349 350
291 294 296 297 296 296 295 297 296 293 292 293 289 287 291 300 300 302 296 292 296 313 319 323 323 324 325 325 326 325 327 330 331 332 334 336 339 341 342 342 342 344 345 345 345 346 346 346 346 345 344 344 345 347 349 350 348 348 350 351 350 351 350
291 293 294 297 296 295 297 294 293 294 293 292 291 290 297 298 299 296 292 293 299 315 324 323 323 323 323 324 325 324 326 328 330 331 333 334 336 339 340 341 342 344 345 346 344 344 344 344 344 345 346 347 348 348 348 350 349 350 351 353 353 352 351
286 287 290 292 294 294 292 292 292 296 298 298 296 300 299 299 299 297 296 291 299 314 322 321 322 322 322 322 324 326 324 327 328 329 331 333 335 337 338 339 340 342 342 342 342 343 343 343 344 345 346 347 347 347 347 349 351 353 353 354 354 353 352
281 281 282 285 287 288 290 294 295 300 303 303 303 300 295 290 298 297 294 295 306 316 319 319 320 321 321 322 324 326 327 326 326 327 329 331 332 332 335 338 339 339 340 340 341 341 342 343 343 344 344 345 347 348 349 350 352 353 354 354 354 353 353
282 283 285 290 299 291 291 293 294 299 301 302 301 298 295 293 295 298 298 304 307 311 314 316 317 319 319 320 322 322 324 325 326 327 328 329 329 330 330 330 332 335 337 338 339 340 341 342 343 344 344 344 346 347 348 349 350 351 351 352 351 352 352
292 290 291 292 297 290 291 292 294 295 300 301 302 299 294 297 300 291 301 309 309 310 314 316 316 317 319 321 322 323 324 324 325 326 327 329 328 329 330 330 332 333 335 337 338 340 341 340 342 343 344 346 346 346 346 348 349 351 350 349 349 349 349
295 293 291 291 290 290 291 290 291 297 297 301 301 298 301 305 298 296 302 309 309 312 315 316 316 316 318 321 322 324 325 324 325 325 324 324 325 326 327 328 330 331 332 332 334 337 340 341 341 342 344 344 344 345 345 345 347 347 349 348 346 346 346
292 292 293 291 289 290 290 292 296 300 299 300 301 303 304 303 300 300 308 309 311 315 316 316 317 319 321 322 323 323 322 322 322 323 323 324 324 324 325 327 328 330 331 332 333 334 336 339 340 341 342 341 341 340 340 342 343 346 347 346 346 345 344
291 292 294 293 290 289 290 290 291 294 303 305 306 306 307 309 307 309 310 309 309 316 318 317 318 320 321 321 321 321 321 322 322 322 322 323 324 324 325 326 327 328 330 331 332 332 333 335 336 336 337 338 338 338 339 340 340 343 344 343 343 343 343
288 290 291 292 290 288 289 289 290 291 292 302 303 303 306 305 305 307 308 306 307 314 317 317 317 318 319 319 319 319 320 322 322 321 321 323 324 324 324 325 326 328 328 329 330 331 332 333 334 334 334 334 334 335 337 338 340 340 339 339 339 340 342
287 291 292 291 287 286 287 287 289 291 294 296 303 306 311 310 311 307 305 307 314 315 317 314 314 316 317 318 318 318 319 320 321 320 321 321 323 324 325 325 326 327 329 329 329 329 330 330 331 332 332 331 331 332 333 335 336 336 337 337 338 338 339
285 289 291 292 286 281 284 291 293 293 296 303 303 304 306 311 310 307 309 312 316 316 315 314 313 315 316 317 318 320 319 318 318 319 320 321 322 323 322 322 323 325 327 327 327 328 328 329 330 330 331 329 329 330 330 331 331 332 331 333 334 334 335
286 288 288 287 282 283 292 294 295 295 293 304 304 304 303 302 306 310 312 314 315 316 316 316 316 317 318 319 318 319 319 319 318 318 318 319 319 318 318 319 322 322 323 325 325 326 328 328 327 327 327 328 327 327 327 327 328 328 328 329 329 331 332
289 285 283 278 281 289 293 293 297 303 302 304 306 304 304 303 304 311 312 314 315 316 316 317 317 317 317 318 318 318 319 319 318 317 317 317 317 316 318 318 320 321 322 323 324 325 329 327 327 328 327 328 327 326 327 327 327 327 327 327 328 329 329
287 286 283 286 289 290 291 292 295 295 292 293 298 297 300 304 306 311 312 313 315 315 316 315 316 317 317 314 313 317 317 316 317 318 317 317 315 316 317 318 318 320 322 322 323 324 323 324 324 325 325 324 323 322 321 322 322 323 324 324 326 327 329
291 287 284 282 280 280 285 292 295 298 298 299 298 301 299 304 308 311 313 312 314 314 314 314 315 316 312 308 309 314 315 315 313 313 313 314 315 316 316 317 318 319 320 320 322 321 321 321 322 322 322 321 320 319 319 319 319 320 321 321 324 326 326
286 288 285 283 282 284 289 293 297 299 299 300 299 301 295 301 305 312 313 313 313 313 313 313 315 312 308 308 310 313 313 312 312 311 312 314 314 315 316 317 316 316 317 318 319 320 320 319 320 321 320 319 318 318 318 317 318 317 318 320 321 323 325
288 285 286 286 287 289 296 296 298 300 299 300 302 293 291 300 304 311 312 312 313 313 314 314 313 311 307 308 310 313 313 311 311 312 312 312 313 314 316 316 317 318 320 318 316 317 317 318 319 318 319 319 320 316 316 317 316 317 318 319 321 323 324
289 289 283 287 291 297 300 299 300 302 301 301 293 288 295 302 303 310 312 312 313 314 314 314 311 303 307 313 314 313 310 310 310 312 313 313 314 313 314 316 319 314 314 314 314 315 316 317 318 317 316 315 316 317 316 315 316 317 318 320 321 322 323
283 282 284 283 288 295 299 302 303 303 297 291 286 293 298 301 307 311 313 311 312 312 309 305 305 307 311 312 309 308 309 309 311 311 311 312 313 315 318 318 315 312 312 312 312 313 314 316 317 316 316 316 315 314 314 314 316 317 318 319 321 322 322
282 280 280 282 282 294 302 302 299 302 295 289 290 295 300 302 310 311 311 311 309 308 305 307 307 308 308 308 308 309 310 310 310 311 311 311 312 312 312 312 315 313 310 310 311 311 312 313 314 316 317 316 314 313 312 313 315 318 319 319 320 321 321
280 280 282 282 288 295 301 300 295 298 301 301 299 299 301 304 309 311 309 309 309 308 307 307 308 308 308 308 310 310 311 311 311 311 311 311 311 311 312 312 312 313 310 310 310 311 312 313 312 314 316 316 316 314 312 315 317 319 317 318 319 320 321
288 288 284 289 293 297 301 302 301 302 304 303 303 301 301 304 306 306 311 309 309 310 310 310 309 309 309 309 311 310 310 310 310 309 309 310 310 311 311 312 314 311 310 309 310 310 311 312 312 313 314 315 316 313 313 317 316 316 318 320 320 318 317
294 295 295 298 300 301 302 303 303 302 302 303 303 303 303 301 302 305 310 308 308 310 312 310 309 310 311 310 310 311 311 309 309 310 309 309 311 311 311 311 312 310 310 310 310 310 310 311 312 314 313 314 314 313 315 316 315 315 319 320 321 318 317
289 288 294 298 298 300 302 302 304 304 304 302 302 301 300 302 304 304 306 306 306 307 309 309 306 307 309 307 306 307 307 307 307 307 308 309 310 310 309 311 312 309 310 309 310 311 310 310 312 313 313 314 314 315 315 315 315 316 321 321 320 318 315
290 291 295 298 300 301 302 302 302 302 303 302 303 302 302 302 304 305 308 308 307 308 307 306 305 306 307 306 305 305 305 306 306 307 308 308 309 310 310 311 310 309 309 309 310 311 310 310 312 313 313 313 313 314 315 315 315 318 320 320 316 315 315
293 295 298 297 298 300 302 303 304 304 303 301 303 303 302 302 302 303 305 309 309 309 308 309 307 305 306 307 307 306 306 306 306 307 307 309 309 309 308 309 310 308 309 310 310 311 310 310 312 312 312 313 313 313 314 315 316 318 318 317 316 315 316
287 291 296 297 296 293 298 301 302 304 305 305 306 306 305 304 303 302 301 302 305 308 309 308 307 306 306 307 307 306 306 307 307 307 308 308 308 307 308 309 309 311 312 310 311 311 309 310 312 312 311 312 312 313 313 314 315 316 317 315 314 314 317
291 293 294 296 295 296 299 301 303 304 305 305 305 305 306 306 306 303 302 301 302 305 306 309 308 307 307 307 307 306 306 307 307 308 308 307 307 306 307 307 308 309 309 312 312 311 310 312 312 312 311 311 311 311 312 312 313 313 314 314 313 313 316
297 298 299 298 298 300 301 302 303 305 306 306 305 306 307 307 306 305 305 304 302 301 302 305 309 308 307 307 307 306 306 306 306 307 308 307 307 307 308 308 308 309 310 311 311 311 310 312 311 311 311 310 310 311 311 311 311 311 312 312 311 313 315
301 302 300 301 300 301 302 303 304 305 308 307 305 305 307 307 308 307 305 305 305 303 302 302 303 306 307 306 307 306 306 306 307 307 309 309 307 307 306 308 309 309 310 310 310 310 310 310 309 310 309 310 310 310 309 310 310 310 310 311 310 312 315

ECMWFFLT2_sfc_thetae_117.txt.gz
Theta_e
305 306 306 310 316 301 311 313 304 307 318 312 308 308 310 311 307 305 313 311 315 321 322 327 330 328 328 333 333 334 333 336 336 337 339 339 338 335 334 335 336 339 341 342 343 344 345 346 347 348 351 352 353 354 354 356 357 357 356 357 357 359 360
306 307 307 314 314 318 312 306 310 312 315 313 309 302 305 304 300 304 310 308 310 309 309 325 327 325 327 330 331 333 334 336 335 337 339 340 339 338 336 337 339 340 341 343 343 344 345 345 346 348 352 352 354 355 354 355 356 356 356 356 355 357 358
304 306 307 311 310 314 312 309 318 306 303 301 306 308 298 298 298 302 307 309 310 312 312 319 322 323 325 328 330 331 331 334 335 336 340 342 343 342 338 335 337 338 340 342 343 344 346 348 349 349 351 351 352 354 354 353 354 354 355 354 356 357 358
302 305 305 300 304 312 312 318 312 308 310 308 303 306 308 306 300 300 303 307 306 315 316 321 322 325 327 327 328 329 331 333 335 336 339 340 342 344 341 340 338 339 339 340 343 343 346 347 347 348 348 350 351 353 354 354 355 356 356 355 356 356 356
303 299 303 302 305 305 307 310 308 306 305 306 310 308 308 304 303 301 302 300 308 316 320 324 324 327 329 329 328 330 331 334 337 338 339 341 343 344 345 343 340 340 341 341 341 345 346 349 349 347 347 350 350 351 353 354 353 353 354 354 356 356 356
299 302 302 304 308 309 308 309 308 307 304 303 301 300 309 309 304 298 301 299 311 316 323 324 326 328 330 331 331 331 333 334 336 337 338 338 340 344 345 345 343 343 345 344 345 345 345 347 347 346 346 348 351 352 353 355 355 354 355 354 356 358 358
300 300 301 303 303 304 308 311 309 309 308 309 305 297 303 308 308 309 308 303 310 319 324 325 327 329 331 332 332 331 333 335 335 336 338 339 339 342 344 345 345 346 347 347 347 346 346 346 347 349 350 350 352 354 355 355 355 356 357 357 355 359 358
301 302 302 301 301 304 307 306 304 306 305 308 307 307 310 307 308 305 305 302 309 318 327 327 329 331 331 333 333 332 333 335 336 337 337 339 339 341 346 348 348 348 347 349 349 349 349 349 349 349 350 352 354 355 355 356 355 357 357 358 358 359 358
297 299 301 302 303 304 303 304 303 305 306 307 309 313 315 307 309 308 304 298 308 318 325 326 328 329 329 329 332 333 331 333 334 335 338 340 342 342 343 343 344 345 346 347 349 350 351 350 351 352 352 353 354 355 356 356 356 358 357 359 358 357 358
289 290 292 294 298 300 301 301 304 308 307 309 308 305 309 300 310 309 305 306 313 319 322 324 326 327 327 328 328 331 332 331 332 334 336 338 340 340 341 342 342 344 345 347 348 349 350 351 351 353 353 353 354 356 356 357 358 359 359 362 361 361 361
296 297 298 298 303 301 299 299 304 304 310 311 313 315 308 301 309 308 310 313 312 313 317 320 323 326 324 323 326 327 328 330 332 333 334 335 336 339 340 340 342 342 344 345 346 346 348 350 351 351 353 355 355 355 356 358 360 359 362 361 361 360 360
297 297 298 297 297 297 297 298 302 304 308 310 309 305 303 316 308 304 314 315 312 313 316 319 322 324 324 324 325 326 327 328 329 330 331 332 333 336 338 339 340 341 342 344 345 346 347 348 349 349 350 350 351 352 352 353 355 355 354 357 355 357 357
297 297 297 296 298 298 301 304 304 305 306 308 307 310 310 313 305 302 315 316 315 317 317 321 323 324 323 324 325 327 328 328 329 330 331 331 332 333 333 335 339 340 341 342 343 345 346 346 346 348 348 349 350 351 351 351 352 352 352 354 352 350 352
297 298 298 298 298 297 299 300 304 308 306 307 310 310 310 312 313 311 316 317 318 319 319 322 325 326 326 327 329 329 327 327 328 329 331 331 331 330 331 332 334 337 339 341 343 343 343 343 345 346 346 345 345 345 346 347 348 348 350 351 350 348 347
297 298 300 299 298 299 299 300 301 301 308 311 313 312 313 315 314 315 316 317 316 322 324 324 327 327 328 327 326 326 327 327 327 328 329 329 329 329 331 332 333 335 336 338 340 340 341 342 343 341 340 341 343 343 344 345 346 348 351 350 347 346 346
296 298 298 299 297 297 300 300 301 301 300 309 311 312 313 313 313 315 315 314 315 320 323 325 325 326 325 324 324 326 326 328 328 328 328 327 327 328 330 332 332 333 334 333 334 335 336 337 338 338 339 341 340 339 339 341 343 346 348 347 346 345 346
294 297 298 299 299 300 298 297 300 300 300 305 310 312 315 315 318 314 311 314 321 322 323 322 323 324 324 324 325 326 328 329 329 328 327 327 327 328 330 331 331 331 331 331 332 332 333 333 335 337 337 335 334 335 335 338 340 341 342 342 342 342 344
295 296 298 302 298 291 291 301 302 301 300 302 303 310 313 317 317 316 318 319 322 322 322 321 321 322 323 325 327 330 329 328 328 328 327 326 326 328 329 330 329 329 330 330 331 330 330 332 333 334 335 334 333 333 335 336 336 336 336 337 337 338 340
295 299 300 295 290 290 299 302 304 307 303 305 311 313 315 315 315 315 317 320 321 322 323 323 323 325 326 327 328 328 330 330 328 326 325 325 325 325 326 327 327 327 327 328 329 329 330 331 332 332 330 332 331 333 333 332 333 333 334 333 333 335 337
298 296 295 288 290 297 301 301 303 306 308 304 311 311 312 313 313 318 318 321 322 322 322 323 325 326 325 324 325 328 330 329 328 326 325 326 326 325 326 326 327 327 327 328 328 329 331 330 330 329 328 329 328 328 330 331 332 332 332 332 332 333 333
295 294 294 294 301 295 298 298 300 301 300 300 301 304 311 313 315 319 320 320 321 322 323 324 325 324 324 320 320 324 326 326 328 328 327 326 325 326 328 329 328 329 328 329 329 329 327 327 326 325 326 327 326 327 328 329 331 331 332 332 331 332 333
300 296 292 293 292 290 293 299 303 305 305 304 304 304 310 313 315 321 322 320 320 321 322 322 322 323 319 314 315 320 324 325 324 325 326 327 326 325 326 327 326 327 327 328 329 328 327 326 326 326 326 326 326 326 327 328 328 329 330 330 331 332 331
296 296 293 291 289 292 300 302 304 306 306 305 304 306 305 312 318 322 323 321 321 322 321 321 322 319 314 313 316 319 321 323 324 323 324 325 326 326 326 326 325 326 326 326 326 326 325 323 325 327 327 326 324 325 326 327 327 328 329 330 331 331 331
297 297 294 292 297 295 301 305 306 308 307 302 307 297 299 312 316 322 323 321 322 322 322 322 321 318 313 314 318 320 321 320 321 322 322 324 324 324 324 326 327 327 328 326 323 322 321 322 325 326 325 324 324 322 323 325 326 327 328 330 332 333 333
295 295 294 296 297 305 305 306 307 308 308 307 302 293 303 310 315 321 324 323 323 323 322 322 319 319 323 323 321 319 319 319 319 321 323 324 324 324 324 323 325 323 323 322 321 320 322 323 322 324 324 322 322 322 322 322 322 324 328 330 331 332 333
293 293 293 293 297 301 306 309 309 310 302 298 296 305 309 308 312 320 324 324 324 323 323 323 322 324 323 321 320 319 319 318 319 320 321 322 322 323 324 324 323 321 320 320 320 320 322 322 323 324 324 323 323 322 321 320 322 325 328 329 330 331 331
293 294 293 291 288 302 307 307 307 309 303 301 306 307 311 311 313 319 323 324 324 324 320 320 322 320 318 319 319 319 318 317 317 319 321 322 321 320 321 321 321 320 319 318 318 319 320 321 322 322 323 323 322 322 320 322 323 325 326 327 328 328 329
290 290 289 289 299 304 308 307 301 305 305 307 307 307 308 314 318 320 322 322 322 321 319 319 319 319 318 318 318 317 318 318 319 320 321 321 320 320 320 319 319 320 318 318 317 318 319 322 323 324 324 322 322 321 321 324 325 325 325 325 327 326 327
298 295 299 305 306 307 308 308 307 308 309 309 308 309 308 310 317 319 321 319 319 320 320 320 319 317 318 317 317 317 318 320 320 319 319 319 319 318 318 317 319 319 317 317 317 318 319 322 323 324 324 321 321 321 323 326 326 324 324 324 323 323 324
304 305 305 307 308 308 309 310 310 308 309 309 309 308 309 311 312 317 320 318 317 318 321 318 319 318 318 316 316 317 317 318 319 319 319 318 318 318 318 318 319 318 318 317 317 317 319 320 321 323 323 323 321 321 324 325 326 325 324 324 323 323 322
300 295 307 306 306 308 309 310 311 312 311 310 309 309 308 308 312 317 318 318 318 319 320 319 319 318 316 319 316 317 318 318 318 317 317 317 317 317 317 319 319 318 317 317 317 317 318 320 319 319 321 321 323 325 325 323 324 325 324 324 323 323 322
299 301 306 306 308 309 310 310 310 309 311 312 312 311 311 312 313 316 316 317 316 317 316 317 316 314 315 317 315 316 317 317 317 317 317 317 317 318 319 319 320 319 318 318 318 318 318 320 321 321 321 322 324 324 323 323 324 325 324 323 322 321 321
303 304 306 308 307 309 309 311 311 312 312 313 313 313 312 311 311 312 315 316 315 316 316 317 317 316 316 314 314 314 313 314 316 317 317 318 318 318 318 319 320 318 319 318 319 318 318 320 320 320 320 321 322 323 324 325 325 324 323 324 323 321 321
300 301 304 308 303 303 307 309 310 312 314 313 312 312 311 311 311 312 311 312 315 316 319 320 317 316 319 316 315 313 313 314 315 316 316 317 318 317 318 319 319 320 320 319 318 318 318 320 320 320 320 321 322 321 323 324 324 323 323 323 322 321 322
300 306 308 309 309 308 308 310 312 313 315 314 312 311 311 312 313 313 312 311 312 313 313 314 317 318 317 314 313 312 311 313 314 315 317 317 317 316 316 316 317 318 319 319 319 318 318 320 320 319 319 319 320 321 322 323 323 323 322 321 320 320 320
308 310 310 310 310 308 309 311 312 314 315 314 314 314 315 314 314 314 313 312 310 310 311 312 314 315 315 315 313 311 312 314 314 315 317 318 318 317 316 315 317 318 318 319 318 318 319 320 319 319 318 318 319 319 321 321 322 322 321 320 319 318 319
309 312 312 312 312 312 312 313 313 314 315 315 313 313 314 316 315 315 314 313 314 312 311 311 311 313 314 314 314 314 314 313 315 315 316 317 317 317 316 316 317 317 318 319 320 320 320 319 319 318 317 317 318 318 319 319 318 319 319 319 318 318 319

ECMWFFLT2_sfc_thetae_120.txt.gz
Theta_e
309 309 310 310 314 304 310 312 308 311 317 313 308 308 309 310 309 306 316 314 319 324 324 329 332 330 328 333 336 334 336 335 339 340 338 338 339 340 342 340 340 342 343 345 346 348 348 348 350 351 355 358 360 360 360 361 360 362 361 362 361 362 361
309 312 311 311 312 314 312 306 311 318 320 316 311 303 307 305 301 306 312 310 314 313 309 327 329 328 327 330 331 334 334 337 336 339 340 340 339 341 344 345 345 345 345 346 347 348 347 348 349 353 358 359 361 361 359 360 359 360 359 360 359 360 361
308 311 311 308 311 314 311 312 319 310 304 303 309 306 300 300 300 304 308 311 313 315 313 322 324 325 327 328 331 332 333 336 336 336 339 342 342 342 343 343 343 344 345 347 349 350 351 353 354 356 357 358 359 360 358 355 355 357 357 356 358 360 361
308 309 307 300 305 310 314 317 314 316 313 309 306 305 307 308 303 302 306 308 307 318 317 323 323 328 329 329 329 330 334 336 336 335 337 340 342 343 343 343 343 344 345 346 349 349 351 353 353 353 355 357 357 359 360 357 357 358 358 356 357 358 359
308 301 305 303 306 305 306 307 309 313 312 315 312 310 307 306 303 304 303 303 309 322 330 327 330 331 331 331 329 331 334 337 338 338 339 341 344 344 343 342 342 344 345 344 346 351 352 354 354 353 354 357 356 357 358 359 356 356 356 355 358 359 358
301 303 308 308 309 309 307 306 305 309 308 307 303 302 311 310 305 300 303 300 314 321 330 332 330 332 332 332 331 332 336 337 338 340 340 341 342 344 343 342 341 342 344 344 345 349 352 353 353 352 352 354 356 358 359 361 360 360 358 355 357 360 360
303 306 310 311 312 312 310 309 307 310 311 310 306 298 305 308 308 311 310 305 312 326 329 331 331 332 334 334 333 333 335 337 339 341 343 345 346 344 342 342 342 342 344 345 345 349 352 353 354 353 354 355 357 359 360 362 361 363 363 361 356 362 360
307 309 310 311 312 311 309 309 310 309 308 310 309 308 311 308 308 306 306 303 311 323 331 330 332 334 333 336 336 335 335 338 340 342 344 346 346 349 347 347 347 349 347 347 348 350 351 353 354 353 354 357 358 359 361 362 362 364 364 362 359 364 362
301 303 306 307 309 309 307 306 309 310 311 312 312 312 313 307 308 308 304 299 310 326 329 330 331 331 331 333 336 337 336 337 337 338 339 341 344 346 347 350 351 350 348 348 350 351 353 353 353 355 355 357 358 359 361 362 362 364 362 363 361 362 362
293 292 293 297 300 303 307 309 309 310 309 310 309 305 309 301 309 310 306 305 318 325 328 328 330 330 331 333 334 336 338 337 336 337 338 340 341 342 345 346 346 347 350 353 354 354 354 353 353 355 356 357 358 359 361 362 362 362 362 364 364 365 364
300 302 306 305 309 307 304 306 308 309 310 310 311 310 306 302 308 310 310 310 319 321 323 325 327 329 328 329 333 333 335 336 338 339 339 340 341 342 344 345 347 348 348 351 354 356 356 354 353 354 355 356 357 357 359 360 362 362 363 364 363 364 363
303 303 303 303 305 306 306 305 306 309 309 309 308 306 304 312 306 304 314 318 312 319 323 325 326 328 329 329 331 332 334 335 336 337 339 340 341 342 345 344 344 345 346 348 350 353 353 354 356 357 357 356 357 358 358 359 361 363 364 364 363 364 363
303 303 303 305 306 307 307 307 307 308 310 310 308 308 310 311 306 303 316 320 313 318 323 326 329 330 329 329 330 332 334 335 337 337 337 337 338 341 342 343 343 343 345 347 348 349 350 352 352 354 353 353 355 355 355 358 359 359 360 362 362 363 363
303 304 305 306 306 306 307 308 309 311 310 310 310 310 311 311 314 313 315 319 315 323 325 327 330 332 330 331 334 334 333 333 335 335 335 335 337 339 341 342 344 343 344 345 346 348 350 348 350 350 351 352 351 352 353 354 357 359 359 359 360 359 361
301 303 305 306 306 306 306 308 309 309 311 312 314 314 315 315 312 313 313 316 321 328 331 330 332 332 332 332 332 331 332 333 333 334 334 336 336 338 340 341 342 344 345 345 345 346 347 348 350 350 350 351 351 352 353 354 355 357 359 358 359 359 358
300 303 303 304 305 306 306 306 307 308 309 311 313 312 318 314 313 316 315 315 317 327 330 331 331 330 330 330 331 331 332 332 333 333 335 335 336 338 337 338 341 344 343 342 344 345 346 348 346 346 347 348 348 349 350 352 352 354 356 356 356 355 354
300 302 303 302 303 303 301 303 306 308 309 312 314 317 319 319 319 315 311 314 328 328 330 328 328 328 329 329 330 331 333 334 334 334 333 333 335 337 337 336 338 338 340 341 343 345 345 343 344 345 346 346 348 348 351 352 353 353 353 353 354 353 352
299 301 302 303 300 295 297 306 311 312 309 310 311 313 318 320 322 320 322 326 330 329 328 327 327 327 329 330 332 334 334 335 334 332 332 333 334 335 335 334 333 334 334 334 336 335 335 337 339 340 341 342 345 348 348 348 348 349 348 350 351 350 350
298 302 302 298 293 297 304 308 308 310 313 311 313 318 319 321 322 322 323 324 327 329 329 329 329 330 331 331 331 332 334 335 334 332 332 332 332 333 334 332 331 330 330 331 332 331 332 335 336 337 336 337 338 339 338 338 340 342 344 344 344 344 345
302 299 298 289 294 301 305 306 308 310 311 311 312 316 318 320 320 322 323 325 327 327 327 328 332 331 330 331 332 333 333 335 335 332 331 331 331 332 332 330 331 331 331 332 331 330 333 334 334 333 333 335 335 335 337 336 336 336 337 337 339 344 345
296 298 297 296 302 301 302 302 305 307 306 307 308 309 313 320 321 322 324 324 325 325 326 329 329 330 328 326 327 331 332 332 334 333 332 332 331 330 331 332 332 332 333 332 332 332 331 330 331 332 333 334 334 334 335 334 335 335 335 335 337 340 342
304 298 295 296 295 293 299 305 308 311 312 311 311 312 314 318 322 325 325 324 325 324 326 327 327 328 324 320 323 328 331 333 332 333 332 331 330 329 330 332 331 332 332 332 331 331 331 330 331 333 332 332 331 331 331 333 333 333 333 333 335 338 338
300 299 295 293 292 296 302 306 309 311 312 312 312 311 307 313 321 326 325 324 324 325 325 326 327 323 318 318 322 327 330 331 331 329 329 328 328 327 328 328 326 325 328 330 330 332 330 329 331 334 334 333 330 329 329 330 332 331 331 332 334 337 338
301 300 295 293 300 300 307 309 309 311 312 311 310 301 302 311 313 323 325 324 324 325 327 326 325 322 319 320 323 327 328 330 329 329 327 326 325 325 326 327 329 329 329 329 328 328 329 331 331 332 332 331 331 329 329 329 329 330 331 333 334 336 338
299 299 299 301 301 307 310 311 311 312 311 309 301 295 307 313 316 319 327 327 327 327 326 326 323 325 328 328 329 330 329 328 329 331 329 327 326 326 327 328 332 329 328 328 327 328 329 330 329 330 330 329 329 329 328 328 327 329 333 334 334 334 335
298 299 296 298 303 308 312 314 313 315 310 302 297 308 315 315 316 321 327 328 328 328 328 328 329 328 329 329 329 329 330 330 330 330 329 328 328 330 331 331 329 327 326 326 326 326 328 328 328 329 329 328 328 329 328 326 328 330 331 332 334 336 336
300 299 296 295 290 307 313 313 314 315 307 307 311 313 315 317 318 320 325 327 330 329 328 330 329 327 326 327 327 329 330 329 329 329 329 329 328 328 328 328 327 326 324 323 323 324 324 324 325 326 327 326 326 327 326 327 329 330 331 331 332 334 335
297 296 294 294 305 310 314 312 306 310 312 313 315 314 314 316 321 324 325 328 330 330 330 327 327 326 326 326 327 329 329 328 328 329 330 330 330 329 328 327 327 327 325 325 324 326 326 328 327 327 327 325 325 324 324 327 328 329 330 330 331 332 333
304 301 304 310 313 314 314 313 313 314 316 316 316 316 316 317 319 323 326 326 327 329 331 328 326 326 326 326 327 326 327 328 329 330 330 330 330 328 328 327 328 327 325 325 324 325 326 328 328 329 328 326 325 324 325 327 326 326 327 329 330 329 329
312 313 313 314 314 314 314 315 316 316 317 318 318 318 317 319 321 324 324 326 326 328 330 327 326 326 327 324 324 324 325 326 328 328 328 328 328 328 327 327 327 326 325 325 324 323 324 326 326 328 326 327 326 326 327 328 327 325 325 325 326 326 327
305 299 314 312 313 314 315 315 316 318 318 317 318 318 319 320 322 324 325 326 327 328 329 327 324 324 325 324 324 325 325 323 325 326 326 326 326 325 326 326 326 325 324 322 323 323 322 324 324 324 325 325 326 328 328 326 327 328 327 325 325 325 325
305 306 311 313 314 315 315 315 315 315 316 316 317 318 320 322 323 323 324 325 325 327 326 326 324 324 326 323 321 322 324 324 323 323 324 324 325 326 326 325 325 324 323 323 324 324 323 325 325 325 326 326 327 327 325 327 327 328 326 325 324 324 324
307 312 313 314 315 314 315 316 317 318 317 316 316 317 318 320 321 322 323 324 325 325 326 325 322 320 321 322 322 321 322 323 324 324 324 324 324 324 324 324 324 324 324 324 324 323 322 323 323 323 322 322 324 326 326 327 328 327 325 324 325 323 324
304 308 311 314 308 309 312 314 316 317 319 318 317 317 317 316 318 320 320 321 324 324 324 324 322 320 320 320 321 320 321 322 322 322 321 322 322 324 325 325 326 325 325 325 323 322 321 322 322 322 323 324 325 324 327 328 328 327 326 326 325 324 326
304 310 315 316 315 313 314 316 318 318 319 319 318 317 316 317 317 318 318 319 320 320 323 324 323 324 323 322 322 320 319 321 322 322 320 320 320 321 322 322 323 323 324 325 325 323 322 322 321 321 322 323 324 325 327 327 327 326 326 325 324 324 325
314 316 315 317 317 314 315 317 318 319 320 319 318 318 319 319 318 318 318 318 317 318 319 321 324 325 326 325 324 322 323 323 322 321 321 322 321 320 320 320 320 321 322 323 323 323 323 322 322 323 323 323 324 324 325 326 326 326 325 324 323 323 323
313 317 318 318 318 317 318 318 319 319 320 320 318 318 318 320 320 320 318 318 318 318 318 318 319 323 325 323 324 325 324 323 322 321 320 320 320 319 319 318 319 321 321 323 324 323 322 322 322 322 322 322 323 323 324 323 323 323 323 323 323 323 323

ECMWFFLT2_sfc_thetae_123.txt.gz
Theta_e
311 310 312 312 313 302 312 313 308 312 320 316 309 311 313 312 308 305 314 313 317 324 327 330 332 331 334 333 331 331 334 336 334 335 334 335 335 336 336 337 338 340 340 342 345 346 346 347 346 347 350 352 354 354 354 357 359 359 359 362 360 360 361
311 313 312 312 313 313 312 308 312 318 321 318 310 303 307 306 301 304 311 309 311 314 310 326 328 326 327 332 330 328 332 334 335 334 334 335 335 337 338 339 340 341 343 344 346 346 346 346 346 348 350 352 353 354 354 353 356 357 358 358 358 359 360
310 313 312 309 312 314 311 311 317 310 306 305 311 308 301 303 300 303 307 311 312 313 314 321 321 324 326 329 331 329 330 334 336 333 333 335 336 337 337 337 338 339 341 342 345 346 348 348 351 349 349 351 351 352 352 350 351 354 355 354 356 358 359
309 310 308 301 304 310 313 315 312 317 313 310 308 309 308 306 303 300 304 309 309 318 320 323 324 324 327 329 332 330 327 331 336 338 335 335 336 337 337 338 338 339 340 342 344 345 346 348 347 348 349 351 351 351 351 350 350 353 354 353 354 356 356
308 302 306 304 306 303 305 307 307 312 312 317 314 313 308 305 303 302 302 302 309 321 327 326 326 328 329 330 330 334 334 332 334 339 340 336 337 338 338 337 339 339 340 341 343 347 346 347 349 347 349 352 351 351 349 350 348 349 350 351 353 355 355
303 304 309 308 309 309 307 305 305 310 309 306 303 304 312 309 306 300 303 300 313 325 331 328 326 328 330 332 332 334 335 334 334 339 342 341 340 339 339 339 338 338 341 342 344 346 348 346 347 345 348 350 350 354 354 353 352 352 352 350 353 356 356
304 307 310 311 311 312 310 309 306 310 311 311 308 299 305 309 309 311 309 306 310 328 332 332 330 331 331 333 333 332 335 336 337 338 341 343 343 343 344 341 339 340 341 342 344 347 349 349 350 348 348 351 353 355 355 354 352 352 354 353 351 357 354
309 309 311 311 311 311 309 310 311 309 306 310 309 309 311 308 310 306 305 303 311 326 332 332 331 333 334 336 335 336 337 338 339 337 339 345 345 341 340 342 340 342 342 343 343 346 348 350 349 348 350 356 358 356 358 356 353 353 354 353 353 357 355
304 304 308 307 310 309 307 308 310 310 310 310 311 313 314 306 309 310 306 301 313 326 333 333 333 334 332 333 336 337 335 338 339 341 342 345 347 345 343 341 340 341 341 341 345 347 354 355 354 353 351 355 359 360 361 361 356 357 354 353 352 355 356
294 294 295 298 301 304 307 309 309 310 309 309 308 305 307 300 309 312 309 307 318 328 331 330 331 332 334 335 336 338 339 338 337 341 345 348 349 349 350 348 344 343 346 346 347 351 355 355 354 357 358 359 361 362 363 365 362 361 359 356 357 359 358
300 302 306 310 310 307 303 305 306 308 309 309 310 310 306 302 308 309 312 315 312 322 325 326 329 331 330 333 336 333 337 340 342 345 344 348 347 347 349 350 351 352 352 350 353 356 355 355 355 357 358 359 361 362 362 363 365 365 364 362 359 360 358
307 307 307 309 309 307 306 305 305 307 309 309 308 306 305 312 309 305 313 316 314 317 322 326 328 331 331 332 333 337 337 338 339 341 344 344 346 345 348 348 349 349 352 354 355 357 357 355 355 357 358 359 361 362 361 362 364 364 365 365 363 363 362
306 307 307 309 308 308 308 307 307 306 308 310 307 308 310 311 307 305 314 317 315 315 320 328 329 329 332 333 333 337 338 339 340 340 340 339 339 342 344 347 348 349 348 349 351 350 354 356 357 358 357 358 361 361 362 364 363 363 366 366 366 366 364
305 306 307 308 308 307 307 307 308 310 309 308 308 309 310 309 310 312 313 315 314 321 325 324 328 332 333 333 337 336 336 337 338 337 338 338 339 341 341 342 345 348 349 349 349 350 350 351 353 355 356 358 358 358 359 361 362 365 365 366 365 365 364
304 306 308 309 308 307 307 308 310 310 310 310 310 310 310 311 311 312 314 315 313 325 330 325 331 334 334 333 334 333 334 337 336 336 337 339 340 340 341 343 344 347 350 351 350 348 349 349 351 351 354 356 356 358 358 358 360 363 365 363 365 366 365
302 305 306 307 308 307 307 307 308 309 309 307 309 309 311 311 310 312 312 311 313 325 328 331 332 332 332 331 332 333 334 335 335 336 336 337 339 341 342 344 345 347 348 349 348 348 350 351 351 352 353 354 354 355 356 357 359 361 361 361 361 363 364
300 305 306 305 306 305 303 305 308 310 310 314 315 316 316 316 318 314 311 311 324 327 329 327 327 330 331 332 333 333 334 336 336 339 339 338 339 342 344 344 345 346 346 346 348 349 350 350 352 354 356 354 353 355 355 358 360 360 360 359 360 361 362
299 303 305 306 302 296 297 308 310 312 311 311 313 314 317 319 319 318 323 324 329 328 328 327 327 329 331 333 335 337 337 336 337 338 339 339 339 340 340 340 339 341 342 342 342 342 344 347 347 349 351 349 348 351 352 354 355 355 356 356 358 358 359
298 302 303 299 295 295 306 310 312 312 313 313 315 316 319 319 320 321 322 323 326 327 329 328 330 332 334 335 335 337 338 338 337 335 335 336 336 335 335 336 338 340 340 340 341 341 340 341 343 343 342 343 345 345 345 344 345 346 349 349 350 354 355
302 299 299 291 293 304 307 309 311 314 315 314 314 315 316 318 319 321 322 324 326 327 328 330 330 333 334 334 335 336 338 339 337 335 334 335 335 334 335 336 337 338 338 339 338 338 339 339 338 338 338 340 339 339 342 342 342 344 345 345 346 349 350
296 299 299 298 305 303 306 307 308 311 308 310 312 309 311 319 322 321 325 326 326 327 328 331 333 333 332 330 330 335 335 336 337 337 336 335 333 335 336 337 336 336 336 336 336 337 338 337 336 336 338 339 338 338 338 339 339 341 343 345 345 346 348
303 298 296 297 298 297 304 310 312 315 314 314 316 316 309 316 321 325 323 323 325 326 328 329 330 330 327 323 325 330 333 335 334 334 334 335 335 336 336 336 335 335 335 334 334 334 335 335 336 337 337 336 336 336 335 336 336 336 338 340 342 343 345
301 299 295 294 294 298 308 310 312 313 316 314 316 314 307 312 319 323 324 324 326 327 328 330 329 326 321 322 324 330 332 333 333 332 333 333 334 334 334 334 333 334 335 336 336 336 334 332 334 335 335 334 332 332 332 333 334 334 335 336 339 342 343
301 299 296 294 303 302 309 313 313 314 315 316 313 300 303 312 317 322 325 324 324 329 331 330 328 326 320 320 326 331 332 332 332 332 331 331 331 331 332 333 333 334 336 336 334 334 334 334 335 335 333 331 330 329 331 333 333 333 334 335 337 341 342
299 300 299 302 303 310 311 313 314 317 315 310 301 294 304 315 319 323 326 326 327 330 331 331 327 329 330 330 332 333 333 330 329 330 330 330 330 330 329 329 332 329 330 329 331 332 334 333 330 329 327 328 329 330 329 330 331 334 336 337 336 338 340
299 299 297 299 304 310 314 316 317 318 312 302 300 309 319 319 321 325 325 325 329 330 330 328 327 330 331 331 331 331 331 331 329 327 327 327 327 328 329 330 328 327 328 328 327 327 330 330 330 331 332 331 330 330 329 328 329 331 334 336 340 339 338
301 301 297 295 291 309 315 317 315 317 309 307 314 317 320 321 324 325 325 326 330 328 328 329 328 328 328 330 332 332 332 331 331 330 330 329 326 328 329 330 328 327 325 322 322 325 326 328 330 331 331 331 330 330 329 329 331 332 329 330 334 335 337
299 298 294 294 306 311 316 316 308 313 316 318 320 320 318 322 323 325 326 327 330 329 328 328 326 328 328 329 330 330 330 330 330 331 329 328 325 327 327 326 325 326 325 325 324 324 324 327 328 330 331 329 329 329 330 332 333 333 332 334 334 333 335
306 302 305 311 315 315 316 318 317 319 321 322 323 323 323 322 325 328 326 326 327 330 328 327 325 325 328 329 330 330 330 330 330 330 330 327 327 327 326 325 327 326 326 326 326 328 328 329 328 329 330 329 328 327 329 331 331 331 331 331 331 330 331
313 314 314 314 315 316 316 318 320 319 320 321 323 323 323 324 326 327 326 326 327 330 330 329 326 326 327 328 328 328 329 330 330 331 329 328 328 328 327 327 327 327 327 327 326 325 325 326 327 328 327 328 327 327 329 329 329 329 330 330 330 329 329
305 299 313 314 315 316 317 317 320 321 321 321 322 323 324 325 326 327 327 328 329 330 331 330 328 328 329 328 328 329 330 330 329 328 327 328 327 326 326 328 327 326 326 323 323 324 324 326 326 326 327 326 326 327 328 326 327 328 328 329 328 327 327
305 307 313 314 316 318 319 318 318 319 320 320 321 322 325 326 327 327 326 327 326 328 328 330 329 327 328 327 327 327 328 327 328 328 328 329 328 328 328 327 328 326 326 324 324 324 324 327 327 327 327 327 329 329 329 330 329 328 328 327 325 325 324
308 313 315 316 317 317 318 319 320 321 321 321 321 321 321 323 324 325 326 326 328 328 328 330 331 329 327 328 329 328 327 327 327 327 328 328 328 330 326 326 327 326 327 326 325 323 323 325 326 326 326 326 326 327 328 329 329 330 328 326 326 325 325
305 307 310 313 308 308 315 318 319 321 323 323 322 322 321 320 321 323 324 324 326 325 327 328 328 328 326 327 328 328 327 327 329 328 328 328 327 327 327 327 326 326 326 325 324 323 324 326 327 327 327 327 329 328 330 331 330 329 328 327 327 327 329
304 313 315 315 317 316 318 319 321 321 323 323 321 321 322 322 322 321 321 322 323 325 327 328 328 327 327 326 327 326 326 326 327 328 328 327 328 326 326 326 325 326 326 325 324 323 323 324 324 325 326 327 329 329 330 330 330 329 329 327 326 325 327
315 318 317 319 320 316 318 320 321 321 323 322 321 321 322 322 323 323 322 321 320 321 323 325 328 328 328 328 327 326 325 327 327 326 327 330 330 329 328 326 325 324 325 325 326 325 325 325 325 325 324 326 328 327 329 330 329 329 329 327 326 326 326
317 320 320 320 319 319 320 321 321 322 322 322 321 321 321 320 321 323 323 322 322 321 320 321 323 326 328 329 328 328 326 326 326 325 327 326 326 325 323 323 324 325 325 324 325 323 323 324 325 325 325 325 326 326 328 328 328 327 327 327 327 326 327